<?xml version="1.0" encoding="UTF-8" standalone="no" ?>
<gpx xmlns="http://www.topografix.com/GPX/1/1" xmlns:xsi="http://www.w3.org/2001/XMLSchema-instance" xsi:schemaLocation="http://www.topografix.com/GPX/1/1 http://www.topografix.com/GPX/1/1/gpx.xsd" version="1.1" creator="VisuGPX - https://www.visugpx.com">
  <metadata>
    <name>L'Isle-sur-le-Doubs</name>
    <desc><![CDATA[L'Isle-sur-le-Doubs==>Clerval==>Colombier-Fontiane]]></desc>
  </metadata>
  <trk>
    <name><![CDATA[Sequence 1]]></name>
    <trkseg>
      <trkpt lat="47.44918" lon="6.58255">
        <ele>291</ele>
        <time>2016-09-03T07:55:43Z</time>
      </trkpt>
      <trkpt lat="47.44917" lon="6.58255">
        <ele>291</ele>
        <time>2016-09-03T07:55:45Z</time>
      </trkpt>
      <trkpt lat="47.44917" lon="6.58255">
        <ele>291</ele>
        <time>2016-09-03T07:55:47Z</time>
      </trkpt>
      <trkpt lat="47.44917" lon="6.58256">
        <ele>291</ele>
        <time>2016-09-03T07:55:50Z</time>
      </trkpt>
      <trkpt lat="47.44917" lon="6.58256">
        <ele>291</ele>
        <time>2016-09-03T07:55:51Z</time>
      </trkpt>
      <trkpt lat="47.44917" lon="6.58256">
        <ele>291</ele>
        <time>2016-09-03T07:55:53Z</time>
      </trkpt>
      <trkpt lat="47.44917" lon="6.58255">
        <ele>291</ele>
        <time>2016-09-03T07:55:55Z</time>
      </trkpt>
      <trkpt lat="47.44917" lon="6.58256">
        <ele>291</ele>
        <time>2016-09-03T07:55:57Z</time>
      </trkpt>
      <trkpt lat="47.44917" lon="6.58256">
        <ele>291</ele>
        <time>2016-09-03T07:55:59Z</time>
      </trkpt>
      <trkpt lat="47.44917" lon="6.58256">
        <ele>291</ele>
        <time>2016-09-03T07:56:01Z</time>
      </trkpt>
      <trkpt lat="47.44917" lon="6.58256">
        <ele>291</ele>
        <time>2016-09-03T07:56:03Z</time>
      </trkpt>
      <trkpt lat="47.44917" lon="6.58256">
        <ele>291</ele>
        <time>2016-09-03T07:56:05Z</time>
      </trkpt>
      <trkpt lat="47.44918" lon="6.58255">
        <ele>291</ele>
        <time>2016-09-03T07:56:07Z</time>
      </trkpt>
      <trkpt lat="47.44919" lon="6.58255">
        <ele>291</ele>
        <time>2016-09-03T07:56:09Z</time>
      </trkpt>
      <trkpt lat="47.44919" lon="6.58255">
        <ele>291</ele>
        <time>2016-09-03T07:56:11Z</time>
      </trkpt>
      <trkpt lat="47.44918" lon="6.58254">
        <ele>291</ele>
        <time>2016-09-03T07:56:13Z</time>
      </trkpt>
      <trkpt lat="47.44918" lon="6.58255">
        <ele>291</ele>
        <time>2016-09-03T07:56:15Z</time>
      </trkpt>
      <trkpt lat="47.44917" lon="6.58252">
        <ele>291</ele>
        <time>2016-09-03T07:56:18Z</time>
      </trkpt>
      <trkpt lat="47.44915" lon="6.58251">
        <ele>291</ele>
        <time>2016-09-03T07:56:19Z</time>
      </trkpt>
      <trkpt lat="47.44913" lon="6.58244">
        <ele>291</ele>
        <time>2016-09-03T07:56:22Z</time>
      </trkpt>
      <trkpt lat="47.44911" lon="6.58242">
        <ele>291</ele>
        <time>2016-09-03T07:56:23Z</time>
      </trkpt>
      <trkpt lat="47.4491" lon="6.58238">
        <ele>291</ele>
        <time>2016-09-03T07:56:25Z</time>
      </trkpt>
      <trkpt lat="47.44908" lon="6.58232">
        <ele>291</ele>
        <time>2016-09-03T07:56:27Z</time>
      </trkpt>
      <trkpt lat="47.44908" lon="6.58225">
        <ele>291</ele>
        <time>2016-09-03T07:56:29Z</time>
      </trkpt>
      <trkpt lat="47.44911" lon="6.5822">
        <ele>291</ele>
        <time>2016-09-03T07:56:31Z</time>
      </trkpt>
      <trkpt lat="47.44917" lon="6.58211">
        <ele>291</ele>
        <time>2016-09-03T07:56:34Z</time>
      </trkpt>
      <trkpt lat="47.44919" lon="6.58208">
        <ele>291</ele>
        <time>2016-09-03T07:56:35Z</time>
      </trkpt>
      <trkpt lat="47.44924" lon="6.58201">
        <ele>291</ele>
        <time>2016-09-03T07:56:37Z</time>
      </trkpt>
      <trkpt lat="47.44927" lon="6.58197">
        <ele>291</ele>
        <time>2016-09-03T07:56:39Z</time>
      </trkpt>
      <trkpt lat="47.44928" lon="6.58193">
        <ele>291</ele>
        <time>2016-09-03T07:56:41Z</time>
      </trkpt>
      <trkpt lat="47.44933" lon="6.58186">
        <ele>291</ele>
        <time>2016-09-03T07:56:43Z</time>
      </trkpt>
      <trkpt lat="47.44937" lon="6.58177">
        <ele>291</ele>
        <time>2016-09-03T07:56:45Z</time>
      </trkpt>
      <trkpt lat="47.44944" lon="6.58167">
        <ele>291</ele>
        <time>2016-09-03T07:56:47Z</time>
      </trkpt>
      <trkpt lat="47.4495" lon="6.58155">
        <ele>291</ele>
        <time>2016-09-03T07:56:49Z</time>
      </trkpt>
      <trkpt lat="47.44956" lon="6.58144">
        <ele>291</ele>
        <time>2016-09-03T07:56:51Z</time>
      </trkpt>
      <trkpt lat="47.44963" lon="6.58134">
        <ele>291</ele>
        <time>2016-09-03T07:56:53Z</time>
      </trkpt>
      <trkpt lat="47.44969" lon="6.58124">
        <ele>291</ele>
        <time>2016-09-03T07:56:55Z</time>
      </trkpt>
      <trkpt lat="47.44976" lon="6.58113">
        <ele>291</ele>
        <time>2016-09-03T07:56:57Z</time>
      </trkpt>
      <trkpt lat="47.44985" lon="6.58099">
        <ele>290</ele>
        <time>2016-09-03T07:57:00Z</time>
      </trkpt>
      <trkpt lat="47.44988" lon="6.58093">
        <ele>290</ele>
        <time>2016-09-03T07:57:01Z</time>
      </trkpt>
      <trkpt lat="47.44998" lon="6.58078">
        <ele>290</ele>
        <time>2016-09-03T07:57:04Z</time>
      </trkpt>
      <trkpt lat="47.45003" lon="6.58068">
        <ele>290</ele>
        <time>2016-09-03T07:57:06Z</time>
      </trkpt>
      <trkpt lat="47.45006" lon="6.58064">
        <ele>290</ele>
        <time>2016-09-03T07:57:07Z</time>
      </trkpt>
      <trkpt lat="47.45011" lon="6.58055">
        <ele>290</ele>
        <time>2016-09-03T07:57:09Z</time>
      </trkpt>
      <trkpt lat="47.45016" lon="6.5805">
        <ele>290</ele>
        <time>2016-09-03T07:57:11Z</time>
      </trkpt>
      <trkpt lat="47.45022" lon="6.58049">
        <ele>290</ele>
        <time>2016-09-03T07:57:13Z</time>
      </trkpt>
      <trkpt lat="47.45026" lon="6.58042">
        <ele>290</ele>
        <time>2016-09-03T07:57:15Z</time>
      </trkpt>
      <trkpt lat="47.45031" lon="6.58031">
        <ele>290</ele>
        <time>2016-09-03T07:57:17Z</time>
      </trkpt>
      <trkpt lat="47.45037" lon="6.5802">
        <ele>290</ele>
        <time>2016-09-03T07:57:19Z</time>
      </trkpt>
      <trkpt lat="47.45049" lon="6.57999">
        <ele>290</ele>
        <time>2016-09-03T07:57:22Z</time>
      </trkpt>
      <trkpt lat="47.45058" lon="6.5798">
        <ele>290</ele>
        <time>2016-09-03T07:57:24Z</time>
      </trkpt>
      <trkpt lat="47.45064" lon="6.57971">
        <ele>290</ele>
        <time>2016-09-03T07:57:25Z</time>
      </trkpt>
      <trkpt lat="47.45079" lon="6.57943">
        <ele>290</ele>
        <time>2016-09-03T07:57:28Z</time>
      </trkpt>
      <trkpt lat="47.45084" lon="6.57934">
        <ele>290</ele>
        <time>2016-09-03T07:57:29Z</time>
      </trkpt>
      <trkpt lat="47.45092" lon="6.57914">
        <ele>290</ele>
        <time>2016-09-03T07:57:31Z</time>
      </trkpt>
      <trkpt lat="47.45101" lon="6.57899">
        <ele>290</ele>
        <time>2016-09-03T07:57:33Z</time>
      </trkpt>
      <trkpt lat="47.45106" lon="6.57885">
        <ele>290</ele>
        <time>2016-09-03T07:57:35Z</time>
      </trkpt>
      <trkpt lat="47.45112" lon="6.57868">
        <ele>291</ele>
        <time>2016-09-03T07:57:37Z</time>
      </trkpt>
      <trkpt lat="47.45121" lon="6.57853">
        <ele>294</ele>
        <time>2016-09-03T07:57:39Z</time>
      </trkpt>
      <trkpt lat="47.45133" lon="6.5783">
        <ele>301</ele>
        <time>2016-09-03T07:57:42Z</time>
      </trkpt>
      <trkpt lat="47.4514" lon="6.57821">
        <ele>306</ele>
        <time>2016-09-03T07:57:44Z</time>
      </trkpt>
      <trkpt lat="47.45142" lon="6.57819">
        <ele>308</ele>
        <time>2016-09-03T07:57:45Z</time>
      </trkpt>
      <trkpt lat="47.45145" lon="6.57813">
        <ele>311</ele>
        <time>2016-09-03T07:57:48Z</time>
      </trkpt>
      <trkpt lat="47.45145" lon="6.57812">
        <ele>311</ele>
        <time>2016-09-03T07:57:49Z</time>
      </trkpt>
      <trkpt lat="47.45146" lon="6.57812">
        <ele>311</ele>
        <time>2016-09-03T07:57:51Z</time>
      </trkpt>
      <trkpt lat="47.45149" lon="6.57807">
        <ele>314</ele>
        <time>2016-09-03T07:57:53Z</time>
      </trkpt>
      <trkpt lat="47.45146" lon="6.57801">
        <ele>316</ele>
        <time>2016-09-03T07:57:55Z</time>
      </trkpt>
      <trkpt lat="47.45134" lon="6.57792">
        <ele>317</ele>
        <time>2016-09-03T07:57:57Z</time>
      </trkpt>
      <trkpt lat="47.45126" lon="6.57782">
        <ele>319</ele>
        <time>2016-09-03T07:57:59Z</time>
      </trkpt>
      <trkpt lat="47.45114" lon="6.5777">
        <ele>320</ele>
        <time>2016-09-03T07:58:01Z</time>
      </trkpt>
      <trkpt lat="47.45097" lon="6.57753">
        <ele>322</ele>
        <time>2016-09-03T07:58:04Z</time>
      </trkpt>
      <trkpt lat="47.45092" lon="6.57747">
        <ele>323</ele>
        <time>2016-09-03T07:58:05Z</time>
      </trkpt>
      <trkpt lat="47.45082" lon="6.57737">
        <ele>325</ele>
        <time>2016-09-03T07:58:07Z</time>
      </trkpt>
      <trkpt lat="47.45067" lon="6.57723">
        <ele>325</ele>
        <time>2016-09-03T07:58:10Z</time>
      </trkpt>
      <trkpt lat="47.45062" lon="6.5772">
        <ele>325</ele>
        <time>2016-09-03T07:58:11Z</time>
      </trkpt>
      <trkpt lat="47.45051" lon="6.57709">
        <ele>327</ele>
        <time>2016-09-03T07:58:13Z</time>
      </trkpt>
      <trkpt lat="47.4504" lon="6.57704">
        <ele>328</ele>
        <time>2016-09-03T07:58:15Z</time>
      </trkpt>
      <trkpt lat="47.4503" lon="6.57698">
        <ele>327</ele>
        <time>2016-09-03T07:58:17Z</time>
      </trkpt>
      <trkpt lat="47.45018" lon="6.57691">
        <ele>327</ele>
        <time>2016-09-03T07:58:19Z</time>
      </trkpt>
      <trkpt lat="47.45006" lon="6.57685">
        <ele>327</ele>
        <time>2016-09-03T07:58:21Z</time>
      </trkpt>
      <trkpt lat="47.44994" lon="6.5768">
        <ele>327</ele>
        <time>2016-09-03T07:58:23Z</time>
      </trkpt>
      <trkpt lat="47.44977" lon="6.57672">
        <ele>328</ele>
        <time>2016-09-03T07:58:26Z</time>
      </trkpt>
      <trkpt lat="47.44966" lon="6.57666">
        <ele>329</ele>
        <time>2016-09-03T07:58:28Z</time>
      </trkpt>
      <trkpt lat="47.44959" lon="6.57663">
        <ele>329</ele>
        <time>2016-09-03T07:58:29Z</time>
      </trkpt>
      <trkpt lat="47.44948" lon="6.5766">
        <ele>328</ele>
        <time>2016-09-03T07:58:31Z</time>
      </trkpt>
      <trkpt lat="47.44937" lon="6.57654">
        <ele>328</ele>
        <time>2016-09-03T07:58:33Z</time>
      </trkpt>
      <trkpt lat="47.44925" lon="6.57647">
        <ele>328</ele>
        <time>2016-09-03T07:58:35Z</time>
      </trkpt>
      <trkpt lat="47.44912" lon="6.57644">
        <ele>328</ele>
        <time>2016-09-03T07:58:37Z</time>
      </trkpt>
      <trkpt lat="47.449" lon="6.57639">
        <ele>329</ele>
        <time>2016-09-03T07:58:39Z</time>
      </trkpt>
      <trkpt lat="47.44887" lon="6.57635">
        <ele>329</ele>
        <time>2016-09-03T07:58:41Z</time>
      </trkpt>
      <trkpt lat="47.44875" lon="6.57628">
        <ele>329</ele>
        <time>2016-09-03T07:58:43Z</time>
      </trkpt>
      <trkpt lat="47.44854" lon="6.57624">
        <ele>329</ele>
        <time>2016-09-03T07:58:46Z</time>
      </trkpt>
      <trkpt lat="47.44848" lon="6.57623">
        <ele>329</ele>
        <time>2016-09-03T07:58:47Z</time>
      </trkpt>
      <trkpt lat="47.44834" lon="6.57623">
        <ele>328</ele>
        <time>2016-09-03T07:58:49Z</time>
      </trkpt>
      <trkpt lat="47.44821" lon="6.5762">
        <ele>329</ele>
        <time>2016-09-03T07:58:51Z</time>
      </trkpt>
      <trkpt lat="47.44807" lon="6.57619">
        <ele>329</ele>
        <time>2016-09-03T07:58:53Z</time>
      </trkpt>
      <trkpt lat="47.44793" lon="6.57617">
        <ele>329</ele>
        <time>2016-09-03T07:58:55Z</time>
      </trkpt>
      <trkpt lat="47.44781" lon="6.57614">
        <ele>329</ele>
        <time>2016-09-03T07:58:57Z</time>
      </trkpt>
      <trkpt lat="47.44763" lon="6.57612">
        <ele>328</ele>
        <time>2016-09-03T07:59:00Z</time>
      </trkpt>
      <trkpt lat="47.44756" lon="6.57609">
        <ele>328</ele>
        <time>2016-09-03T07:59:01Z</time>
      </trkpt>
      <trkpt lat="47.44736" lon="6.57609">
        <ele>325</ele>
        <time>2016-09-03T07:59:04Z</time>
      </trkpt>
      <trkpt lat="47.44732" lon="6.57605">
        <ele>324</ele>
        <time>2016-09-03T07:59:05Z</time>
      </trkpt>
      <trkpt lat="47.44715" lon="6.576">
        <ele>322</ele>
        <time>2016-09-03T07:59:08Z</time>
      </trkpt>
      <trkpt lat="47.44708" lon="6.57596">
        <ele>320</ele>
        <time>2016-09-03T07:59:09Z</time>
      </trkpt>
      <trkpt lat="47.44691" lon="6.57585">
        <ele>316</ele>
        <time>2016-09-03T07:59:12Z</time>
      </trkpt>
      <trkpt lat="47.44687" lon="6.5758">
        <ele>316</ele>
        <time>2016-09-03T07:59:13Z</time>
      </trkpt>
      <trkpt lat="47.44676" lon="6.57572">
        <ele>313</ele>
        <time>2016-09-03T07:59:15Z</time>
      </trkpt>
      <trkpt lat="47.44661" lon="6.5756">
        <ele>311</ele>
        <time>2016-09-03T07:59:18Z</time>
      </trkpt>
      <trkpt lat="47.44656" lon="6.57557">
        <ele>310</ele>
        <time>2016-09-03T07:59:19Z</time>
      </trkpt>
      <trkpt lat="47.44646" lon="6.5755">
        <ele>308</ele>
        <time>2016-09-03T07:59:21Z</time>
      </trkpt>
      <trkpt lat="47.44635" lon="6.57537">
        <ele>307</ele>
        <time>2016-09-03T07:59:23Z</time>
      </trkpt>
      <trkpt lat="47.4462" lon="6.57517">
        <ele>305</ele>
        <time>2016-09-03T07:59:26Z</time>
      </trkpt>
      <trkpt lat="47.44614" lon="6.5751">
        <ele>304</ele>
        <time>2016-09-03T07:59:27Z</time>
      </trkpt>
      <trkpt lat="47.44606" lon="6.57496">
        <ele>304</ele>
        <time>2016-09-03T07:59:29Z</time>
      </trkpt>
      <trkpt lat="47.44597" lon="6.57481">
        <ele>303</ele>
        <time>2016-09-03T07:59:31Z</time>
      </trkpt>
      <trkpt lat="47.44585" lon="6.57462">
        <ele>302</ele>
        <time>2016-09-03T07:59:34Z</time>
      </trkpt>
      <trkpt lat="47.44581" lon="6.57456">
        <ele>301</ele>
        <time>2016-09-03T07:59:35Z</time>
      </trkpt>
      <trkpt lat="47.44573" lon="6.57441">
        <ele>301</ele>
        <time>2016-09-03T07:59:37Z</time>
      </trkpt>
      <trkpt lat="47.44567" lon="6.57425">
        <ele>300</ele>
        <time>2016-09-03T07:59:39Z</time>
      </trkpt>
      <trkpt lat="47.4456" lon="6.57411">
        <ele>299</ele>
        <time>2016-09-03T07:59:41Z</time>
      </trkpt>
      <trkpt lat="47.44552" lon="6.57393">
        <ele>299</ele>
        <time>2016-09-03T07:59:43Z</time>
      </trkpt>
      <trkpt lat="47.44546" lon="6.57375">
        <ele>298</ele>
        <time>2016-09-03T07:59:45Z</time>
      </trkpt>
      <trkpt lat="47.44536" lon="6.5735">
        <ele>298</ele>
        <time>2016-09-03T07:59:48Z</time>
      </trkpt>
      <trkpt lat="47.4453" lon="6.57333">
        <ele>298</ele>
        <time>2016-09-03T07:59:50Z</time>
      </trkpt>
      <trkpt lat="47.44521" lon="6.57318">
        <ele>298</ele>
        <time>2016-09-03T07:59:52Z</time>
      </trkpt>
      <trkpt lat="47.44517" lon="6.57309">
        <ele>298</ele>
        <time>2016-09-03T07:59:53Z</time>
      </trkpt>
      <trkpt lat="47.4451" lon="6.5729">
        <ele>299</ele>
        <time>2016-09-03T07:59:55Z</time>
      </trkpt>
      <trkpt lat="47.445" lon="6.57277">
        <ele>300</ele>
        <time>2016-09-03T07:59:57Z</time>
      </trkpt>
      <trkpt lat="47.4449" lon="6.57251">
        <ele>303</ele>
        <time>2016-09-03T08:00:00Z</time>
      </trkpt>
      <trkpt lat="47.44487" lon="6.57245">
        <ele>304</ele>
        <time>2016-09-03T08:00:01Z</time>
      </trkpt>
      <trkpt lat="47.44474" lon="6.57227">
        <ele>305</ele>
        <time>2016-09-03T08:00:04Z</time>
      </trkpt>
      <trkpt lat="47.44468" lon="6.57222">
        <ele>305</ele>
        <time>2016-09-03T08:00:05Z</time>
      </trkpt>
      <trkpt lat="47.44457" lon="6.57208">
        <ele>305</ele>
        <time>2016-09-03T08:00:07Z</time>
      </trkpt>
      <trkpt lat="47.44438" lon="6.57194">
        <ele>303</ele>
        <time>2016-09-03T08:00:10Z</time>
      </trkpt>
      <trkpt lat="47.44432" lon="6.57189">
        <ele>302</ele>
        <time>2016-09-03T08:00:11Z</time>
      </trkpt>
      <trkpt lat="47.4442" lon="6.57177">
        <ele>300</ele>
        <time>2016-09-03T08:00:13Z</time>
      </trkpt>
      <trkpt lat="47.44407" lon="6.57168">
        <ele>298</ele>
        <time>2016-09-03T08:00:15Z</time>
      </trkpt>
      <trkpt lat="47.44395" lon="6.57159">
        <ele>296</ele>
        <time>2016-09-03T08:00:17Z</time>
      </trkpt>
      <trkpt lat="47.44383" lon="6.5715">
        <ele>294</ele>
        <time>2016-09-03T08:00:19Z</time>
      </trkpt>
      <trkpt lat="47.44369" lon="6.57139">
        <ele>291</ele>
        <time>2016-09-03T08:00:21Z</time>
      </trkpt>
      <trkpt lat="47.44359" lon="6.57127">
        <ele>291</ele>
        <time>2016-09-03T08:00:23Z</time>
      </trkpt>
      <trkpt lat="47.44349" lon="6.57113">
        <ele>290</ele>
        <time>2016-09-03T08:00:25Z</time>
      </trkpt>
      <trkpt lat="47.44337" lon="6.57093">
        <ele>290</ele>
        <time>2016-09-03T08:00:28Z</time>
      </trkpt>
      <trkpt lat="47.44327" lon="6.57079">
        <ele>289</ele>
        <time>2016-09-03T08:00:30Z</time>
      </trkpt>
      <trkpt lat="47.44322" lon="6.57071">
        <ele>289</ele>
        <time>2016-09-03T08:00:31Z</time>
      </trkpt>
      <trkpt lat="47.44313" lon="6.57057">
        <ele>289</ele>
        <time>2016-09-03T08:00:33Z</time>
      </trkpt>
      <trkpt lat="47.44305" lon="6.57042">
        <ele>289</ele>
        <time>2016-09-03T08:00:35Z</time>
      </trkpt>
      <trkpt lat="47.44296" lon="6.57027">
        <ele>290</ele>
        <time>2016-09-03T08:00:37Z</time>
      </trkpt>
      <trkpt lat="47.44289" lon="6.57013">
        <ele>290</ele>
        <time>2016-09-03T08:00:39Z</time>
      </trkpt>
      <trkpt lat="47.44279" lon="6.56986">
        <ele>290</ele>
        <time>2016-09-03T08:00:42Z</time>
      </trkpt>
      <trkpt lat="47.44275" lon="6.56977">
        <ele>290</ele>
        <time>2016-09-03T08:00:43Z</time>
      </trkpt>
      <trkpt lat="47.44266" lon="6.56959">
        <ele>291</ele>
        <time>2016-09-03T08:00:45Z</time>
      </trkpt>
      <trkpt lat="47.44256" lon="6.56937">
        <ele>291</ele>
        <time>2016-09-03T08:00:48Z</time>
      </trkpt>
      <trkpt lat="47.44249" lon="6.56922">
        <ele>291</ele>
        <time>2016-09-03T08:00:50Z</time>
      </trkpt>
      <trkpt lat="47.44245" lon="6.56914">
        <ele>291</ele>
        <time>2016-09-03T08:00:51Z</time>
      </trkpt>
      <trkpt lat="47.44239" lon="6.56897">
        <ele>291</ele>
        <time>2016-09-03T08:00:53Z</time>
      </trkpt>
      <trkpt lat="47.44229" lon="6.56868">
        <ele>291</ele>
        <time>2016-09-03T08:00:56Z</time>
      </trkpt>
      <trkpt lat="47.44227" lon="6.56858">
        <ele>291</ele>
        <time>2016-09-03T08:00:57Z</time>
      </trkpt>
      <trkpt lat="47.44223" lon="6.5684">
        <ele>291</ele>
        <time>2016-09-03T08:00:59Z</time>
      </trkpt>
      <trkpt lat="47.4422" lon="6.56811">
        <ele>291</ele>
        <time>2016-09-03T08:01:02Z</time>
      </trkpt>
      <trkpt lat="47.44219" lon="6.56803">
        <ele>291</ele>
        <time>2016-09-03T08:01:03Z</time>
      </trkpt>
      <trkpt lat="47.44217" lon="6.56771">
        <ele>291</ele>
        <time>2016-09-03T08:01:06Z</time>
      </trkpt>
      <trkpt lat="47.44217" lon="6.56751">
        <ele>290</ele>
        <time>2016-09-03T08:01:08Z</time>
      </trkpt>
      <trkpt lat="47.44218" lon="6.56731">
        <ele>290</ele>
        <time>2016-09-03T08:01:10Z</time>
      </trkpt>
      <trkpt lat="47.44216" lon="6.56724">
        <ele>290</ele>
        <time>2016-09-03T08:01:11Z</time>
      </trkpt>
      <trkpt lat="47.44218" lon="6.56693">
        <ele>291</ele>
        <time>2016-09-03T08:01:14Z</time>
      </trkpt>
      <trkpt lat="47.4422" lon="6.56675">
        <ele>291</ele>
        <time>2016-09-03T08:01:16Z</time>
      </trkpt>
      <trkpt lat="47.4422" lon="6.56663">
        <ele>291</ele>
        <time>2016-09-03T08:01:17Z</time>
      </trkpt>
      <trkpt lat="47.44222" lon="6.56642">
        <ele>291</ele>
        <time>2016-09-03T08:01:19Z</time>
      </trkpt>
      <trkpt lat="47.44222" lon="6.56625">
        <ele>291</ele>
        <time>2016-09-03T08:01:21Z</time>
      </trkpt>
      <trkpt lat="47.44224" lon="6.56605">
        <ele>291</ele>
        <time>2016-09-03T08:01:23Z</time>
      </trkpt>
      <trkpt lat="47.44225" lon="6.56586">
        <ele>291</ele>
        <time>2016-09-03T08:01:25Z</time>
      </trkpt>
      <trkpt lat="47.44226" lon="6.56557">
        <ele>291</ele>
        <time>2016-09-03T08:01:28Z</time>
      </trkpt>
      <trkpt lat="47.44226" lon="6.56547">
        <ele>291</ele>
        <time>2016-09-03T08:01:29Z</time>
      </trkpt>
      <trkpt lat="47.44227" lon="6.56513">
        <ele>291</ele>
        <time>2016-09-03T08:01:32Z</time>
      </trkpt>
      <trkpt lat="47.44227" lon="6.56503">
        <ele>291</ele>
        <time>2016-09-03T08:01:33Z</time>
      </trkpt>
      <trkpt lat="47.44227" lon="6.56485">
        <ele>290</ele>
        <time>2016-09-03T08:01:35Z</time>
      </trkpt>
      <trkpt lat="47.44228" lon="6.56453">
        <ele>290</ele>
        <time>2016-09-03T08:01:38Z</time>
      </trkpt>
      <trkpt lat="47.44227" lon="6.56444">
        <ele>290</ele>
        <time>2016-09-03T08:01:39Z</time>
      </trkpt>
      <trkpt lat="47.44226" lon="6.56411">
        <ele>290</ele>
        <time>2016-09-03T08:01:42Z</time>
      </trkpt>
      <trkpt lat="47.44226" lon="6.56401">
        <ele>290</ele>
        <time>2016-09-03T08:01:43Z</time>
      </trkpt>
      <trkpt lat="47.44226" lon="6.56382">
        <ele>290</ele>
        <time>2016-09-03T08:01:45Z</time>
      </trkpt>
      <trkpt lat="47.44226" lon="6.56363">
        <ele>290</ele>
        <time>2016-09-03T08:01:47Z</time>
      </trkpt>
      <trkpt lat="47.44225" lon="6.56332">
        <ele>290</ele>
        <time>2016-09-03T08:01:50Z</time>
      </trkpt>
      <trkpt lat="47.44226" lon="6.56312">
        <ele>290</ele>
        <time>2016-09-03T08:01:52Z</time>
      </trkpt>
      <trkpt lat="47.44234" lon="6.56302">
        <ele>290</ele>
        <time>2016-09-03T08:01:54Z</time>
      </trkpt>
      <trkpt lat="47.4424" lon="6.56302">
        <ele>290</ele>
        <time>2016-09-03T08:01:55Z</time>
      </trkpt>
      <trkpt lat="47.44253" lon="6.56306">
        <ele>290</ele>
        <time>2016-09-03T08:01:57Z</time>
      </trkpt>
      <trkpt lat="47.44265" lon="6.56311">
        <ele>290</ele>
        <time>2016-09-03T08:01:59Z</time>
      </trkpt>
      <trkpt lat="47.44286" lon="6.56315">
        <ele>290</ele>
        <time>2016-09-03T08:02:02Z</time>
      </trkpt>
      <trkpt lat="47.44294" lon="6.56313">
        <ele>290</ele>
        <time>2016-09-03T08:02:03Z</time>
      </trkpt>
      <trkpt lat="47.44305" lon="6.56306">
        <ele>290</ele>
        <time>2016-09-03T08:02:05Z</time>
      </trkpt>
      <trkpt lat="47.44315" lon="6.563">
        <ele>290</ele>
        <time>2016-09-03T08:02:07Z</time>
      </trkpt>
      <trkpt lat="47.44326" lon="6.56295">
        <ele>290</ele>
        <time>2016-09-03T08:02:09Z</time>
      </trkpt>
      <trkpt lat="47.44338" lon="6.56288">
        <ele>290</ele>
        <time>2016-09-03T08:02:11Z</time>
      </trkpt>
      <trkpt lat="47.44353" lon="6.56266">
        <ele>291</ele>
        <time>2016-09-03T08:02:14Z</time>
      </trkpt>
      <trkpt lat="47.44356" lon="6.56257">
        <ele>292</ele>
        <time>2016-09-03T08:02:15Z</time>
      </trkpt>
      <trkpt lat="47.44361" lon="6.56226">
        <ele>292</ele>
        <time>2016-09-03T08:02:18Z</time>
      </trkpt>
      <trkpt lat="47.44363" lon="6.56217">
        <ele>292</ele>
        <time>2016-09-03T08:02:19Z</time>
      </trkpt>
      <trkpt lat="47.44365" lon="6.56198">
        <ele>293</ele>
        <time>2016-09-03T08:02:21Z</time>
      </trkpt>
      <trkpt lat="47.44367" lon="6.5618">
        <ele>293</ele>
        <time>2016-09-03T08:02:23Z</time>
      </trkpt>
      <trkpt lat="47.44368" lon="6.56162">
        <ele>293</ele>
        <time>2016-09-03T08:02:25Z</time>
      </trkpt>
      <trkpt lat="47.44368" lon="6.56143">
        <ele>294</ele>
        <time>2016-09-03T08:02:27Z</time>
      </trkpt>
      <trkpt lat="47.44365" lon="6.56123">
        <ele>293</ele>
        <time>2016-09-03T08:02:29Z</time>
      </trkpt>
      <trkpt lat="47.44357" lon="6.56084">
        <ele>293</ele>
        <time>2016-09-03T08:02:33Z</time>
      </trkpt>
      <trkpt lat="47.44353" lon="6.56063">
        <ele>293</ele>
        <time>2016-09-03T08:02:35Z</time>
      </trkpt>
      <trkpt lat="47.44352" lon="6.56055">
        <ele>293</ele>
        <time>2016-09-03T08:02:36Z</time>
      </trkpt>
      <trkpt lat="47.4435" lon="6.56041">
        <ele>293</ele>
        <time>2016-09-03T08:02:38Z</time>
      </trkpt>
      <trkpt lat="47.44348" lon="6.56027">
        <ele>292</ele>
        <time>2016-09-03T08:02:40Z</time>
      </trkpt>
      <trkpt lat="47.44344" lon="6.56017">
        <ele>292</ele>
        <time>2016-09-03T08:02:42Z</time>
      </trkpt>
      <trkpt lat="47.44334" lon="6.56006">
        <ele>291</ele>
        <time>2016-09-03T08:02:44Z</time>
      </trkpt>
      <trkpt lat="47.44325" lon="6.55992">
        <ele>290</ele>
        <time>2016-09-03T08:02:46Z</time>
      </trkpt>
      <trkpt lat="47.44317" lon="6.55978">
        <ele>289</ele>
        <time>2016-09-03T08:02:48Z</time>
      </trkpt>
      <trkpt lat="47.44308" lon="6.55963">
        <ele>289</ele>
        <time>2016-09-03T08:02:50Z</time>
      </trkpt>
      <trkpt lat="47.44298" lon="6.55949">
        <ele>288</ele>
        <time>2016-09-03T08:02:52Z</time>
      </trkpt>
      <trkpt lat="47.44286" lon="6.55926">
        <ele>287</ele>
        <time>2016-09-03T08:02:55Z</time>
      </trkpt>
      <trkpt lat="47.44281" lon="6.55918">
        <ele>287</ele>
        <time>2016-09-03T08:02:56Z</time>
      </trkpt>
      <trkpt lat="47.44272" lon="6.55903">
        <ele>286</ele>
        <time>2016-09-03T08:02:58Z</time>
      </trkpt>
      <trkpt lat="47.44263" lon="6.55887">
        <ele>286</ele>
        <time>2016-09-03T08:03:00Z</time>
      </trkpt>
      <trkpt lat="47.44255" lon="6.5587">
        <ele>286</ele>
        <time>2016-09-03T08:03:02Z</time>
      </trkpt>
      <trkpt lat="47.44248" lon="6.55853">
        <ele>286</ele>
        <time>2016-09-03T08:03:04Z</time>
      </trkpt>
      <trkpt lat="47.44236" lon="6.5583">
        <ele>286</ele>
        <time>2016-09-03T08:03:07Z</time>
      </trkpt>
      <trkpt lat="47.44232" lon="6.55822">
        <ele>286</ele>
        <time>2016-09-03T08:03:08Z</time>
      </trkpt>
      <trkpt lat="47.44224" lon="6.558">
        <ele>286</ele>
        <time>2016-09-03T08:03:11Z</time>
      </trkpt>
      <trkpt lat="47.44222" lon="6.55791">
        <ele>286</ele>
        <time>2016-09-03T08:03:12Z</time>
      </trkpt>
      <trkpt lat="47.4422" lon="6.55765">
        <ele>287</ele>
        <time>2016-09-03T08:03:15Z</time>
      </trkpt>
      <trkpt lat="47.44219" lon="6.55756">
        <ele>287</ele>
        <time>2016-09-03T08:03:16Z</time>
      </trkpt>
      <trkpt lat="47.44218" lon="6.55726">
        <ele>287</ele>
        <time>2016-09-03T08:03:19Z</time>
      </trkpt>
      <trkpt lat="47.44218" lon="6.55708">
        <ele>288</ele>
        <time>2016-09-03T08:03:21Z</time>
      </trkpt>
      <trkpt lat="47.44217" lon="6.55697">
        <ele>288</ele>
        <time>2016-09-03T08:03:22Z</time>
      </trkpt>
      <trkpt lat="47.44217" lon="6.55678">
        <ele>288</ele>
        <time>2016-09-03T08:03:24Z</time>
      </trkpt>
      <trkpt lat="47.44217" lon="6.55658">
        <ele>288</ele>
        <time>2016-09-03T08:03:26Z</time>
      </trkpt>
      <trkpt lat="47.44216" lon="6.5563">
        <ele>288</ele>
        <time>2016-09-03T08:03:29Z</time>
      </trkpt>
      <trkpt lat="47.44214" lon="6.55612">
        <ele>288</ele>
        <time>2016-09-03T08:03:31Z</time>
      </trkpt>
      <trkpt lat="47.44213" lon="6.55603">
        <ele>288</ele>
        <time>2016-09-03T08:03:32Z</time>
      </trkpt>
      <trkpt lat="47.44212" lon="6.55585">
        <ele>288</ele>
        <time>2016-09-03T08:03:34Z</time>
      </trkpt>
      <trkpt lat="47.44212" lon="6.55566">
        <ele>289</ele>
        <time>2016-09-03T08:03:36Z</time>
      </trkpt>
      <trkpt lat="47.4421" lon="6.55549">
        <ele>289</ele>
        <time>2016-09-03T08:03:38Z</time>
      </trkpt>
      <trkpt lat="47.44207" lon="6.55532">
        <ele>289</ele>
        <time>2016-09-03T08:03:40Z</time>
      </trkpt>
      <trkpt lat="47.44205" lon="6.55516">
        <ele>290</ele>
        <time>2016-09-03T08:03:42Z</time>
      </trkpt>
      <trkpt lat="47.44198" lon="6.55495">
        <ele>290</ele>
        <time>2016-09-03T08:03:45Z</time>
      </trkpt>
      <trkpt lat="47.44193" lon="6.55482">
        <ele>290</ele>
        <time>2016-09-03T08:03:47Z</time>
      </trkpt>
      <trkpt lat="47.44192" lon="6.55476">
        <ele>290</ele>
        <time>2016-09-03T08:03:48Z</time>
      </trkpt>
      <trkpt lat="47.44191" lon="6.55462">
        <ele>290</ele>
        <time>2016-09-03T08:03:50Z</time>
      </trkpt>
      <trkpt lat="47.44193" lon="6.55446">
        <ele>290</ele>
        <time>2016-09-03T08:03:52Z</time>
      </trkpt>
      <trkpt lat="47.44194" lon="6.5543">
        <ele>290</ele>
        <time>2016-09-03T08:03:54Z</time>
      </trkpt>
      <trkpt lat="47.44196" lon="6.55409">
        <ele>290</ele>
        <time>2016-09-03T08:03:56Z</time>
      </trkpt>
      <trkpt lat="47.44198" lon="6.55391">
        <ele>290</ele>
        <time>2016-09-03T08:03:58Z</time>
      </trkpt>
      <trkpt lat="47.442" lon="6.55369">
        <ele>290</ele>
        <time>2016-09-03T08:04:00Z</time>
      </trkpt>
      <trkpt lat="47.44202" lon="6.5535">
        <ele>290</ele>
        <time>2016-09-03T08:04:02Z</time>
      </trkpt>
      <trkpt lat="47.44203" lon="6.55332">
        <ele>290</ele>
        <time>2016-09-03T08:04:04Z</time>
      </trkpt>
      <trkpt lat="47.44205" lon="6.55313">
        <ele>290</ele>
        <time>2016-09-03T08:04:06Z</time>
      </trkpt>
      <trkpt lat="47.44207" lon="6.55294">
        <ele>290</ele>
        <time>2016-09-03T08:04:08Z</time>
      </trkpt>
      <trkpt lat="47.44207" lon="6.55275">
        <ele>290</ele>
        <time>2016-09-03T08:04:10Z</time>
      </trkpt>
      <trkpt lat="47.44209" lon="6.55254">
        <ele>290</ele>
        <time>2016-09-03T08:04:12Z</time>
      </trkpt>
      <trkpt lat="47.44209" lon="6.55235">
        <ele>290</ele>
        <time>2016-09-03T08:04:14Z</time>
      </trkpt>
      <trkpt lat="47.44209" lon="6.55216">
        <ele>290</ele>
        <time>2016-09-03T08:04:16Z</time>
      </trkpt>
      <trkpt lat="47.44208" lon="6.55197">
        <ele>290</ele>
        <time>2016-09-03T08:04:18Z</time>
      </trkpt>
      <trkpt lat="47.44208" lon="6.55176">
        <ele>290</ele>
        <time>2016-09-03T08:04:20Z</time>
      </trkpt>
      <trkpt lat="47.44207" lon="6.5516">
        <ele>290</ele>
        <time>2016-09-03T08:04:22Z</time>
      </trkpt>
      <trkpt lat="47.44205" lon="6.55136">
        <ele>290</ele>
        <time>2016-09-03T08:04:24Z</time>
      </trkpt>
      <trkpt lat="47.44203" lon="6.55115">
        <ele>290</ele>
        <time>2016-09-03T08:04:26Z</time>
      </trkpt>
      <trkpt lat="47.44199" lon="6.55084">
        <ele>290</ele>
        <time>2016-09-03T08:04:29Z</time>
      </trkpt>
      <trkpt lat="47.44197" lon="6.55076">
        <ele>290</ele>
        <time>2016-09-03T08:04:30Z</time>
      </trkpt>
      <trkpt lat="47.44194" lon="6.55055">
        <ele>290</ele>
        <time>2016-09-03T08:04:32Z</time>
      </trkpt>
      <trkpt lat="47.44191" lon="6.55035">
        <ele>290</ele>
        <time>2016-09-03T08:04:34Z</time>
      </trkpt>
      <trkpt lat="47.44187" lon="6.55015">
        <ele>290</ele>
        <time>2016-09-03T08:04:36Z</time>
      </trkpt>
      <trkpt lat="47.44184" lon="6.54996">
        <ele>290</ele>
        <time>2016-09-03T08:04:38Z</time>
      </trkpt>
      <trkpt lat="47.4418" lon="6.54964">
        <ele>290</ele>
        <time>2016-09-03T08:04:41Z</time>
      </trkpt>
      <trkpt lat="47.44177" lon="6.54938">
        <ele>290</ele>
        <time>2016-09-03T08:04:43Z</time>
      </trkpt>
      <trkpt lat="47.44174" lon="6.54915">
        <ele>289</ele>
        <time>2016-09-03T08:04:45Z</time>
      </trkpt>
      <trkpt lat="47.44173" lon="6.54907">
        <ele>289</ele>
        <time>2016-09-03T08:04:46Z</time>
      </trkpt>
      <trkpt lat="47.4417" lon="6.54886">
        <ele>289</ele>
        <time>2016-09-03T08:04:48Z</time>
      </trkpt>
      <trkpt lat="47.44165" lon="6.54856">
        <ele>288</ele>
        <time>2016-09-03T08:04:51Z</time>
      </trkpt>
      <trkpt lat="47.44163" lon="6.54847">
        <ele>288</ele>
        <time>2016-09-03T08:04:52Z</time>
      </trkpt>
      <trkpt lat="47.44159" lon="6.54827">
        <ele>288</ele>
        <time>2016-09-03T08:04:54Z</time>
      </trkpt>
      <trkpt lat="47.44157" lon="6.54806">
        <ele>287</ele>
        <time>2016-09-03T08:04:56Z</time>
      </trkpt>
      <trkpt lat="47.44153" lon="6.54787">
        <ele>286</ele>
        <time>2016-09-03T08:04:58Z</time>
      </trkpt>
      <trkpt lat="47.4415" lon="6.54765">
        <ele>286</ele>
        <time>2016-09-03T08:05:00Z</time>
      </trkpt>
      <trkpt lat="47.44146" lon="6.54748">
        <ele>285</ele>
        <time>2016-09-03T08:05:02Z</time>
      </trkpt>
      <trkpt lat="47.44141" lon="6.54727">
        <ele>284</ele>
        <time>2016-09-03T08:05:04Z</time>
      </trkpt>
      <trkpt lat="47.44136" lon="6.54711">
        <ele>284</ele>
        <time>2016-09-03T08:05:06Z</time>
      </trkpt>
      <trkpt lat="47.44132" lon="6.54693">
        <ele>284</ele>
        <time>2016-09-03T08:05:08Z</time>
      </trkpt>
      <trkpt lat="47.44127" lon="6.54675">
        <ele>284</ele>
        <time>2016-09-03T08:05:10Z</time>
      </trkpt>
      <trkpt lat="47.44123" lon="6.54657">
        <ele>284</ele>
        <time>2016-09-03T08:05:12Z</time>
      </trkpt>
      <trkpt lat="47.44121" lon="6.54637">
        <ele>284</ele>
        <time>2016-09-03T08:05:14Z</time>
      </trkpt>
      <trkpt lat="47.44116" lon="6.54616">
        <ele>284</ele>
        <time>2016-09-03T08:05:16Z</time>
      </trkpt>
      <trkpt lat="47.44113" lon="6.54597">
        <ele>284</ele>
        <time>2016-09-03T08:05:18Z</time>
      </trkpt>
      <trkpt lat="47.4411" lon="6.54578">
        <ele>284</ele>
        <time>2016-09-03T08:05:20Z</time>
      </trkpt>
      <trkpt lat="47.44107" lon="6.54561">
        <ele>284</ele>
        <time>2016-09-03T08:05:22Z</time>
      </trkpt>
      <trkpt lat="47.44104" lon="6.5454">
        <ele>284</ele>
        <time>2016-09-03T08:05:24Z</time>
      </trkpt>
      <trkpt lat="47.44101" lon="6.54508">
        <ele>284</ele>
        <time>2016-09-03T08:05:27Z</time>
      </trkpt>
      <trkpt lat="47.441" lon="6.54488">
        <ele>284</ele>
        <time>2016-09-03T08:05:29Z</time>
      </trkpt>
      <trkpt lat="47.44098" lon="6.54479">
        <ele>284</ele>
        <time>2016-09-03T08:05:30Z</time>
      </trkpt>
      <trkpt lat="47.44097" lon="6.5446">
        <ele>284</ele>
        <time>2016-09-03T08:05:32Z</time>
      </trkpt>
      <trkpt lat="47.44096" lon="6.54439">
        <ele>284</ele>
        <time>2016-09-03T08:05:34Z</time>
      </trkpt>
      <trkpt lat="47.44094" lon="6.54417">
        <ele>284</ele>
        <time>2016-09-03T08:05:36Z</time>
      </trkpt>
      <trkpt lat="47.44095" lon="6.54397">
        <ele>284</ele>
        <time>2016-09-03T08:05:38Z</time>
      </trkpt>
      <trkpt lat="47.44096" lon="6.54377">
        <ele>284</ele>
        <time>2016-09-03T08:05:40Z</time>
      </trkpt>
      <trkpt lat="47.44097" lon="6.54358">
        <ele>284</ele>
        <time>2016-09-03T08:05:42Z</time>
      </trkpt>
      <trkpt lat="47.44099" lon="6.54339">
        <ele>284</ele>
        <time>2016-09-03T08:05:44Z</time>
      </trkpt>
      <trkpt lat="47.44099" lon="6.54319">
        <ele>284</ele>
        <time>2016-09-03T08:05:46Z</time>
      </trkpt>
      <trkpt lat="47.441" lon="6.54299">
        <ele>284</ele>
        <time>2016-09-03T08:05:48Z</time>
      </trkpt>
      <trkpt lat="47.441" lon="6.54278">
        <ele>284</ele>
        <time>2016-09-03T08:05:50Z</time>
      </trkpt>
      <trkpt lat="47.44102" lon="6.54257">
        <ele>284</ele>
        <time>2016-09-03T08:05:52Z</time>
      </trkpt>
      <trkpt lat="47.44102" lon="6.54234">
        <ele>284</ele>
        <time>2016-09-03T08:05:54Z</time>
      </trkpt>
      <trkpt lat="47.44103" lon="6.54214">
        <ele>284</ele>
        <time>2016-09-03T08:05:56Z</time>
      </trkpt>
      <trkpt lat="47.44104" lon="6.54183">
        <ele>285</ele>
        <time>2016-09-03T08:05:59Z</time>
      </trkpt>
      <trkpt lat="47.44103" lon="6.54176">
        <ele>285</ele>
        <time>2016-09-03T08:06:00Z</time>
      </trkpt>
      <trkpt lat="47.44105" lon="6.54156">
        <ele>285</ele>
        <time>2016-09-03T08:06:02Z</time>
      </trkpt>
      <trkpt lat="47.44106" lon="6.54138">
        <ele>286</ele>
        <time>2016-09-03T08:06:04Z</time>
      </trkpt>
      <trkpt lat="47.44106" lon="6.54117">
        <ele>286</ele>
        <time>2016-09-03T08:06:06Z</time>
      </trkpt>
      <trkpt lat="47.44108" lon="6.54089">
        <ele>286</ele>
        <time>2016-09-03T08:06:09Z</time>
      </trkpt>
      <trkpt lat="47.44109" lon="6.5408">
        <ele>287</ele>
        <time>2016-09-03T08:06:10Z</time>
      </trkpt>
      <trkpt lat="47.44111" lon="6.5406">
        <ele>287</ele>
        <time>2016-09-03T08:06:12Z</time>
      </trkpt>
      <trkpt lat="47.44113" lon="6.54042">
        <ele>287</ele>
        <time>2016-09-03T08:06:14Z</time>
      </trkpt>
      <trkpt lat="47.44114" lon="6.54023">
        <ele>287</ele>
        <time>2016-09-03T08:06:16Z</time>
      </trkpt>
      <trkpt lat="47.44116" lon="6.54004">
        <ele>288</ele>
        <time>2016-09-03T08:06:18Z</time>
      </trkpt>
      <trkpt lat="47.44117" lon="6.53985">
        <ele>288</ele>
        <time>2016-09-03T08:06:20Z</time>
      </trkpt>
      <trkpt lat="47.44118" lon="6.53967">
        <ele>288</ele>
        <time>2016-09-03T08:06:22Z</time>
      </trkpt>
      <trkpt lat="47.44118" lon="6.53947">
        <ele>288</ele>
        <time>2016-09-03T08:06:24Z</time>
      </trkpt>
      <trkpt lat="47.44119" lon="6.5393">
        <ele>288</ele>
        <time>2016-09-03T08:06:26Z</time>
      </trkpt>
      <trkpt lat="47.44121" lon="6.53912">
        <ele>288</ele>
        <time>2016-09-03T08:06:28Z</time>
      </trkpt>
      <trkpt lat="47.44122" lon="6.53893">
        <ele>288</ele>
        <time>2016-09-03T08:06:30Z</time>
      </trkpt>
      <trkpt lat="47.44125" lon="6.53871">
        <ele>288</ele>
        <time>2016-09-03T08:06:32Z</time>
      </trkpt>
      <trkpt lat="47.44127" lon="6.5384">
        <ele>287</ele>
        <time>2016-09-03T08:06:35Z</time>
      </trkpt>
      <trkpt lat="47.44128" lon="6.53822">
        <ele>287</ele>
        <time>2016-09-03T08:06:37Z</time>
      </trkpt>
      <trkpt lat="47.44129" lon="6.53813">
        <ele>286</ele>
        <time>2016-09-03T08:06:38Z</time>
      </trkpt>
      <trkpt lat="47.44131" lon="6.53794">
        <ele>286</ele>
        <time>2016-09-03T08:06:40Z</time>
      </trkpt>
      <trkpt lat="47.44133" lon="6.53768">
        <ele>285</ele>
        <time>2016-09-03T08:06:43Z</time>
      </trkpt>
      <trkpt lat="47.44134" lon="6.53759">
        <ele>284</ele>
        <time>2016-09-03T08:06:44Z</time>
      </trkpt>
      <trkpt lat="47.44138" lon="6.5373">
        <ele>284</ele>
        <time>2016-09-03T08:06:47Z</time>
      </trkpt>
      <trkpt lat="47.4414" lon="6.53708">
        <ele>284</ele>
        <time>2016-09-03T08:06:49Z</time>
      </trkpt>
      <trkpt lat="47.44141" lon="6.53697">
        <ele>284</ele>
        <time>2016-09-03T08:06:50Z</time>
      </trkpt>
      <trkpt lat="47.44144" lon="6.53677">
        <ele>284</ele>
        <time>2016-09-03T08:06:52Z</time>
      </trkpt>
      <trkpt lat="47.44147" lon="6.53648">
        <ele>284</ele>
        <time>2016-09-03T08:06:55Z</time>
      </trkpt>
      <trkpt lat="47.44149" lon="6.53633">
        <ele>284</ele>
        <time>2016-09-03T08:06:56Z</time>
      </trkpt>
      <trkpt lat="47.44152" lon="6.53614">
        <ele>284</ele>
        <time>2016-09-03T08:06:58Z</time>
      </trkpt>
      <trkpt lat="47.44154" lon="6.53594">
        <ele>284</ele>
        <time>2016-09-03T08:07:00Z</time>
      </trkpt>
      <trkpt lat="47.44158" lon="6.53571">
        <ele>284</ele>
        <time>2016-09-03T08:07:02Z</time>
      </trkpt>
      <trkpt lat="47.4416" lon="6.53552">
        <ele>284</ele>
        <time>2016-09-03T08:07:04Z</time>
      </trkpt>
      <trkpt lat="47.44163" lon="6.53533">
        <ele>284</ele>
        <time>2016-09-03T08:07:06Z</time>
      </trkpt>
      <trkpt lat="47.44166" lon="6.53516">
        <ele>284</ele>
        <time>2016-09-03T08:07:08Z</time>
      </trkpt>
      <trkpt lat="47.44169" lon="6.53485">
        <ele>284</ele>
        <time>2016-09-03T08:07:11Z</time>
      </trkpt>
      <trkpt lat="47.44172" lon="6.53468">
        <ele>284</ele>
        <time>2016-09-03T08:07:13Z</time>
      </trkpt>
      <trkpt lat="47.44174" lon="6.53457">
        <ele>284</ele>
        <time>2016-09-03T08:07:14Z</time>
      </trkpt>
      <trkpt lat="47.44176" lon="6.53439">
        <ele>284</ele>
        <time>2016-09-03T08:07:16Z</time>
      </trkpt>
      <trkpt lat="47.44177" lon="6.53421">
        <ele>285</ele>
        <time>2016-09-03T08:07:18Z</time>
      </trkpt>
      <trkpt lat="47.44179" lon="6.53392">
        <ele>288</ele>
        <time>2016-09-03T08:07:21Z</time>
      </trkpt>
      <trkpt lat="47.44179" lon="6.53381">
        <ele>289</ele>
        <time>2016-09-03T08:07:22Z</time>
      </trkpt>
      <trkpt lat="47.44175" lon="6.53352">
        <ele>294</ele>
        <time>2016-09-03T08:07:25Z</time>
      </trkpt>
      <trkpt lat="47.44173" lon="6.53344">
        <ele>296</ele>
        <time>2016-09-03T08:07:26Z</time>
      </trkpt>
      <trkpt lat="47.44167" lon="6.53325">
        <ele>302</ele>
        <time>2016-09-03T08:07:28Z</time>
      </trkpt>
      <trkpt lat="47.44161" lon="6.53309">
        <ele>307</ele>
        <time>2016-09-03T08:07:30Z</time>
      </trkpt>
      <trkpt lat="47.44153" lon="6.53294">
        <ele>314</ele>
        <time>2016-09-03T08:07:32Z</time>
      </trkpt>
      <trkpt lat="47.44139" lon="6.53272">
        <ele>324</ele>
        <time>2016-09-03T08:07:35Z</time>
      </trkpt>
      <trkpt lat="47.44134" lon="6.53265">
        <ele>327</ele>
        <time>2016-09-03T08:07:36Z</time>
      </trkpt>
      <trkpt lat="47.44119" lon="6.53257">
        <ele>328</ele>
        <time>2016-09-03T08:07:38Z</time>
      </trkpt>
      <trkpt lat="47.44107" lon="6.53248">
        <ele>331</ele>
        <time>2016-09-03T08:07:40Z</time>
      </trkpt>
      <trkpt lat="47.44094" lon="6.53237">
        <ele>333</ele>
        <time>2016-09-03T08:07:42Z</time>
      </trkpt>
      <trkpt lat="47.4408" lon="6.53226">
        <ele>335</ele>
        <time>2016-09-03T08:07:44Z</time>
      </trkpt>
      <trkpt lat="47.44068" lon="6.5322">
        <ele>335</ele>
        <time>2016-09-03T08:07:46Z</time>
      </trkpt>
      <trkpt lat="47.44056" lon="6.53214">
        <ele>335</ele>
        <time>2016-09-03T08:07:48Z</time>
      </trkpt>
      <trkpt lat="47.44044" lon="6.5321">
        <ele>333</ele>
        <time>2016-09-03T08:07:50Z</time>
      </trkpt>
      <trkpt lat="47.44031" lon="6.53203">
        <ele>333</ele>
        <time>2016-09-03T08:07:52Z</time>
      </trkpt>
      <trkpt lat="47.44012" lon="6.53194">
        <ele>331</ele>
        <time>2016-09-03T08:07:55Z</time>
      </trkpt>
      <trkpt lat="47.43999" lon="6.53187">
        <ele>331</ele>
        <time>2016-09-03T08:07:57Z</time>
      </trkpt>
      <trkpt lat="47.43993" lon="6.53186">
        <ele>330</ele>
        <time>2016-09-03T08:07:58Z</time>
      </trkpt>
      <trkpt lat="47.43981" lon="6.53177">
        <ele>332</ele>
        <time>2016-09-03T08:08:00Z</time>
      </trkpt>
      <trkpt lat="47.43964" lon="6.53166">
        <ele>333</ele>
        <time>2016-09-03T08:08:03Z</time>
      </trkpt>
      <trkpt lat="47.43958" lon="6.53165">
        <ele>332</ele>
        <time>2016-09-03T08:08:04Z</time>
      </trkpt>
      <trkpt lat="47.43946" lon="6.53163">
        <ele>329</ele>
        <time>2016-09-03T08:08:06Z</time>
      </trkpt>
      <trkpt lat="47.43927" lon="6.5315">
        <ele>333</ele>
        <time>2016-09-03T08:08:09Z</time>
      </trkpt>
      <trkpt lat="47.43919" lon="6.53149">
        <ele>332</ele>
        <time>2016-09-03T08:08:10Z</time>
      </trkpt>
      <trkpt lat="47.43907" lon="6.53143">
        <ele>334</ele>
        <time>2016-09-03T08:08:12Z</time>
      </trkpt>
      <trkpt lat="47.43895" lon="6.53139">
        <ele>334</ele>
        <time>2016-09-03T08:08:14Z</time>
      </trkpt>
      <trkpt lat="47.43881" lon="6.53138">
        <ele>332</ele>
        <time>2016-09-03T08:08:16Z</time>
      </trkpt>
      <trkpt lat="47.43869" lon="6.53136">
        <ele>331</ele>
        <time>2016-09-03T08:08:18Z</time>
      </trkpt>
      <trkpt lat="47.43857" lon="6.53135">
        <ele>329</ele>
        <time>2016-09-03T08:08:20Z</time>
      </trkpt>
      <trkpt lat="47.43838" lon="6.53131">
        <ele>328</ele>
        <time>2016-09-03T08:08:23Z</time>
      </trkpt>
      <trkpt lat="47.43831" lon="6.53129">
        <ele>329</ele>
        <time>2016-09-03T08:08:24Z</time>
      </trkpt>
      <trkpt lat="47.4382" lon="6.53126">
        <ele>329</ele>
        <time>2016-09-03T08:08:26Z</time>
      </trkpt>
      <trkpt lat="47.438" lon="6.53123">
        <ele>328</ele>
        <time>2016-09-03T08:08:29Z</time>
      </trkpt>
      <trkpt lat="47.43786" lon="6.5312">
        <ele>328</ele>
        <time>2016-09-03T08:08:31Z</time>
      </trkpt>
      <trkpt lat="47.4378" lon="6.5312">
        <ele>327</ele>
        <time>2016-09-03T08:08:32Z</time>
      </trkpt>
      <trkpt lat="47.43768" lon="6.53119">
        <ele>327</ele>
        <time>2016-09-03T08:08:34Z</time>
      </trkpt>
      <trkpt lat="47.43755" lon="6.53119">
        <ele>326</ele>
        <time>2016-09-03T08:08:36Z</time>
      </trkpt>
      <trkpt lat="47.43742" lon="6.53118">
        <ele>326</ele>
        <time>2016-09-03T08:08:38Z</time>
      </trkpt>
      <trkpt lat="47.43729" lon="6.5312">
        <ele>324</ele>
        <time>2016-09-03T08:08:40Z</time>
      </trkpt>
      <trkpt lat="47.43716" lon="6.5312">
        <ele>323</ele>
        <time>2016-09-03T08:08:42Z</time>
      </trkpt>
      <trkpt lat="47.43702" lon="6.53118">
        <ele>324</ele>
        <time>2016-09-03T08:08:44Z</time>
      </trkpt>
      <trkpt lat="47.43689" lon="6.53119">
        <ele>323</ele>
        <time>2016-09-03T08:08:46Z</time>
      </trkpt>
      <trkpt lat="47.43669" lon="6.53119">
        <ele>323</ele>
        <time>2016-09-03T08:08:49Z</time>
      </trkpt>
      <trkpt lat="47.43662" lon="6.5312">
        <ele>322</ele>
        <time>2016-09-03T08:08:50Z</time>
      </trkpt>
      <trkpt lat="47.43649" lon="6.53122">
        <ele>321</ele>
        <time>2016-09-03T08:08:52Z</time>
      </trkpt>
      <trkpt lat="47.43637" lon="6.53125">
        <ele>320</ele>
        <time>2016-09-03T08:08:54Z</time>
      </trkpt>
      <trkpt lat="47.43624" lon="6.53125">
        <ele>320</ele>
        <time>2016-09-03T08:08:56Z</time>
      </trkpt>
      <trkpt lat="47.43613" lon="6.53129">
        <ele>318</ele>
        <time>2016-09-03T08:08:58Z</time>
      </trkpt>
      <trkpt lat="47.43594" lon="6.5313">
        <ele>318</ele>
        <time>2016-09-03T08:09:01Z</time>
      </trkpt>
      <trkpt lat="47.43589" lon="6.53128">
        <ele>319</ele>
        <time>2016-09-03T08:09:02Z</time>
      </trkpt>
      <trkpt lat="47.43571" lon="6.53124">
        <ele>321</ele>
        <time>2016-09-03T08:09:05Z</time>
      </trkpt>
      <trkpt lat="47.43557" lon="6.53129">
        <ele>319</ele>
        <time>2016-09-03T08:09:07Z</time>
      </trkpt>
      <trkpt lat="47.43552" lon="6.53134">
        <ele>317</ele>
        <time>2016-09-03T08:09:08Z</time>
      </trkpt>
      <trkpt lat="47.43539" lon="6.53141">
        <ele>315</ele>
        <time>2016-09-03T08:09:10Z</time>
      </trkpt>
      <trkpt lat="47.43526" lon="6.5315">
        <ele>313</ele>
        <time>2016-09-03T08:09:12Z</time>
      </trkpt>
      <trkpt lat="47.43511" lon="6.53156">
        <ele>311</ele>
        <time>2016-09-03T08:09:14Z</time>
      </trkpt>
      <trkpt lat="47.43497" lon="6.53159">
        <ele>311</ele>
        <time>2016-09-03T08:09:16Z</time>
      </trkpt>
      <trkpt lat="47.4348" lon="6.53163">
        <ele>311</ele>
        <time>2016-09-03T08:09:18Z</time>
      </trkpt>
      <trkpt lat="47.43466" lon="6.53168">
        <ele>312</ele>
        <time>2016-09-03T08:09:20Z</time>
      </trkpt>
      <trkpt lat="47.43448" lon="6.53178">
        <ele>313</ele>
        <time>2016-09-03T08:09:23Z</time>
      </trkpt>
      <trkpt lat="47.43433" lon="6.53181">
        <ele>316</ele>
        <time>2016-09-03T08:09:25Z</time>
      </trkpt>
      <trkpt lat="47.43427" lon="6.53184">
        <ele>316</ele>
        <time>2016-09-03T08:09:26Z</time>
      </trkpt>
      <trkpt lat="47.43409" lon="6.53197">
        <ele>316</ele>
        <time>2016-09-03T08:09:29Z</time>
      </trkpt>
      <trkpt lat="47.43402" lon="6.53202">
        <ele>316</ele>
        <time>2016-09-03T08:09:30Z</time>
      </trkpt>
      <trkpt lat="47.43389" lon="6.53207">
        <ele>318</ele>
        <time>2016-09-03T08:09:32Z</time>
      </trkpt>
      <trkpt lat="47.43377" lon="6.53215">
        <ele>317</ele>
        <time>2016-09-03T08:09:34Z</time>
      </trkpt>
      <trkpt lat="47.43364" lon="6.53225">
        <ele>316</ele>
        <time>2016-09-03T08:09:36Z</time>
      </trkpt>
      <trkpt lat="47.43351" lon="6.53234">
        <ele>314</ele>
        <time>2016-09-03T08:09:38Z</time>
      </trkpt>
      <trkpt lat="47.43339" lon="6.53242">
        <ele>314</ele>
        <time>2016-09-03T08:09:40Z</time>
      </trkpt>
      <trkpt lat="47.4332" lon="6.53255">
        <ele>313</ele>
        <time>2016-09-03T08:09:43Z</time>
      </trkpt>
      <trkpt lat="47.43313" lon="6.53259">
        <ele>313</ele>
        <time>2016-09-03T08:09:44Z</time>
      </trkpt>
      <trkpt lat="47.43301" lon="6.5327">
        <ele>312</ele>
        <time>2016-09-03T08:09:46Z</time>
      </trkpt>
      <trkpt lat="47.43289" lon="6.53277">
        <ele>312</ele>
        <time>2016-09-03T08:09:48Z</time>
      </trkpt>
      <trkpt lat="47.43278" lon="6.53287">
        <ele>311</ele>
        <time>2016-09-03T08:09:50Z</time>
      </trkpt>
      <trkpt lat="47.43267" lon="6.53298">
        <ele>310</ele>
        <time>2016-09-03T08:09:52Z</time>
      </trkpt>
      <trkpt lat="47.4325" lon="6.53314">
        <ele>310</ele>
        <time>2016-09-03T08:09:55Z</time>
      </trkpt>
      <trkpt lat="47.4324" lon="6.53325">
        <ele>309</ele>
        <time>2016-09-03T08:09:57Z</time>
      </trkpt>
      <trkpt lat="47.4323" lon="6.53337">
        <ele>308</ele>
        <time>2016-09-03T08:09:59Z</time>
      </trkpt>
      <trkpt lat="47.43218" lon="6.53346">
        <ele>310</ele>
        <time>2016-09-03T08:10:01Z</time>
      </trkpt>
      <trkpt lat="47.43213" lon="6.53352">
        <ele>310</ele>
        <time>2016-09-03T08:10:02Z</time>
      </trkpt>
      <trkpt lat="47.43205" lon="6.53368">
        <ele>309</ele>
        <time>2016-09-03T08:10:04Z</time>
      </trkpt>
      <trkpt lat="47.43195" lon="6.53379">
        <ele>310</ele>
        <time>2016-09-03T08:10:06Z</time>
      </trkpt>
      <trkpt lat="47.43187" lon="6.53396">
        <ele>309</ele>
        <time>2016-09-03T08:10:08Z</time>
      </trkpt>
      <trkpt lat="47.43178" lon="6.53412">
        <ele>308</ele>
        <time>2016-09-03T08:10:10Z</time>
      </trkpt>
      <trkpt lat="47.43169" lon="6.53426">
        <ele>309</ele>
        <time>2016-09-03T08:10:12Z</time>
      </trkpt>
      <trkpt lat="47.43159" lon="6.53441">
        <ele>311</ele>
        <time>2016-09-03T08:10:14Z</time>
      </trkpt>
      <trkpt lat="47.43148" lon="6.53459">
        <ele>311</ele>
        <time>2016-09-03T08:10:16Z</time>
      </trkpt>
      <trkpt lat="47.43139" lon="6.53475">
        <ele>312</ele>
        <time>2016-09-03T08:10:18Z</time>
      </trkpt>
      <trkpt lat="47.43133" lon="6.53492">
        <ele>310</ele>
        <time>2016-09-03T08:10:20Z</time>
      </trkpt>
      <trkpt lat="47.43124" lon="6.53506">
        <ele>309</ele>
        <time>2016-09-03T08:10:22Z</time>
      </trkpt>
      <trkpt lat="47.43113" lon="6.53519">
        <ele>310</ele>
        <time>2016-09-03T08:10:24Z</time>
      </trkpt>
      <trkpt lat="47.43106" lon="6.53536">
        <ele>307</ele>
        <time>2016-09-03T08:10:26Z</time>
      </trkpt>
      <trkpt lat="47.43097" lon="6.53551">
        <ele>306</ele>
        <time>2016-09-03T08:10:28Z</time>
      </trkpt>
      <trkpt lat="47.43082" lon="6.53571">
        <ele>306</ele>
        <time>2016-09-03T08:10:31Z</time>
      </trkpt>
      <trkpt lat="47.43079" lon="6.5358">
        <ele>305</ele>
        <time>2016-09-03T08:10:32Z</time>
      </trkpt>
      <trkpt lat="47.43072" lon="6.53597">
        <ele>303</ele>
        <time>2016-09-03T08:10:34Z</time>
      </trkpt>
      <trkpt lat="47.4306" lon="6.53612">
        <ele>304</ele>
        <time>2016-09-03T08:10:36Z</time>
      </trkpt>
      <trkpt lat="47.43053" lon="6.53638">
        <ele>301</ele>
        <time>2016-09-03T08:10:39Z</time>
      </trkpt>
      <trkpt lat="47.43042" lon="6.53651">
        <ele>301</ele>
        <time>2016-09-03T08:10:41Z</time>
      </trkpt>
      <trkpt lat="47.43036" lon="6.53658">
        <ele>302</ele>
        <time>2016-09-03T08:10:42Z</time>
      </trkpt>
      <trkpt lat="47.43029" lon="6.53674">
        <ele>301</ele>
        <time>2016-09-03T08:10:44Z</time>
      </trkpt>
      <trkpt lat="47.43022" lon="6.53691">
        <ele>300</ele>
        <time>2016-09-03T08:10:46Z</time>
      </trkpt>
      <trkpt lat="47.43012" lon="6.53713">
        <ele>299</ele>
        <time>2016-09-03T08:10:49Z</time>
      </trkpt>
      <trkpt lat="47.43001" lon="6.53728">
        <ele>300</ele>
        <time>2016-09-03T08:10:51Z</time>
      </trkpt>
      <trkpt lat="47.42997" lon="6.53735">
        <ele>300</ele>
        <time>2016-09-03T08:10:52Z</time>
      </trkpt>
      <trkpt lat="47.42988" lon="6.5375">
        <ele>301</ele>
        <time>2016-09-03T08:10:54Z</time>
      </trkpt>
      <trkpt lat="47.42975" lon="6.53762">
        <ele>303</ele>
        <time>2016-09-03T08:10:56Z</time>
      </trkpt>
      <trkpt lat="47.42966" lon="6.53777">
        <ele>304</ele>
        <time>2016-09-03T08:10:58Z</time>
      </trkpt>
      <trkpt lat="47.42957" lon="6.53801">
        <ele>302</ele>
        <time>2016-09-03T08:11:01Z</time>
      </trkpt>
      <trkpt lat="47.42958" lon="6.53805">
        <ele>301</ele>
        <time>2016-09-03T08:11:02Z</time>
      </trkpt>
      <trkpt lat="47.42945" lon="6.5383">
        <ele>301</ele>
        <time>2016-09-03T08:11:05Z</time>
      </trkpt>
      <trkpt lat="47.42937" lon="6.53838">
        <ele>303</ele>
        <time>2016-09-03T08:11:06Z</time>
      </trkpt>
      <trkpt lat="47.42929" lon="6.53854">
        <ele>303</ele>
        <time>2016-09-03T08:11:08Z</time>
      </trkpt>
      <trkpt lat="47.42924" lon="6.5387">
        <ele>302</ele>
        <time>2016-09-03T08:11:10Z</time>
      </trkpt>
      <trkpt lat="47.42916" lon="6.53891">
        <ele>302</ele>
        <time>2016-09-03T08:11:12Z</time>
      </trkpt>
      <trkpt lat="47.42909" lon="6.53905">
        <ele>303</ele>
        <time>2016-09-03T08:11:14Z</time>
      </trkpt>
      <trkpt lat="47.42893" lon="6.53931">
        <ele>307</ele>
        <time>2016-09-03T08:11:17Z</time>
      </trkpt>
      <trkpt lat="47.42886" lon="6.53945">
        <ele>307</ele>
        <time>2016-09-03T08:11:19Z</time>
      </trkpt>
      <trkpt lat="47.42882" lon="6.53956">
        <ele>306</ele>
        <time>2016-09-03T08:11:20Z</time>
      </trkpt>
      <trkpt lat="47.42879" lon="6.53969">
        <ele>304</ele>
        <time>2016-09-03T08:11:22Z</time>
      </trkpt>
      <trkpt lat="47.42873" lon="6.53984">
        <ele>304</ele>
        <time>2016-09-03T08:11:24Z</time>
      </trkpt>
      <trkpt lat="47.42867" lon="6.54001">
        <ele>303</ele>
        <time>2016-09-03T08:11:26Z</time>
      </trkpt>
      <trkpt lat="47.42859" lon="6.54019">
        <ele>303</ele>
        <time>2016-09-03T08:11:28Z</time>
      </trkpt>
      <trkpt lat="47.42854" lon="6.54036">
        <ele>300</ele>
        <time>2016-09-03T08:11:30Z</time>
      </trkpt>
      <trkpt lat="47.42849" lon="6.54052">
        <ele>300</ele>
        <time>2016-09-03T08:11:32Z</time>
      </trkpt>
      <trkpt lat="47.42843" lon="6.54068">
        <ele>301</ele>
        <time>2016-09-03T08:11:34Z</time>
      </trkpt>
      <trkpt lat="47.42837" lon="6.54086">
        <ele>301</ele>
        <time>2016-09-03T08:11:36Z</time>
      </trkpt>
      <trkpt lat="47.4283" lon="6.54103">
        <ele>301</ele>
        <time>2016-09-03T08:11:38Z</time>
      </trkpt>
      <trkpt lat="47.42825" lon="6.54121">
        <ele>301</ele>
        <time>2016-09-03T08:11:40Z</time>
      </trkpt>
      <trkpt lat="47.42821" lon="6.54137">
        <ele>301</ele>
        <time>2016-09-03T08:11:42Z</time>
      </trkpt>
      <trkpt lat="47.42816" lon="6.54157">
        <ele>300</ele>
        <time>2016-09-03T08:11:44Z</time>
      </trkpt>
      <trkpt lat="47.42811" lon="6.54175">
        <ele>300</ele>
        <time>2016-09-03T08:11:46Z</time>
      </trkpt>
      <trkpt lat="47.42806" lon="6.54193">
        <ele>300</ele>
        <time>2016-09-03T08:11:48Z</time>
      </trkpt>
      <trkpt lat="47.42802" lon="6.54211">
        <ele>300</ele>
        <time>2016-09-03T08:11:50Z</time>
      </trkpt>
      <trkpt lat="47.42798" lon="6.54228">
        <ele>300</ele>
        <time>2016-09-03T08:11:52Z</time>
      </trkpt>
      <trkpt lat="47.42794" lon="6.54246">
        <ele>299</ele>
        <time>2016-09-03T08:11:54Z</time>
      </trkpt>
      <trkpt lat="47.42786" lon="6.54274">
        <ele>298</ele>
        <time>2016-09-03T08:11:57Z</time>
      </trkpt>
      <trkpt lat="47.42782" lon="6.54284">
        <ele>299</ele>
        <time>2016-09-03T08:11:58Z</time>
      </trkpt>
      <trkpt lat="47.4278" lon="6.54302">
        <ele>298</ele>
        <time>2016-09-03T08:12:00Z</time>
      </trkpt>
      <trkpt lat="47.42775" lon="6.5432">
        <ele>299</ele>
        <time>2016-09-03T08:12:02Z</time>
      </trkpt>
      <trkpt lat="47.4277" lon="6.54336">
        <ele>300</ele>
        <time>2016-09-03T08:12:04Z</time>
      </trkpt>
      <trkpt lat="47.42758" lon="6.54366">
        <ele>301</ele>
        <time>2016-09-03T08:12:07Z</time>
      </trkpt>
      <trkpt lat="47.42754" lon="6.54386">
        <ele>301</ele>
        <time>2016-09-03T08:12:09Z</time>
      </trkpt>
      <trkpt lat="47.4275" lon="6.54406">
        <ele>300</ele>
        <time>2016-09-03T08:12:11Z</time>
      </trkpt>
      <trkpt lat="47.42748" lon="6.54416">
        <ele>300</ele>
        <time>2016-09-03T08:12:12Z</time>
      </trkpt>
      <trkpt lat="47.4274" lon="6.54443">
        <ele>299</ele>
        <time>2016-09-03T08:12:15Z</time>
      </trkpt>
      <trkpt lat="47.4274" lon="6.5445">
        <ele>298</ele>
        <time>2016-09-03T08:12:16Z</time>
      </trkpt>
      <trkpt lat="47.42734" lon="6.54468">
        <ele>298</ele>
        <time>2016-09-03T08:12:18Z</time>
      </trkpt>
      <trkpt lat="47.42729" lon="6.54487">
        <ele>298</ele>
        <time>2016-09-03T08:12:20Z</time>
      </trkpt>
      <trkpt lat="47.42725" lon="6.54504">
        <ele>298</ele>
        <time>2016-09-03T08:12:22Z</time>
      </trkpt>
      <trkpt lat="47.42719" lon="6.54531">
        <ele>297</ele>
        <time>2016-09-03T08:12:25Z</time>
      </trkpt>
      <trkpt lat="47.42718" lon="6.5454">
        <ele>295</ele>
        <time>2016-09-03T08:12:26Z</time>
      </trkpt>
      <trkpt lat="47.42713" lon="6.54557">
        <ele>295</ele>
        <time>2016-09-03T08:12:28Z</time>
      </trkpt>
      <trkpt lat="47.42706" lon="6.54586">
        <ele>296</ele>
        <time>2016-09-03T08:12:31Z</time>
      </trkpt>
      <trkpt lat="47.42703" lon="6.54595">
        <ele>296</ele>
        <time>2016-09-03T08:12:32Z</time>
      </trkpt>
      <trkpt lat="47.42697" lon="6.54621">
        <ele>295</ele>
        <time>2016-09-03T08:12:35Z</time>
      </trkpt>
      <trkpt lat="47.42695" lon="6.5463">
        <ele>295</ele>
        <time>2016-09-03T08:12:36Z</time>
      </trkpt>
      <trkpt lat="47.4269" lon="6.5465">
        <ele>294</ele>
        <time>2016-09-03T08:12:38Z</time>
      </trkpt>
      <trkpt lat="47.42684" lon="6.54679">
        <ele>293</ele>
        <time>2016-09-03T08:12:41Z</time>
      </trkpt>
      <trkpt lat="47.42681" lon="6.54689">
        <ele>294</ele>
        <time>2016-09-03T08:12:42Z</time>
      </trkpt>
      <trkpt lat="47.42673" lon="6.54719">
        <ele>293</ele>
        <time>2016-09-03T08:12:45Z</time>
      </trkpt>
      <trkpt lat="47.42673" lon="6.54726">
        <ele>292</ele>
        <time>2016-09-03T08:12:46Z</time>
      </trkpt>
      <trkpt lat="47.42668" lon="6.54745">
        <ele>292</ele>
        <time>2016-09-03T08:12:48Z</time>
      </trkpt>
      <trkpt lat="47.42664" lon="6.54763">
        <ele>291</ele>
        <time>2016-09-03T08:12:50Z</time>
      </trkpt>
      <trkpt lat="47.42656" lon="6.54784">
        <ele>291</ele>
        <time>2016-09-03T08:12:52Z</time>
      </trkpt>
      <trkpt lat="47.42651" lon="6.54807">
        <ele>290</ele>
        <time>2016-09-03T08:12:55Z</time>
      </trkpt>
      <trkpt lat="47.42648" lon="6.54815">
        <ele>290</ele>
        <time>2016-09-03T08:12:56Z</time>
      </trkpt>
      <trkpt lat="47.42642" lon="6.54834">
        <ele>289</ele>
        <time>2016-09-03T08:12:58Z</time>
      </trkpt>
      <trkpt lat="47.42638" lon="6.54851">
        <ele>289</ele>
        <time>2016-09-03T08:13:00Z</time>
      </trkpt>
      <trkpt lat="47.42632" lon="6.5487">
        <ele>288</ele>
        <time>2016-09-03T08:13:02Z</time>
      </trkpt>
      <trkpt lat="47.42622" lon="6.54888">
        <ele>288</ele>
        <time>2016-09-03T08:13:04Z</time>
      </trkpt>
      <trkpt lat="47.42612" lon="6.54904">
        <ele>289</ele>
        <time>2016-09-03T08:13:06Z</time>
      </trkpt>
      <trkpt lat="47.42603" lon="6.54916">
        <ele>289</ele>
        <time>2016-09-03T08:13:08Z</time>
      </trkpt>
      <trkpt lat="47.42594" lon="6.54925">
        <ele>290</ele>
        <time>2016-09-03T08:13:10Z</time>
      </trkpt>
      <trkpt lat="47.42584" lon="6.54931">
        <ele>291</ele>
        <time>2016-09-03T08:13:12Z</time>
      </trkpt>
      <trkpt lat="47.42572" lon="6.54937">
        <ele>293</ele>
        <time>2016-09-03T08:13:14Z</time>
      </trkpt>
      <trkpt lat="47.4256" lon="6.54946">
        <ele>294</ele>
        <time>2016-09-03T08:13:16Z</time>
      </trkpt>
      <trkpt lat="47.42551" lon="6.54954">
        <ele>294</ele>
        <time>2016-09-03T08:13:18Z</time>
      </trkpt>
      <trkpt lat="47.42539" lon="6.54965">
        <ele>294</ele>
        <time>2016-09-03T08:13:20Z</time>
      </trkpt>
      <trkpt lat="47.42528" lon="6.54976">
        <ele>294</ele>
        <time>2016-09-03T08:13:22Z</time>
      </trkpt>
      <trkpt lat="47.42521" lon="6.5499">
        <ele>292</ele>
        <time>2016-09-03T08:13:24Z</time>
      </trkpt>
      <trkpt lat="47.42502" lon="6.55007">
        <ele>293</ele>
        <time>2016-09-03T08:13:27Z</time>
      </trkpt>
      <trkpt lat="47.42496" lon="6.55023">
        <ele>292</ele>
        <time>2016-09-03T08:13:29Z</time>
      </trkpt>
      <trkpt lat="47.4249" lon="6.55032">
        <ele>291</ele>
        <time>2016-09-03T08:13:30Z</time>
      </trkpt>
      <trkpt lat="47.42482" lon="6.5505">
        <ele>291</ele>
        <time>2016-09-03T08:13:32Z</time>
      </trkpt>
      <trkpt lat="47.42475" lon="6.55071">
        <ele>291</ele>
        <time>2016-09-03T08:13:34Z</time>
      </trkpt>
      <trkpt lat="47.42469" lon="6.55096">
        <ele>291</ele>
        <time>2016-09-03T08:13:36Z</time>
      </trkpt>
      <trkpt lat="47.42462" lon="6.55122">
        <ele>291</ele>
        <time>2016-09-03T08:13:38Z</time>
      </trkpt>
      <trkpt lat="47.4246" lon="6.55143">
        <ele>291</ele>
        <time>2016-09-03T08:13:40Z</time>
      </trkpt>
      <trkpt lat="47.42457" lon="6.55163">
        <ele>291</ele>
        <time>2016-09-03T08:13:42Z</time>
      </trkpt>
      <trkpt lat="47.42453" lon="6.55187">
        <ele>291</ele>
        <time>2016-09-03T08:13:44Z</time>
      </trkpt>
      <trkpt lat="47.42451" lon="6.55217">
        <ele>291</ele>
        <time>2016-09-03T08:13:47Z</time>
      </trkpt>
      <trkpt lat="47.42445" lon="6.5523">
        <ele>292</ele>
        <time>2016-09-03T08:13:48Z</time>
      </trkpt>
      <trkpt lat="47.42441" lon="6.55251">
        <ele>292</ele>
        <time>2016-09-03T08:13:50Z</time>
      </trkpt>
      <trkpt lat="47.42429" lon="6.55284">
        <ele>294</ele>
        <time>2016-09-03T08:13:53Z</time>
      </trkpt>
      <trkpt lat="47.42419" lon="6.55305">
        <ele>296</ele>
        <time>2016-09-03T08:13:55Z</time>
      </trkpt>
      <trkpt lat="47.42413" lon="6.55316">
        <ele>296</ele>
        <time>2016-09-03T08:13:56Z</time>
      </trkpt>
      <trkpt lat="47.42401" lon="6.55336">
        <ele>299</ele>
        <time>2016-09-03T08:13:58Z</time>
      </trkpt>
      <trkpt lat="47.42389" lon="6.55356">
        <ele>300</ele>
        <time>2016-09-03T08:14:00Z</time>
      </trkpt>
      <trkpt lat="47.42379" lon="6.55376">
        <ele>301</ele>
        <time>2016-09-03T08:14:03Z</time>
      </trkpt>
      <trkpt lat="47.42374" lon="6.55382">
        <ele>301</ele>
        <time>2016-09-03T08:14:04Z</time>
      </trkpt>
      <trkpt lat="47.42362" lon="6.55395">
        <ele>303</ele>
        <time>2016-09-03T08:14:06Z</time>
      </trkpt>
      <trkpt lat="47.42349" lon="6.55408">
        <ele>305</ele>
        <time>2016-09-03T08:14:08Z</time>
      </trkpt>
      <trkpt lat="47.42332" lon="6.55425">
        <ele>305</ele>
        <time>2016-09-03T08:14:11Z</time>
      </trkpt>
      <trkpt lat="47.42326" lon="6.5543">
        <ele>305</ele>
        <time>2016-09-03T08:14:12Z</time>
      </trkpt>
      <trkpt lat="47.42313" lon="6.55441">
        <ele>305</ele>
        <time>2016-09-03T08:14:14Z</time>
      </trkpt>
      <trkpt lat="47.42299" lon="6.55451">
        <ele>305</ele>
        <time>2016-09-03T08:14:16Z</time>
      </trkpt>
      <trkpt lat="47.42287" lon="6.55459">
        <ele>304</ele>
        <time>2016-09-03T08:14:18Z</time>
      </trkpt>
      <trkpt lat="47.42274" lon="6.55465">
        <ele>305</ele>
        <time>2016-09-03T08:14:20Z</time>
      </trkpt>
      <trkpt lat="47.42262" lon="6.55472">
        <ele>305</ele>
        <time>2016-09-03T08:14:22Z</time>
      </trkpt>
      <trkpt lat="47.42241" lon="6.55477">
        <ele>304</ele>
        <time>2016-09-03T08:14:25Z</time>
      </trkpt>
      <trkpt lat="47.42227" lon="6.55483">
        <ele>303</ele>
        <time>2016-09-03T08:14:27Z</time>
      </trkpt>
      <trkpt lat="47.42215" lon="6.55486">
        <ele>302</ele>
        <time>2016-09-03T08:14:29Z</time>
      </trkpt>
      <trkpt lat="47.42209" lon="6.55487">
        <ele>302</ele>
        <time>2016-09-03T08:14:30Z</time>
      </trkpt>
      <trkpt lat="47.42194" lon="6.5549">
        <ele>301</ele>
        <time>2016-09-03T08:14:32Z</time>
      </trkpt>
      <trkpt lat="47.42183" lon="6.555">
        <ele>298</ele>
        <time>2016-09-03T08:14:34Z</time>
      </trkpt>
      <trkpt lat="47.42172" lon="6.55506">
        <ele>296</ele>
        <time>2016-09-03T08:14:36Z</time>
      </trkpt>
      <trkpt lat="47.42155" lon="6.55504">
        <ele>297</ele>
        <time>2016-09-03T08:14:39Z</time>
      </trkpt>
      <trkpt lat="47.42139" lon="6.55501">
        <ele>297</ele>
        <time>2016-09-03T08:14:41Z</time>
      </trkpt>
      <trkpt lat="47.42131" lon="6.55502">
        <ele>297</ele>
        <time>2016-09-03T08:14:42Z</time>
      </trkpt>
      <trkpt lat="47.42117" lon="6.55504">
        <ele>296</ele>
        <time>2016-09-03T08:14:44Z</time>
      </trkpt>
      <trkpt lat="47.42095" lon="6.55508">
        <ele>293</ele>
        <time>2016-09-03T08:14:47Z</time>
      </trkpt>
      <trkpt lat="47.42088" lon="6.55509">
        <ele>293</ele>
        <time>2016-09-03T08:14:48Z</time>
      </trkpt>
      <trkpt lat="47.42075" lon="6.55509">
        <ele>292</ele>
        <time>2016-09-03T08:14:50Z</time>
      </trkpt>
      <trkpt lat="47.42062" lon="6.55511">
        <ele>291</ele>
        <time>2016-09-03T08:14:52Z</time>
      </trkpt>
      <trkpt lat="47.42051" lon="6.55512">
        <ele>291</ele>
        <time>2016-09-03T08:14:54Z</time>
      </trkpt>
      <trkpt lat="47.42029" lon="6.55515">
        <ele>292</ele>
        <time>2016-09-03T08:14:57Z</time>
      </trkpt>
      <trkpt lat="47.42022" lon="6.55516">
        <ele>292</ele>
        <time>2016-09-03T08:14:58Z</time>
      </trkpt>
      <trkpt lat="47.42" lon="6.55516">
        <ele>294</ele>
        <time>2016-09-03T08:15:01Z</time>
      </trkpt>
      <trkpt lat="47.41985" lon="6.55516">
        <ele>296</ele>
        <time>2016-09-03T08:15:03Z</time>
      </trkpt>
      <trkpt lat="47.41978" lon="6.55517">
        <ele>296</ele>
        <time>2016-09-03T08:15:04Z</time>
      </trkpt>
      <trkpt lat="47.41964" lon="6.55519">
        <ele>296</ele>
        <time>2016-09-03T08:15:06Z</time>
      </trkpt>
      <trkpt lat="47.41952" lon="6.55515">
        <ele>297</ele>
        <time>2016-09-03T08:15:08Z</time>
      </trkpt>
      <trkpt lat="47.41939" lon="6.55516">
        <ele>296</ele>
        <time>2016-09-03T08:15:10Z</time>
      </trkpt>
      <trkpt lat="47.41925" lon="6.55516">
        <ele>296</ele>
        <time>2016-09-03T08:15:12Z</time>
      </trkpt>
      <trkpt lat="47.41905" lon="6.55513">
        <ele>295</ele>
        <time>2016-09-03T08:15:15Z</time>
      </trkpt>
      <trkpt lat="47.4189" lon="6.55509">
        <ele>294</ele>
        <time>2016-09-03T08:15:17Z</time>
      </trkpt>
      <trkpt lat="47.41876" lon="6.55502">
        <ele>293</ele>
        <time>2016-09-03T08:15:19Z</time>
      </trkpt>
      <trkpt lat="47.41861" lon="6.55497">
        <ele>292</ele>
        <time>2016-09-03T08:15:21Z</time>
      </trkpt>
      <trkpt lat="47.41854" lon="6.55495">
        <ele>291</ele>
        <time>2016-09-03T08:15:22Z</time>
      </trkpt>
      <trkpt lat="47.41832" lon="6.55487">
        <ele>289</ele>
        <time>2016-09-03T08:15:25Z</time>
      </trkpt>
      <trkpt lat="47.41826" lon="6.55484">
        <ele>288</ele>
        <time>2016-09-03T08:15:26Z</time>
      </trkpt>
      <trkpt lat="47.41811" lon="6.55475">
        <ele>287</ele>
        <time>2016-09-03T08:15:28Z</time>
      </trkpt>
      <trkpt lat="47.41799" lon="6.55466">
        <ele>286</ele>
        <time>2016-09-03T08:15:30Z</time>
      </trkpt>
      <trkpt lat="47.41787" lon="6.55457">
        <ele>285</ele>
        <time>2016-09-03T08:15:32Z</time>
      </trkpt>
      <trkpt lat="47.41775" lon="6.55447">
        <ele>285</ele>
        <time>2016-09-03T08:15:34Z</time>
      </trkpt>
      <trkpt lat="47.41763" lon="6.55437">
        <ele>285</ele>
        <time>2016-09-03T08:15:36Z</time>
      </trkpt>
      <trkpt lat="47.41753" lon="6.55424">
        <ele>285</ele>
        <time>2016-09-03T08:15:38Z</time>
      </trkpt>
      <trkpt lat="47.41742" lon="6.55413">
        <ele>285</ele>
        <time>2016-09-03T08:15:40Z</time>
      </trkpt>
      <trkpt lat="47.41733" lon="6.55399">
        <ele>285</ele>
        <time>2016-09-03T08:15:42Z</time>
      </trkpt>
      <trkpt lat="47.41723" lon="6.55385">
        <ele>285</ele>
        <time>2016-09-03T08:15:44Z</time>
      </trkpt>
      <trkpt lat="47.41713" lon="6.5537">
        <ele>285</ele>
        <time>2016-09-03T08:15:46Z</time>
      </trkpt>
      <trkpt lat="47.41699" lon="6.55348">
        <ele>285</ele>
        <time>2016-09-03T08:15:49Z</time>
      </trkpt>
      <trkpt lat="47.41696" lon="6.5534">
        <ele>285</ele>
        <time>2016-09-03T08:15:50Z</time>
      </trkpt>
      <trkpt lat="47.41686" lon="6.55326">
        <ele>285</ele>
        <time>2016-09-03T08:15:52Z</time>
      </trkpt>
      <trkpt lat="47.41677" lon="6.55309">
        <ele>285</ele>
        <time>2016-09-03T08:15:54Z</time>
      </trkpt>
      <trkpt lat="47.41671" lon="6.55295">
        <ele>285</ele>
        <time>2016-09-03T08:15:56Z</time>
      </trkpt>
      <trkpt lat="47.41663" lon="6.55279">
        <ele>285</ele>
        <time>2016-09-03T08:15:58Z</time>
      </trkpt>
      <trkpt lat="47.41656" lon="6.55261">
        <ele>285</ele>
        <time>2016-09-03T08:16:00Z</time>
      </trkpt>
      <trkpt lat="47.41648" lon="6.55244">
        <ele>285</ele>
        <time>2016-09-03T08:16:02Z</time>
      </trkpt>
      <trkpt lat="47.41642" lon="6.55226">
        <ele>285</ele>
        <time>2016-09-03T08:16:04Z</time>
      </trkpt>
      <trkpt lat="47.41632" lon="6.552">
        <ele>285</ele>
        <time>2016-09-03T08:16:07Z</time>
      </trkpt>
      <trkpt lat="47.4163" lon="6.55191">
        <ele>285</ele>
        <time>2016-09-03T08:16:08Z</time>
      </trkpt>
      <trkpt lat="47.41625" lon="6.55173">
        <ele>285</ele>
        <time>2016-09-03T08:16:10Z</time>
      </trkpt>
      <trkpt lat="47.41619" lon="6.55154">
        <ele>285</ele>
        <time>2016-09-03T08:16:12Z</time>
      </trkpt>
      <trkpt lat="47.41615" lon="6.55135">
        <ele>285</ele>
        <time>2016-09-03T08:16:14Z</time>
      </trkpt>
      <trkpt lat="47.41612" lon="6.55116">
        <ele>285</ele>
        <time>2016-09-03T08:16:16Z</time>
      </trkpt>
      <trkpt lat="47.41608" lon="6.55096">
        <ele>285</ele>
        <time>2016-09-03T08:16:18Z</time>
      </trkpt>
      <trkpt lat="47.41603" lon="6.55072">
        <ele>285</ele>
        <time>2016-09-03T08:16:20Z</time>
      </trkpt>
      <trkpt lat="47.416" lon="6.55051">
        <ele>285</ele>
        <time>2016-09-03T08:16:22Z</time>
      </trkpt>
      <trkpt lat="47.41597" lon="6.55022">
        <ele>285</ele>
        <time>2016-09-03T08:16:25Z</time>
      </trkpt>
      <trkpt lat="47.41595" lon="6.55011">
        <ele>285</ele>
        <time>2016-09-03T08:16:26Z</time>
      </trkpt>
      <trkpt lat="47.41591" lon="6.54981">
        <ele>285</ele>
        <time>2016-09-03T08:16:29Z</time>
      </trkpt>
      <trkpt lat="47.4159" lon="6.54972">
        <ele>285</ele>
        <time>2016-09-03T08:16:30Z</time>
      </trkpt>
      <trkpt lat="47.41589" lon="6.54951">
        <ele>285</ele>
        <time>2016-09-03T08:16:32Z</time>
      </trkpt>
      <trkpt lat="47.41586" lon="6.54923">
        <ele>285</ele>
        <time>2016-09-03T08:16:35Z</time>
      </trkpt>
      <trkpt lat="47.41586" lon="6.549">
        <ele>285</ele>
        <time>2016-09-03T08:16:37Z</time>
      </trkpt>
      <trkpt lat="47.41586" lon="6.54889">
        <ele>285</ele>
        <time>2016-09-03T08:16:38Z</time>
      </trkpt>
      <trkpt lat="47.41585" lon="6.5486">
        <ele>284</ele>
        <time>2016-09-03T08:16:41Z</time>
      </trkpt>
      <trkpt lat="47.41585" lon="6.54847">
        <ele>284</ele>
        <time>2016-09-03T08:16:42Z</time>
      </trkpt>
      <trkpt lat="47.41585" lon="6.54825">
        <ele>284</ele>
        <time>2016-09-03T08:16:44Z</time>
      </trkpt>
      <trkpt lat="47.41585" lon="6.54802">
        <ele>284</ele>
        <time>2016-09-03T08:16:46Z</time>
      </trkpt>
      <trkpt lat="47.41586" lon="6.54778">
        <ele>284</ele>
        <time>2016-09-03T08:16:48Z</time>
      </trkpt>
      <trkpt lat="47.41587" lon="6.54745">
        <ele>284</ele>
        <time>2016-09-03T08:16:51Z</time>
      </trkpt>
      <trkpt lat="47.41587" lon="6.54723">
        <ele>284</ele>
        <time>2016-09-03T08:16:53Z</time>
      </trkpt>
      <trkpt lat="47.41587" lon="6.54704">
        <ele>284</ele>
        <time>2016-09-03T08:16:55Z</time>
      </trkpt>
      <trkpt lat="47.41587" lon="6.54683">
        <ele>284</ele>
        <time>2016-09-03T08:16:57Z</time>
      </trkpt>
      <trkpt lat="47.41587" lon="6.54673">
        <ele>284</ele>
        <time>2016-09-03T08:16:58Z</time>
      </trkpt>
      <trkpt lat="47.41587" lon="6.54655">
        <ele>284</ele>
        <time>2016-09-03T08:17:00Z</time>
      </trkpt>
      <trkpt lat="47.41587" lon="6.54634">
        <ele>284</ele>
        <time>2016-09-03T08:17:02Z</time>
      </trkpt>
      <trkpt lat="47.41587" lon="6.54602">
        <ele>284</ele>
        <time>2016-09-03T08:17:05Z</time>
      </trkpt>
      <trkpt lat="47.41589" lon="6.54582">
        <ele>284</ele>
        <time>2016-09-03T08:17:07Z</time>
      </trkpt>
      <trkpt lat="47.41589" lon="6.54572">
        <ele>284</ele>
        <time>2016-09-03T08:17:08Z</time>
      </trkpt>
      <trkpt lat="47.4159" lon="6.54547">
        <ele>284</ele>
        <time>2016-09-03T08:17:10Z</time>
      </trkpt>
      <trkpt lat="47.4159" lon="6.54519">
        <ele>284</ele>
        <time>2016-09-03T08:17:13Z</time>
      </trkpt>
      <trkpt lat="47.4159" lon="6.54509">
        <ele>284</ele>
        <time>2016-09-03T08:17:14Z</time>
      </trkpt>
      <trkpt lat="47.41591" lon="6.5449">
        <ele>284</ele>
        <time>2016-09-03T08:17:16Z</time>
      </trkpt>
      <trkpt lat="47.41591" lon="6.54472">
        <ele>284</ele>
        <time>2016-09-03T08:17:18Z</time>
      </trkpt>
      <trkpt lat="47.41592" lon="6.54443">
        <ele>284</ele>
        <time>2016-09-03T08:17:21Z</time>
      </trkpt>
      <trkpt lat="47.41592" lon="6.54433">
        <ele>284</ele>
        <time>2016-09-03T08:17:22Z</time>
      </trkpt>
      <trkpt lat="47.41592" lon="6.54415">
        <ele>284</ele>
        <time>2016-09-03T08:17:24Z</time>
      </trkpt>
      <trkpt lat="47.41592" lon="6.54397">
        <ele>284</ele>
        <time>2016-09-03T08:17:26Z</time>
      </trkpt>
      <trkpt lat="47.41593" lon="6.54366">
        <ele>284</ele>
        <time>2016-09-03T08:17:29Z</time>
      </trkpt>
      <trkpt lat="47.41593" lon="6.54356">
        <ele>284</ele>
        <time>2016-09-03T08:17:30Z</time>
      </trkpt>
      <trkpt lat="47.41594" lon="6.54337">
        <ele>284</ele>
        <time>2016-09-03T08:17:32Z</time>
      </trkpt>
      <trkpt lat="47.41597" lon="6.54304">
        <ele>285</ele>
        <time>2016-09-03T08:17:35Z</time>
      </trkpt>
      <trkpt lat="47.41597" lon="6.54293">
        <ele>285</ele>
        <time>2016-09-03T08:17:36Z</time>
      </trkpt>
      <trkpt lat="47.41596" lon="6.54276">
        <ele>284</ele>
        <time>2016-09-03T08:17:38Z</time>
      </trkpt>
      <trkpt lat="47.41596" lon="6.54255">
        <ele>284</ele>
        <time>2016-09-03T08:17:40Z</time>
      </trkpt>
      <trkpt lat="47.41595" lon="6.54236">
        <ele>284</ele>
        <time>2016-09-03T08:17:42Z</time>
      </trkpt>
      <trkpt lat="47.41595" lon="6.54207">
        <ele>284</ele>
        <time>2016-09-03T08:17:45Z</time>
      </trkpt>
      <trkpt lat="47.41595" lon="6.54198">
        <ele>284</ele>
        <time>2016-09-03T08:17:46Z</time>
      </trkpt>
      <trkpt lat="47.41596" lon="6.54179">
        <ele>283</ele>
        <time>2016-09-03T08:17:48Z</time>
      </trkpt>
      <trkpt lat="47.41598" lon="6.54161">
        <ele>283</ele>
        <time>2016-09-03T08:17:50Z</time>
      </trkpt>
      <trkpt lat="47.41599" lon="6.5414">
        <ele>283</ele>
        <time>2016-09-03T08:17:52Z</time>
      </trkpt>
      <trkpt lat="47.41601" lon="6.54118">
        <ele>283</ele>
        <time>2016-09-03T08:17:54Z</time>
      </trkpt>
      <trkpt lat="47.41602" lon="6.54091">
        <ele>283</ele>
        <time>2016-09-03T08:17:56Z</time>
      </trkpt>
      <trkpt lat="47.41601" lon="6.54068">
        <ele>282</ele>
        <time>2016-09-03T08:17:58Z</time>
      </trkpt>
      <trkpt lat="47.41602" lon="6.54036">
        <ele>282</ele>
        <time>2016-09-03T08:18:01Z</time>
      </trkpt>
      <trkpt lat="47.41603" lon="6.54022">
        <ele>282</ele>
        <time>2016-09-03T08:18:02Z</time>
      </trkpt>
      <trkpt lat="47.41604" lon="6.53986">
        <ele>282</ele>
        <time>2016-09-03T08:18:05Z</time>
      </trkpt>
      <trkpt lat="47.41604" lon="6.53976">
        <ele>282</ele>
        <time>2016-09-03T08:18:06Z</time>
      </trkpt>
      <trkpt lat="47.41604" lon="6.53943">
        <ele>282</ele>
        <time>2016-09-03T08:18:09Z</time>
      </trkpt>
      <trkpt lat="47.41605" lon="6.53929">
        <ele>282</ele>
        <time>2016-09-03T08:18:10Z</time>
      </trkpt>
      <trkpt lat="47.41605" lon="6.53906">
        <ele>282</ele>
        <time>2016-09-03T08:18:12Z</time>
      </trkpt>
      <trkpt lat="47.41607" lon="6.53885">
        <ele>282</ele>
        <time>2016-09-03T08:18:14Z</time>
      </trkpt>
      <trkpt lat="47.41607" lon="6.5386">
        <ele>282</ele>
        <time>2016-09-03T08:18:16Z</time>
      </trkpt>
      <trkpt lat="47.41607" lon="6.5384">
        <ele>282</ele>
        <time>2016-09-03T08:18:18Z</time>
      </trkpt>
      <trkpt lat="47.41607" lon="6.53807">
        <ele>282</ele>
        <time>2016-09-03T08:18:21Z</time>
      </trkpt>
      <trkpt lat="47.41608" lon="6.53797">
        <ele>282</ele>
        <time>2016-09-03T08:18:22Z</time>
      </trkpt>
      <trkpt lat="47.41609" lon="6.53771">
        <ele>282</ele>
        <time>2016-09-03T08:18:24Z</time>
      </trkpt>
      <trkpt lat="47.41609" lon="6.53749">
        <ele>282</ele>
        <time>2016-09-03T08:18:26Z</time>
      </trkpt>
      <trkpt lat="47.41608" lon="6.53729">
        <ele>282</ele>
        <time>2016-09-03T08:18:28Z</time>
      </trkpt>
      <trkpt lat="47.41608" lon="6.53699">
        <ele>282</ele>
        <time>2016-09-03T08:18:31Z</time>
      </trkpt>
      <trkpt lat="47.41609" lon="6.53688">
        <ele>282</ele>
        <time>2016-09-03T08:18:32Z</time>
      </trkpt>
      <trkpt lat="47.41609" lon="6.5367">
        <ele>282</ele>
        <time>2016-09-03T08:18:34Z</time>
      </trkpt>
      <trkpt lat="47.4161" lon="6.5363">
        <ele>282</ele>
        <time>2016-09-03T08:18:37Z</time>
      </trkpt>
      <trkpt lat="47.41611" lon="6.53608">
        <ele>282</ele>
        <time>2016-09-03T08:18:39Z</time>
      </trkpt>
      <trkpt lat="47.41611" lon="6.53587">
        <ele>282</ele>
        <time>2016-09-03T08:18:41Z</time>
      </trkpt>
      <trkpt lat="47.4161" lon="6.53575">
        <ele>282</ele>
        <time>2016-09-03T08:18:42Z</time>
      </trkpt>
      <trkpt lat="47.4161" lon="6.53552">
        <ele>282</ele>
        <time>2016-09-03T08:18:44Z</time>
      </trkpt>
      <trkpt lat="47.41611" lon="6.53521">
        <ele>283</ele>
        <time>2016-09-03T08:18:47Z</time>
      </trkpt>
      <trkpt lat="47.4161" lon="6.53512">
        <ele>283</ele>
        <time>2016-09-03T08:18:48Z</time>
      </trkpt>
      <trkpt lat="47.4161" lon="6.53482">
        <ele>283</ele>
        <time>2016-09-03T08:18:51Z</time>
      </trkpt>
      <trkpt lat="47.4161" lon="6.53471">
        <ele>283</ele>
        <time>2016-09-03T08:18:52Z</time>
      </trkpt>
      <trkpt lat="47.41611" lon="6.53449">
        <ele>283</ele>
        <time>2016-09-03T08:18:54Z</time>
      </trkpt>
      <trkpt lat="47.41612" lon="6.53413">
        <ele>283</ele>
        <time>2016-09-03T08:18:57Z</time>
      </trkpt>
      <trkpt lat="47.41613" lon="6.53401">
        <ele>283</ele>
        <time>2016-09-03T08:18:58Z</time>
      </trkpt>
      <trkpt lat="47.41613" lon="6.53379">
        <ele>283</ele>
        <time>2016-09-03T08:19:00Z</time>
      </trkpt>
      <trkpt lat="47.41614" lon="6.53356">
        <ele>283</ele>
        <time>2016-09-03T08:19:02Z</time>
      </trkpt>
      <trkpt lat="47.41614" lon="6.53334">
        <ele>283</ele>
        <time>2016-09-03T08:19:04Z</time>
      </trkpt>
      <trkpt lat="47.41614" lon="6.53314">
        <ele>283</ele>
        <time>2016-09-03T08:19:06Z</time>
      </trkpt>
      <trkpt lat="47.41613" lon="6.53296">
        <ele>283</ele>
        <time>2016-09-03T08:19:08Z</time>
      </trkpt>
      <trkpt lat="47.41614" lon="6.53272">
        <ele>283</ele>
        <time>2016-09-03T08:19:10Z</time>
      </trkpt>
      <trkpt lat="47.41615" lon="6.53246">
        <ele>283</ele>
        <time>2016-09-03T08:19:12Z</time>
      </trkpt>
      <trkpt lat="47.41615" lon="6.53224">
        <ele>283</ele>
        <time>2016-09-03T08:19:14Z</time>
      </trkpt>
      <trkpt lat="47.41615" lon="6.53192">
        <ele>283</ele>
        <time>2016-09-03T08:19:17Z</time>
      </trkpt>
      <trkpt lat="47.41616" lon="6.5318">
        <ele>283</ele>
        <time>2016-09-03T08:19:18Z</time>
      </trkpt>
      <trkpt lat="47.41617" lon="6.53148">
        <ele>283</ele>
        <time>2016-09-03T08:19:21Z</time>
      </trkpt>
      <trkpt lat="47.41619" lon="6.53123">
        <ele>283</ele>
        <time>2016-09-03T08:19:23Z</time>
      </trkpt>
      <trkpt lat="47.41619" lon="6.53113">
        <ele>283</ele>
        <time>2016-09-03T08:19:24Z</time>
      </trkpt>
      <trkpt lat="47.4162" lon="6.5309">
        <ele>283</ele>
        <time>2016-09-03T08:19:26Z</time>
      </trkpt>
      <trkpt lat="47.41619" lon="6.53069">
        <ele>283</ele>
        <time>2016-09-03T08:19:28Z</time>
      </trkpt>
      <trkpt lat="47.4162" lon="6.53048">
        <ele>283</ele>
        <time>2016-09-03T08:19:30Z</time>
      </trkpt>
      <trkpt lat="47.41621" lon="6.53015">
        <ele>283</ele>
        <time>2016-09-03T08:19:33Z</time>
      </trkpt>
      <trkpt lat="47.41621" lon="6.53004">
        <ele>283</ele>
        <time>2016-09-03T08:19:34Z</time>
      </trkpt>
      <trkpt lat="47.41622" lon="6.52981">
        <ele>283</ele>
        <time>2016-09-03T08:19:36Z</time>
      </trkpt>
      <trkpt lat="47.41623" lon="6.52961">
        <ele>283</ele>
        <time>2016-09-03T08:19:38Z</time>
      </trkpt>
      <trkpt lat="47.41624" lon="6.52936">
        <ele>283</ele>
        <time>2016-09-03T08:19:40Z</time>
      </trkpt>
      <trkpt lat="47.41624" lon="6.52913">
        <ele>283</ele>
        <time>2016-09-03T08:19:42Z</time>
      </trkpt>
      <trkpt lat="47.41623" lon="6.52883">
        <ele>283</ele>
        <time>2016-09-03T08:19:45Z</time>
      </trkpt>
      <trkpt lat="47.41623" lon="6.52863">
        <ele>283</ele>
        <time>2016-09-03T08:19:47Z</time>
      </trkpt>
      <trkpt lat="47.41624" lon="6.52851">
        <ele>283</ele>
        <time>2016-09-03T08:19:48Z</time>
      </trkpt>
      <trkpt lat="47.41625" lon="6.52829">
        <ele>283</ele>
        <time>2016-09-03T08:19:50Z</time>
      </trkpt>
      <trkpt lat="47.41627" lon="6.52802">
        <ele>283</ele>
        <time>2016-09-03T08:19:52Z</time>
      </trkpt>
      <trkpt lat="47.41629" lon="6.52768">
        <ele>283</ele>
        <time>2016-09-03T08:19:55Z</time>
      </trkpt>
      <trkpt lat="47.4163" lon="6.52746">
        <ele>283</ele>
        <time>2016-09-03T08:19:57Z</time>
      </trkpt>
      <trkpt lat="47.4163" lon="6.52735">
        <ele>283</ele>
        <time>2016-09-03T08:19:58Z</time>
      </trkpt>
      <trkpt lat="47.4163" lon="6.52709">
        <ele>283</ele>
        <time>2016-09-03T08:20:00Z</time>
      </trkpt>
      <trkpt lat="47.4163" lon="6.52675">
        <ele>283</ele>
        <time>2016-09-03T08:20:03Z</time>
      </trkpt>
      <trkpt lat="47.41628" lon="6.52653">
        <ele>283</ele>
        <time>2016-09-03T08:20:05Z</time>
      </trkpt>
      <trkpt lat="47.41628" lon="6.5263">
        <ele>283</ele>
        <time>2016-09-03T08:20:07Z</time>
      </trkpt>
      <trkpt lat="47.41629" lon="6.52617">
        <ele>283</ele>
        <time>2016-09-03T08:20:08Z</time>
      </trkpt>
      <trkpt lat="47.41628" lon="6.52586">
        <ele>283</ele>
        <time>2016-09-03T08:20:11Z</time>
      </trkpt>
      <trkpt lat="47.41628" lon="6.52577">
        <ele>283</ele>
        <time>2016-09-03T08:20:12Z</time>
      </trkpt>
      <trkpt lat="47.4163" lon="6.52543">
        <ele>283</ele>
        <time>2016-09-03T08:20:15Z</time>
      </trkpt>
      <trkpt lat="47.41631" lon="6.52518">
        <ele>283</ele>
        <time>2016-09-03T08:20:17Z</time>
      </trkpt>
      <trkpt lat="47.41631" lon="6.52495">
        <ele>283</ele>
        <time>2016-09-03T08:20:19Z</time>
      </trkpt>
      <trkpt lat="47.41631" lon="6.52484">
        <ele>283</ele>
        <time>2016-09-03T08:20:20Z</time>
      </trkpt>
      <trkpt lat="47.41632" lon="6.52451">
        <ele>283</ele>
        <time>2016-09-03T08:20:23Z</time>
      </trkpt>
      <trkpt lat="47.41632" lon="6.52433">
        <ele>283</ele>
        <time>2016-09-03T08:20:25Z</time>
      </trkpt>
      <trkpt lat="47.41633" lon="6.52417">
        <ele>283</ele>
        <time>2016-09-03T08:20:26Z</time>
      </trkpt>
      <trkpt lat="47.41634" lon="6.52396">
        <ele>283</ele>
        <time>2016-09-03T08:20:28Z</time>
      </trkpt>
      <trkpt lat="47.41634" lon="6.52373">
        <ele>282</ele>
        <time>2016-09-03T08:20:30Z</time>
      </trkpt>
      <trkpt lat="47.41637" lon="6.5234">
        <ele>282</ele>
        <time>2016-09-03T08:20:33Z</time>
      </trkpt>
      <trkpt lat="47.41638" lon="6.52328">
        <ele>282</ele>
        <time>2016-09-03T08:20:34Z</time>
      </trkpt>
      <trkpt lat="47.41637" lon="6.52306">
        <ele>282</ele>
        <time>2016-09-03T08:20:36Z</time>
      </trkpt>
      <trkpt lat="47.41638" lon="6.52283">
        <ele>282</ele>
        <time>2016-09-03T08:20:38Z</time>
      </trkpt>
      <trkpt lat="47.41639" lon="6.52262">
        <ele>282</ele>
        <time>2016-09-03T08:20:40Z</time>
      </trkpt>
      <trkpt lat="47.41638" lon="6.52239">
        <ele>282</ele>
        <time>2016-09-03T08:20:42Z</time>
      </trkpt>
      <trkpt lat="47.41639" lon="6.5222">
        <ele>282</ele>
        <time>2016-09-03T08:20:44Z</time>
      </trkpt>
      <trkpt lat="47.41639" lon="6.52201">
        <ele>282</ele>
        <time>2016-09-03T08:20:46Z</time>
      </trkpt>
      <trkpt lat="47.41639" lon="6.52179">
        <ele>282</ele>
        <time>2016-09-03T08:20:48Z</time>
      </trkpt>
      <trkpt lat="47.4164" lon="6.5216">
        <ele>281</ele>
        <time>2016-09-03T08:20:50Z</time>
      </trkpt>
      <trkpt lat="47.41638" lon="6.52133">
        <ele>281</ele>
        <time>2016-09-03T08:20:53Z</time>
      </trkpt>
      <trkpt lat="47.41636" lon="6.52125">
        <ele>281</ele>
        <time>2016-09-03T08:20:54Z</time>
      </trkpt>
      <trkpt lat="47.41634" lon="6.52095">
        <ele>280</ele>
        <time>2016-09-03T08:20:57Z</time>
      </trkpt>
      <trkpt lat="47.41635" lon="6.52084">
        <ele>280</ele>
        <time>2016-09-03T08:20:58Z</time>
      </trkpt>
      <trkpt lat="47.41637" lon="6.52053">
        <ele>279</ele>
        <time>2016-09-03T08:21:01Z</time>
      </trkpt>
      <trkpt lat="47.41637" lon="6.5203">
        <ele>279</ele>
        <time>2016-09-03T08:21:03Z</time>
      </trkpt>
      <trkpt lat="47.41641" lon="6.51998">
        <ele>279</ele>
        <time>2016-09-03T08:21:06Z</time>
      </trkpt>
      <trkpt lat="47.41645" lon="6.51975">
        <ele>279</ele>
        <time>2016-09-03T08:21:08Z</time>
      </trkpt>
      <trkpt lat="47.41649" lon="6.51947">
        <ele>278</ele>
        <time>2016-09-03T08:21:10Z</time>
      </trkpt>
      <trkpt lat="47.41651" lon="6.51936">
        <ele>278</ele>
        <time>2016-09-03T08:21:11Z</time>
      </trkpt>
      <trkpt lat="47.41654" lon="6.51912">
        <ele>278</ele>
        <time>2016-09-03T08:21:13Z</time>
      </trkpt>
      <trkpt lat="47.41657" lon="6.51887">
        <ele>279</ele>
        <time>2016-09-03T08:21:15Z</time>
      </trkpt>
      <trkpt lat="47.4166" lon="6.51863">
        <ele>279</ele>
        <time>2016-09-03T08:21:17Z</time>
      </trkpt>
      <trkpt lat="47.41663" lon="6.51842">
        <ele>280</ele>
        <time>2016-09-03T08:21:19Z</time>
      </trkpt>
      <trkpt lat="47.41664" lon="6.5182">
        <ele>281</ele>
        <time>2016-09-03T08:21:21Z</time>
      </trkpt>
      <trkpt lat="47.41667" lon="6.51782">
        <ele>283</ele>
        <time>2016-09-03T08:21:24Z</time>
      </trkpt>
      <trkpt lat="47.41667" lon="6.5176">
        <ele>284</ele>
        <time>2016-09-03T08:21:26Z</time>
      </trkpt>
      <trkpt lat="47.41667" lon="6.51747">
        <ele>285</ele>
        <time>2016-09-03T08:21:27Z</time>
      </trkpt>
      <trkpt lat="47.41666" lon="6.51726">
        <ele>287</ele>
        <time>2016-09-03T08:21:29Z</time>
      </trkpt>
      <trkpt lat="47.41663" lon="6.51705">
        <ele>289</ele>
        <time>2016-09-03T08:21:31Z</time>
      </trkpt>
      <trkpt lat="47.41659" lon="6.51684">
        <ele>289</ele>
        <time>2016-09-03T08:21:33Z</time>
      </trkpt>
      <trkpt lat="47.4165" lon="6.51652">
        <ele>290</ele>
        <time>2016-09-03T08:21:36Z</time>
      </trkpt>
      <trkpt lat="47.41647" lon="6.51643">
        <ele>291</ele>
        <time>2016-09-03T08:21:37Z</time>
      </trkpt>
      <trkpt lat="47.41643" lon="6.51621">
        <ele>293</ele>
        <time>2016-09-03T08:21:39Z</time>
      </trkpt>
      <trkpt lat="47.41632" lon="6.51591">
        <ele>295</ele>
        <time>2016-09-03T08:21:42Z</time>
      </trkpt>
      <trkpt lat="47.41627" lon="6.51579">
        <ele>295</ele>
        <time>2016-09-03T08:21:43Z</time>
      </trkpt>
      <trkpt lat="47.41619" lon="6.5156">
        <ele>296</ele>
        <time>2016-09-03T08:21:45Z</time>
      </trkpt>
      <trkpt lat="47.41609" lon="6.51541">
        <ele>295</ele>
        <time>2016-09-03T08:21:47Z</time>
      </trkpt>
      <trkpt lat="47.416" lon="6.51524">
        <ele>295</ele>
        <time>2016-09-03T08:21:49Z</time>
      </trkpt>
      <trkpt lat="47.41589" lon="6.51509">
        <ele>295</ele>
        <time>2016-09-03T08:21:51Z</time>
      </trkpt>
      <trkpt lat="47.41579" lon="6.51492">
        <ele>295</ele>
        <time>2016-09-03T08:21:53Z</time>
      </trkpt>
      <trkpt lat="47.41568" lon="6.51475">
        <ele>295</ele>
        <time>2016-09-03T08:21:55Z</time>
      </trkpt>
      <trkpt lat="47.41558" lon="6.51455">
        <ele>295</ele>
        <time>2016-09-03T08:21:57Z</time>
      </trkpt>
      <trkpt lat="47.41548" lon="6.51437">
        <ele>296</ele>
        <time>2016-09-03T08:21:59Z</time>
      </trkpt>
      <trkpt lat="47.41539" lon="6.5142">
        <ele>297</ele>
        <time>2016-09-03T08:22:01Z</time>
      </trkpt>
      <trkpt lat="47.41528" lon="6.51398">
        <ele>300</ele>
        <time>2016-09-03T08:22:03Z</time>
      </trkpt>
      <trkpt lat="47.41513" lon="6.51371">
        <ele>301</ele>
        <time>2016-09-03T08:22:06Z</time>
      </trkpt>
      <trkpt lat="47.41501" lon="6.51355">
        <ele>303</ele>
        <time>2016-09-03T08:22:08Z</time>
      </trkpt>
      <trkpt lat="47.41491" lon="6.5134">
        <ele>304</ele>
        <time>2016-09-03T08:22:10Z</time>
      </trkpt>
      <trkpt lat="47.41484" lon="6.51331">
        <ele>305</ele>
        <time>2016-09-03T08:22:11Z</time>
      </trkpt>
      <trkpt lat="47.41471" lon="6.51318">
        <ele>306</ele>
        <time>2016-09-03T08:22:13Z</time>
      </trkpt>
      <trkpt lat="47.41457" lon="6.51303">
        <ele>307</ele>
        <time>2016-09-03T08:22:15Z</time>
      </trkpt>
      <trkpt lat="47.41443" lon="6.5129">
        <ele>308</ele>
        <time>2016-09-03T08:22:17Z</time>
      </trkpt>
      <trkpt lat="47.41421" lon="6.51274">
        <ele>310</ele>
        <time>2016-09-03T08:22:20Z</time>
      </trkpt>
      <trkpt lat="47.41414" lon="6.51268">
        <ele>310</ele>
        <time>2016-09-03T08:22:21Z</time>
      </trkpt>
      <trkpt lat="47.414" lon="6.51259">
        <ele>310</ele>
        <time>2016-09-03T08:22:23Z</time>
      </trkpt>
      <trkpt lat="47.41387" lon="6.5125">
        <ele>312</ele>
        <time>2016-09-03T08:22:25Z</time>
      </trkpt>
      <trkpt lat="47.41372" lon="6.51242">
        <ele>312</ele>
        <time>2016-09-03T08:22:27Z</time>
      </trkpt>
      <trkpt lat="47.41349" lon="6.51232">
        <ele>312</ele>
        <time>2016-09-03T08:22:30Z</time>
      </trkpt>
      <trkpt lat="47.41342" lon="6.51229">
        <ele>312</ele>
        <time>2016-09-03T08:22:31Z</time>
      </trkpt>
      <trkpt lat="47.41327" lon="6.51222">
        <ele>311</ele>
        <time>2016-09-03T08:22:33Z</time>
      </trkpt>
      <trkpt lat="47.41312" lon="6.51215">
        <ele>313</ele>
        <time>2016-09-03T08:22:35Z</time>
      </trkpt>
      <trkpt lat="47.41296" lon="6.51209">
        <ele>312</ele>
        <time>2016-09-03T08:22:37Z</time>
      </trkpt>
      <trkpt lat="47.41279" lon="6.51204">
        <ele>310</ele>
        <time>2016-09-03T08:22:39Z</time>
      </trkpt>
      <trkpt lat="47.41264" lon="6.512">
        <ele>306</ele>
        <time>2016-09-03T08:22:41Z</time>
      </trkpt>
      <trkpt lat="47.41249" lon="6.51196">
        <ele>301</ele>
        <time>2016-09-03T08:22:43Z</time>
      </trkpt>
      <trkpt lat="47.41235" lon="6.51192">
        <ele>297</ele>
        <time>2016-09-03T08:22:45Z</time>
      </trkpt>
      <trkpt lat="47.4122" lon="6.51189">
        <ele>296</ele>
        <time>2016-09-03T08:22:47Z</time>
      </trkpt>
      <trkpt lat="47.41206" lon="6.51191">
        <ele>297</ele>
        <time>2016-09-03T08:22:49Z</time>
      </trkpt>
      <trkpt lat="47.41183" lon="6.51186">
        <ele>302</ele>
        <time>2016-09-03T08:22:52Z</time>
      </trkpt>
      <trkpt lat="47.41168" lon="6.5118">
        <ele>303</ele>
        <time>2016-09-03T08:22:54Z</time>
      </trkpt>
      <trkpt lat="47.41153" lon="6.51172">
        <ele>304</ele>
        <time>2016-09-03T08:22:56Z</time>
      </trkpt>
      <trkpt lat="47.41147" lon="6.51171">
        <ele>304</ele>
        <time>2016-09-03T08:22:57Z</time>
      </trkpt>
      <trkpt lat="47.41132" lon="6.51166">
        <ele>303</ele>
        <time>2016-09-03T08:22:59Z</time>
      </trkpt>
      <trkpt lat="47.41117" lon="6.51163">
        <ele>302</ele>
        <time>2016-09-03T08:23:01Z</time>
      </trkpt>
      <trkpt lat="47.41104" lon="6.51161">
        <ele>300</ele>
        <time>2016-09-03T08:23:03Z</time>
      </trkpt>
      <trkpt lat="47.4109" lon="6.51158">
        <ele>298</ele>
        <time>2016-09-03T08:23:05Z</time>
      </trkpt>
      <trkpt lat="47.4107" lon="6.51152">
        <ele>297</ele>
        <time>2016-09-03T08:23:08Z</time>
      </trkpt>
      <trkpt lat="47.41056" lon="6.51148">
        <ele>295</ele>
        <time>2016-09-03T08:23:10Z</time>
      </trkpt>
      <trkpt lat="47.41048" lon="6.51149">
        <ele>293</ele>
        <time>2016-09-03T08:23:11Z</time>
      </trkpt>
      <trkpt lat="47.41033" lon="6.51151">
        <ele>290</ele>
        <time>2016-09-03T08:23:13Z</time>
      </trkpt>
      <trkpt lat="47.41016" lon="6.5115">
        <ele>287</ele>
        <time>2016-09-03T08:23:15Z</time>
      </trkpt>
      <trkpt lat="47.41" lon="6.51148">
        <ele>286</ele>
        <time>2016-09-03T08:23:17Z</time>
      </trkpt>
      <trkpt lat="47.40984" lon="6.51146">
        <ele>284</ele>
        <time>2016-09-03T08:23:19Z</time>
      </trkpt>
      <trkpt lat="47.40969" lon="6.51146">
        <ele>282</ele>
        <time>2016-09-03T08:23:21Z</time>
      </trkpt>
      <trkpt lat="47.40953" lon="6.51145">
        <ele>281</ele>
        <time>2016-09-03T08:23:23Z</time>
      </trkpt>
      <trkpt lat="47.40938" lon="6.51145">
        <ele>281</ele>
        <time>2016-09-03T08:23:25Z</time>
      </trkpt>
      <trkpt lat="47.40923" lon="6.51143">
        <ele>280</ele>
        <time>2016-09-03T08:23:27Z</time>
      </trkpt>
      <trkpt lat="47.40908" lon="6.51142">
        <ele>279</ele>
        <time>2016-09-03T08:23:29Z</time>
      </trkpt>
      <trkpt lat="47.40892" lon="6.5114">
        <ele>278</ele>
        <time>2016-09-03T08:23:31Z</time>
      </trkpt>
      <trkpt lat="47.40876" lon="6.51139">
        <ele>278</ele>
        <time>2016-09-03T08:23:33Z</time>
      </trkpt>
      <trkpt lat="47.4086" lon="6.51138">
        <ele>277</ele>
        <time>2016-09-03T08:23:35Z</time>
      </trkpt>
      <trkpt lat="47.40845" lon="6.51136">
        <ele>277</ele>
        <time>2016-09-03T08:23:37Z</time>
      </trkpt>
      <trkpt lat="47.4083" lon="6.51134">
        <ele>276</ele>
        <time>2016-09-03T08:23:39Z</time>
      </trkpt>
      <trkpt lat="47.40816" lon="6.51133">
        <ele>276</ele>
        <time>2016-09-03T08:23:41Z</time>
      </trkpt>
      <trkpt lat="47.40801" lon="6.51133">
        <ele>276</ele>
        <time>2016-09-03T08:23:43Z</time>
      </trkpt>
      <trkpt lat="47.40786" lon="6.51132">
        <ele>276</ele>
        <time>2016-09-03T08:23:45Z</time>
      </trkpt>
      <trkpt lat="47.40772" lon="6.51131">
        <ele>275</ele>
        <time>2016-09-03T08:23:47Z</time>
      </trkpt>
      <trkpt lat="47.40757" lon="6.51131">
        <ele>275</ele>
        <time>2016-09-03T08:23:49Z</time>
      </trkpt>
      <trkpt lat="47.40734" lon="6.5113">
        <ele>275</ele>
        <time>2016-09-03T08:23:52Z</time>
      </trkpt>
      <trkpt lat="47.40726" lon="6.51128">
        <ele>275</ele>
        <time>2016-09-03T08:23:53Z</time>
      </trkpt>
      <trkpt lat="47.40703" lon="6.51126">
        <ele>275</ele>
        <time>2016-09-03T08:23:56Z</time>
      </trkpt>
      <trkpt lat="47.40695" lon="6.51125">
        <ele>275</ele>
        <time>2016-09-03T08:23:57Z</time>
      </trkpt>
      <trkpt lat="47.40681" lon="6.51125">
        <ele>275</ele>
        <time>2016-09-03T08:23:59Z</time>
      </trkpt>
      <trkpt lat="47.40667" lon="6.51123">
        <ele>275</ele>
        <time>2016-09-03T08:24:01Z</time>
      </trkpt>
      <trkpt lat="47.40652" lon="6.51119">
        <ele>275</ele>
        <time>2016-09-03T08:24:03Z</time>
      </trkpt>
      <trkpt lat="47.40637" lon="6.51117">
        <ele>275</ele>
        <time>2016-09-03T08:24:05Z</time>
      </trkpt>
      <trkpt lat="47.40622" lon="6.51114">
        <ele>275</ele>
        <time>2016-09-03T08:24:07Z</time>
      </trkpt>
      <trkpt lat="47.40608" lon="6.51113">
        <ele>275</ele>
        <time>2016-09-03T08:24:09Z</time>
      </trkpt>
      <trkpt lat="47.40592" lon="6.51113">
        <ele>275</ele>
        <time>2016-09-03T08:24:11Z</time>
      </trkpt>
      <trkpt lat="47.40578" lon="6.51112">
        <ele>275</ele>
        <time>2016-09-03T08:24:13Z</time>
      </trkpt>
      <trkpt lat="47.40555" lon="6.51114">
        <ele>275</ele>
        <time>2016-09-03T08:24:16Z</time>
      </trkpt>
      <trkpt lat="47.40549" lon="6.51114">
        <ele>275</ele>
        <time>2016-09-03T08:24:17Z</time>
      </trkpt>
      <trkpt lat="47.40535" lon="6.51115">
        <ele>275</ele>
        <time>2016-09-03T08:24:19Z</time>
      </trkpt>
      <trkpt lat="47.4052" lon="6.51116">
        <ele>275</ele>
        <time>2016-09-03T08:24:21Z</time>
      </trkpt>
      <trkpt lat="47.40506" lon="6.51116">
        <ele>275</ele>
        <time>2016-09-03T08:24:23Z</time>
      </trkpt>
      <trkpt lat="47.40491" lon="6.51116">
        <ele>275</ele>
        <time>2016-09-03T08:24:25Z</time>
      </trkpt>
      <trkpt lat="47.40476" lon="6.51114">
        <ele>275</ele>
        <time>2016-09-03T08:24:27Z</time>
      </trkpt>
      <trkpt lat="47.40454" lon="6.51109">
        <ele>275</ele>
        <time>2016-09-03T08:24:30Z</time>
      </trkpt>
      <trkpt lat="47.40446" lon="6.51107">
        <ele>275</ele>
        <time>2016-09-03T08:24:31Z</time>
      </trkpt>
      <trkpt lat="47.40431" lon="6.51103">
        <ele>275</ele>
        <time>2016-09-03T08:24:33Z</time>
      </trkpt>
      <trkpt lat="47.40417" lon="6.51096">
        <ele>275</ele>
        <time>2016-09-03T08:24:35Z</time>
      </trkpt>
      <trkpt lat="47.40401" lon="6.5109">
        <ele>275</ele>
        <time>2016-09-03T08:24:37Z</time>
      </trkpt>
      <trkpt lat="47.40383" lon="6.51082">
        <ele>276</ele>
        <time>2016-09-03T08:24:40Z</time>
      </trkpt>
      <trkpt lat="47.40376" lon="6.51076">
        <ele>276</ele>
        <time>2016-09-03T08:24:41Z</time>
      </trkpt>
      <trkpt lat="47.40361" lon="6.51066">
        <ele>276</ele>
        <time>2016-09-03T08:24:43Z</time>
      </trkpt>
      <trkpt lat="47.4035" lon="6.51056">
        <ele>276</ele>
        <time>2016-09-03T08:24:45Z</time>
      </trkpt>
      <trkpt lat="47.40338" lon="6.51046">
        <ele>277</ele>
        <time>2016-09-03T08:24:47Z</time>
      </trkpt>
      <trkpt lat="47.40327" lon="6.51037">
        <ele>277</ele>
        <time>2016-09-03T08:24:49Z</time>
      </trkpt>
      <trkpt lat="47.40319" lon="6.51028">
        <ele>277</ele>
        <time>2016-09-03T08:24:51Z</time>
      </trkpt>
      <trkpt lat="47.40307" lon="6.51018">
        <ele>277</ele>
        <time>2016-09-03T08:24:53Z</time>
      </trkpt>
      <trkpt lat="47.40291" lon="6.51006">
        <ele>277</ele>
        <time>2016-09-03T08:24:56Z</time>
      </trkpt>
      <trkpt lat="47.40286" lon="6.51004">
        <ele>277</ele>
        <time>2016-09-03T08:24:57Z</time>
      </trkpt>
      <trkpt lat="47.40269" lon="6.50992">
        <ele>277</ele>
        <time>2016-09-03T08:25:00Z</time>
      </trkpt>
      <trkpt lat="47.40263" lon="6.50989">
        <ele>277</ele>
        <time>2016-09-03T08:25:01Z</time>
      </trkpt>
      <trkpt lat="47.40251" lon="6.5098">
        <ele>276</ele>
        <time>2016-09-03T08:25:03Z</time>
      </trkpt>
      <trkpt lat="47.40231" lon="6.50966">
        <ele>276</ele>
        <time>2016-09-03T08:25:06Z</time>
      </trkpt>
      <trkpt lat="47.40218" lon="6.50957">
        <ele>276</ele>
        <time>2016-09-03T08:25:08Z</time>
      </trkpt>
      <trkpt lat="47.40205" lon="6.50949">
        <ele>276</ele>
        <time>2016-09-03T08:25:10Z</time>
      </trkpt>
      <trkpt lat="47.40199" lon="6.50945">
        <ele>276</ele>
        <time>2016-09-03T08:25:11Z</time>
      </trkpt>
      <trkpt lat="47.40188" lon="6.50935">
        <ele>276</ele>
        <time>2016-09-03T08:25:13Z</time>
      </trkpt>
      <trkpt lat="47.40167" lon="6.50922">
        <ele>276</ele>
        <time>2016-09-03T08:25:16Z</time>
      </trkpt>
      <trkpt lat="47.40161" lon="6.50916">
        <ele>276</ele>
        <time>2016-09-03T08:25:17Z</time>
      </trkpt>
      <trkpt lat="47.40149" lon="6.50906">
        <ele>276</ele>
        <time>2016-09-03T08:25:19Z</time>
      </trkpt>
      <trkpt lat="47.40129" lon="6.50892">
        <ele>276</ele>
        <time>2016-09-03T08:25:22Z</time>
      </trkpt>
      <trkpt lat="47.40123" lon="6.50887">
        <ele>276</ele>
        <time>2016-09-03T08:25:23Z</time>
      </trkpt>
      <trkpt lat="47.40109" lon="6.50877">
        <ele>276</ele>
        <time>2016-09-03T08:25:25Z</time>
      </trkpt>
      <trkpt lat="47.40096" lon="6.50867">
        <ele>276</ele>
        <time>2016-09-03T08:25:27Z</time>
      </trkpt>
      <trkpt lat="47.40084" lon="6.50858">
        <ele>277</ele>
        <time>2016-09-03T08:25:29Z</time>
      </trkpt>
      <trkpt lat="47.40071" lon="6.50849">
        <ele>277</ele>
        <time>2016-09-03T08:25:31Z</time>
      </trkpt>
      <trkpt lat="47.40058" lon="6.5084">
        <ele>277</ele>
        <time>2016-09-03T08:25:33Z</time>
      </trkpt>
      <trkpt lat="47.4004" lon="6.50827">
        <ele>277</ele>
        <time>2016-09-03T08:25:36Z</time>
      </trkpt>
      <trkpt lat="47.40034" lon="6.50822">
        <ele>277</ele>
        <time>2016-09-03T08:25:37Z</time>
      </trkpt>
      <trkpt lat="47.40021" lon="6.50812">
        <ele>278</ele>
        <time>2016-09-03T08:25:39Z</time>
      </trkpt>
      <trkpt lat="47.40008" lon="6.50802">
        <ele>278</ele>
        <time>2016-09-03T08:25:41Z</time>
      </trkpt>
      <trkpt lat="47.39996" lon="6.50793">
        <ele>278</ele>
        <time>2016-09-03T08:25:43Z</time>
      </trkpt>
      <trkpt lat="47.39983" lon="6.50784">
        <ele>278</ele>
        <time>2016-09-03T08:25:45Z</time>
      </trkpt>
      <trkpt lat="47.39969" lon="6.50774">
        <ele>278</ele>
        <time>2016-09-03T08:25:47Z</time>
      </trkpt>
      <trkpt lat="47.39958" lon="6.50767">
        <ele>278</ele>
        <time>2016-09-03T08:25:49Z</time>
      </trkpt>
      <trkpt lat="47.39945" lon="6.50755">
        <ele>278</ele>
        <time>2016-09-03T08:25:51Z</time>
      </trkpt>
      <trkpt lat="47.39933" lon="6.50744">
        <ele>278</ele>
        <time>2016-09-03T08:25:53Z</time>
      </trkpt>
      <trkpt lat="47.39919" lon="6.50734">
        <ele>277</ele>
        <time>2016-09-03T08:25:55Z</time>
      </trkpt>
      <trkpt lat="47.39906" lon="6.50723">
        <ele>277</ele>
        <time>2016-09-03T08:25:57Z</time>
      </trkpt>
      <trkpt lat="47.39894" lon="6.50712">
        <ele>277</ele>
        <time>2016-09-03T08:25:59Z</time>
      </trkpt>
      <trkpt lat="47.39884" lon="6.50701">
        <ele>276</ele>
        <time>2016-09-03T08:26:01Z</time>
      </trkpt>
      <trkpt lat="47.39871" lon="6.50689">
        <ele>276</ele>
        <time>2016-09-03T08:26:03Z</time>
      </trkpt>
      <trkpt lat="47.3986" lon="6.50677">
        <ele>276</ele>
        <time>2016-09-03T08:26:05Z</time>
      </trkpt>
      <trkpt lat="47.39848" lon="6.50667">
        <ele>276</ele>
        <time>2016-09-03T08:26:07Z</time>
      </trkpt>
      <trkpt lat="47.39836" lon="6.50655">
        <ele>276</ele>
        <time>2016-09-03T08:26:09Z</time>
      </trkpt>
      <trkpt lat="47.39823" lon="6.50641">
        <ele>276</ele>
        <time>2016-09-03T08:26:11Z</time>
      </trkpt>
      <trkpt lat="47.39811" lon="6.50628">
        <ele>276</ele>
        <time>2016-09-03T08:26:13Z</time>
      </trkpt>
      <trkpt lat="47.39801" lon="6.50616">
        <ele>275</ele>
        <time>2016-09-03T08:26:15Z</time>
      </trkpt>
      <trkpt lat="47.39791" lon="6.50602">
        <ele>275</ele>
        <time>2016-09-03T08:26:17Z</time>
      </trkpt>
      <trkpt lat="47.3978" lon="6.50589">
        <ele>275</ele>
        <time>2016-09-03T08:26:19Z</time>
      </trkpt>
      <trkpt lat="47.3977" lon="6.50575">
        <ele>276</ele>
        <time>2016-09-03T08:26:21Z</time>
      </trkpt>
      <trkpt lat="47.3976" lon="6.50562">
        <ele>276</ele>
        <time>2016-09-03T08:26:23Z</time>
      </trkpt>
      <trkpt lat="47.39746" lon="6.50539">
        <ele>276</ele>
        <time>2016-09-03T08:26:26Z</time>
      </trkpt>
      <trkpt lat="47.39742" lon="6.5053">
        <ele>276</ele>
        <time>2016-09-03T08:26:27Z</time>
      </trkpt>
      <trkpt lat="47.39736" lon="6.5051">
        <ele>276</ele>
        <time>2016-09-03T08:26:29Z</time>
      </trkpt>
      <trkpt lat="47.39733" lon="6.5049">
        <ele>276</ele>
        <time>2016-09-03T08:26:31Z</time>
      </trkpt>
      <trkpt lat="47.39731" lon="6.50458">
        <ele>275</ele>
        <time>2016-09-03T08:26:34Z</time>
      </trkpt>
      <trkpt lat="47.39731" lon="6.50446">
        <ele>275</ele>
        <time>2016-09-03T08:26:35Z</time>
      </trkpt>
      <trkpt lat="47.39734" lon="6.50426">
        <ele>276</ele>
        <time>2016-09-03T08:26:37Z</time>
      </trkpt>
      <trkpt lat="47.39735" lon="6.50408">
        <ele>276</ele>
        <time>2016-09-03T08:26:39Z</time>
      </trkpt>
      <trkpt lat="47.39735" lon="6.50388">
        <ele>276</ele>
        <time>2016-09-03T08:26:41Z</time>
      </trkpt>
      <trkpt lat="47.39739" lon="6.50365">
        <ele>276</ele>
        <time>2016-09-03T08:26:43Z</time>
      </trkpt>
      <trkpt lat="47.39742" lon="6.50339">
        <ele>276</ele>
        <time>2016-09-03T08:26:45Z</time>
      </trkpt>
      <trkpt lat="47.39744" lon="6.50318">
        <ele>277</ele>
        <time>2016-09-03T08:26:47Z</time>
      </trkpt>
      <trkpt lat="47.39747" lon="6.50294">
        <ele>277</ele>
        <time>2016-09-03T08:26:49Z</time>
      </trkpt>
      <trkpt lat="47.3975" lon="6.50274">
        <ele>278</ele>
        <time>2016-09-03T08:26:51Z</time>
      </trkpt>
      <trkpt lat="47.39751" lon="6.50258">
        <ele>278</ele>
        <time>2016-09-03T08:26:53Z</time>
      </trkpt>
      <trkpt lat="47.39755" lon="6.5023">
        <ele>278</ele>
        <time>2016-09-03T08:26:56Z</time>
      </trkpt>
      <trkpt lat="47.39757" lon="6.50204">
        <ele>278</ele>
        <time>2016-09-03T08:26:58Z</time>
      </trkpt>
      <trkpt lat="47.39759" lon="6.50193">
        <ele>279</ele>
        <time>2016-09-03T08:26:59Z</time>
      </trkpt>
      <trkpt lat="47.39763" lon="6.50163">
        <ele>279</ele>
        <time>2016-09-03T08:27:02Z</time>
      </trkpt>
      <trkpt lat="47.39766" lon="6.50152">
        <ele>279</ele>
        <time>2016-09-03T08:27:03Z</time>
      </trkpt>
      <trkpt lat="47.39766" lon="6.50132">
        <ele>279</ele>
        <time>2016-09-03T08:27:05Z</time>
      </trkpt>
      <trkpt lat="47.39768" lon="6.5011">
        <ele>279</ele>
        <time>2016-09-03T08:27:07Z</time>
      </trkpt>
      <trkpt lat="47.39767" lon="6.50083">
        <ele>279</ele>
        <time>2016-09-03T08:27:10Z</time>
      </trkpt>
      <trkpt lat="47.39766" lon="6.50073">
        <ele>279</ele>
        <time>2016-09-03T08:27:11Z</time>
      </trkpt>
      <trkpt lat="47.39763" lon="6.50057">
        <ele>280</ele>
        <time>2016-09-03T08:27:13Z</time>
      </trkpt>
      <trkpt lat="47.39758" lon="6.50044">
        <ele>280</ele>
        <time>2016-09-03T08:27:15Z</time>
      </trkpt>
      <trkpt lat="47.39755" lon="6.50016">
        <ele>280</ele>
        <time>2016-09-03T08:27:17Z</time>
      </trkpt>
      <trkpt lat="47.39751" lon="6.5">
        <ele>280</ele>
        <time>2016-09-03T08:27:19Z</time>
      </trkpt>
      <trkpt lat="47.39745" lon="6.49984">
        <ele>280</ele>
        <time>2016-09-03T08:27:21Z</time>
      </trkpt>
      <trkpt lat="47.39737" lon="6.49964">
        <ele>280</ele>
        <time>2016-09-03T08:27:23Z</time>
      </trkpt>
      <trkpt lat="47.39729" lon="6.49948">
        <ele>280</ele>
        <time>2016-09-03T08:27:25Z</time>
      </trkpt>
      <trkpt lat="47.3972" lon="6.49922">
        <ele>280</ele>
        <time>2016-09-03T08:27:28Z</time>
      </trkpt>
      <trkpt lat="47.39715" lon="6.49906">
        <ele>280</ele>
        <time>2016-09-03T08:27:30Z</time>
      </trkpt>
      <trkpt lat="47.39711" lon="6.49895">
        <ele>280</ele>
        <time>2016-09-03T08:27:31Z</time>
      </trkpt>
      <trkpt lat="47.39703" lon="6.49877">
        <ele>280</ele>
        <time>2016-09-03T08:27:33Z</time>
      </trkpt>
      <trkpt lat="47.39696" lon="6.49862">
        <ele>280</ele>
        <time>2016-09-03T08:27:35Z</time>
      </trkpt>
      <trkpt lat="47.39688" lon="6.49842">
        <ele>280</ele>
        <time>2016-09-03T08:27:37Z</time>
      </trkpt>
      <trkpt lat="47.39681" lon="6.49824">
        <ele>280</ele>
        <time>2016-09-03T08:27:39Z</time>
      </trkpt>
      <trkpt lat="47.39671" lon="6.49802">
        <ele>280</ele>
        <time>2016-09-03T08:27:42Z</time>
      </trkpt>
      <trkpt lat="47.39666" lon="6.49792">
        <ele>280</ele>
        <time>2016-09-03T08:27:43Z</time>
      </trkpt>
      <trkpt lat="47.39659" lon="6.49775">
        <ele>280</ele>
        <time>2016-09-03T08:27:45Z</time>
      </trkpt>
      <trkpt lat="47.39651" lon="6.49758">
        <ele>280</ele>
        <time>2016-09-03T08:27:47Z</time>
      </trkpt>
      <trkpt lat="47.3964" lon="6.49729">
        <ele>280</ele>
        <time>2016-09-03T08:27:50Z</time>
      </trkpt>
      <trkpt lat="47.39635" lon="6.4972">
        <ele>280</ele>
        <time>2016-09-03T08:27:51Z</time>
      </trkpt>
      <trkpt lat="47.39626" lon="6.49702">
        <ele>280</ele>
        <time>2016-09-03T08:27:53Z</time>
      </trkpt>
      <trkpt lat="47.39615" lon="6.49684">
        <ele>280</ele>
        <time>2016-09-03T08:27:55Z</time>
      </trkpt>
      <trkpt lat="47.39608" lon="6.49666">
        <ele>280</ele>
        <time>2016-09-03T08:27:57Z</time>
      </trkpt>
      <trkpt lat="47.396" lon="6.49647">
        <ele>280</ele>
        <time>2016-09-03T08:27:59Z</time>
      </trkpt>
      <trkpt lat="47.39591" lon="6.49629">
        <ele>280</ele>
        <time>2016-09-03T08:28:01Z</time>
      </trkpt>
      <trkpt lat="47.39583" lon="6.49611">
        <ele>280</ele>
        <time>2016-09-03T08:28:03Z</time>
      </trkpt>
      <trkpt lat="47.39575" lon="6.49596">
        <ele>280</ele>
        <time>2016-09-03T08:28:05Z</time>
      </trkpt>
      <trkpt lat="47.39566" lon="6.4958">
        <ele>280</ele>
        <time>2016-09-03T08:28:07Z</time>
      </trkpt>
      <trkpt lat="47.39554" lon="6.49555">
        <ele>279</ele>
        <time>2016-09-03T08:28:10Z</time>
      </trkpt>
      <trkpt lat="47.39548" lon="6.49546">
        <ele>279</ele>
        <time>2016-09-03T08:28:11Z</time>
      </trkpt>
      <trkpt lat="47.39539" lon="6.49531">
        <ele>279</ele>
        <time>2016-09-03T08:28:13Z</time>
      </trkpt>
      <trkpt lat="47.3953" lon="6.49517">
        <ele>278</ele>
        <time>2016-09-03T08:28:15Z</time>
      </trkpt>
      <trkpt lat="47.39521" lon="6.49503">
        <ele>278</ele>
        <time>2016-09-03T08:28:17Z</time>
      </trkpt>
      <trkpt lat="47.39512" lon="6.49488">
        <ele>277</ele>
        <time>2016-09-03T08:28:19Z</time>
      </trkpt>
      <trkpt lat="47.39497" lon="6.49464">
        <ele>276</ele>
        <time>2016-09-03T08:28:22Z</time>
      </trkpt>
      <trkpt lat="47.39492" lon="6.49457">
        <ele>276</ele>
        <time>2016-09-03T08:28:23Z</time>
      </trkpt>
      <trkpt lat="47.39482" lon="6.49444">
        <ele>275</ele>
        <time>2016-09-03T08:28:25Z</time>
      </trkpt>
      <trkpt lat="47.39472" lon="6.49432">
        <ele>275</ele>
        <time>2016-09-03T08:28:27Z</time>
      </trkpt>
      <trkpt lat="47.39462" lon="6.49422">
        <ele>275</ele>
        <time>2016-09-03T08:28:29Z</time>
      </trkpt>
      <trkpt lat="47.3945" lon="6.49411">
        <ele>275</ele>
        <time>2016-09-03T08:28:31Z</time>
      </trkpt>
      <trkpt lat="47.39438" lon="6.49402">
        <ele>276</ele>
        <time>2016-09-03T08:28:33Z</time>
      </trkpt>
      <trkpt lat="47.39426" lon="6.49396">
        <ele>276</ele>
        <time>2016-09-03T08:28:35Z</time>
      </trkpt>
      <trkpt lat="47.39414" lon="6.49391">
        <ele>277</ele>
        <time>2016-09-03T08:28:37Z</time>
      </trkpt>
      <trkpt lat="47.39403" lon="6.49388">
        <ele>277</ele>
        <time>2016-09-03T08:28:39Z</time>
      </trkpt>
      <trkpt lat="47.39389" lon="6.49385">
        <ele>279</ele>
        <time>2016-09-03T08:28:42Z</time>
      </trkpt>
      <trkpt lat="47.39383" lon="6.49382">
        <ele>280</ele>
        <time>2016-09-03T08:28:44Z</time>
      </trkpt>
      <trkpt lat="47.39381" lon="6.49378">
        <ele>280</ele>
        <time>2016-09-03T08:28:45Z</time>
      </trkpt>
      <trkpt lat="47.39373" lon="6.49372">
        <ele>282</ele>
        <time>2016-09-03T08:28:47Z</time>
      </trkpt>
      <trkpt lat="47.39364" lon="6.49372">
        <ele>284</ele>
        <time>2016-09-03T08:28:49Z</time>
      </trkpt>
      <trkpt lat="47.39352" lon="6.49373">
        <ele>285</ele>
        <time>2016-09-03T08:28:51Z</time>
      </trkpt>
      <trkpt lat="47.3934" lon="6.49375">
        <ele>287</ele>
        <time>2016-09-03T08:28:53Z</time>
      </trkpt>
      <trkpt lat="47.39324" lon="6.49376">
        <ele>289</ele>
        <time>2016-09-03T08:28:56Z</time>
      </trkpt>
      <trkpt lat="47.39317" lon="6.49377">
        <ele>291</ele>
        <time>2016-09-03T08:28:57Z</time>
      </trkpt>
      <trkpt lat="47.39304" lon="6.49377">
        <ele>294</ele>
        <time>2016-09-03T08:28:59Z</time>
      </trkpt>
      <trkpt lat="47.39291" lon="6.49381">
        <ele>296</ele>
        <time>2016-09-03T08:29:01Z</time>
      </trkpt>
      <trkpt lat="47.3927" lon="6.49384">
        <ele>297</ele>
        <time>2016-09-03T08:29:04Z</time>
      </trkpt>
      <trkpt lat="47.39264" lon="6.49385">
        <ele>298</ele>
        <time>2016-09-03T08:29:05Z</time>
      </trkpt>
      <trkpt lat="47.39256" lon="6.49385">
        <ele>298</ele>
        <time>2016-09-03T08:29:07Z</time>
      </trkpt>
      <trkpt lat="47.39244" lon="6.49383">
        <ele>300</ele>
        <time>2016-09-03T08:29:09Z</time>
      </trkpt>
      <trkpt lat="47.39227" lon="6.49391">
        <ele>296</ele>
        <time>2016-09-03T08:29:12Z</time>
      </trkpt>
      <trkpt lat="47.39222" lon="6.49394">
        <ele>295</ele>
        <time>2016-09-03T08:29:13Z</time>
      </trkpt>
      <trkpt lat="47.39211" lon="6.49401">
        <ele>293</ele>
        <time>2016-09-03T08:29:15Z</time>
      </trkpt>
      <trkpt lat="47.392" lon="6.49412">
        <ele>291</ele>
        <time>2016-09-03T08:29:17Z</time>
      </trkpt>
      <trkpt lat="47.39191" lon="6.49422">
        <ele>290</ele>
        <time>2016-09-03T08:29:19Z</time>
      </trkpt>
      <trkpt lat="47.39184" lon="6.49432">
        <ele>289</ele>
        <time>2016-09-03T08:29:21Z</time>
      </trkpt>
      <trkpt lat="47.39178" lon="6.49439">
        <ele>289</ele>
        <time>2016-09-03T08:29:23Z</time>
      </trkpt>
      <trkpt lat="47.39175" lon="6.49444">
        <ele>289</ele>
        <time>2016-09-03T08:29:26Z</time>
      </trkpt>
      <trkpt lat="47.39174" lon="6.49445">
        <ele>290</ele>
        <time>2016-09-03T08:29:27Z</time>
      </trkpt>
      <trkpt lat="47.39172" lon="6.49448">
        <ele>290</ele>
        <time>2016-09-03T08:29:30Z</time>
      </trkpt>
      <trkpt lat="47.39172" lon="6.49451">
        <ele>290</ele>
        <time>2016-09-03T08:29:31Z</time>
      </trkpt>
      <trkpt lat="47.3917" lon="6.49457">
        <ele>289</ele>
        <time>2016-09-03T08:29:33Z</time>
      </trkpt>
      <trkpt lat="47.39172" lon="6.49469">
        <ele>288</ele>
        <time>2016-09-03T08:29:35Z</time>
      </trkpt>
      <trkpt lat="47.39181" lon="6.49482">
        <ele>285</ele>
        <time>2016-09-03T08:29:37Z</time>
      </trkpt>
      <trkpt lat="47.39194" lon="6.49502">
        <ele>282</ele>
        <time>2016-09-03T08:29:40Z</time>
      </trkpt>
      <trkpt lat="47.39199" lon="6.4951">
        <ele>281</ele>
        <time>2016-09-03T08:29:41Z</time>
      </trkpt>
      <trkpt lat="47.39208" lon="6.49525">
        <ele>279</ele>
        <time>2016-09-03T08:29:43Z</time>
      </trkpt>
      <trkpt lat="47.39218" lon="6.4954">
        <ele>278</ele>
        <time>2016-09-03T08:29:45Z</time>
      </trkpt>
      <trkpt lat="47.39234" lon="6.49565">
        <ele>276</ele>
        <time>2016-09-03T08:29:48Z</time>
      </trkpt>
      <trkpt lat="47.39239" lon="6.49576">
        <ele>276</ele>
        <time>2016-09-03T08:29:49Z</time>
      </trkpt>
      <trkpt lat="47.39248" lon="6.49595">
        <ele>276</ele>
        <time>2016-09-03T08:29:51Z</time>
      </trkpt>
      <trkpt lat="47.39259" lon="6.49613">
        <ele>276</ele>
        <time>2016-09-03T08:29:53Z</time>
      </trkpt>
      <trkpt lat="47.39269" lon="6.49625">
        <ele>276</ele>
        <time>2016-09-03T08:29:55Z</time>
      </trkpt>
      <trkpt lat="47.39277" lon="6.49639">
        <ele>277</ele>
        <time>2016-09-03T08:29:57Z</time>
      </trkpt>
      <trkpt lat="47.39285" lon="6.49653">
        <ele>278</ele>
        <time>2016-09-03T08:29:59Z</time>
      </trkpt>
      <trkpt lat="47.39292" lon="6.49667">
        <ele>278</ele>
        <time>2016-09-03T08:30:01Z</time>
      </trkpt>
      <trkpt lat="47.39297" lon="6.49682">
        <ele>279</ele>
        <time>2016-09-03T08:30:03Z</time>
      </trkpt>
      <trkpt lat="47.39291" lon="6.49693">
        <ele>279</ele>
        <time>2016-09-03T08:30:05Z</time>
      </trkpt>
      <trkpt lat="47.39288" lon="6.49704">
        <ele>280</ele>
        <time>2016-09-03T08:30:07Z</time>
      </trkpt>
      <trkpt lat="47.39277" lon="6.49719">
        <ele>280</ele>
        <time>2016-09-03T08:30:10Z</time>
      </trkpt>
      <trkpt lat="47.39271" lon="6.49732">
        <ele>281</ele>
        <time>2016-09-03T08:30:12Z</time>
      </trkpt>
      <trkpt lat="47.39271" lon="6.49743">
        <ele>281</ele>
        <time>2016-09-03T08:30:13Z</time>
      </trkpt>
      <trkpt lat="47.39264" lon="6.49751">
        <ele>281</ele>
        <time>2016-09-03T08:30:15Z</time>
      </trkpt>
      <trkpt lat="47.39251" lon="6.49763">
        <ele>281</ele>
        <time>2016-09-03T08:30:18Z</time>
      </trkpt>
      <trkpt lat="47.39247" lon="6.49769">
        <ele>282</ele>
        <time>2016-09-03T08:30:19Z</time>
      </trkpt>
      <trkpt lat="47.39238" lon="6.4978">
        <ele>282</ele>
        <time>2016-09-03T08:30:21Z</time>
      </trkpt>
      <trkpt lat="47.39228" lon="6.49798">
        <ele>283</ele>
        <time>2016-09-03T08:30:24Z</time>
      </trkpt>
      <trkpt lat="47.39224" lon="6.49804">
        <ele>283</ele>
        <time>2016-09-03T08:30:25Z</time>
      </trkpt>
      <trkpt lat="47.39216" lon="6.49811">
        <ele>283</ele>
        <time>2016-09-03T08:30:27Z</time>
      </trkpt>
      <trkpt lat="47.3921" lon="6.49821">
        <ele>283</ele>
        <time>2016-09-03T08:30:30Z</time>
      </trkpt>
      <trkpt lat="47.39209" lon="6.49822">
        <ele>283</ele>
        <time>2016-09-03T08:30:31Z</time>
      </trkpt>
      <trkpt lat="47.39203" lon="6.49828">
        <ele>283</ele>
        <time>2016-09-03T08:30:33Z</time>
      </trkpt>
      <trkpt lat="47.39189" lon="6.49836">
        <ele>283</ele>
        <time>2016-09-03T08:30:36Z</time>
      </trkpt>
      <trkpt lat="47.39184" lon="6.49838">
        <ele>283</ele>
        <time>2016-09-03T08:30:37Z</time>
      </trkpt>
      <trkpt lat="47.39176" lon="6.49844">
        <ele>283</ele>
        <time>2016-09-03T08:30:39Z</time>
      </trkpt>
      <trkpt lat="47.39169" lon="6.4985">
        <ele>283</ele>
        <time>2016-09-03T08:30:41Z</time>
      </trkpt>
      <trkpt lat="47.39162" lon="6.49854">
        <ele>283</ele>
        <time>2016-09-03T08:30:43Z</time>
      </trkpt>
      <trkpt lat="47.39155" lon="6.4986">
        <ele>283</ele>
        <time>2016-09-03T08:30:45Z</time>
      </trkpt>
      <trkpt lat="47.39145" lon="6.49875">
        <ele>283</ele>
        <time>2016-09-03T08:30:48Z</time>
      </trkpt>
      <trkpt lat="47.39142" lon="6.49877">
        <ele>283</ele>
        <time>2016-09-03T08:30:49Z</time>
      </trkpt>
      <trkpt lat="47.39133" lon="6.49882">
        <ele>283</ele>
        <time>2016-09-03T08:30:51Z</time>
      </trkpt>
      <trkpt lat="47.39125" lon="6.49888">
        <ele>283</ele>
        <time>2016-09-03T08:30:53Z</time>
      </trkpt>
      <trkpt lat="47.39118" lon="6.49894">
        <ele>283</ele>
        <time>2016-09-03T08:30:55Z</time>
      </trkpt>
      <trkpt lat="47.39111" lon="6.499">
        <ele>283</ele>
        <time>2016-09-03T08:30:57Z</time>
      </trkpt>
      <trkpt lat="47.39103" lon="6.49905">
        <ele>283</ele>
        <time>2016-09-03T08:30:59Z</time>
      </trkpt>
      <trkpt lat="47.39096" lon="6.49912">
        <ele>283</ele>
        <time>2016-09-03T08:31:01Z</time>
      </trkpt>
      <trkpt lat="47.39089" lon="6.49918">
        <ele>284</ele>
        <time>2016-09-03T08:31:03Z</time>
      </trkpt>
      <trkpt lat="47.39079" lon="6.49927">
        <ele>284</ele>
        <time>2016-09-03T08:31:06Z</time>
      </trkpt>
      <trkpt lat="47.39072" lon="6.49934">
        <ele>284</ele>
        <time>2016-09-03T08:31:08Z</time>
      </trkpt>
      <trkpt lat="47.39064" lon="6.49941">
        <ele>284</ele>
        <time>2016-09-03T08:31:10Z</time>
      </trkpt>
      <trkpt lat="47.39061" lon="6.49945">
        <ele>284</ele>
        <time>2016-09-03T08:31:11Z</time>
      </trkpt>
      <trkpt lat="47.39052" lon="6.49952">
        <ele>284</ele>
        <time>2016-09-03T08:31:13Z</time>
      </trkpt>
      <trkpt lat="47.39044" lon="6.49958">
        <ele>284</ele>
        <time>2016-09-03T08:31:15Z</time>
      </trkpt>
      <trkpt lat="47.39034" lon="6.49968">
        <ele>285</ele>
        <time>2016-09-03T08:31:18Z</time>
      </trkpt>
      <trkpt lat="47.39032" lon="6.49972">
        <ele>285</ele>
        <time>2016-09-03T08:31:19Z</time>
      </trkpt>
      <trkpt lat="47.39025" lon="6.49979">
        <ele>285</ele>
        <time>2016-09-03T08:31:21Z</time>
      </trkpt>
      <trkpt lat="47.39017" lon="6.49986">
        <ele>285</ele>
        <time>2016-09-03T08:31:23Z</time>
      </trkpt>
      <trkpt lat="47.39008" lon="6.49997">
        <ele>285</ele>
        <time>2016-09-03T08:31:26Z</time>
      </trkpt>
      <trkpt lat="47.39004" lon="6.50001">
        <ele>285</ele>
        <time>2016-09-03T08:31:27Z</time>
      </trkpt>
      <trkpt lat="47.38999" lon="6.50008">
        <ele>285</ele>
        <time>2016-09-03T08:31:29Z</time>
      </trkpt>
      <trkpt lat="47.38992" lon="6.50017">
        <ele>285</ele>
        <time>2016-09-03T08:31:31Z</time>
      </trkpt>
      <trkpt lat="47.38982" lon="6.5003">
        <ele>285</ele>
        <time>2016-09-03T08:31:34Z</time>
      </trkpt>
      <trkpt lat="47.38979" lon="6.50034">
        <ele>286</ele>
        <time>2016-09-03T08:31:35Z</time>
      </trkpt>
      <trkpt lat="47.38972" lon="6.50041">
        <ele>286</ele>
        <time>2016-09-03T08:31:37Z</time>
      </trkpt>
      <trkpt lat="47.38965" lon="6.50054">
        <ele>287</ele>
        <time>2016-09-03T08:31:40Z</time>
      </trkpt>
      <trkpt lat="47.38962" lon="6.5006">
        <ele>288</ele>
        <time>2016-09-03T08:31:41Z</time>
      </trkpt>
      <trkpt lat="47.38958" lon="6.50069">
        <ele>289</ele>
        <time>2016-09-03T08:31:43Z</time>
      </trkpt>
      <trkpt lat="47.38952" lon="6.50078">
        <ele>289</ele>
        <time>2016-09-03T08:31:45Z</time>
      </trkpt>
      <trkpt lat="47.38947" lon="6.50087">
        <ele>290</ele>
        <time>2016-09-03T08:31:47Z</time>
      </trkpt>
      <trkpt lat="47.38941" lon="6.50097">
        <ele>291</ele>
        <time>2016-09-03T08:31:49Z</time>
      </trkpt>
      <trkpt lat="47.38932" lon="6.50109">
        <ele>292</ele>
        <time>2016-09-03T08:31:52Z</time>
      </trkpt>
      <trkpt lat="47.38929" lon="6.50112">
        <ele>292</ele>
        <time>2016-09-03T08:31:53Z</time>
      </trkpt>
      <trkpt lat="47.38917" lon="6.50124">
        <ele>291</ele>
        <time>2016-09-03T08:31:56Z</time>
      </trkpt>
      <trkpt lat="47.38912" lon="6.5013">
        <ele>291</ele>
        <time>2016-09-03T08:31:57Z</time>
      </trkpt>
      <trkpt lat="47.38896" lon="6.50144">
        <ele>289</ele>
        <time>2016-09-03T08:32:00Z</time>
      </trkpt>
      <trkpt lat="47.38891" lon="6.50148">
        <ele>289</ele>
        <time>2016-09-03T08:32:01Z</time>
      </trkpt>
      <trkpt lat="47.38874" lon="6.50163">
        <ele>287</ele>
        <time>2016-09-03T08:32:04Z</time>
      </trkpt>
      <trkpt lat="47.38868" lon="6.50167">
        <ele>286</ele>
        <time>2016-09-03T08:32:05Z</time>
      </trkpt>
      <trkpt lat="47.38855" lon="6.50173">
        <ele>284</ele>
        <time>2016-09-03T08:32:07Z</time>
      </trkpt>
      <trkpt lat="47.3884" lon="6.50179">
        <ele>283</ele>
        <time>2016-09-03T08:32:09Z</time>
      </trkpt>
      <trkpt lat="47.38824" lon="6.50184">
        <ele>282</ele>
        <time>2016-09-03T08:32:11Z</time>
      </trkpt>
      <trkpt lat="47.38806" lon="6.50189">
        <ele>281</ele>
        <time>2016-09-03T08:32:13Z</time>
      </trkpt>
      <trkpt lat="47.3879" lon="6.50198">
        <ele>280</ele>
        <time>2016-09-03T08:32:15Z</time>
      </trkpt>
      <trkpt lat="47.38774" lon="6.50213">
        <ele>279</ele>
        <time>2016-09-03T08:32:17Z</time>
      </trkpt>
      <trkpt lat="47.38757" lon="6.50226">
        <ele>279</ele>
        <time>2016-09-03T08:32:19Z</time>
      </trkpt>
      <trkpt lat="47.3874" lon="6.50241">
        <ele>278</ele>
        <time>2016-09-03T08:32:21Z</time>
      </trkpt>
      <trkpt lat="47.38714" lon="6.50265">
        <ele>278</ele>
        <time>2016-09-03T08:32:24Z</time>
      </trkpt>
      <trkpt lat="47.38696" lon="6.50279">
        <ele>277</ele>
        <time>2016-09-03T08:32:26Z</time>
      </trkpt>
      <trkpt lat="47.38678" lon="6.50295">
        <ele>278</ele>
        <time>2016-09-03T08:32:28Z</time>
      </trkpt>
      <trkpt lat="47.38659" lon="6.50309">
        <ele>278</ele>
        <time>2016-09-03T08:32:30Z</time>
      </trkpt>
      <trkpt lat="47.38648" lon="6.50316">
        <ele>277</ele>
        <time>2016-09-03T08:32:31Z</time>
      </trkpt>
      <trkpt lat="47.38627" lon="6.50331">
        <ele>277</ele>
        <time>2016-09-03T08:32:33Z</time>
      </trkpt>
      <trkpt lat="47.38605" lon="6.50346">
        <ele>276</ele>
        <time>2016-09-03T08:32:35Z</time>
      </trkpt>
      <trkpt lat="47.38581" lon="6.5036">
        <ele>276</ele>
        <time>2016-09-03T08:32:37Z</time>
      </trkpt>
      <trkpt lat="47.38561" lon="6.50373">
        <ele>276</ele>
        <time>2016-09-03T08:32:39Z</time>
      </trkpt>
      <trkpt lat="47.38528" lon="6.50394">
        <ele>277</ele>
        <time>2016-09-03T08:32:42Z</time>
      </trkpt>
      <trkpt lat="47.38516" lon="6.50401">
        <ele>276</ele>
        <time>2016-09-03T08:32:43Z</time>
      </trkpt>
      <trkpt lat="47.38484" lon="6.50419">
        <ele>275</ele>
        <time>2016-09-03T08:32:46Z</time>
      </trkpt>
      <trkpt lat="47.38474" lon="6.50425">
        <ele>275</ele>
        <time>2016-09-03T08:32:47Z</time>
      </trkpt>
      <trkpt lat="47.38453" lon="6.50436">
        <ele>275</ele>
        <time>2016-09-03T08:32:49Z</time>
      </trkpt>
      <trkpt lat="47.38431" lon="6.50447">
        <ele>275</ele>
        <time>2016-09-03T08:32:51Z</time>
      </trkpt>
      <trkpt lat="47.38409" lon="6.50456">
        <ele>275</ele>
        <time>2016-09-03T08:32:53Z</time>
      </trkpt>
      <trkpt lat="47.38389" lon="6.50466">
        <ele>275</ele>
        <time>2016-09-03T08:32:55Z</time>
      </trkpt>
      <trkpt lat="47.38369" lon="6.50474">
        <ele>275</ele>
        <time>2016-09-03T08:32:57Z</time>
      </trkpt>
      <trkpt lat="47.38342" lon="6.50494">
        <ele>274</ele>
        <time>2016-09-03T08:33:00Z</time>
      </trkpt>
      <trkpt lat="47.38332" lon="6.505">
        <ele>274</ele>
        <time>2016-09-03T08:33:01Z</time>
      </trkpt>
      <trkpt lat="47.38315" lon="6.50514">
        <ele>273</ele>
        <time>2016-09-03T08:33:03Z</time>
      </trkpt>
      <trkpt lat="47.38295" lon="6.50524">
        <ele>273</ele>
        <time>2016-09-03T08:33:05Z</time>
      </trkpt>
      <trkpt lat="47.38274" lon="6.50527">
        <ele>274</ele>
        <time>2016-09-03T08:33:07Z</time>
      </trkpt>
      <trkpt lat="47.38252" lon="6.5053">
        <ele>276</ele>
        <time>2016-09-03T08:33:09Z</time>
      </trkpt>
      <trkpt lat="47.38231" lon="6.50531">
        <ele>276</ele>
        <time>2016-09-03T08:33:11Z</time>
      </trkpt>
      <trkpt lat="47.38212" lon="6.50529">
        <ele>275</ele>
        <time>2016-09-03T08:33:13Z</time>
      </trkpt>
      <trkpt lat="47.38192" lon="6.50528">
        <ele>274</ele>
        <time>2016-09-03T08:33:15Z</time>
      </trkpt>
      <trkpt lat="47.38173" lon="6.50527">
        <ele>274</ele>
        <time>2016-09-03T08:33:17Z</time>
      </trkpt>
      <trkpt lat="47.38157" lon="6.50521">
        <ele>274</ele>
        <time>2016-09-03T08:33:19Z</time>
      </trkpt>
      <trkpt lat="47.3814" lon="6.50515">
        <ele>273</ele>
        <time>2016-09-03T08:33:21Z</time>
      </trkpt>
      <trkpt lat="47.38112" lon="6.50507">
        <ele>272</ele>
        <time>2016-09-03T08:33:24Z</time>
      </trkpt>
      <trkpt lat="47.38102" lon="6.50504">
        <ele>273</ele>
        <time>2016-09-03T08:33:25Z</time>
      </trkpt>
      <trkpt lat="47.38083" lon="6.50499">
        <ele>273</ele>
        <time>2016-09-03T08:33:27Z</time>
      </trkpt>
      <trkpt lat="47.38068" lon="6.50495">
        <ele>273</ele>
        <time>2016-09-03T08:33:29Z</time>
      </trkpt>
      <trkpt lat="47.38046" lon="6.50485">
        <ele>274</ele>
        <time>2016-09-03T08:33:32Z</time>
      </trkpt>
      <trkpt lat="47.38037" lon="6.50481">
        <ele>274</ele>
        <time>2016-09-03T08:33:33Z</time>
      </trkpt>
      <trkpt lat="47.3802" lon="6.50473">
        <ele>274</ele>
        <time>2016-09-03T08:33:35Z</time>
      </trkpt>
      <trkpt lat="47.38003" lon="6.50465">
        <ele>274</ele>
        <time>2016-09-03T08:33:37Z</time>
      </trkpt>
      <trkpt lat="47.37988" lon="6.50461">
        <ele>274</ele>
        <time>2016-09-03T08:33:39Z</time>
      </trkpt>
      <trkpt lat="47.37971" lon="6.50456">
        <ele>274</ele>
        <time>2016-09-03T08:33:41Z</time>
      </trkpt>
      <trkpt lat="47.37961" lon="6.50456">
        <ele>274</ele>
        <time>2016-09-03T08:33:43Z</time>
      </trkpt>
      <trkpt lat="47.37949" lon="6.50453">
        <ele>274</ele>
        <time>2016-09-03T08:33:45Z</time>
      </trkpt>
      <trkpt lat="47.37929" lon="6.50447">
        <ele>273</ele>
        <time>2016-09-03T08:33:48Z</time>
      </trkpt>
      <trkpt lat="47.37917" lon="6.50448">
        <ele>273</ele>
        <time>2016-09-03T08:33:50Z</time>
      </trkpt>
      <trkpt lat="47.37911" lon="6.50444">
        <ele>273</ele>
        <time>2016-09-03T08:33:51Z</time>
      </trkpt>
      <trkpt lat="47.37884" lon="6.50434">
        <ele>273</ele>
        <time>2016-09-03T08:33:54Z</time>
      </trkpt>
      <trkpt lat="47.37877" lon="6.5043">
        <ele>273</ele>
        <time>2016-09-03T08:33:55Z</time>
      </trkpt>
      <trkpt lat="47.37852" lon="6.50424">
        <ele>273</ele>
        <time>2016-09-03T08:33:58Z</time>
      </trkpt>
      <trkpt lat="47.37846" lon="6.50422">
        <ele>273</ele>
        <time>2016-09-03T08:33:59Z</time>
      </trkpt>
      <trkpt lat="47.37828" lon="6.50423">
        <ele>274</ele>
        <time>2016-09-03T08:34:01Z</time>
      </trkpt>
      <trkpt lat="47.37805" lon="6.50419">
        <ele>274</ele>
        <time>2016-09-03T08:34:04Z</time>
      </trkpt>
      <trkpt lat="47.3779" lon="6.50418">
        <ele>274</ele>
        <time>2016-09-03T08:34:06Z</time>
      </trkpt>
      <trkpt lat="47.37782" lon="6.50417">
        <ele>274</ele>
        <time>2016-09-03T08:34:07Z</time>
      </trkpt>
      <trkpt lat="47.3776" lon="6.50409">
        <ele>275</ele>
        <time>2016-09-03T08:34:10Z</time>
      </trkpt>
      <trkpt lat="47.37751" lon="6.50406">
        <ele>275</ele>
        <time>2016-09-03T08:34:11Z</time>
      </trkpt>
      <trkpt lat="47.37739" lon="6.50401">
        <ele>275</ele>
        <time>2016-09-03T08:34:13Z</time>
      </trkpt>
      <trkpt lat="47.37723" lon="6.50398">
        <ele>275</ele>
        <time>2016-09-03T08:34:15Z</time>
      </trkpt>
      <trkpt lat="47.37716" lon="6.50395">
        <ele>275</ele>
        <time>2016-09-03T08:34:17Z</time>
      </trkpt>
      <trkpt lat="47.37702" lon="6.50389">
        <ele>275</ele>
        <time>2016-09-03T08:34:19Z</time>
      </trkpt>
      <trkpt lat="47.37685" lon="6.5038">
        <ele>275</ele>
        <time>2016-09-03T08:34:21Z</time>
      </trkpt>
      <trkpt lat="47.3767" lon="6.50371">
        <ele>275</ele>
        <time>2016-09-03T08:34:23Z</time>
      </trkpt>
      <trkpt lat="47.37656" lon="6.50364">
        <ele>275</ele>
        <time>2016-09-03T08:34:25Z</time>
      </trkpt>
      <trkpt lat="47.37642" lon="6.50358">
        <ele>275</ele>
        <time>2016-09-03T08:34:27Z</time>
      </trkpt>
      <trkpt lat="47.37626" lon="6.50347">
        <ele>276</ele>
        <time>2016-09-03T08:34:29Z</time>
      </trkpt>
      <trkpt lat="47.37613" lon="6.50336">
        <ele>276</ele>
        <time>2016-09-03T08:34:31Z</time>
      </trkpt>
      <trkpt lat="47.37604" lon="6.50323">
        <ele>276</ele>
        <time>2016-09-03T08:34:33Z</time>
      </trkpt>
      <trkpt lat="47.37594" lon="6.5031">
        <ele>276</ele>
        <time>2016-09-03T08:34:35Z</time>
      </trkpt>
      <trkpt lat="47.3758" lon="6.50301">
        <ele>276</ele>
        <time>2016-09-03T08:34:37Z</time>
      </trkpt>
      <trkpt lat="47.37563" lon="6.50284">
        <ele>276</ele>
        <time>2016-09-03T08:34:40Z</time>
      </trkpt>
      <trkpt lat="47.37557" lon="6.50278">
        <ele>276</ele>
        <time>2016-09-03T08:34:41Z</time>
      </trkpt>
      <trkpt lat="47.37546" lon="6.50268">
        <ele>276</ele>
        <time>2016-09-03T08:34:43Z</time>
      </trkpt>
      <trkpt lat="47.37529" lon="6.50252">
        <ele>276</ele>
        <time>2016-09-03T08:34:46Z</time>
      </trkpt>
      <trkpt lat="47.37515" lon="6.5024">
        <ele>276</ele>
        <time>2016-09-03T08:34:48Z</time>
      </trkpt>
      <trkpt lat="47.3751" lon="6.50236">
        <ele>275</ele>
        <time>2016-09-03T08:34:49Z</time>
      </trkpt>
      <trkpt lat="47.37497" lon="6.50226">
        <ele>275</ele>
        <time>2016-09-03T08:34:51Z</time>
      </trkpt>
      <trkpt lat="47.37488" lon="6.50217">
        <ele>275</ele>
        <time>2016-09-03T08:34:53Z</time>
      </trkpt>
      <trkpt lat="47.37474" lon="6.50206">
        <ele>275</ele>
        <time>2016-09-03T08:34:55Z</time>
      </trkpt>
      <trkpt lat="47.37462" lon="6.50197">
        <ele>275</ele>
        <time>2016-09-03T08:34:57Z</time>
      </trkpt>
      <trkpt lat="47.37446" lon="6.50186">
        <ele>275</ele>
        <time>2016-09-03T08:35:00Z</time>
      </trkpt>
      <trkpt lat="47.37441" lon="6.50183">
        <ele>275</ele>
        <time>2016-09-03T08:35:01Z</time>
      </trkpt>
      <trkpt lat="47.37432" lon="6.50177">
        <ele>275</ele>
        <time>2016-09-03T08:35:03Z</time>
      </trkpt>
      <trkpt lat="47.37417" lon="6.50169">
        <ele>275</ele>
        <time>2016-09-03T08:35:05Z</time>
      </trkpt>
      <trkpt lat="47.37407" lon="6.5016">
        <ele>275</ele>
        <time>2016-09-03T08:35:07Z</time>
      </trkpt>
      <trkpt lat="47.37395" lon="6.50148">
        <ele>274</ele>
        <time>2016-09-03T08:35:10Z</time>
      </trkpt>
      <trkpt lat="47.37387" lon="6.50143">
        <ele>274</ele>
        <time>2016-09-03T08:35:11Z</time>
      </trkpt>
      <trkpt lat="47.37372" lon="6.50138">
        <ele>274</ele>
        <time>2016-09-03T08:35:13Z</time>
      </trkpt>
      <trkpt lat="47.37362" lon="6.50134">
        <ele>274</ele>
        <time>2016-09-03T08:35:15Z</time>
      </trkpt>
      <trkpt lat="47.37345" lon="6.5013">
        <ele>275</ele>
        <time>2016-09-03T08:35:17Z</time>
      </trkpt>
      <trkpt lat="47.37332" lon="6.50126">
        <ele>275</ele>
        <time>2016-09-03T08:35:19Z</time>
      </trkpt>
      <trkpt lat="47.37321" lon="6.50125">
        <ele>276</ele>
        <time>2016-09-03T08:35:21Z</time>
      </trkpt>
      <trkpt lat="47.3731" lon="6.50122">
        <ele>277</ele>
        <time>2016-09-03T08:35:23Z</time>
      </trkpt>
      <trkpt lat="47.37297" lon="6.50107">
        <ele>277</ele>
        <time>2016-09-03T08:35:26Z</time>
      </trkpt>
      <trkpt lat="47.37293" lon="6.50101">
        <ele>277</ele>
        <time>2016-09-03T08:35:27Z</time>
      </trkpt>
      <trkpt lat="47.37285" lon="6.50091">
        <ele>277</ele>
        <time>2016-09-03T08:35:29Z</time>
      </trkpt>
      <trkpt lat="47.3727" lon="6.50079">
        <ele>278</ele>
        <time>2016-09-03T08:35:32Z</time>
      </trkpt>
      <trkpt lat="47.37259" lon="6.50073">
        <ele>278</ele>
        <time>2016-09-03T08:35:34Z</time>
      </trkpt>
      <trkpt lat="47.37254" lon="6.5007">
        <ele>278</ele>
        <time>2016-09-03T08:35:35Z</time>
      </trkpt>
      <trkpt lat="47.37245" lon="6.50062">
        <ele>279</ele>
        <time>2016-09-03T08:35:37Z</time>
      </trkpt>
      <trkpt lat="47.37231" lon="6.50051">
        <ele>279</ele>
        <time>2016-09-03T08:35:40Z</time>
      </trkpt>
      <trkpt lat="47.37224" lon="6.50044">
        <ele>279</ele>
        <time>2016-09-03T08:35:42Z</time>
      </trkpt>
      <trkpt lat="47.3722" lon="6.50038">
        <ele>280</ele>
        <time>2016-09-03T08:35:43Z</time>
      </trkpt>
      <trkpt lat="47.37211" lon="6.50032">
        <ele>280</ele>
        <time>2016-09-03T08:35:45Z</time>
      </trkpt>
      <trkpt lat="47.37203" lon="6.50024">
        <ele>280</ele>
        <time>2016-09-03T08:35:47Z</time>
      </trkpt>
      <trkpt lat="47.37196" lon="6.50015">
        <ele>280</ele>
        <time>2016-09-03T08:35:49Z</time>
      </trkpt>
      <trkpt lat="47.37183" lon="6.49999">
        <ele>281</ele>
        <time>2016-09-03T08:35:52Z</time>
      </trkpt>
      <trkpt lat="47.37179" lon="6.49994">
        <ele>281</ele>
        <time>2016-09-03T08:35:53Z</time>
      </trkpt>
      <trkpt lat="47.3717" lon="6.4998">
        <ele>280</ele>
        <time>2016-09-03T08:35:55Z</time>
      </trkpt>
      <trkpt lat="47.37162" lon="6.49966">
        <ele>280</ele>
        <time>2016-09-03T08:35:57Z</time>
      </trkpt>
      <trkpt lat="47.37155" lon="6.4995">
        <ele>279</ele>
        <time>2016-09-03T08:35:59Z</time>
      </trkpt>
      <trkpt lat="47.37148" lon="6.49932">
        <ele>279</ele>
        <time>2016-09-03T08:36:01Z</time>
      </trkpt>
      <trkpt lat="47.37139" lon="6.499">
        <ele>278</ele>
        <time>2016-09-03T08:36:04Z</time>
      </trkpt>
      <trkpt lat="47.37134" lon="6.49888">
        <ele>278</ele>
        <time>2016-09-03T08:36:05Z</time>
      </trkpt>
      <trkpt lat="47.37121" lon="6.49857">
        <ele>277</ele>
        <time>2016-09-03T08:36:08Z</time>
      </trkpt>
      <trkpt lat="47.37116" lon="6.49848">
        <ele>277</ele>
        <time>2016-09-03T08:36:09Z</time>
      </trkpt>
      <trkpt lat="47.37099" lon="6.4982">
        <ele>277</ele>
        <time>2016-09-03T08:36:12Z</time>
      </trkpt>
      <trkpt lat="47.37091" lon="6.49803">
        <ele>276</ele>
        <time>2016-09-03T08:36:14Z</time>
      </trkpt>
      <trkpt lat="47.37086" lon="6.49794">
        <ele>276</ele>
        <time>2016-09-03T08:36:15Z</time>
      </trkpt>
      <trkpt lat="47.37076" lon="6.49775">
        <ele>277</ele>
        <time>2016-09-03T08:36:17Z</time>
      </trkpt>
      <trkpt lat="47.37066" lon="6.49756">
        <ele>277</ele>
        <time>2016-09-03T08:36:19Z</time>
      </trkpt>
      <trkpt lat="47.37056" lon="6.49738">
        <ele>277</ele>
        <time>2016-09-03T08:36:21Z</time>
      </trkpt>
      <trkpt lat="47.37047" lon="6.49722">
        <ele>278</ele>
        <time>2016-09-03T08:36:23Z</time>
      </trkpt>
      <trkpt lat="47.37039" lon="6.49705">
        <ele>278</ele>
        <time>2016-09-03T08:36:25Z</time>
      </trkpt>
      <trkpt lat="47.3703" lon="6.49688">
        <ele>278</ele>
        <time>2016-09-03T08:36:27Z</time>
      </trkpt>
      <trkpt lat="47.37024" lon="6.49671">
        <ele>278</ele>
        <time>2016-09-03T08:36:29Z</time>
      </trkpt>
      <trkpt lat="47.37016" lon="6.49655">
        <ele>278</ele>
        <time>2016-09-03T08:36:31Z</time>
      </trkpt>
      <trkpt lat="47.37008" lon="6.49638">
        <ele>278</ele>
        <time>2016-09-03T08:36:33Z</time>
      </trkpt>
      <trkpt lat="47.36999" lon="6.49622">
        <ele>278</ele>
        <time>2016-09-03T08:36:35Z</time>
      </trkpt>
      <trkpt lat="47.36988" lon="6.49604">
        <ele>278</ele>
        <time>2016-09-03T08:36:37Z</time>
      </trkpt>
      <trkpt lat="47.36978" lon="6.49579">
        <ele>278</ele>
        <time>2016-09-03T08:36:40Z</time>
      </trkpt>
      <trkpt lat="47.36976" lon="6.49571">
        <ele>278</ele>
        <time>2016-09-03T08:36:41Z</time>
      </trkpt>
      <trkpt lat="47.36969" lon="6.49551">
        <ele>277</ele>
        <time>2016-09-03T08:36:43Z</time>
      </trkpt>
      <trkpt lat="47.36963" lon="6.49531">
        <ele>277</ele>
        <time>2016-09-03T08:36:45Z</time>
      </trkpt>
      <trkpt lat="47.36956" lon="6.49511">
        <ele>276</ele>
        <time>2016-09-03T08:36:47Z</time>
      </trkpt>
      <trkpt lat="47.36945" lon="6.4949">
        <ele>276</ele>
        <time>2016-09-03T08:36:49Z</time>
      </trkpt>
      <trkpt lat="47.36938" lon="6.4947">
        <ele>276</ele>
        <time>2016-09-03T08:36:51Z</time>
      </trkpt>
      <trkpt lat="47.36924" lon="6.49439">
        <ele>277</ele>
        <time>2016-09-03T08:36:54Z</time>
      </trkpt>
      <trkpt lat="47.3692" lon="6.49429">
        <ele>277</ele>
        <time>2016-09-03T08:36:55Z</time>
      </trkpt>
      <trkpt lat="47.36912" lon="6.49407">
        <ele>277</ele>
        <time>2016-09-03T08:36:57Z</time>
      </trkpt>
      <trkpt lat="47.369" lon="6.49385">
        <ele>278</ele>
        <time>2016-09-03T08:36:59Z</time>
      </trkpt>
      <trkpt lat="47.36894" lon="6.49365">
        <ele>278</ele>
        <time>2016-09-03T08:37:01Z</time>
      </trkpt>
      <trkpt lat="47.36882" lon="6.49345">
        <ele>279</ele>
        <time>2016-09-03T08:37:03Z</time>
      </trkpt>
      <trkpt lat="47.36874" lon="6.49315">
        <ele>279</ele>
        <time>2016-09-03T08:37:06Z</time>
      </trkpt>
      <trkpt lat="47.36875" lon="6.49305">
        <ele>278</ele>
        <time>2016-09-03T08:37:07Z</time>
      </trkpt>
      <trkpt lat="47.36868" lon="6.49274">
        <ele>278</ele>
        <time>2016-09-03T08:37:10Z</time>
      </trkpt>
      <trkpt lat="47.36865" lon="6.49263">
        <ele>277</ele>
        <time>2016-09-03T08:37:11Z</time>
      </trkpt>
      <trkpt lat="47.36858" lon="6.49243">
        <ele>277</ele>
        <time>2016-09-03T08:37:13Z</time>
      </trkpt>
      <trkpt lat="47.36852" lon="6.49221">
        <ele>276</ele>
        <time>2016-09-03T08:37:15Z</time>
      </trkpt>
      <trkpt lat="47.36847" lon="6.492">
        <ele>276</ele>
        <time>2016-09-03T08:37:17Z</time>
      </trkpt>
      <trkpt lat="47.3684" lon="6.49181">
        <ele>275</ele>
        <time>2016-09-03T08:37:19Z</time>
      </trkpt>
      <trkpt lat="47.36839" lon="6.49161">
        <ele>275</ele>
        <time>2016-09-03T08:37:21Z</time>
      </trkpt>
      <trkpt lat="47.36837" lon="6.49143">
        <ele>275</ele>
        <time>2016-09-03T08:37:23Z</time>
      </trkpt>
      <trkpt lat="47.36838" lon="6.4912">
        <ele>275</ele>
        <time>2016-09-03T08:37:25Z</time>
      </trkpt>
      <trkpt lat="47.36837" lon="6.49101">
        <ele>276</ele>
        <time>2016-09-03T08:37:27Z</time>
      </trkpt>
      <trkpt lat="47.36832" lon="6.49066">
        <ele>277</ele>
        <time>2016-09-03T08:37:30Z</time>
      </trkpt>
      <trkpt lat="47.36828" lon="6.49048">
        <ele>278</ele>
        <time>2016-09-03T08:37:32Z</time>
      </trkpt>
      <trkpt lat="47.36827" lon="6.49036">
        <ele>278</ele>
        <time>2016-09-03T08:37:33Z</time>
      </trkpt>
      <trkpt lat="47.36823" lon="6.49018">
        <ele>278</ele>
        <time>2016-09-03T08:37:35Z</time>
      </trkpt>
      <trkpt lat="47.36819" lon="6.48997">
        <ele>278</ele>
        <time>2016-09-03T08:37:37Z</time>
      </trkpt>
      <trkpt lat="47.36814" lon="6.48976">
        <ele>278</ele>
        <time>2016-09-03T08:37:39Z</time>
      </trkpt>
      <trkpt lat="47.3681" lon="6.48947">
        <ele>277</ele>
        <time>2016-09-03T08:37:42Z</time>
      </trkpt>
      <trkpt lat="47.36809" lon="6.48937">
        <ele>277</ele>
        <time>2016-09-03T08:37:43Z</time>
      </trkpt>
      <trkpt lat="47.36805" lon="6.48914">
        <ele>278</ele>
        <time>2016-09-03T08:37:45Z</time>
      </trkpt>
      <trkpt lat="47.36801" lon="6.48895">
        <ele>278</ele>
        <time>2016-09-03T08:37:47Z</time>
      </trkpt>
      <trkpt lat="47.36799" lon="6.48875">
        <ele>278</ele>
        <time>2016-09-03T08:37:49Z</time>
      </trkpt>
      <trkpt lat="47.36798" lon="6.48856">
        <ele>279</ele>
        <time>2016-09-03T08:37:51Z</time>
      </trkpt>
      <trkpt lat="47.36797" lon="6.48839">
        <ele>278</ele>
        <time>2016-09-03T08:37:53Z</time>
      </trkpt>
      <trkpt lat="47.36794" lon="6.48818">
        <ele>279</ele>
        <time>2016-09-03T08:37:55Z</time>
      </trkpt>
      <trkpt lat="47.36791" lon="6.48798">
        <ele>280</ele>
        <time>2016-09-03T08:37:57Z</time>
      </trkpt>
      <trkpt lat="47.36785" lon="6.48772">
        <ele>281</ele>
        <time>2016-09-03T08:38:00Z</time>
      </trkpt>
      <trkpt lat="47.36785" lon="6.48763">
        <ele>282</ele>
        <time>2016-09-03T08:38:01Z</time>
      </trkpt>
      <trkpt lat="47.36785" lon="6.48744">
        <ele>282</ele>
        <time>2016-09-03T08:38:03Z</time>
      </trkpt>
      <trkpt lat="47.3678" lon="6.4873">
        <ele>284</ele>
        <time>2016-09-03T08:38:05Z</time>
      </trkpt>
      <trkpt lat="47.36777" lon="6.48718">
        <ele>285</ele>
        <time>2016-09-03T08:38:07Z</time>
      </trkpt>
      <trkpt lat="47.36778" lon="6.48703">
        <ele>285</ele>
        <time>2016-09-03T08:38:09Z</time>
      </trkpt>
      <trkpt lat="47.36773" lon="6.48685">
        <ele>287</ele>
        <time>2016-09-03T08:38:12Z</time>
      </trkpt>
      <trkpt lat="47.36772" lon="6.48675">
        <ele>287</ele>
        <time>2016-09-03T08:38:14Z</time>
      </trkpt>
      <trkpt lat="47.36772" lon="6.48663">
        <ele>287</ele>
        <time>2016-09-03T08:38:16Z</time>
      </trkpt>
      <trkpt lat="47.36769" lon="6.48657">
        <ele>288</ele>
        <time>2016-09-03T08:38:17Z</time>
      </trkpt>
      <trkpt lat="47.36772" lon="6.48646">
        <ele>287</ele>
        <time>2016-09-03T08:38:19Z</time>
      </trkpt>
      <trkpt lat="47.36774" lon="6.48638">
        <ele>286</ele>
        <time>2016-09-03T08:38:21Z</time>
      </trkpt>
      <trkpt lat="47.36776" lon="6.48628">
        <ele>286</ele>
        <time>2016-09-03T08:38:23Z</time>
      </trkpt>
      <trkpt lat="47.36776" lon="6.4862">
        <ele>287</ele>
        <time>2016-09-03T08:38:25Z</time>
      </trkpt>
      <trkpt lat="47.36776" lon="6.48612">
        <ele>287</ele>
        <time>2016-09-03T08:38:27Z</time>
      </trkpt>
      <trkpt lat="47.36775" lon="6.48604">
        <ele>288</ele>
        <time>2016-09-03T08:38:29Z</time>
      </trkpt>
      <trkpt lat="47.36775" lon="6.48594">
        <ele>289</ele>
        <time>2016-09-03T08:38:31Z</time>
      </trkpt>
      <trkpt lat="47.36779" lon="6.48573">
        <ele>288</ele>
        <time>2016-09-03T08:38:33Z</time>
      </trkpt>
      <trkpt lat="47.3678" lon="6.48565">
        <ele>288</ele>
        <time>2016-09-03T08:38:35Z</time>
      </trkpt>
      <trkpt lat="47.36778" lon="6.48557">
        <ele>290</ele>
        <time>2016-09-03T08:38:37Z</time>
      </trkpt>
      <trkpt lat="47.36779" lon="6.48548">
        <ele>290</ele>
        <time>2016-09-03T08:38:39Z</time>
      </trkpt>
      <trkpt lat="47.3678" lon="6.48538">
        <ele>290</ele>
        <time>2016-09-03T08:38:41Z</time>
      </trkpt>
      <trkpt lat="47.3678" lon="6.48525">
        <ele>290</ele>
        <time>2016-09-03T08:38:44Z</time>
      </trkpt>
      <trkpt lat="47.3678" lon="6.48517">
        <ele>290</ele>
        <time>2016-09-03T08:38:46Z</time>
      </trkpt>
      <trkpt lat="47.3678" lon="6.48513">
        <ele>290</ele>
        <time>2016-09-03T08:38:47Z</time>
      </trkpt>
      <trkpt lat="47.36779" lon="6.48503">
        <ele>290</ele>
        <time>2016-09-03T08:38:49Z</time>
      </trkpt>
      <trkpt lat="47.36778" lon="6.48495">
        <ele>290</ele>
        <time>2016-09-03T08:38:51Z</time>
      </trkpt>
      <trkpt lat="47.36777" lon="6.48483">
        <ele>290</ele>
        <time>2016-09-03T08:38:54Z</time>
      </trkpt>
      <trkpt lat="47.36777" lon="6.48477">
        <ele>290</ele>
        <time>2016-09-03T08:38:55Z</time>
      </trkpt>
      <trkpt lat="47.36777" lon="6.48471">
        <ele>289</ele>
        <time>2016-09-03T08:38:57Z</time>
      </trkpt>
      <trkpt lat="47.36776" lon="6.48462">
        <ele>289</ele>
        <time>2016-09-03T08:39:00Z</time>
      </trkpt>
      <trkpt lat="47.36774" lon="6.48458">
        <ele>289</ele>
        <time>2016-09-03T08:39:01Z</time>
      </trkpt>
      <trkpt lat="47.36772" lon="6.48444">
        <ele>289</ele>
        <time>2016-09-03T08:39:04Z</time>
      </trkpt>
      <trkpt lat="47.36768" lon="6.48437">
        <ele>290</ele>
        <time>2016-09-03T08:39:06Z</time>
      </trkpt>
      <trkpt lat="47.36769" lon="6.48432">
        <ele>289</ele>
        <time>2016-09-03T08:39:07Z</time>
      </trkpt>
      <trkpt lat="47.36766" lon="6.48423">
        <ele>289</ele>
        <time>2016-09-03T08:39:09Z</time>
      </trkpt>
      <trkpt lat="47.36764" lon="6.48415">
        <ele>289</ele>
        <time>2016-09-03T08:39:11Z</time>
      </trkpt>
      <trkpt lat="47.36761" lon="6.48406">
        <ele>290</ele>
        <time>2016-09-03T08:39:13Z</time>
      </trkpt>
      <trkpt lat="47.36759" lon="6.48398">
        <ele>290</ele>
        <time>2016-09-03T08:39:15Z</time>
      </trkpt>
      <trkpt lat="47.36756" lon="6.4839">
        <ele>292</ele>
        <time>2016-09-03T08:39:17Z</time>
      </trkpt>
      <trkpt lat="47.36753" lon="6.48382">
        <ele>294</ele>
        <time>2016-09-03T08:39:19Z</time>
      </trkpt>
      <trkpt lat="47.3675" lon="6.48375">
        <ele>295</ele>
        <time>2016-09-03T08:39:21Z</time>
      </trkpt>
      <trkpt lat="47.36745" lon="6.48371">
        <ele>297</ele>
        <time>2016-09-03T08:39:23Z</time>
      </trkpt>
      <trkpt lat="47.36742" lon="6.48367">
        <ele>298</ele>
        <time>2016-09-03T08:39:25Z</time>
      </trkpt>
      <trkpt lat="47.3674" lon="6.48363">
        <ele>299</ele>
        <time>2016-09-03T08:39:27Z</time>
      </trkpt>
      <trkpt lat="47.36737" lon="6.48362">
        <ele>300</ele>
        <time>2016-09-03T08:39:29Z</time>
      </trkpt>
      <trkpt lat="47.36734" lon="6.48361">
        <ele>301</ele>
        <time>2016-09-03T08:39:31Z</time>
      </trkpt>
      <trkpt lat="47.36729" lon="6.48353">
        <ele>302</ele>
        <time>2016-09-03T08:39:34Z</time>
      </trkpt>
      <trkpt lat="47.36728" lon="6.48349">
        <ele>303</ele>
        <time>2016-09-03T08:39:35Z</time>
      </trkpt>
      <trkpt lat="47.36726" lon="6.48341">
        <ele>304</ele>
        <time>2016-09-03T08:39:37Z</time>
      </trkpt>
      <trkpt lat="47.36725" lon="6.48333">
        <ele>305</ele>
        <time>2016-09-03T08:39:39Z</time>
      </trkpt>
      <trkpt lat="47.36725" lon="6.48325">
        <ele>305</ele>
        <time>2016-09-03T08:39:41Z</time>
      </trkpt>
      <trkpt lat="47.36727" lon="6.48307">
        <ele>306</ele>
        <time>2016-09-03T08:39:44Z</time>
      </trkpt>
      <trkpt lat="47.36728" lon="6.48303">
        <ele>306</ele>
        <time>2016-09-03T08:39:45Z</time>
      </trkpt>
      <trkpt lat="47.3673" lon="6.48291">
        <ele>307</ele>
        <time>2016-09-03T08:39:48Z</time>
      </trkpt>
      <trkpt lat="47.36732" lon="6.48283">
        <ele>307</ele>
        <time>2016-09-03T08:39:50Z</time>
      </trkpt>
      <trkpt lat="47.36733" lon="6.48275">
        <ele>307</ele>
        <time>2016-09-03T08:39:51Z</time>
      </trkpt>
      <trkpt lat="47.36736" lon="6.48266">
        <ele>308</ele>
        <time>2016-09-03T08:39:53Z</time>
      </trkpt>
      <trkpt lat="47.36739" lon="6.48256">
        <ele>308</ele>
        <time>2016-09-03T08:39:55Z</time>
      </trkpt>
      <trkpt lat="47.36741" lon="6.48249">
        <ele>308</ele>
        <time>2016-09-03T08:39:57Z</time>
      </trkpt>
      <trkpt lat="47.36744" lon="6.48241">
        <ele>309</ele>
        <time>2016-09-03T08:39:59Z</time>
      </trkpt>
      <trkpt lat="47.36746" lon="6.48233">
        <ele>309</ele>
        <time>2016-09-03T08:40:01Z</time>
      </trkpt>
      <trkpt lat="47.36749" lon="6.48224">
        <ele>309</ele>
        <time>2016-09-03T08:40:03Z</time>
      </trkpt>
      <trkpt lat="47.36752" lon="6.48215">
        <ele>309</ele>
        <time>2016-09-03T08:40:05Z</time>
      </trkpt>
      <trkpt lat="47.36755" lon="6.48206">
        <ele>309</ele>
        <time>2016-09-03T08:40:07Z</time>
      </trkpt>
      <trkpt lat="47.36757" lon="6.48199">
        <ele>309</ele>
        <time>2016-09-03T08:40:09Z</time>
      </trkpt>
      <trkpt lat="47.36759" lon="6.48192">
        <ele>309</ele>
        <time>2016-09-03T08:40:11Z</time>
      </trkpt>
      <trkpt lat="47.36762" lon="6.48183">
        <ele>309</ele>
        <time>2016-09-03T08:40:14Z</time>
      </trkpt>
      <trkpt lat="47.36763" lon="6.48179">
        <ele>309</ele>
        <time>2016-09-03T08:40:15Z</time>
      </trkpt>
      <trkpt lat="47.36765" lon="6.48164">
        <ele>308</ele>
        <time>2016-09-03T08:40:18Z</time>
      </trkpt>
      <trkpt lat="47.36766" lon="6.48158">
        <ele>308</ele>
        <time>2016-09-03T08:40:19Z</time>
      </trkpt>
      <trkpt lat="47.36768" lon="6.48149">
        <ele>308</ele>
        <time>2016-09-03T08:40:21Z</time>
      </trkpt>
      <trkpt lat="47.36769" lon="6.4814">
        <ele>308</ele>
        <time>2016-09-03T08:40:23Z</time>
      </trkpt>
      <trkpt lat="47.3677" lon="6.4813">
        <ele>307</ele>
        <time>2016-09-03T08:40:25Z</time>
      </trkpt>
      <trkpt lat="47.36771" lon="6.48119">
        <ele>307</ele>
        <time>2016-09-03T08:40:27Z</time>
      </trkpt>
      <trkpt lat="47.36772" lon="6.48111">
        <ele>307</ele>
        <time>2016-09-03T08:40:29Z</time>
      </trkpt>
      <trkpt lat="47.36772" lon="6.481">
        <ele>307</ele>
        <time>2016-09-03T08:40:31Z</time>
      </trkpt>
      <trkpt lat="47.36772" lon="6.48081">
        <ele>308</ele>
        <time>2016-09-03T08:40:34Z</time>
      </trkpt>
      <trkpt lat="47.36772" lon="6.48076">
        <ele>308</ele>
        <time>2016-09-03T08:40:35Z</time>
      </trkpt>
      <trkpt lat="47.36771" lon="6.48055">
        <ele>309</ele>
        <time>2016-09-03T08:40:38Z</time>
      </trkpt>
      <trkpt lat="47.36771" lon="6.48047">
        <ele>309</ele>
        <time>2016-09-03T08:40:39Z</time>
      </trkpt>
      <trkpt lat="47.3677" lon="6.48033">
        <ele>309</ele>
        <time>2016-09-03T08:40:41Z</time>
      </trkpt>
      <trkpt lat="47.36769" lon="6.48022">
        <ele>310</ele>
        <time>2016-09-03T08:40:43Z</time>
      </trkpt>
      <trkpt lat="47.36768" lon="6.48005">
        <ele>310</ele>
        <time>2016-09-03T08:40:46Z</time>
      </trkpt>
      <trkpt lat="47.36767" lon="6.47999">
        <ele>310</ele>
        <time>2016-09-03T08:40:47Z</time>
      </trkpt>
      <trkpt lat="47.36764" lon="6.4799">
        <ele>311</ele>
        <time>2016-09-03T08:40:49Z</time>
      </trkpt>
      <trkpt lat="47.3676" lon="6.47981">
        <ele>311</ele>
        <time>2016-09-03T08:40:51Z</time>
      </trkpt>
      <trkpt lat="47.36755" lon="6.4797">
        <ele>312</ele>
        <time>2016-09-03T08:40:53Z</time>
      </trkpt>
      <trkpt lat="47.36752" lon="6.4796">
        <ele>312</ele>
        <time>2016-09-03T08:40:55Z</time>
      </trkpt>
      <trkpt lat="47.36748" lon="6.47949">
        <ele>313</ele>
        <time>2016-09-03T08:40:57Z</time>
      </trkpt>
      <trkpt lat="47.36746" lon="6.47939">
        <ele>314</ele>
        <time>2016-09-03T08:40:59Z</time>
      </trkpt>
      <trkpt lat="47.36742" lon="6.47923">
        <ele>314</ele>
        <time>2016-09-03T08:41:02Z</time>
      </trkpt>
      <trkpt lat="47.36739" lon="6.47912">
        <ele>315</ele>
        <time>2016-09-03T08:41:04Z</time>
      </trkpt>
      <trkpt lat="47.36738" lon="6.47906">
        <ele>315</ele>
        <time>2016-09-03T08:41:05Z</time>
      </trkpt>
      <trkpt lat="47.36737" lon="6.47885">
        <ele>315</ele>
        <time>2016-09-03T08:41:08Z</time>
      </trkpt>
      <trkpt lat="47.36735" lon="6.47874">
        <ele>315</ele>
        <time>2016-09-03T08:41:10Z</time>
      </trkpt>
      <trkpt lat="47.36733" lon="6.4786">
        <ele>315</ele>
        <time>2016-09-03T08:41:12Z</time>
      </trkpt>
      <trkpt lat="47.36732" lon="6.47849">
        <ele>315</ele>
        <time>2016-09-03T08:41:14Z</time>
      </trkpt>
      <trkpt lat="47.36732" lon="6.47841">
        <ele>315</ele>
        <time>2016-09-03T08:41:15Z</time>
      </trkpt>
      <trkpt lat="47.3673" lon="6.47821">
        <ele>315</ele>
        <time>2016-09-03T08:41:18Z</time>
      </trkpt>
      <trkpt lat="47.36728" lon="6.47807">
        <ele>315</ele>
        <time>2016-09-03T08:41:20Z</time>
      </trkpt>
      <trkpt lat="47.36727" lon="6.47801">
        <ele>315</ele>
        <time>2016-09-03T08:41:21Z</time>
      </trkpt>
      <trkpt lat="47.36727" lon="6.47787">
        <ele>316</ele>
        <time>2016-09-03T08:41:23Z</time>
      </trkpt>
      <trkpt lat="47.36724" lon="6.47775">
        <ele>317</ele>
        <time>2016-09-03T08:41:25Z</time>
      </trkpt>
      <trkpt lat="47.36721" lon="6.47762">
        <ele>318</ele>
        <time>2016-09-03T08:41:27Z</time>
      </trkpt>
      <trkpt lat="47.36718" lon="6.47749">
        <ele>320</ele>
        <time>2016-09-03T08:41:29Z</time>
      </trkpt>
      <trkpt lat="47.36719" lon="6.47734">
        <ele>320</ele>
        <time>2016-09-03T08:41:31Z</time>
      </trkpt>
      <trkpt lat="47.3672" lon="6.47721">
        <ele>320</ele>
        <time>2016-09-03T08:41:33Z</time>
      </trkpt>
      <trkpt lat="47.36722" lon="6.47708">
        <ele>321</ele>
        <time>2016-09-03T08:41:35Z</time>
      </trkpt>
      <trkpt lat="47.36723" lon="6.47683">
        <ele>321</ele>
        <time>2016-09-03T08:41:38Z</time>
      </trkpt>
      <trkpt lat="47.36723" lon="6.47679">
        <ele>321</ele>
        <time>2016-09-03T08:41:39Z</time>
      </trkpt>
      <trkpt lat="47.36725" lon="6.47663">
        <ele>320</ele>
        <time>2016-09-03T08:41:41Z</time>
      </trkpt>
      <trkpt lat="47.36726" lon="6.47652">
        <ele>320</ele>
        <time>2016-09-03T08:41:43Z</time>
      </trkpt>
      <trkpt lat="47.36726" lon="6.47642">
        <ele>320</ele>
        <time>2016-09-03T08:41:45Z</time>
      </trkpt>
      <trkpt lat="47.36726" lon="6.47631">
        <ele>320</ele>
        <time>2016-09-03T08:41:47Z</time>
      </trkpt>
      <trkpt lat="47.36727" lon="6.47619">
        <ele>320</ele>
        <time>2016-09-03T08:41:49Z</time>
      </trkpt>
      <trkpt lat="47.36728" lon="6.47599">
        <ele>319</ele>
        <time>2016-09-03T08:41:52Z</time>
      </trkpt>
      <trkpt lat="47.36729" lon="6.47585">
        <ele>319</ele>
        <time>2016-09-03T08:41:54Z</time>
      </trkpt>
      <trkpt lat="47.36729" lon="6.4758">
        <ele>319</ele>
        <time>2016-09-03T08:41:55Z</time>
      </trkpt>
      <trkpt lat="47.36729" lon="6.47569">
        <ele>318</ele>
        <time>2016-09-03T08:41:57Z</time>
      </trkpt>
      <trkpt lat="47.3673" lon="6.47551">
        <ele>317</ele>
        <time>2016-09-03T08:42:00Z</time>
      </trkpt>
      <trkpt lat="47.3673" lon="6.47546">
        <ele>317</ele>
        <time>2016-09-03T08:42:01Z</time>
      </trkpt>
      <trkpt lat="47.36731" lon="6.47534">
        <ele>317</ele>
        <time>2016-09-03T08:42:03Z</time>
      </trkpt>
      <trkpt lat="47.36732" lon="6.47523">
        <ele>316</ele>
        <time>2016-09-03T08:42:05Z</time>
      </trkpt>
      <trkpt lat="47.36732" lon="6.47512">
        <ele>316</ele>
        <time>2016-09-03T08:42:07Z</time>
      </trkpt>
      <trkpt lat="47.3673" lon="6.47499">
        <ele>317</ele>
        <time>2016-09-03T08:42:09Z</time>
      </trkpt>
      <trkpt lat="47.3673" lon="6.47483">
        <ele>317</ele>
        <time>2016-09-03T08:42:11Z</time>
      </trkpt>
      <trkpt lat="47.36722" lon="6.47461">
        <ele>319</ele>
        <time>2016-09-03T08:42:14Z</time>
      </trkpt>
      <trkpt lat="47.3672" lon="6.47454">
        <ele>319</ele>
        <time>2016-09-03T08:42:15Z</time>
      </trkpt>
      <trkpt lat="47.36718" lon="6.4744">
        <ele>320</ele>
        <time>2016-09-03T08:42:18Z</time>
      </trkpt>
      <trkpt lat="47.36717" lon="6.47439">
        <ele>320</ele>
        <time>2016-09-03T08:42:19Z</time>
      </trkpt>
      <trkpt lat="47.36715" lon="6.47442">
        <ele>320</ele>
        <time>2016-09-03T08:42:21Z</time>
      </trkpt>
      <trkpt lat="47.36715" lon="6.47441">
        <ele>320</ele>
        <time>2016-09-03T08:42:23Z</time>
      </trkpt>
      <trkpt lat="47.36715" lon="6.47441">
        <ele>320</ele>
        <time>2016-09-03T08:42:25Z</time>
      </trkpt>
      <trkpt lat="47.36714" lon="6.4744">
        <ele>320</ele>
        <time>2016-09-03T08:42:27Z</time>
      </trkpt>
      <trkpt lat="47.36714" lon="6.4744">
        <ele>320</ele>
        <time>2016-09-03T08:42:29Z</time>
      </trkpt>
      <trkpt lat="47.36714" lon="6.4744">
        <ele>320</ele>
        <time>2016-09-03T08:42:31Z</time>
      </trkpt>
      <trkpt lat="47.36714" lon="6.47441">
        <ele>320</ele>
        <time>2016-09-03T08:42:33Z</time>
      </trkpt>
      <trkpt lat="47.36714" lon="6.47441">
        <ele>320</ele>
        <time>2016-09-03T08:42:35Z</time>
      </trkpt>
      <trkpt lat="47.36714" lon="6.47441">
        <ele>320</ele>
        <time>2016-09-03T08:42:38Z</time>
      </trkpt>
      <trkpt lat="47.36714" lon="6.47441">
        <ele>320</ele>
        <time>2016-09-03T08:42:39Z</time>
      </trkpt>
      <trkpt lat="47.36714" lon="6.4744">
        <ele>320</ele>
        <time>2016-09-03T08:42:41Z</time>
      </trkpt>
      <trkpt lat="47.36714" lon="6.4744">
        <ele>320</ele>
        <time>2016-09-03T08:42:44Z</time>
      </trkpt>
      <trkpt lat="47.36714" lon="6.4744">
        <ele>320</ele>
        <time>2016-09-03T08:42:45Z</time>
      </trkpt>
      <trkpt lat="47.36714" lon="6.4744">
        <ele>320</ele>
        <time>2016-09-03T08:42:47Z</time>
      </trkpt>
      <trkpt lat="47.36714" lon="6.4744">
        <ele>320</ele>
        <time>2016-09-03T08:42:49Z</time>
      </trkpt>
      <trkpt lat="47.36714" lon="6.4744">
        <ele>320</ele>
        <time>2016-09-03T08:42:51Z</time>
      </trkpt>
      <trkpt lat="47.36714" lon="6.4744">
        <ele>320</ele>
        <time>2016-09-03T08:42:53Z</time>
      </trkpt>
      <trkpt lat="47.36714" lon="6.4744">
        <ele>320</ele>
        <time>2016-09-03T08:42:55Z</time>
      </trkpt>
      <trkpt lat="47.36714" lon="6.4744">
        <ele>320</ele>
        <time>2016-09-03T08:42:57Z</time>
      </trkpt>
      <trkpt lat="47.36714" lon="6.47439">
        <ele>320</ele>
        <time>2016-09-03T08:42:59Z</time>
      </trkpt>
      <trkpt lat="47.36714" lon="6.47439">
        <ele>320</ele>
        <time>2016-09-03T08:43:01Z</time>
      </trkpt>
      <trkpt lat="47.36714" lon="6.47439">
        <ele>320</ele>
        <time>2016-09-03T08:43:03Z</time>
      </trkpt>
      <trkpt lat="47.36714" lon="6.47439">
        <ele>320</ele>
        <time>2016-09-03T08:43:05Z</time>
      </trkpt>
      <trkpt lat="47.36714" lon="6.47439">
        <ele>320</ele>
        <time>2016-09-03T08:43:07Z</time>
      </trkpt>
      <trkpt lat="47.36714" lon="6.47439">
        <ele>320</ele>
        <time>2016-09-03T08:43:09Z</time>
      </trkpt>
      <trkpt lat="47.36714" lon="6.47439">
        <ele>320</ele>
        <time>2016-09-03T08:43:11Z</time>
      </trkpt>
      <trkpt lat="47.36714" lon="6.47439">
        <ele>320</ele>
        <time>2016-09-03T08:43:13Z</time>
      </trkpt>
      <trkpt lat="47.36714" lon="6.47439">
        <ele>320</ele>
        <time>2016-09-03T08:43:15Z</time>
      </trkpt>
      <trkpt lat="47.36714" lon="6.47439">
        <ele>320</ele>
        <time>2016-09-03T08:43:17Z</time>
      </trkpt>
      <trkpt lat="47.36714" lon="6.47439">
        <ele>320</ele>
        <time>2016-09-03T08:43:19Z</time>
      </trkpt>
      <trkpt lat="47.36714" lon="6.47439">
        <ele>320</ele>
        <time>2016-09-03T08:43:21Z</time>
      </trkpt>
      <trkpt lat="47.36714" lon="6.47439">
        <ele>320</ele>
        <time>2016-09-03T08:43:23Z</time>
      </trkpt>
      <trkpt lat="47.36714" lon="6.47439">
        <ele>320</ele>
        <time>2016-09-03T08:43:25Z</time>
      </trkpt>
      <trkpt lat="47.36714" lon="6.47439">
        <ele>320</ele>
        <time>2016-09-03T08:43:27Z</time>
      </trkpt>
      <trkpt lat="47.36714" lon="6.47439">
        <ele>320</ele>
        <time>2016-09-03T08:43:30Z</time>
      </trkpt>
      <trkpt lat="47.36714" lon="6.47439">
        <ele>320</ele>
        <time>2016-09-03T08:43:31Z</time>
      </trkpt>
      <trkpt lat="47.36714" lon="6.47439">
        <ele>320</ele>
        <time>2016-09-03T08:43:33Z</time>
      </trkpt>
      <trkpt lat="47.36714" lon="6.47439">
        <ele>320</ele>
        <time>2016-09-03T08:43:35Z</time>
      </trkpt>
      <trkpt lat="47.36714" lon="6.47439">
        <ele>320</ele>
        <time>2016-09-03T08:43:38Z</time>
      </trkpt>
      <trkpt lat="47.36713" lon="6.47439">
        <ele>321</ele>
        <time>2016-09-03T08:43:39Z</time>
      </trkpt>
      <trkpt lat="47.36713" lon="6.47439">
        <ele>321</ele>
        <time>2016-09-03T08:43:41Z</time>
      </trkpt>
      <trkpt lat="47.36713" lon="6.47439">
        <ele>320</ele>
        <time>2016-09-03T08:43:43Z</time>
      </trkpt>
      <trkpt lat="47.36713" lon="6.47439">
        <ele>321</ele>
        <time>2016-09-03T08:43:45Z</time>
      </trkpt>
      <trkpt lat="47.36713" lon="6.47439">
        <ele>320</ele>
        <time>2016-09-03T08:43:47Z</time>
      </trkpt>
      <trkpt lat="47.36713" lon="6.47439">
        <ele>320</ele>
        <time>2016-09-03T08:43:49Z</time>
      </trkpt>
      <trkpt lat="47.36713" lon="6.47439">
        <ele>320</ele>
        <time>2016-09-03T08:43:51Z</time>
      </trkpt>
      <trkpt lat="47.36713" lon="6.47439">
        <ele>320</ele>
        <time>2016-09-03T08:43:53Z</time>
      </trkpt>
      <trkpt lat="47.36713" lon="6.47439">
        <ele>320</ele>
        <time>2016-09-03T08:43:55Z</time>
      </trkpt>
      <trkpt lat="47.36714" lon="6.4744">
        <ele>320</ele>
        <time>2016-09-03T08:43:57Z</time>
      </trkpt>
      <trkpt lat="47.36714" lon="6.4744">
        <ele>320</ele>
        <time>2016-09-03T08:43:59Z</time>
      </trkpt>
      <trkpt lat="47.36715" lon="6.47442">
        <ele>320</ele>
        <time>2016-09-03T08:44:01Z</time>
      </trkpt>
      <trkpt lat="47.36716" lon="6.47447">
        <ele>320</ele>
        <time>2016-09-03T08:44:03Z</time>
      </trkpt>
      <trkpt lat="47.36717" lon="6.47455">
        <ele>320</ele>
        <time>2016-09-03T08:44:05Z</time>
      </trkpt>
      <trkpt lat="47.36719" lon="6.47461">
        <ele>319</ele>
        <time>2016-09-03T08:44:07Z</time>
      </trkpt>
      <trkpt lat="47.3672" lon="6.47467">
        <ele>319</ele>
        <time>2016-09-03T08:44:09Z</time>
      </trkpt>
      <trkpt lat="47.36722" lon="6.47475">
        <ele>318</ele>
        <time>2016-09-03T08:44:11Z</time>
      </trkpt>
      <trkpt lat="47.36724" lon="6.47489">
        <ele>318</ele>
        <time>2016-09-03T08:44:14Z</time>
      </trkpt>
      <trkpt lat="47.36726" lon="6.47495">
        <ele>317</ele>
        <time>2016-09-03T08:44:15Z</time>
      </trkpt>
      <trkpt lat="47.36727" lon="6.47505">
        <ele>317</ele>
        <time>2016-09-03T08:44:17Z</time>
      </trkpt>
      <trkpt lat="47.36726" lon="6.47514">
        <ele>317</ele>
        <time>2016-09-03T08:44:19Z</time>
      </trkpt>
      <trkpt lat="47.36726" lon="6.47523">
        <ele>317</ele>
        <time>2016-09-03T08:44:21Z</time>
      </trkpt>
      <trkpt lat="47.36725" lon="6.47532">
        <ele>317</ele>
        <time>2016-09-03T08:44:23Z</time>
      </trkpt>
      <trkpt lat="47.36725" lon="6.47542">
        <ele>318</ele>
        <time>2016-09-03T08:44:25Z</time>
      </trkpt>
      <trkpt lat="47.36723" lon="6.47558">
        <ele>318</ele>
        <time>2016-09-03T08:44:28Z</time>
      </trkpt>
      <trkpt lat="47.36722" lon="6.47565">
        <ele>319</ele>
        <time>2016-09-03T08:44:29Z</time>
      </trkpt>
      <trkpt lat="47.36722" lon="6.47577">
        <ele>319</ele>
        <time>2016-09-03T08:44:31Z</time>
      </trkpt>
      <trkpt lat="47.36722" lon="6.47592">
        <ele>320</ele>
        <time>2016-09-03T08:44:33Z</time>
      </trkpt>
      <trkpt lat="47.36721" lon="6.47607">
        <ele>320</ele>
        <time>2016-09-03T08:44:35Z</time>
      </trkpt>
      <trkpt lat="47.3672" lon="6.47623">
        <ele>321</ele>
        <time>2016-09-03T08:44:37Z</time>
      </trkpt>
      <trkpt lat="47.36719" lon="6.47639">
        <ele>321</ele>
        <time>2016-09-03T08:44:39Z</time>
      </trkpt>
      <trkpt lat="47.36717" lon="6.47659">
        <ele>321</ele>
        <time>2016-09-03T08:44:41Z</time>
      </trkpt>
      <trkpt lat="47.36716" lon="6.4768">
        <ele>322</ele>
        <time>2016-09-03T08:44:43Z</time>
      </trkpt>
      <trkpt lat="47.36714" lon="6.47702">
        <ele>322</ele>
        <time>2016-09-03T08:44:45Z</time>
      </trkpt>
      <trkpt lat="47.36713" lon="6.47722">
        <ele>321</ele>
        <time>2016-09-03T08:44:47Z</time>
      </trkpt>
      <trkpt lat="47.36716" lon="6.47745">
        <ele>320</ele>
        <time>2016-09-03T08:44:49Z</time>
      </trkpt>
      <trkpt lat="47.36718" lon="6.47764">
        <ele>318</ele>
        <time>2016-09-03T08:44:51Z</time>
      </trkpt>
      <trkpt lat="47.36719" lon="6.47784">
        <ele>317</ele>
        <time>2016-09-03T08:44:53Z</time>
      </trkpt>
      <trkpt lat="47.3672" lon="6.4781">
        <ele>316</ele>
        <time>2016-09-03T08:44:56Z</time>
      </trkpt>
      <trkpt lat="47.3672" lon="6.47817">
        <ele>316</ele>
        <time>2016-09-03T08:44:57Z</time>
      </trkpt>
      <trkpt lat="47.36722" lon="6.47841">
        <ele>316</ele>
        <time>2016-09-03T08:45:00Z</time>
      </trkpt>
      <trkpt lat="47.36724" lon="6.4785">
        <ele>316</ele>
        <time>2016-09-03T08:45:01Z</time>
      </trkpt>
      <trkpt lat="47.36726" lon="6.47866">
        <ele>316</ele>
        <time>2016-09-03T08:45:03Z</time>
      </trkpt>
      <trkpt lat="47.36728" lon="6.47882">
        <ele>316</ele>
        <time>2016-09-03T08:45:05Z</time>
      </trkpt>
      <trkpt lat="47.36731" lon="6.47898">
        <ele>316</ele>
        <time>2016-09-03T08:45:07Z</time>
      </trkpt>
      <trkpt lat="47.36733" lon="6.47916">
        <ele>316</ele>
        <time>2016-09-03T08:45:09Z</time>
      </trkpt>
      <trkpt lat="47.36738" lon="6.47933">
        <ele>315</ele>
        <time>2016-09-03T08:45:11Z</time>
      </trkpt>
      <trkpt lat="47.36745" lon="6.47951">
        <ele>314</ele>
        <time>2016-09-03T08:45:13Z</time>
      </trkpt>
      <trkpt lat="47.3675" lon="6.47971">
        <ele>312</ele>
        <time>2016-09-03T08:45:15Z</time>
      </trkpt>
      <trkpt lat="47.3676" lon="6.47995">
        <ele>311</ele>
        <time>2016-09-03T08:45:18Z</time>
      </trkpt>
      <trkpt lat="47.36763" lon="6.48004">
        <ele>310</ele>
        <time>2016-09-03T08:45:19Z</time>
      </trkpt>
      <trkpt lat="47.36767" lon="6.48023">
        <ele>310</ele>
        <time>2016-09-03T08:45:21Z</time>
      </trkpt>
      <trkpt lat="47.36767" lon="6.48043">
        <ele>309</ele>
        <time>2016-09-03T08:45:23Z</time>
      </trkpt>
      <trkpt lat="47.36767" lon="6.48064">
        <ele>309</ele>
        <time>2016-09-03T08:45:25Z</time>
      </trkpt>
      <trkpt lat="47.36768" lon="6.48085">
        <ele>308</ele>
        <time>2016-09-03T08:45:27Z</time>
      </trkpt>
      <trkpt lat="47.36767" lon="6.48104">
        <ele>307</ele>
        <time>2016-09-03T08:45:29Z</time>
      </trkpt>
      <trkpt lat="47.36765" lon="6.48123">
        <ele>307</ele>
        <time>2016-09-03T08:45:31Z</time>
      </trkpt>
      <trkpt lat="47.36762" lon="6.48149">
        <ele>308</ele>
        <time>2016-09-03T08:45:34Z</time>
      </trkpt>
      <trkpt lat="47.36759" lon="6.48168">
        <ele>309</ele>
        <time>2016-09-03T08:45:36Z</time>
      </trkpt>
      <trkpt lat="47.36756" lon="6.48187">
        <ele>309</ele>
        <time>2016-09-03T08:45:38Z</time>
      </trkpt>
      <trkpt lat="47.3675" lon="6.48205">
        <ele>309</ele>
        <time>2016-09-03T08:45:40Z</time>
      </trkpt>
      <trkpt lat="47.36748" lon="6.48217">
        <ele>309</ele>
        <time>2016-09-03T08:45:41Z</time>
      </trkpt>
      <trkpt lat="47.36736" lon="6.48248">
        <ele>309</ele>
        <time>2016-09-03T08:45:44Z</time>
      </trkpt>
      <trkpt lat="47.36733" lon="6.48259">
        <ele>308</ele>
        <time>2016-09-03T08:45:45Z</time>
      </trkpt>
      <trkpt lat="47.36725" lon="6.4828">
        <ele>308</ele>
        <time>2016-09-03T08:45:47Z</time>
      </trkpt>
      <trkpt lat="47.36718" lon="6.48317">
        <ele>306</ele>
        <time>2016-09-03T08:45:50Z</time>
      </trkpt>
      <trkpt lat="47.36718" lon="6.48329">
        <ele>306</ele>
        <time>2016-09-03T08:45:51Z</time>
      </trkpt>
      <trkpt lat="47.36723" lon="6.48349">
        <ele>304</ele>
        <time>2016-09-03T08:45:53Z</time>
      </trkpt>
      <trkpt lat="47.36734" lon="6.4836">
        <ele>301</ele>
        <time>2016-09-03T08:45:55Z</time>
      </trkpt>
      <trkpt lat="47.36747" lon="6.48375">
        <ele>296</ele>
        <time>2016-09-03T08:45:57Z</time>
      </trkpt>
      <trkpt lat="47.36759" lon="6.48409">
        <ele>291</ele>
        <time>2016-09-03T08:46:00Z</time>
      </trkpt>
      <trkpt lat="47.36763" lon="6.4842">
        <ele>290</ele>
        <time>2016-09-03T08:46:01Z</time>
      </trkpt>
      <trkpt lat="47.36772" lon="6.48448">
        <ele>290</ele>
        <time>2016-09-03T08:46:03Z</time>
      </trkpt>
      <trkpt lat="47.36775" lon="6.4848">
        <ele>291</ele>
        <time>2016-09-03T08:46:05Z</time>
      </trkpt>
      <trkpt lat="47.36776" lon="6.4851">
        <ele>291</ele>
        <time>2016-09-03T08:46:07Z</time>
      </trkpt>
      <trkpt lat="47.36776" lon="6.4854">
        <ele>291</ele>
        <time>2016-09-03T08:46:09Z</time>
      </trkpt>
      <trkpt lat="47.36774" lon="6.48571">
        <ele>291</ele>
        <time>2016-09-03T08:46:11Z</time>
      </trkpt>
      <trkpt lat="47.36775" lon="6.48603">
        <ele>288</ele>
        <time>2016-09-03T08:46:13Z</time>
      </trkpt>
      <trkpt lat="47.36776" lon="6.48636">
        <ele>286</ele>
        <time>2016-09-03T08:46:15Z</time>
      </trkpt>
      <trkpt lat="47.36775" lon="6.4867">
        <ele>286</ele>
        <time>2016-09-03T08:46:17Z</time>
      </trkpt>
      <trkpt lat="47.36777" lon="6.48701">
        <ele>285</ele>
        <time>2016-09-03T08:46:19Z</time>
      </trkpt>
      <trkpt lat="47.36778" lon="6.48721">
        <ele>285</ele>
        <time>2016-09-03T08:46:22Z</time>
      </trkpt>
      <trkpt lat="47.36779" lon="6.48729">
        <ele>284</ele>
        <time>2016-09-03T08:46:23Z</time>
      </trkpt>
      <trkpt lat="47.36781" lon="6.4875">
        <ele>283</ele>
        <time>2016-09-03T08:46:26Z</time>
      </trkpt>
      <trkpt lat="47.36783" lon="6.48762">
        <ele>283</ele>
        <time>2016-09-03T08:46:27Z</time>
      </trkpt>
      <trkpt lat="47.36786" lon="6.4879">
        <ele>281</ele>
        <time>2016-09-03T08:46:30Z</time>
      </trkpt>
      <trkpt lat="47.36788" lon="6.48802">
        <ele>280</ele>
        <time>2016-09-03T08:46:31Z</time>
      </trkpt>
      <trkpt lat="47.3679" lon="6.48822">
        <ele>280</ele>
        <time>2016-09-03T08:46:33Z</time>
      </trkpt>
      <trkpt lat="47.36795" lon="6.48844">
        <ele>279</ele>
        <time>2016-09-03T08:46:35Z</time>
      </trkpt>
      <trkpt lat="47.36797" lon="6.48877">
        <ele>279</ele>
        <time>2016-09-03T08:46:38Z</time>
      </trkpt>
      <trkpt lat="47.36799" lon="6.48888">
        <ele>279</ele>
        <time>2016-09-03T08:46:39Z</time>
      </trkpt>
      <trkpt lat="47.36802" lon="6.48907">
        <ele>278</ele>
        <time>2016-09-03T08:46:41Z</time>
      </trkpt>
      <trkpt lat="47.36805" lon="6.48926">
        <ele>278</ele>
        <time>2016-09-03T08:46:43Z</time>
      </trkpt>
      <trkpt lat="47.36808" lon="6.48947">
        <ele>278</ele>
        <time>2016-09-03T08:46:45Z</time>
      </trkpt>
      <trkpt lat="47.36811" lon="6.48966">
        <ele>278</ele>
        <time>2016-09-03T08:46:47Z</time>
      </trkpt>
      <trkpt lat="47.36814" lon="6.48985">
        <ele>278</ele>
        <time>2016-09-03T08:46:49Z</time>
      </trkpt>
      <trkpt lat="47.36819" lon="6.49007">
        <ele>278</ele>
        <time>2016-09-03T08:46:51Z</time>
      </trkpt>
      <trkpt lat="47.36822" lon="6.49025">
        <ele>278</ele>
        <time>2016-09-03T08:46:53Z</time>
      </trkpt>
      <trkpt lat="47.36824" lon="6.49041">
        <ele>278</ele>
        <time>2016-09-03T08:46:55Z</time>
      </trkpt>
      <trkpt lat="47.36827" lon="6.4906">
        <ele>278</ele>
        <time>2016-09-03T08:46:57Z</time>
      </trkpt>
      <trkpt lat="47.3683" lon="6.49078">
        <ele>277</ele>
        <time>2016-09-03T08:46:59Z</time>
      </trkpt>
      <trkpt lat="47.36835" lon="6.49096">
        <ele>276</ele>
        <time>2016-09-03T08:47:01Z</time>
      </trkpt>
      <trkpt lat="47.36834" lon="6.49105">
        <ele>276</ele>
        <time>2016-09-03T08:47:03Z</time>
      </trkpt>
      <trkpt lat="47.36831" lon="6.49115">
        <ele>276</ele>
        <time>2016-09-03T08:47:05Z</time>
      </trkpt>
      <trkpt lat="47.36833" lon="6.4913">
        <ele>276</ele>
        <time>2016-09-03T08:47:07Z</time>
      </trkpt>
      <trkpt lat="47.36837" lon="6.49147">
        <ele>275</ele>
        <time>2016-09-03T08:47:09Z</time>
      </trkpt>
      <trkpt lat="47.3684" lon="6.49164">
        <ele>275</ele>
        <time>2016-09-03T08:47:11Z</time>
      </trkpt>
      <trkpt lat="47.36845" lon="6.49182">
        <ele>275</ele>
        <time>2016-09-03T08:47:13Z</time>
      </trkpt>
      <trkpt lat="47.36851" lon="6.49203">
        <ele>275</ele>
        <time>2016-09-03T08:47:15Z</time>
      </trkpt>
      <trkpt lat="47.36858" lon="6.49226">
        <ele>276</ele>
        <time>2016-09-03T08:47:18Z</time>
      </trkpt>
      <trkpt lat="47.36863" lon="6.49245">
        <ele>277</ele>
        <time>2016-09-03T08:47:20Z</time>
      </trkpt>
      <trkpt lat="47.36869" lon="6.49264">
        <ele>277</ele>
        <time>2016-09-03T08:47:22Z</time>
      </trkpt>
      <trkpt lat="47.36873" lon="6.49276">
        <ele>277</ele>
        <time>2016-09-03T08:47:24Z</time>
      </trkpt>
      <trkpt lat="47.36876" lon="6.49285">
        <ele>278</ele>
        <time>2016-09-03T08:47:25Z</time>
      </trkpt>
      <trkpt lat="47.36881" lon="6.49299">
        <ele>278</ele>
        <time>2016-09-03T08:47:27Z</time>
      </trkpt>
      <trkpt lat="47.36886" lon="6.4931">
        <ele>278</ele>
        <time>2016-09-03T08:47:29Z</time>
      </trkpt>
      <trkpt lat="47.36891" lon="6.49324">
        <ele>278</ele>
        <time>2016-09-03T08:47:31Z</time>
      </trkpt>
      <trkpt lat="47.36895" lon="6.49342">
        <ele>278</ele>
        <time>2016-09-03T08:47:33Z</time>
      </trkpt>
      <trkpt lat="47.369" lon="6.4936">
        <ele>277</ele>
        <time>2016-09-03T08:47:35Z</time>
      </trkpt>
      <trkpt lat="47.36908" lon="6.49383">
        <ele>277</ele>
        <time>2016-09-03T08:47:38Z</time>
      </trkpt>
      <trkpt lat="47.36912" lon="6.49392">
        <ele>277</ele>
        <time>2016-09-03T08:47:39Z</time>
      </trkpt>
      <trkpt lat="47.3692" lon="6.49413">
        <ele>277</ele>
        <time>2016-09-03T08:47:42Z</time>
      </trkpt>
      <trkpt lat="47.36922" lon="6.4942">
        <ele>277</ele>
        <time>2016-09-03T08:47:43Z</time>
      </trkpt>
      <trkpt lat="47.36926" lon="6.49431">
        <ele>276</ele>
        <time>2016-09-03T08:47:45Z</time>
      </trkpt>
      <trkpt lat="47.36932" lon="6.49447">
        <ele>276</ele>
        <time>2016-09-03T08:47:47Z</time>
      </trkpt>
      <trkpt lat="47.36939" lon="6.49474">
        <ele>276</ele>
        <time>2016-09-03T08:47:50Z</time>
      </trkpt>
      <trkpt lat="47.36942" lon="6.49482">
        <ele>276</ele>
        <time>2016-09-03T08:47:51Z</time>
      </trkpt>
      <trkpt lat="47.36949" lon="6.49507">
        <ele>277</ele>
        <time>2016-09-03T08:47:54Z</time>
      </trkpt>
      <trkpt lat="47.36952" lon="6.49516">
        <ele>277</ele>
        <time>2016-09-03T08:47:55Z</time>
      </trkpt>
      <trkpt lat="47.36956" lon="6.49526">
        <ele>277</ele>
        <time>2016-09-03T08:47:57Z</time>
      </trkpt>
      <trkpt lat="47.36961" lon="6.49542">
        <ele>277</ele>
        <time>2016-09-03T08:47:59Z</time>
      </trkpt>
      <trkpt lat="47.36969" lon="6.49563">
        <ele>278</ele>
        <time>2016-09-03T08:48:02Z</time>
      </trkpt>
      <trkpt lat="47.36972" lon="6.49566">
        <ele>278</ele>
        <time>2016-09-03T08:48:03Z</time>
      </trkpt>
      <trkpt lat="47.36978" lon="6.49583">
        <ele>278</ele>
        <time>2016-09-03T08:48:05Z</time>
      </trkpt>
      <trkpt lat="47.36985" lon="6.49601">
        <ele>278</ele>
        <time>2016-09-03T08:48:07Z</time>
      </trkpt>
      <trkpt lat="47.36992" lon="6.49614">
        <ele>278</ele>
        <time>2016-09-03T08:48:09Z</time>
      </trkpt>
      <trkpt lat="47.36999" lon="6.49629">
        <ele>278</ele>
        <time>2016-09-03T08:48:11Z</time>
      </trkpt>
      <trkpt lat="47.37011" lon="6.49653">
        <ele>278</ele>
        <time>2016-09-03T08:48:14Z</time>
      </trkpt>
      <trkpt lat="47.3702" lon="6.49671">
        <ele>278</ele>
        <time>2016-09-03T08:48:16Z</time>
      </trkpt>
      <trkpt lat="47.37025" lon="6.4968">
        <ele>278</ele>
        <time>2016-09-03T08:48:17Z</time>
      </trkpt>
      <trkpt lat="47.37036" lon="6.49702">
        <ele>278</ele>
        <time>2016-09-03T08:48:20Z</time>
      </trkpt>
      <trkpt lat="47.37041" lon="6.4971">
        <ele>278</ele>
        <time>2016-09-03T08:48:21Z</time>
      </trkpt>
      <trkpt lat="47.37048" lon="6.49725">
        <ele>278</ele>
        <time>2016-09-03T08:48:23Z</time>
      </trkpt>
      <trkpt lat="47.37055" lon="6.4974">
        <ele>278</ele>
        <time>2016-09-03T08:48:25Z</time>
      </trkpt>
      <trkpt lat="47.37062" lon="6.49754">
        <ele>278</ele>
        <time>2016-09-03T08:48:27Z</time>
      </trkpt>
      <trkpt lat="47.37074" lon="6.49777">
        <ele>277</ele>
        <time>2016-09-03T08:48:30Z</time>
      </trkpt>
      <trkpt lat="47.37077" lon="6.49783">
        <ele>277</ele>
        <time>2016-09-03T08:48:31Z</time>
      </trkpt>
      <trkpt lat="47.37088" lon="6.49805">
        <ele>277</ele>
        <time>2016-09-03T08:48:34Z</time>
      </trkpt>
      <trkpt lat="47.37091" lon="6.49811">
        <ele>276</ele>
        <time>2016-09-03T08:48:35Z</time>
      </trkpt>
      <trkpt lat="47.37098" lon="6.49824">
        <ele>277</ele>
        <time>2016-09-03T08:48:37Z</time>
      </trkpt>
      <trkpt lat="47.37104" lon="6.49836">
        <ele>277</ele>
        <time>2016-09-03T08:48:39Z</time>
      </trkpt>
      <trkpt lat="47.37111" lon="6.4985">
        <ele>278</ele>
        <time>2016-09-03T08:48:41Z</time>
      </trkpt>
      <trkpt lat="47.37118" lon="6.49864">
        <ele>278</ele>
        <time>2016-09-03T08:48:43Z</time>
      </trkpt>
      <trkpt lat="47.37127" lon="6.49884">
        <ele>278</ele>
        <time>2016-09-03T08:48:46Z</time>
      </trkpt>
      <trkpt lat="47.3713" lon="6.49891">
        <ele>278</ele>
        <time>2016-09-03T08:48:47Z</time>
      </trkpt>
      <trkpt lat="47.37136" lon="6.49907">
        <ele>278</ele>
        <time>2016-09-03T08:48:49Z</time>
      </trkpt>
      <trkpt lat="47.37141" lon="6.4992">
        <ele>279</ele>
        <time>2016-09-03T08:48:51Z</time>
      </trkpt>
      <trkpt lat="47.37146" lon="6.49936">
        <ele>279</ele>
        <time>2016-09-03T08:48:53Z</time>
      </trkpt>
      <trkpt lat="47.37152" lon="6.49956">
        <ele>280</ele>
        <time>2016-09-03T08:48:56Z</time>
      </trkpt>
      <trkpt lat="47.37154" lon="6.49959">
        <ele>280</ele>
        <time>2016-09-03T08:48:57Z</time>
      </trkpt>
      <trkpt lat="47.37159" lon="6.49968">
        <ele>280</ele>
        <time>2016-09-03T08:48:59Z</time>
      </trkpt>
      <trkpt lat="47.37167" lon="6.49982">
        <ele>281</ele>
        <time>2016-09-03T08:49:02Z</time>
      </trkpt>
      <trkpt lat="47.37172" lon="6.4999">
        <ele>281</ele>
        <time>2016-09-03T08:49:03Z</time>
      </trkpt>
      <trkpt lat="47.37178" lon="6.5">
        <ele>281</ele>
        <time>2016-09-03T08:49:05Z</time>
      </trkpt>
      <trkpt lat="47.37185" lon="6.50008">
        <ele>281</ele>
        <time>2016-09-03T08:49:07Z</time>
      </trkpt>
      <trkpt lat="47.37193" lon="6.50016">
        <ele>281</ele>
        <time>2016-09-03T08:49:09Z</time>
      </trkpt>
      <trkpt lat="47.372" lon="6.50024">
        <ele>281</ele>
        <time>2016-09-03T08:49:11Z</time>
      </trkpt>
      <trkpt lat="47.3721" lon="6.50033">
        <ele>280</ele>
        <time>2016-09-03T08:49:13Z</time>
      </trkpt>
      <trkpt lat="47.37222" lon="6.50045">
        <ele>280</ele>
        <time>2016-09-03T08:49:15Z</time>
      </trkpt>
      <trkpt lat="47.37234" lon="6.50055">
        <ele>279</ele>
        <time>2016-09-03T08:49:17Z</time>
      </trkpt>
      <trkpt lat="47.37247" lon="6.50065">
        <ele>279</ele>
        <time>2016-09-03T08:49:19Z</time>
      </trkpt>
      <trkpt lat="47.37269" lon="6.50078">
        <ele>278</ele>
        <time>2016-09-03T08:49:22Z</time>
      </trkpt>
      <trkpt lat="47.37283" lon="6.50092">
        <ele>277</ele>
        <time>2016-09-03T08:49:24Z</time>
      </trkpt>
      <trkpt lat="47.37288" lon="6.50101">
        <ele>278</ele>
        <time>2016-09-03T08:49:25Z</time>
      </trkpt>
      <trkpt lat="47.37297" lon="6.50119">
        <ele>278</ele>
        <time>2016-09-03T08:49:28Z</time>
      </trkpt>
      <trkpt lat="47.37301" lon="6.50122">
        <ele>278</ele>
        <time>2016-09-03T08:49:29Z</time>
      </trkpt>
      <trkpt lat="47.37311" lon="6.50125">
        <ele>277</ele>
        <time>2016-09-03T08:49:31Z</time>
      </trkpt>
      <trkpt lat="47.37322" lon="6.5013">
        <ele>276</ele>
        <time>2016-09-03T08:49:33Z</time>
      </trkpt>
      <trkpt lat="47.37333" lon="6.50131">
        <ele>275</ele>
        <time>2016-09-03T08:49:35Z</time>
      </trkpt>
      <trkpt lat="47.37347" lon="6.50135">
        <ele>275</ele>
        <time>2016-09-03T08:49:37Z</time>
      </trkpt>
      <trkpt lat="47.37359" lon="6.50136">
        <ele>275</ele>
        <time>2016-09-03T08:49:39Z</time>
      </trkpt>
      <trkpt lat="47.37374" lon="6.50139">
        <ele>274</ele>
        <time>2016-09-03T08:49:41Z</time>
      </trkpt>
      <trkpt lat="47.37388" lon="6.50145">
        <ele>274</ele>
        <time>2016-09-03T08:49:43Z</time>
      </trkpt>
      <trkpt lat="47.37401" lon="6.50151">
        <ele>274</ele>
        <time>2016-09-03T08:49:45Z</time>
      </trkpt>
      <trkpt lat="47.37415" lon="6.5016">
        <ele>275</ele>
        <time>2016-09-03T08:49:47Z</time>
      </trkpt>
      <trkpt lat="47.37426" lon="6.5017">
        <ele>275</ele>
        <time>2016-09-03T08:49:49Z</time>
      </trkpt>
      <trkpt lat="47.37439" lon="6.5018">
        <ele>275</ele>
        <time>2016-09-03T08:49:51Z</time>
      </trkpt>
      <trkpt lat="47.37461" lon="6.50197">
        <ele>275</ele>
        <time>2016-09-03T08:49:54Z</time>
      </trkpt>
      <trkpt lat="47.37468" lon="6.50202">
        <ele>275</ele>
        <time>2016-09-03T08:49:55Z</time>
      </trkpt>
      <trkpt lat="47.37482" lon="6.50214">
        <ele>275</ele>
        <time>2016-09-03T08:49:57Z</time>
      </trkpt>
      <trkpt lat="47.37495" lon="6.50226">
        <ele>275</ele>
        <time>2016-09-03T08:49:59Z</time>
      </trkpt>
      <trkpt lat="47.37507" lon="6.50234">
        <ele>275</ele>
        <time>2016-09-03T08:50:01Z</time>
      </trkpt>
      <trkpt lat="47.3752" lon="6.50245">
        <ele>276</ele>
        <time>2016-09-03T08:50:03Z</time>
      </trkpt>
      <trkpt lat="47.37532" lon="6.50254">
        <ele>276</ele>
        <time>2016-09-03T08:50:05Z</time>
      </trkpt>
      <trkpt lat="47.37544" lon="6.50265">
        <ele>276</ele>
        <time>2016-09-03T08:50:07Z</time>
      </trkpt>
      <trkpt lat="47.37557" lon="6.50277">
        <ele>276</ele>
        <time>2016-09-03T08:50:09Z</time>
      </trkpt>
      <trkpt lat="47.37568" lon="6.50288">
        <ele>276</ele>
        <time>2016-09-03T08:50:11Z</time>
      </trkpt>
      <trkpt lat="47.3758" lon="6.50301">
        <ele>276</ele>
        <time>2016-09-03T08:50:13Z</time>
      </trkpt>
      <trkpt lat="47.37591" lon="6.50311">
        <ele>276</ele>
        <time>2016-09-03T08:50:15Z</time>
      </trkpt>
      <trkpt lat="47.37604" lon="6.50321">
        <ele>276</ele>
        <time>2016-09-03T08:50:17Z</time>
      </trkpt>
      <trkpt lat="47.37617" lon="6.50332">
        <ele>276</ele>
        <time>2016-09-03T08:50:19Z</time>
      </trkpt>
      <trkpt lat="47.37629" lon="6.50339">
        <ele>275</ele>
        <time>2016-09-03T08:50:21Z</time>
      </trkpt>
      <trkpt lat="47.37646" lon="6.50349">
        <ele>275</ele>
        <time>2016-09-03T08:50:24Z</time>
      </trkpt>
      <trkpt lat="47.37652" lon="6.50353">
        <ele>275</ele>
        <time>2016-09-03T08:50:25Z</time>
      </trkpt>
      <trkpt lat="47.37665" lon="6.50361">
        <ele>275</ele>
        <time>2016-09-03T08:50:27Z</time>
      </trkpt>
      <trkpt lat="47.37678" lon="6.50369">
        <ele>275</ele>
        <time>2016-09-03T08:50:29Z</time>
      </trkpt>
      <trkpt lat="47.3769" lon="6.50376">
        <ele>275</ele>
        <time>2016-09-03T08:50:31Z</time>
      </trkpt>
      <trkpt lat="47.37704" lon="6.50384">
        <ele>275</ele>
        <time>2016-09-03T08:50:33Z</time>
      </trkpt>
      <trkpt lat="47.37717" lon="6.50393">
        <ele>275</ele>
        <time>2016-09-03T08:50:35Z</time>
      </trkpt>
      <trkpt lat="47.3773" lon="6.504">
        <ele>275</ele>
        <time>2016-09-03T08:50:37Z</time>
      </trkpt>
      <trkpt lat="47.37742" lon="6.50404">
        <ele>275</ele>
        <time>2016-09-03T08:50:39Z</time>
      </trkpt>
      <trkpt lat="47.37755" lon="6.50405">
        <ele>275</ele>
        <time>2016-09-03T08:50:41Z</time>
      </trkpt>
      <trkpt lat="47.37767" lon="6.50409">
        <ele>275</ele>
        <time>2016-09-03T08:50:43Z</time>
      </trkpt>
      <trkpt lat="47.37778" lon="6.5041">
        <ele>274</ele>
        <time>2016-09-03T08:50:45Z</time>
      </trkpt>
      <trkpt lat="47.37793" lon="6.50414">
        <ele>274</ele>
        <time>2016-09-03T08:50:47Z</time>
      </trkpt>
      <trkpt lat="47.37806" lon="6.50418">
        <ele>274</ele>
        <time>2016-09-03T08:50:49Z</time>
      </trkpt>
      <trkpt lat="47.37818" lon="6.5042">
        <ele>274</ele>
        <time>2016-09-03T08:50:51Z</time>
      </trkpt>
      <trkpt lat="47.37831" lon="6.50422">
        <ele>274</ele>
        <time>2016-09-03T08:50:53Z</time>
      </trkpt>
      <trkpt lat="47.37843" lon="6.50422">
        <ele>273</ele>
        <time>2016-09-03T08:50:55Z</time>
      </trkpt>
      <trkpt lat="47.37855" lon="6.50426">
        <ele>273</ele>
        <time>2016-09-03T08:50:57Z</time>
      </trkpt>
      <trkpt lat="47.37868" lon="6.50427">
        <ele>273</ele>
        <time>2016-09-03T08:50:59Z</time>
      </trkpt>
      <trkpt lat="47.37881" lon="6.5043">
        <ele>273</ele>
        <time>2016-09-03T08:51:01Z</time>
      </trkpt>
      <trkpt lat="47.37892" lon="6.50432">
        <ele>273</ele>
        <time>2016-09-03T08:51:03Z</time>
      </trkpt>
      <trkpt lat="47.37903" lon="6.50436">
        <ele>273</ele>
        <time>2016-09-03T08:51:05Z</time>
      </trkpt>
      <trkpt lat="47.37919" lon="6.50444">
        <ele>273</ele>
        <time>2016-09-03T08:51:08Z</time>
      </trkpt>
      <trkpt lat="47.37925" lon="6.50446">
        <ele>273</ele>
        <time>2016-09-03T08:51:09Z</time>
      </trkpt>
      <trkpt lat="47.37936" lon="6.50448">
        <ele>273</ele>
        <time>2016-09-03T08:51:11Z</time>
      </trkpt>
      <trkpt lat="47.37947" lon="6.5045">
        <ele>274</ele>
        <time>2016-09-03T08:51:13Z</time>
      </trkpt>
      <trkpt lat="47.37958" lon="6.50453">
        <ele>274</ele>
        <time>2016-09-03T08:51:15Z</time>
      </trkpt>
      <trkpt lat="47.37971" lon="6.50453">
        <ele>274</ele>
        <time>2016-09-03T08:51:17Z</time>
      </trkpt>
      <trkpt lat="47.37986" lon="6.50455">
        <ele>274</ele>
        <time>2016-09-03T08:51:19Z</time>
      </trkpt>
      <trkpt lat="47.37999" lon="6.50454">
        <ele>274</ele>
        <time>2016-09-03T08:51:21Z</time>
      </trkpt>
      <trkpt lat="47.38013" lon="6.50458">
        <ele>274</ele>
        <time>2016-09-03T08:51:23Z</time>
      </trkpt>
      <trkpt lat="47.38026" lon="6.50467">
        <ele>274</ele>
        <time>2016-09-03T08:51:25Z</time>
      </trkpt>
      <trkpt lat="47.38038" lon="6.50473">
        <ele>274</ele>
        <time>2016-09-03T08:51:27Z</time>
      </trkpt>
      <trkpt lat="47.3805" lon="6.50482">
        <ele>274</ele>
        <time>2016-09-03T08:51:29Z</time>
      </trkpt>
      <trkpt lat="47.38063" lon="6.50491">
        <ele>273</ele>
        <time>2016-09-03T08:51:31Z</time>
      </trkpt>
      <trkpt lat="47.38076" lon="6.50498">
        <ele>273</ele>
        <time>2016-09-03T08:51:33Z</time>
      </trkpt>
      <trkpt lat="47.38088" lon="6.50503">
        <ele>273</ele>
        <time>2016-09-03T08:51:35Z</time>
      </trkpt>
      <trkpt lat="47.38106" lon="6.50508">
        <ele>273</ele>
        <time>2016-09-03T08:51:38Z</time>
      </trkpt>
      <trkpt lat="47.38111" lon="6.5051">
        <ele>272</ele>
        <time>2016-09-03T08:51:39Z</time>
      </trkpt>
      <trkpt lat="47.38129" lon="6.50515">
        <ele>273</ele>
        <time>2016-09-03T08:51:42Z</time>
      </trkpt>
      <trkpt lat="47.38134" lon="6.50517">
        <ele>273</ele>
        <time>2016-09-03T08:51:43Z</time>
      </trkpt>
      <trkpt lat="47.38147" lon="6.50521">
        <ele>273</ele>
        <time>2016-09-03T08:51:45Z</time>
      </trkpt>
      <trkpt lat="47.38159" lon="6.50524">
        <ele>274</ele>
        <time>2016-09-03T08:51:47Z</time>
      </trkpt>
      <trkpt lat="47.3817" lon="6.50527">
        <ele>274</ele>
        <time>2016-09-03T08:51:49Z</time>
      </trkpt>
      <trkpt lat="47.38187" lon="6.50529">
        <ele>274</ele>
        <time>2016-09-03T08:51:52Z</time>
      </trkpt>
      <trkpt lat="47.38193" lon="6.50529">
        <ele>274</ele>
        <time>2016-09-03T08:51:53Z</time>
      </trkpt>
      <trkpt lat="47.38212" lon="6.5053">
        <ele>275</ele>
        <time>2016-09-03T08:51:56Z</time>
      </trkpt>
      <trkpt lat="47.38219" lon="6.50529">
        <ele>275</ele>
        <time>2016-09-03T08:51:57Z</time>
      </trkpt>
      <trkpt lat="47.38231" lon="6.50528">
        <ele>276</ele>
        <time>2016-09-03T08:51:59Z</time>
      </trkpt>
      <trkpt lat="47.3825" lon="6.50528">
        <ele>276</ele>
        <time>2016-09-03T08:52:02Z</time>
      </trkpt>
      <trkpt lat="47.38256" lon="6.50528">
        <ele>276</ele>
        <time>2016-09-03T08:52:03Z</time>
      </trkpt>
      <trkpt lat="47.38268" lon="6.50528">
        <ele>275</ele>
        <time>2016-09-03T08:52:05Z</time>
      </trkpt>
      <trkpt lat="47.38285" lon="6.50527">
        <ele>273</ele>
        <time>2016-09-03T08:52:08Z</time>
      </trkpt>
      <trkpt lat="47.3829" lon="6.50526">
        <ele>273</ele>
        <time>2016-09-03T08:52:09Z</time>
      </trkpt>
      <trkpt lat="47.38303" lon="6.50524">
        <ele>273</ele>
        <time>2016-09-03T08:52:11Z</time>
      </trkpt>
      <trkpt lat="47.38311" lon="6.50519">
        <ele>273</ele>
        <time>2016-09-03T08:52:13Z</time>
      </trkpt>
      <trkpt lat="47.38323" lon="6.50511">
        <ele>273</ele>
        <time>2016-09-03T08:52:15Z</time>
      </trkpt>
      <trkpt lat="47.38331" lon="6.50501">
        <ele>274</ele>
        <time>2016-09-03T08:52:17Z</time>
      </trkpt>
      <trkpt lat="47.38346" lon="6.50492">
        <ele>274</ele>
        <time>2016-09-03T08:52:19Z</time>
      </trkpt>
      <trkpt lat="47.38364" lon="6.5048">
        <ele>274</ele>
        <time>2016-09-03T08:52:22Z</time>
      </trkpt>
      <trkpt lat="47.38372" lon="6.50478">
        <ele>275</ele>
        <time>2016-09-03T08:52:23Z</time>
      </trkpt>
      <trkpt lat="47.38385" lon="6.50472">
        <ele>275</ele>
        <time>2016-09-03T08:52:25Z</time>
      </trkpt>
      <trkpt lat="47.38403" lon="6.5046">
        <ele>275</ele>
        <time>2016-09-03T08:52:28Z</time>
      </trkpt>
      <trkpt lat="47.38415" lon="6.50455">
        <ele>275</ele>
        <time>2016-09-03T08:52:30Z</time>
      </trkpt>
      <trkpt lat="47.3842" lon="6.50453">
        <ele>275</ele>
        <time>2016-09-03T08:52:31Z</time>
      </trkpt>
      <trkpt lat="47.38432" lon="6.50449">
        <ele>275</ele>
        <time>2016-09-03T08:52:33Z</time>
      </trkpt>
      <trkpt lat="47.38442" lon="6.50445">
        <ele>275</ele>
        <time>2016-09-03T08:52:35Z</time>
      </trkpt>
      <trkpt lat="47.38451" lon="6.50438">
        <ele>275</ele>
        <time>2016-09-03T08:52:37Z</time>
      </trkpt>
      <trkpt lat="47.38466" lon="6.50435">
        <ele>276</ele>
        <time>2016-09-03T08:52:40Z</time>
      </trkpt>
      <trkpt lat="47.38469" lon="6.50431">
        <ele>276</ele>
        <time>2016-09-03T08:52:41Z</time>
      </trkpt>
      <trkpt lat="47.38478" lon="6.50426">
        <ele>276</ele>
        <time>2016-09-03T08:52:43Z</time>
      </trkpt>
      <trkpt lat="47.38486" lon="6.50424">
        <ele>276</ele>
        <time>2016-09-03T08:52:45Z</time>
      </trkpt>
      <trkpt lat="47.38497" lon="6.50421">
        <ele>276</ele>
        <time>2016-09-03T08:52:47Z</time>
      </trkpt>
      <trkpt lat="47.38505" lon="6.50415">
        <ele>277</ele>
        <time>2016-09-03T08:52:49Z</time>
      </trkpt>
      <trkpt lat="47.38512" lon="6.50411">
        <ele>277</ele>
        <time>2016-09-03T08:52:51Z</time>
      </trkpt>
      <trkpt lat="47.3852" lon="6.50405">
        <ele>277</ele>
        <time>2016-09-03T08:52:53Z</time>
      </trkpt>
      <trkpt lat="47.38528" lon="6.50402">
        <ele>277</ele>
        <time>2016-09-03T08:52:55Z</time>
      </trkpt>
      <trkpt lat="47.38536" lon="6.50396">
        <ele>277</ele>
        <time>2016-09-03T08:52:57Z</time>
      </trkpt>
      <trkpt lat="47.38547" lon="6.50388">
        <ele>277</ele>
        <time>2016-09-03T08:53:00Z</time>
      </trkpt>
      <trkpt lat="47.3855" lon="6.50385">
        <ele>277</ele>
        <time>2016-09-03T08:53:01Z</time>
      </trkpt>
      <trkpt lat="47.38557" lon="6.50381">
        <ele>277</ele>
        <time>2016-09-03T08:53:03Z</time>
      </trkpt>
      <trkpt lat="47.38569" lon="6.50374">
        <ele>277</ele>
        <time>2016-09-03T08:53:06Z</time>
      </trkpt>
      <trkpt lat="47.38572" lon="6.50371">
        <ele>276</ele>
        <time>2016-09-03T08:53:07Z</time>
      </trkpt>
      <trkpt lat="47.3858" lon="6.50366">
        <ele>276</ele>
        <time>2016-09-03T08:53:09Z</time>
      </trkpt>
      <trkpt lat="47.3859" lon="6.50363">
        <ele>276</ele>
        <time>2016-09-03T08:53:11Z</time>
      </trkpt>
      <trkpt lat="47.386" lon="6.50358">
        <ele>276</ele>
        <time>2016-09-03T08:53:13Z</time>
      </trkpt>
      <trkpt lat="47.38605" lon="6.50353">
        <ele>276</ele>
        <time>2016-09-03T08:53:15Z</time>
      </trkpt>
      <trkpt lat="47.38607" lon="6.50346">
        <ele>276</ele>
        <time>2016-09-03T08:53:17Z</time>
      </trkpt>
      <trkpt lat="47.38621" lon="6.50338">
        <ele>277</ele>
        <time>2016-09-03T08:53:20Z</time>
      </trkpt>
      <trkpt lat="47.38624" lon="6.50335">
        <ele>277</ele>
        <time>2016-09-03T08:53:21Z</time>
      </trkpt>
      <trkpt lat="47.38631" lon="6.50332">
        <ele>277</ele>
        <time>2016-09-03T08:53:23Z</time>
      </trkpt>
      <trkpt lat="47.38639" lon="6.50327">
        <ele>277</ele>
        <time>2016-09-03T08:53:25Z</time>
      </trkpt>
      <trkpt lat="47.38648" lon="6.50326">
        <ele>278</ele>
        <time>2016-09-03T08:53:27Z</time>
      </trkpt>
      <trkpt lat="47.38659" lon="6.50319">
        <ele>279</ele>
        <time>2016-09-03T08:53:30Z</time>
      </trkpt>
      <trkpt lat="47.3867" lon="6.50314">
        <ele>279</ele>
        <time>2016-09-03T08:53:32Z</time>
      </trkpt>
      <trkpt lat="47.38674" lon="6.50312">
        <ele>280</ele>
        <time>2016-09-03T08:53:33Z</time>
      </trkpt>
      <trkpt lat="47.38682" lon="6.50306">
        <ele>280</ele>
        <time>2016-09-03T08:53:35Z</time>
      </trkpt>
      <trkpt lat="47.38686" lon="6.50302">
        <ele>280</ele>
        <time>2016-09-03T08:53:37Z</time>
      </trkpt>
      <trkpt lat="47.38691" lon="6.50295">
        <ele>279</ele>
        <time>2016-09-03T08:53:39Z</time>
      </trkpt>
      <trkpt lat="47.38698" lon="6.50284">
        <ele>278</ele>
        <time>2016-09-03T08:53:42Z</time>
      </trkpt>
      <trkpt lat="47.38703" lon="6.50278">
        <ele>278</ele>
        <time>2016-09-03T08:53:44Z</time>
      </trkpt>
      <trkpt lat="47.38708" lon="6.50275">
        <ele>279</ele>
        <time>2016-09-03T08:53:45Z</time>
      </trkpt>
      <trkpt lat="47.38714" lon="6.50268">
        <ele>279</ele>
        <time>2016-09-03T08:53:47Z</time>
      </trkpt>
      <trkpt lat="47.38724" lon="6.50263">
        <ele>279</ele>
        <time>2016-09-03T08:53:49Z</time>
      </trkpt>
      <trkpt lat="47.38729" lon="6.50256">
        <ele>279</ele>
        <time>2016-09-03T08:53:51Z</time>
      </trkpt>
      <trkpt lat="47.38737" lon="6.5025">
        <ele>279</ele>
        <time>2016-09-03T08:53:53Z</time>
      </trkpt>
      <trkpt lat="47.38743" lon="6.50244">
        <ele>279</ele>
        <time>2016-09-03T08:53:55Z</time>
      </trkpt>
      <trkpt lat="47.38751" lon="6.50237">
        <ele>279</ele>
        <time>2016-09-03T08:53:57Z</time>
      </trkpt>
      <trkpt lat="47.38759" lon="6.50231">
        <ele>280</ele>
        <time>2016-09-03T08:53:59Z</time>
      </trkpt>
      <trkpt lat="47.38764" lon="6.50226">
        <ele>280</ele>
        <time>2016-09-03T08:54:01Z</time>
      </trkpt>
      <trkpt lat="47.3877" lon="6.50221">
        <ele>279</ele>
        <time>2016-09-03T08:54:03Z</time>
      </trkpt>
      <trkpt lat="47.3878" lon="6.50211">
        <ele>280</ele>
        <time>2016-09-03T08:54:06Z</time>
      </trkpt>
      <trkpt lat="47.38784" lon="6.50208">
        <ele>280</ele>
        <time>2016-09-03T08:54:07Z</time>
      </trkpt>
      <trkpt lat="47.38792" lon="6.50203">
        <ele>281</ele>
        <time>2016-09-03T08:54:09Z</time>
      </trkpt>
      <trkpt lat="47.388" lon="6.50199">
        <ele>281</ele>
        <time>2016-09-03T08:54:11Z</time>
      </trkpt>
      <trkpt lat="47.38809" lon="6.50194">
        <ele>281</ele>
        <time>2016-09-03T08:54:13Z</time>
      </trkpt>
      <trkpt lat="47.38815" lon="6.50191">
        <ele>281</ele>
        <time>2016-09-03T08:54:15Z</time>
      </trkpt>
      <trkpt lat="47.38823" lon="6.50187">
        <ele>282</ele>
        <time>2016-09-03T08:54:17Z</time>
      </trkpt>
      <trkpt lat="47.38831" lon="6.50185">
        <ele>283</ele>
        <time>2016-09-03T08:54:19Z</time>
      </trkpt>
      <trkpt lat="47.38839" lon="6.50184">
        <ele>284</ele>
        <time>2016-09-03T08:54:21Z</time>
      </trkpt>
      <trkpt lat="47.38846" lon="6.50183">
        <ele>284</ele>
        <time>2016-09-03T08:54:23Z</time>
      </trkpt>
      <trkpt lat="47.38853" lon="6.50182">
        <ele>285</ele>
        <time>2016-09-03T08:54:25Z</time>
      </trkpt>
      <trkpt lat="47.38858" lon="6.5018">
        <ele>286</ele>
        <time>2016-09-03T08:54:27Z</time>
      </trkpt>
      <trkpt lat="47.38866" lon="6.50176">
        <ele>287</ele>
        <time>2016-09-03T08:54:29Z</time>
      </trkpt>
      <trkpt lat="47.38874" lon="6.50173">
        <ele>288</ele>
        <time>2016-09-03T08:54:31Z</time>
      </trkpt>
      <trkpt lat="47.38882" lon="6.5017">
        <ele>289</ele>
        <time>2016-09-03T08:54:33Z</time>
      </trkpt>
      <trkpt lat="47.3889" lon="6.50164">
        <ele>290</ele>
        <time>2016-09-03T08:54:35Z</time>
      </trkpt>
      <trkpt lat="47.38897" lon="6.50158">
        <ele>291</ele>
        <time>2016-09-03T08:54:37Z</time>
      </trkpt>
      <trkpt lat="47.38903" lon="6.50151">
        <ele>292</ele>
        <time>2016-09-03T08:54:39Z</time>
      </trkpt>
      <trkpt lat="47.38914" lon="6.50141">
        <ele>292</ele>
        <time>2016-09-03T08:54:42Z</time>
      </trkpt>
      <trkpt lat="47.3892" lon="6.50135">
        <ele>293</ele>
        <time>2016-09-03T08:54:44Z</time>
      </trkpt>
      <trkpt lat="47.38925" lon="6.50132">
        <ele>294</ele>
        <time>2016-09-03T08:54:46Z</time>
      </trkpt>
      <trkpt lat="47.3893" lon="6.50131">
        <ele>294</ele>
        <time>2016-09-03T08:54:48Z</time>
      </trkpt>
      <trkpt lat="47.38933" lon="6.5013">
        <ele>295</ele>
        <time>2016-09-03T08:54:49Z</time>
      </trkpt>
      <trkpt lat="47.38941" lon="6.50123">
        <ele>295</ele>
        <time>2016-09-03T08:54:51Z</time>
      </trkpt>
      <trkpt lat="47.38948" lon="6.50111">
        <ele>295</ele>
        <time>2016-09-03T08:54:53Z</time>
      </trkpt>
      <trkpt lat="47.38955" lon="6.50098">
        <ele>294</ele>
        <time>2016-09-03T08:54:55Z</time>
      </trkpt>
      <trkpt lat="47.38963" lon="6.50083">
        <ele>292</ele>
        <time>2016-09-03T08:54:57Z</time>
      </trkpt>
      <trkpt lat="47.38971" lon="6.50068">
        <ele>291</ele>
        <time>2016-09-03T08:54:59Z</time>
      </trkpt>
      <trkpt lat="47.38984" lon="6.50051">
        <ele>289</ele>
        <time>2016-09-03T08:55:01Z</time>
      </trkpt>
      <trkpt lat="47.39" lon="6.5003">
        <ele>288</ele>
        <time>2016-09-03T08:55:04Z</time>
      </trkpt>
      <trkpt lat="47.39006" lon="6.50024">
        <ele>288</ele>
        <time>2016-09-03T08:55:05Z</time>
      </trkpt>
      <trkpt lat="47.39021" lon="6.50009">
        <ele>289</ele>
        <time>2016-09-03T08:55:07Z</time>
      </trkpt>
      <trkpt lat="47.39034" lon="6.49994">
        <ele>288</ele>
        <time>2016-09-03T08:55:09Z</time>
      </trkpt>
      <trkpt lat="47.39047" lon="6.49981">
        <ele>288</ele>
        <time>2016-09-03T08:55:11Z</time>
      </trkpt>
      <trkpt lat="47.39062" lon="6.49967">
        <ele>287</ele>
        <time>2016-09-03T08:55:13Z</time>
      </trkpt>
      <trkpt lat="47.39085" lon="6.49945">
        <ele>286</ele>
        <time>2016-09-03T08:55:16Z</time>
      </trkpt>
      <trkpt lat="47.39092" lon="6.49939">
        <ele>286</ele>
        <time>2016-09-03T08:55:17Z</time>
      </trkpt>
      <trkpt lat="47.39106" lon="6.49927">
        <ele>286</ele>
        <time>2016-09-03T08:55:19Z</time>
      </trkpt>
      <trkpt lat="47.39123" lon="6.49913">
        <ele>285</ele>
        <time>2016-09-03T08:55:21Z</time>
      </trkpt>
      <trkpt lat="47.39139" lon="6.49901">
        <ele>285</ele>
        <time>2016-09-03T08:55:23Z</time>
      </trkpt>
      <trkpt lat="47.39152" lon="6.49888">
        <ele>285</ele>
        <time>2016-09-03T08:55:25Z</time>
      </trkpt>
      <trkpt lat="47.39174" lon="6.49866">
        <ele>284</ele>
        <time>2016-09-03T08:55:28Z</time>
      </trkpt>
      <trkpt lat="47.39186" lon="6.49851">
        <ele>284</ele>
        <time>2016-09-03T08:55:30Z</time>
      </trkpt>
      <trkpt lat="47.39193" lon="6.49843">
        <ele>284</ele>
        <time>2016-09-03T08:55:31Z</time>
      </trkpt>
      <trkpt lat="47.3921" lon="6.49827">
        <ele>284</ele>
        <time>2016-09-03T08:55:33Z</time>
      </trkpt>
      <trkpt lat="47.39229" lon="6.49798">
        <ele>283</ele>
        <time>2016-09-03T08:55:36Z</time>
      </trkpt>
      <trkpt lat="47.39235" lon="6.49786">
        <ele>283</ele>
        <time>2016-09-03T08:55:37Z</time>
      </trkpt>
      <trkpt lat="47.3925" lon="6.49769">
        <ele>282</ele>
        <time>2016-09-03T08:55:39Z</time>
      </trkpt>
      <trkpt lat="47.39261" lon="6.49752">
        <ele>281</ele>
        <time>2016-09-03T08:55:41Z</time>
      </trkpt>
      <trkpt lat="47.39272" lon="6.49736">
        <ele>281</ele>
        <time>2016-09-03T08:55:43Z</time>
      </trkpt>
      <trkpt lat="47.39284" lon="6.49714">
        <ele>280</ele>
        <time>2016-09-03T08:55:45Z</time>
      </trkpt>
      <trkpt lat="47.39296" lon="6.49697">
        <ele>280</ele>
        <time>2016-09-03T08:55:48Z</time>
      </trkpt>
      <trkpt lat="47.39294" lon="6.49692">
        <ele>279</ele>
        <time>2016-09-03T08:55:49Z</time>
      </trkpt>
      <trkpt lat="47.39301" lon="6.49687">
        <ele>279</ele>
        <time>2016-09-03T08:55:51Z</time>
      </trkpt>
      <trkpt lat="47.39302" lon="6.49672">
        <ele>278</ele>
        <time>2016-09-03T08:55:54Z</time>
      </trkpt>
      <trkpt lat="47.39298" lon="6.49657">
        <ele>278</ele>
        <time>2016-09-03T08:55:56Z</time>
      </trkpt>
      <trkpt lat="47.39289" lon="6.49643">
        <ele>277</ele>
        <time>2016-09-03T08:55:58Z</time>
      </trkpt>
      <trkpt lat="47.39285" lon="6.49634">
        <ele>277</ele>
        <time>2016-09-03T08:55:59Z</time>
      </trkpt>
      <trkpt lat="47.39276" lon="6.49618">
        <ele>276</ele>
        <time>2016-09-03T08:56:01Z</time>
      </trkpt>
      <trkpt lat="47.39257" lon="6.49593">
        <ele>276</ele>
        <time>2016-09-03T08:56:04Z</time>
      </trkpt>
      <trkpt lat="47.39252" lon="6.49585">
        <ele>276</ele>
        <time>2016-09-03T08:56:05Z</time>
      </trkpt>
      <trkpt lat="47.39246" lon="6.49567">
        <ele>276</ele>
        <time>2016-09-03T08:56:07Z</time>
      </trkpt>
      <trkpt lat="47.39233" lon="6.49546">
        <ele>277</ele>
        <time>2016-09-03T08:56:10Z</time>
      </trkpt>
      <trkpt lat="47.39224" lon="6.49533">
        <ele>277</ele>
        <time>2016-09-03T08:56:12Z</time>
      </trkpt>
      <trkpt lat="47.39219" lon="6.49526">
        <ele>278</ele>
        <time>2016-09-03T08:56:13Z</time>
      </trkpt>
      <trkpt lat="47.39209" lon="6.49507">
        <ele>280</ele>
        <time>2016-09-03T08:56:16Z</time>
      </trkpt>
      <trkpt lat="47.39206" lon="6.49503">
        <ele>281</ele>
        <time>2016-09-03T08:56:17Z</time>
      </trkpt>
      <trkpt lat="47.392" lon="6.49491">
        <ele>282</ele>
        <time>2016-09-03T08:56:19Z</time>
      </trkpt>
      <trkpt lat="47.39193" lon="6.4948">
        <ele>284</ele>
        <time>2016-09-03T08:56:21Z</time>
      </trkpt>
      <trkpt lat="47.39189" lon="6.49468">
        <ele>285</ele>
        <time>2016-09-03T08:56:23Z</time>
      </trkpt>
      <trkpt lat="47.39191" lon="6.49454">
        <ele>286</ele>
        <time>2016-09-03T08:56:25Z</time>
      </trkpt>
      <trkpt lat="47.39202" lon="6.49431">
        <ele>286</ele>
        <time>2016-09-03T08:56:28Z</time>
      </trkpt>
      <trkpt lat="47.39206" lon="6.49424">
        <ele>288</ele>
        <time>2016-09-03T08:56:29Z</time>
      </trkpt>
      <trkpt lat="47.39218" lon="6.4941">
        <ele>291</ele>
        <time>2016-09-03T08:56:31Z</time>
      </trkpt>
      <trkpt lat="47.39232" lon="6.49398">
        <ele>293</ele>
        <time>2016-09-03T08:56:33Z</time>
      </trkpt>
      <trkpt lat="47.39245" lon="6.49389">
        <ele>296</ele>
        <time>2016-09-03T08:56:35Z</time>
      </trkpt>
      <trkpt lat="47.3926" lon="6.49384">
        <ele>298</ele>
        <time>2016-09-03T08:56:37Z</time>
      </trkpt>
      <trkpt lat="47.39276" lon="6.4938">
        <ele>299</ele>
        <time>2016-09-03T08:56:39Z</time>
      </trkpt>
      <trkpt lat="47.39291" lon="6.49377">
        <ele>297</ele>
        <time>2016-09-03T08:56:41Z</time>
      </trkpt>
      <trkpt lat="47.39311" lon="6.49373">
        <ele>293</ele>
        <time>2016-09-03T08:56:44Z</time>
      </trkpt>
      <trkpt lat="47.39318" lon="6.49374">
        <ele>291</ele>
        <time>2016-09-03T08:56:45Z</time>
      </trkpt>
      <trkpt lat="47.39331" lon="6.49372">
        <ele>289</ele>
        <time>2016-09-03T08:56:47Z</time>
      </trkpt>
      <trkpt lat="47.39344" lon="6.49373">
        <ele>286</ele>
        <time>2016-09-03T08:56:49Z</time>
      </trkpt>
      <trkpt lat="47.39357" lon="6.49371">
        <ele>285</ele>
        <time>2016-09-03T08:56:51Z</time>
      </trkpt>
      <trkpt lat="47.3937" lon="6.49369">
        <ele>283</ele>
        <time>2016-09-03T08:56:53Z</time>
      </trkpt>
      <trkpt lat="47.39383" lon="6.4937">
        <ele>281</ele>
        <time>2016-09-03T08:56:55Z</time>
      </trkpt>
      <trkpt lat="47.39396" lon="6.49375">
        <ele>279</ele>
        <time>2016-09-03T08:56:57Z</time>
      </trkpt>
      <trkpt lat="47.3941" lon="6.49377">
        <ele>278</ele>
        <time>2016-09-03T08:56:59Z</time>
      </trkpt>
      <trkpt lat="47.3943" lon="6.49386">
        <ele>277</ele>
        <time>2016-09-03T08:57:02Z</time>
      </trkpt>
      <trkpt lat="47.39437" lon="6.49391">
        <ele>277</ele>
        <time>2016-09-03T08:57:03Z</time>
      </trkpt>
      <trkpt lat="47.39449" lon="6.49402">
        <ele>276</ele>
        <time>2016-09-03T08:57:05Z</time>
      </trkpt>
      <trkpt lat="47.39461" lon="6.49412">
        <ele>275</ele>
        <time>2016-09-03T08:57:07Z</time>
      </trkpt>
      <trkpt lat="47.39471" lon="6.49425">
        <ele>275</ele>
        <time>2016-09-03T08:57:09Z</time>
      </trkpt>
      <trkpt lat="47.39482" lon="6.4944">
        <ele>275</ele>
        <time>2016-09-03T08:57:11Z</time>
      </trkpt>
      <trkpt lat="47.3949" lon="6.49456">
        <ele>275</ele>
        <time>2016-09-03T08:57:13Z</time>
      </trkpt>
      <trkpt lat="47.395" lon="6.49471">
        <ele>276</ele>
        <time>2016-09-03T08:57:15Z</time>
      </trkpt>
      <trkpt lat="47.39514" lon="6.49491">
        <ele>277</ele>
        <time>2016-09-03T08:57:18Z</time>
      </trkpt>
      <trkpt lat="47.39524" lon="6.49507">
        <ele>278</ele>
        <time>2016-09-03T08:57:20Z</time>
      </trkpt>
      <trkpt lat="47.39528" lon="6.49515">
        <ele>278</ele>
        <time>2016-09-03T08:57:21Z</time>
      </trkpt>
      <trkpt lat="47.39542" lon="6.49538">
        <ele>279</ele>
        <time>2016-09-03T08:57:24Z</time>
      </trkpt>
      <trkpt lat="47.39547" lon="6.49545">
        <ele>279</ele>
        <time>2016-09-03T08:57:25Z</time>
      </trkpt>
      <trkpt lat="47.39556" lon="6.49561">
        <ele>279</ele>
        <time>2016-09-03T08:57:27Z</time>
      </trkpt>
      <trkpt lat="47.39566" lon="6.49577">
        <ele>280</ele>
        <time>2016-09-03T08:57:29Z</time>
      </trkpt>
      <trkpt lat="47.39574" lon="6.49592">
        <ele>280</ele>
        <time>2016-09-03T08:57:31Z</time>
      </trkpt>
      <trkpt lat="47.39582" lon="6.49606">
        <ele>280</ele>
        <time>2016-09-03T08:57:33Z</time>
      </trkpt>
      <trkpt lat="47.39592" lon="6.49621">
        <ele>280</ele>
        <time>2016-09-03T08:57:35Z</time>
      </trkpt>
      <trkpt lat="47.39599" lon="6.49637">
        <ele>280</ele>
        <time>2016-09-03T08:57:37Z</time>
      </trkpt>
      <trkpt lat="47.39606" lon="6.49653">
        <ele>280</ele>
        <time>2016-09-03T08:57:39Z</time>
      </trkpt>
      <trkpt lat="47.39614" lon="6.49668">
        <ele>280</ele>
        <time>2016-09-03T08:57:41Z</time>
      </trkpt>
      <trkpt lat="47.39621" lon="6.49684">
        <ele>280</ele>
        <time>2016-09-03T08:57:43Z</time>
      </trkpt>
      <trkpt lat="47.3963" lon="6.49705">
        <ele>280</ele>
        <time>2016-09-03T08:57:46Z</time>
      </trkpt>
      <trkpt lat="47.39633" lon="6.49711">
        <ele>280</ele>
        <time>2016-09-03T08:57:47Z</time>
      </trkpt>
      <trkpt lat="47.3964" lon="6.49725">
        <ele>280</ele>
        <time>2016-09-03T08:57:49Z</time>
      </trkpt>
      <trkpt lat="47.39643" lon="6.49734">
        <ele>280</ele>
        <time>2016-09-03T08:57:51Z</time>
      </trkpt>
      <trkpt lat="47.39646" lon="6.49742">
        <ele>280</ele>
        <time>2016-09-03T08:57:53Z</time>
      </trkpt>
      <trkpt lat="47.39654" lon="6.4976">
        <ele>280</ele>
        <time>2016-09-03T08:57:56Z</time>
      </trkpt>
      <trkpt lat="47.3966" lon="6.49774">
        <ele>280</ele>
        <time>2016-09-03T08:57:58Z</time>
      </trkpt>
      <trkpt lat="47.39667" lon="6.49789">
        <ele>280</ele>
        <time>2016-09-03T08:58:00Z</time>
      </trkpt>
      <trkpt lat="47.39668" lon="6.49796">
        <ele>280</ele>
        <time>2016-09-03T08:58:01Z</time>
      </trkpt>
      <trkpt lat="47.39681" lon="6.49817">
        <ele>280</ele>
        <time>2016-09-03T08:58:04Z</time>
      </trkpt>
      <trkpt lat="47.39685" lon="6.49826">
        <ele>280</ele>
        <time>2016-09-03T08:58:05Z</time>
      </trkpt>
      <trkpt lat="47.39692" lon="6.4984">
        <ele>280</ele>
        <time>2016-09-03T08:58:07Z</time>
      </trkpt>
      <trkpt lat="47.397" lon="6.49857">
        <ele>280</ele>
        <time>2016-09-03T08:58:09Z</time>
      </trkpt>
      <trkpt lat="47.39711" lon="6.49881">
        <ele>280</ele>
        <time>2016-09-03T08:58:12Z</time>
      </trkpt>
      <trkpt lat="47.39714" lon="6.49889">
        <ele>280</ele>
        <time>2016-09-03T08:58:13Z</time>
      </trkpt>
      <trkpt lat="47.3972" lon="6.49904">
        <ele>280</ele>
        <time>2016-09-03T08:58:15Z</time>
      </trkpt>
      <trkpt lat="47.39727" lon="6.4992">
        <ele>280</ele>
        <time>2016-09-03T08:58:17Z</time>
      </trkpt>
      <trkpt lat="47.39731" lon="6.49934">
        <ele>280</ele>
        <time>2016-09-03T08:58:19Z</time>
      </trkpt>
      <trkpt lat="47.39738" lon="6.49955">
        <ele>280</ele>
        <time>2016-09-03T08:58:22Z</time>
      </trkpt>
      <trkpt lat="47.39746" lon="6.49973">
        <ele>280</ele>
        <time>2016-09-03T08:58:24Z</time>
      </trkpt>
      <trkpt lat="47.39748" lon="6.49981">
        <ele>280</ele>
        <time>2016-09-03T08:58:25Z</time>
      </trkpt>
      <trkpt lat="47.39751" lon="6.49999">
        <ele>280</ele>
        <time>2016-09-03T08:58:27Z</time>
      </trkpt>
      <trkpt lat="47.39756" lon="6.50017">
        <ele>280</ele>
        <time>2016-09-03T08:58:29Z</time>
      </trkpt>
      <trkpt lat="47.3976" lon="6.50041">
        <ele>280</ele>
        <time>2016-09-03T08:58:32Z</time>
      </trkpt>
      <trkpt lat="47.39762" lon="6.50047">
        <ele>280</ele>
        <time>2016-09-03T08:58:33Z</time>
      </trkpt>
      <trkpt lat="47.39763" lon="6.50074">
        <ele>279</ele>
        <time>2016-09-03T08:58:36Z</time>
      </trkpt>
      <trkpt lat="47.39761" lon="6.5008">
        <ele>279</ele>
        <time>2016-09-03T08:58:37Z</time>
      </trkpt>
      <trkpt lat="47.39759" lon="6.50101">
        <ele>279</ele>
        <time>2016-09-03T08:58:39Z</time>
      </trkpt>
      <trkpt lat="47.39759" lon="6.50117">
        <ele>279</ele>
        <time>2016-09-03T08:58:41Z</time>
      </trkpt>
      <trkpt lat="47.39758" lon="6.50146">
        <ele>279</ele>
        <time>2016-09-03T08:58:44Z</time>
      </trkpt>
      <trkpt lat="47.39754" lon="6.50166">
        <ele>279</ele>
        <time>2016-09-03T08:58:46Z</time>
      </trkpt>
      <trkpt lat="47.39754" lon="6.50176">
        <ele>279</ele>
        <time>2016-09-03T08:58:47Z</time>
      </trkpt>
      <trkpt lat="47.39752" lon="6.50195">
        <ele>278</ele>
        <time>2016-09-03T08:58:49Z</time>
      </trkpt>
      <trkpt lat="47.39752" lon="6.50222">
        <ele>278</ele>
        <time>2016-09-03T08:58:52Z</time>
      </trkpt>
      <trkpt lat="47.39751" lon="6.50234">
        <ele>278</ele>
        <time>2016-09-03T08:58:53Z</time>
      </trkpt>
      <trkpt lat="47.39749" lon="6.50261">
        <ele>278</ele>
        <time>2016-09-03T08:58:56Z</time>
      </trkpt>
      <trkpt lat="47.39748" lon="6.50271">
        <ele>278</ele>
        <time>2016-09-03T08:58:57Z</time>
      </trkpt>
      <trkpt lat="47.39746" lon="6.50287">
        <ele>277</ele>
        <time>2016-09-03T08:58:59Z</time>
      </trkpt>
      <trkpt lat="47.39743" lon="6.50306">
        <ele>277</ele>
        <time>2016-09-03T08:59:01Z</time>
      </trkpt>
      <trkpt lat="47.39742" lon="6.50325">
        <ele>277</ele>
        <time>2016-09-03T08:59:03Z</time>
      </trkpt>
      <trkpt lat="47.3974" lon="6.50351">
        <ele>276</ele>
        <time>2016-09-03T08:59:06Z</time>
      </trkpt>
      <trkpt lat="47.39739" lon="6.50361">
        <ele>276</ele>
        <time>2016-09-03T08:59:07Z</time>
      </trkpt>
      <trkpt lat="47.39738" lon="6.50388">
        <ele>276</ele>
        <time>2016-09-03T08:59:10Z</time>
      </trkpt>
      <trkpt lat="47.39737" lon="6.50396">
        <ele>276</ele>
        <time>2016-09-03T08:59:11Z</time>
      </trkpt>
      <trkpt lat="47.39733" lon="6.50422">
        <ele>276</ele>
        <time>2016-09-03T08:59:14Z</time>
      </trkpt>
      <trkpt lat="47.39733" lon="6.5043">
        <ele>276</ele>
        <time>2016-09-03T08:59:15Z</time>
      </trkpt>
      <trkpt lat="47.39731" lon="6.50447">
        <ele>275</ele>
        <time>2016-09-03T08:59:17Z</time>
      </trkpt>
      <trkpt lat="47.3973" lon="6.50476">
        <ele>275</ele>
        <time>2016-09-03T08:59:20Z</time>
      </trkpt>
      <trkpt lat="47.3973" lon="6.50488">
        <ele>276</ele>
        <time>2016-09-03T08:59:21Z</time>
      </trkpt>
      <trkpt lat="47.39734" lon="6.50509">
        <ele>276</ele>
        <time>2016-09-03T08:59:23Z</time>
      </trkpt>
      <trkpt lat="47.3974" lon="6.50528">
        <ele>276</ele>
        <time>2016-09-03T08:59:25Z</time>
      </trkpt>
      <trkpt lat="47.39746" lon="6.50544">
        <ele>276</ele>
        <time>2016-09-03T08:59:27Z</time>
      </trkpt>
      <trkpt lat="47.39762" lon="6.50558">
        <ele>276</ele>
        <time>2016-09-03T08:59:29Z</time>
      </trkpt>
      <trkpt lat="47.39767" lon="6.50573">
        <ele>276</ele>
        <time>2016-09-03T08:59:31Z</time>
      </trkpt>
      <trkpt lat="47.3978" lon="6.50594">
        <ele>275</ele>
        <time>2016-09-03T08:59:34Z</time>
      </trkpt>
      <trkpt lat="47.39788" lon="6.50601">
        <ele>275</ele>
        <time>2016-09-03T08:59:35Z</time>
      </trkpt>
      <trkpt lat="47.39804" lon="6.50622">
        <ele>276</ele>
        <time>2016-09-03T08:59:38Z</time>
      </trkpt>
      <trkpt lat="47.3981" lon="6.5063">
        <ele>276</ele>
        <time>2016-09-03T08:59:39Z</time>
      </trkpt>
      <trkpt lat="47.39822" lon="6.50643">
        <ele>276</ele>
        <time>2016-09-03T08:59:41Z</time>
      </trkpt>
      <trkpt lat="47.39835" lon="6.50654">
        <ele>276</ele>
        <time>2016-09-03T08:59:43Z</time>
      </trkpt>
      <trkpt lat="47.39854" lon="6.50671">
        <ele>276</ele>
        <time>2016-09-03T08:59:46Z</time>
      </trkpt>
      <trkpt lat="47.39858" lon="6.50677">
        <ele>276</ele>
        <time>2016-09-03T08:59:47Z</time>
      </trkpt>
      <trkpt lat="47.39868" lon="6.50686">
        <ele>276</ele>
        <time>2016-09-03T08:59:49Z</time>
      </trkpt>
      <trkpt lat="47.39879" lon="6.50698">
        <ele>276</ele>
        <time>2016-09-03T08:59:51Z</time>
      </trkpt>
      <trkpt lat="47.39892" lon="6.50711">
        <ele>277</ele>
        <time>2016-09-03T08:59:53Z</time>
      </trkpt>
      <trkpt lat="47.39905" lon="6.50723">
        <ele>277</ele>
        <time>2016-09-03T08:59:55Z</time>
      </trkpt>
      <trkpt lat="47.39917" lon="6.50734">
        <ele>277</ele>
        <time>2016-09-03T08:59:57Z</time>
      </trkpt>
      <trkpt lat="47.39929" lon="6.50744">
        <ele>278</ele>
        <time>2016-09-03T08:59:59Z</time>
      </trkpt>
      <trkpt lat="47.39941" lon="6.50753">
        <ele>278</ele>
        <time>2016-09-03T09:00:01Z</time>
      </trkpt>
      <trkpt lat="47.39953" lon="6.50763">
        <ele>278</ele>
        <time>2016-09-03T09:00:03Z</time>
      </trkpt>
      <trkpt lat="47.39965" lon="6.50773">
        <ele>278</ele>
        <time>2016-09-03T09:00:05Z</time>
      </trkpt>
      <trkpt lat="47.39977" lon="6.50781">
        <ele>278</ele>
        <time>2016-09-03T09:00:07Z</time>
      </trkpt>
      <trkpt lat="47.3999" lon="6.50791">
        <ele>278</ele>
        <time>2016-09-03T09:00:09Z</time>
      </trkpt>
      <trkpt lat="47.40002" lon="6.508">
        <ele>278</ele>
        <time>2016-09-03T09:00:11Z</time>
      </trkpt>
      <trkpt lat="47.40014" lon="6.5081">
        <ele>278</ele>
        <time>2016-09-03T09:00:13Z</time>
      </trkpt>
      <trkpt lat="47.40027" lon="6.50819">
        <ele>277</ele>
        <time>2016-09-03T09:00:15Z</time>
      </trkpt>
      <trkpt lat="47.4004" lon="6.50829">
        <ele>277</ele>
        <time>2016-09-03T09:00:17Z</time>
      </trkpt>
      <trkpt lat="47.40051" lon="6.50837">
        <ele>277</ele>
        <time>2016-09-03T09:00:19Z</time>
      </trkpt>
      <trkpt lat="47.40065" lon="6.50847">
        <ele>277</ele>
        <time>2016-09-03T09:00:21Z</time>
      </trkpt>
      <trkpt lat="47.40077" lon="6.50858">
        <ele>276</ele>
        <time>2016-09-03T09:00:23Z</time>
      </trkpt>
      <trkpt lat="47.40089" lon="6.50867">
        <ele>276</ele>
        <time>2016-09-03T09:00:25Z</time>
      </trkpt>
      <trkpt lat="47.40101" lon="6.50876">
        <ele>276</ele>
        <time>2016-09-03T09:00:27Z</time>
      </trkpt>
      <trkpt lat="47.40113" lon="6.50884">
        <ele>276</ele>
        <time>2016-09-03T09:00:29Z</time>
      </trkpt>
      <trkpt lat="47.40127" lon="6.50895">
        <ele>276</ele>
        <time>2016-09-03T09:00:31Z</time>
      </trkpt>
      <trkpt lat="47.40138" lon="6.50905">
        <ele>276</ele>
        <time>2016-09-03T09:00:33Z</time>
      </trkpt>
      <trkpt lat="47.4015" lon="6.50915">
        <ele>276</ele>
        <time>2016-09-03T09:00:35Z</time>
      </trkpt>
      <trkpt lat="47.40161" lon="6.50921">
        <ele>276</ele>
        <time>2016-09-03T09:00:37Z</time>
      </trkpt>
      <trkpt lat="47.40172" lon="6.50928">
        <ele>276</ele>
        <time>2016-09-03T09:00:39Z</time>
      </trkpt>
      <trkpt lat="47.40184" lon="6.50937">
        <ele>276</ele>
        <time>2016-09-03T09:00:41Z</time>
      </trkpt>
      <trkpt lat="47.40196" lon="6.50944">
        <ele>276</ele>
        <time>2016-09-03T09:00:43Z</time>
      </trkpt>
      <trkpt lat="47.40209" lon="6.50954">
        <ele>276</ele>
        <time>2016-09-03T09:00:45Z</time>
      </trkpt>
      <trkpt lat="47.40221" lon="6.50962">
        <ele>276</ele>
        <time>2016-09-03T09:00:47Z</time>
      </trkpt>
      <trkpt lat="47.40233" lon="6.50969">
        <ele>276</ele>
        <time>2016-09-03T09:00:49Z</time>
      </trkpt>
      <trkpt lat="47.40245" lon="6.50977">
        <ele>276</ele>
        <time>2016-09-03T09:00:51Z</time>
      </trkpt>
      <trkpt lat="47.40257" lon="6.50987">
        <ele>277</ele>
        <time>2016-09-03T09:00:53Z</time>
      </trkpt>
      <trkpt lat="47.40268" lon="6.50995">
        <ele>277</ele>
        <time>2016-09-03T09:00:55Z</time>
      </trkpt>
      <trkpt lat="47.40279" lon="6.51001">
        <ele>277</ele>
        <time>2016-09-03T09:00:57Z</time>
      </trkpt>
      <trkpt lat="47.40289" lon="6.51006">
        <ele>277</ele>
        <time>2016-09-03T09:00:59Z</time>
      </trkpt>
      <trkpt lat="47.40299" lon="6.5101">
        <ele>277</ele>
        <time>2016-09-03T09:01:01Z</time>
      </trkpt>
      <trkpt lat="47.40307" lon="6.51018">
        <ele>277</ele>
        <time>2016-09-03T09:01:03Z</time>
      </trkpt>
      <trkpt lat="47.40318" lon="6.51026">
        <ele>277</ele>
        <time>2016-09-03T09:01:05Z</time>
      </trkpt>
      <trkpt lat="47.40327" lon="6.51035">
        <ele>277</ele>
        <time>2016-09-03T09:01:07Z</time>
      </trkpt>
      <trkpt lat="47.40338" lon="6.51044">
        <ele>277</ele>
        <time>2016-09-03T09:01:09Z</time>
      </trkpt>
      <trkpt lat="47.4035" lon="6.51054">
        <ele>276</ele>
        <time>2016-09-03T09:01:11Z</time>
      </trkpt>
      <trkpt lat="47.40361" lon="6.51062">
        <ele>276</ele>
        <time>2016-09-03T09:01:13Z</time>
      </trkpt>
      <trkpt lat="47.40372" lon="6.51071">
        <ele>276</ele>
        <time>2016-09-03T09:01:15Z</time>
      </trkpt>
      <trkpt lat="47.40384" lon="6.51078">
        <ele>276</ele>
        <time>2016-09-03T09:01:17Z</time>
      </trkpt>
      <trkpt lat="47.40397" lon="6.51084">
        <ele>275</ele>
        <time>2016-09-03T09:01:19Z</time>
      </trkpt>
      <trkpt lat="47.4041" lon="6.5109">
        <ele>275</ele>
        <time>2016-09-03T09:01:21Z</time>
      </trkpt>
      <trkpt lat="47.40423" lon="6.51096">
        <ele>275</ele>
        <time>2016-09-03T09:01:23Z</time>
      </trkpt>
      <trkpt lat="47.40442" lon="6.51101">
        <ele>275</ele>
        <time>2016-09-03T09:01:26Z</time>
      </trkpt>
      <trkpt lat="47.40448" lon="6.51103">
        <ele>275</ele>
        <time>2016-09-03T09:01:27Z</time>
      </trkpt>
      <trkpt lat="47.40461" lon="6.51107">
        <ele>275</ele>
        <time>2016-09-03T09:01:29Z</time>
      </trkpt>
      <trkpt lat="47.40474" lon="6.51109">
        <ele>275</ele>
        <time>2016-09-03T09:01:31Z</time>
      </trkpt>
      <trkpt lat="47.40486" lon="6.51111">
        <ele>275</ele>
        <time>2016-09-03T09:01:33Z</time>
      </trkpt>
      <trkpt lat="47.40499" lon="6.51112">
        <ele>275</ele>
        <time>2016-09-03T09:01:35Z</time>
      </trkpt>
      <trkpt lat="47.40512" lon="6.51112">
        <ele>275</ele>
        <time>2016-09-03T09:01:37Z</time>
      </trkpt>
      <trkpt lat="47.40525" lon="6.51114">
        <ele>275</ele>
        <time>2016-09-03T09:01:39Z</time>
      </trkpt>
      <trkpt lat="47.40538" lon="6.51115">
        <ele>275</ele>
        <time>2016-09-03T09:01:41Z</time>
      </trkpt>
      <trkpt lat="47.40551" lon="6.51115">
        <ele>275</ele>
        <time>2016-09-03T09:01:43Z</time>
      </trkpt>
      <trkpt lat="47.40564" lon="6.51114">
        <ele>275</ele>
        <time>2016-09-03T09:01:45Z</time>
      </trkpt>
      <trkpt lat="47.40576" lon="6.51114">
        <ele>275</ele>
        <time>2016-09-03T09:01:47Z</time>
      </trkpt>
      <trkpt lat="47.40588" lon="6.51113">
        <ele>275</ele>
        <time>2016-09-03T09:01:49Z</time>
      </trkpt>
      <trkpt lat="47.40599" lon="6.51114">
        <ele>275</ele>
        <time>2016-09-03T09:01:51Z</time>
      </trkpt>
      <trkpt lat="47.40611" lon="6.51114">
        <ele>275</ele>
        <time>2016-09-03T09:01:53Z</time>
      </trkpt>
      <trkpt lat="47.4063" lon="6.51115">
        <ele>275</ele>
        <time>2016-09-03T09:01:56Z</time>
      </trkpt>
      <trkpt lat="47.40636" lon="6.51116">
        <ele>275</ele>
        <time>2016-09-03T09:01:57Z</time>
      </trkpt>
      <trkpt lat="47.40648" lon="6.51116">
        <ele>275</ele>
        <time>2016-09-03T09:01:59Z</time>
      </trkpt>
      <trkpt lat="47.40661" lon="6.51115">
        <ele>275</ele>
        <time>2016-09-03T09:02:01Z</time>
      </trkpt>
      <trkpt lat="47.40672" lon="6.51116">
        <ele>275</ele>
        <time>2016-09-03T09:02:03Z</time>
      </trkpt>
      <trkpt lat="47.40685" lon="6.51119">
        <ele>275</ele>
        <time>2016-09-03T09:02:05Z</time>
      </trkpt>
      <trkpt lat="47.40697" lon="6.51121">
        <ele>275</ele>
        <time>2016-09-03T09:02:07Z</time>
      </trkpt>
      <trkpt lat="47.40715" lon="6.51125">
        <ele>275</ele>
        <time>2016-09-03T09:02:10Z</time>
      </trkpt>
      <trkpt lat="47.40722" lon="6.51126">
        <ele>275</ele>
        <time>2016-09-03T09:02:11Z</time>
      </trkpt>
      <trkpt lat="47.40735" lon="6.51127">
        <ele>275</ele>
        <time>2016-09-03T09:02:13Z</time>
      </trkpt>
      <trkpt lat="47.40748" lon="6.51129">
        <ele>275</ele>
        <time>2016-09-03T09:02:15Z</time>
      </trkpt>
      <trkpt lat="47.40761" lon="6.51129">
        <ele>275</ele>
        <time>2016-09-03T09:02:17Z</time>
      </trkpt>
      <trkpt lat="47.40774" lon="6.51129">
        <ele>275</ele>
        <time>2016-09-03T09:02:19Z</time>
      </trkpt>
      <trkpt lat="47.40786" lon="6.5113">
        <ele>276</ele>
        <time>2016-09-03T09:02:21Z</time>
      </trkpt>
      <trkpt lat="47.40798" lon="6.51129">
        <ele>276</ele>
        <time>2016-09-03T09:02:23Z</time>
      </trkpt>
      <trkpt lat="47.40811" lon="6.51131">
        <ele>276</ele>
        <time>2016-09-03T09:02:25Z</time>
      </trkpt>
      <trkpt lat="47.40824" lon="6.51132">
        <ele>276</ele>
        <time>2016-09-03T09:02:27Z</time>
      </trkpt>
      <trkpt lat="47.40836" lon="6.51133">
        <ele>276</ele>
        <time>2016-09-03T09:02:29Z</time>
      </trkpt>
      <trkpt lat="47.40849" lon="6.51135">
        <ele>277</ele>
        <time>2016-09-03T09:02:31Z</time>
      </trkpt>
      <trkpt lat="47.40861" lon="6.51137">
        <ele>277</ele>
        <time>2016-09-03T09:02:33Z</time>
      </trkpt>
      <trkpt lat="47.4088" lon="6.51141">
        <ele>278</ele>
        <time>2016-09-03T09:02:36Z</time>
      </trkpt>
      <trkpt lat="47.40887" lon="6.51141">
        <ele>278</ele>
        <time>2016-09-03T09:02:37Z</time>
      </trkpt>
      <trkpt lat="47.40901" lon="6.51142">
        <ele>279</ele>
        <time>2016-09-03T09:02:39Z</time>
      </trkpt>
      <trkpt lat="47.40913" lon="6.51142">
        <ele>279</ele>
        <time>2016-09-03T09:02:41Z</time>
      </trkpt>
      <trkpt lat="47.40926" lon="6.51144">
        <ele>280</ele>
        <time>2016-09-03T09:02:43Z</time>
      </trkpt>
      <trkpt lat="47.40939" lon="6.51144">
        <ele>281</ele>
        <time>2016-09-03T09:02:45Z</time>
      </trkpt>
      <trkpt lat="47.40953" lon="6.51146">
        <ele>281</ele>
        <time>2016-09-03T09:02:47Z</time>
      </trkpt>
      <trkpt lat="47.40967" lon="6.51148">
        <ele>282</ele>
        <time>2016-09-03T09:02:49Z</time>
      </trkpt>
      <trkpt lat="47.4098" lon="6.51148">
        <ele>283</ele>
        <time>2016-09-03T09:02:51Z</time>
      </trkpt>
      <trkpt lat="47.40992" lon="6.51148">
        <ele>285</ele>
        <time>2016-09-03T09:02:53Z</time>
      </trkpt>
      <trkpt lat="47.41004" lon="6.51149">
        <ele>286</ele>
        <time>2016-09-03T09:02:55Z</time>
      </trkpt>
      <trkpt lat="47.41017" lon="6.5115">
        <ele>287</ele>
        <time>2016-09-03T09:02:57Z</time>
      </trkpt>
      <trkpt lat="47.41029" lon="6.51152">
        <ele>289</ele>
        <time>2016-09-03T09:02:59Z</time>
      </trkpt>
      <trkpt lat="47.41042" lon="6.51153">
        <ele>291</ele>
        <time>2016-09-03T09:03:01Z</time>
      </trkpt>
      <trkpt lat="47.41054" lon="6.51151">
        <ele>294</ele>
        <time>2016-09-03T09:03:03Z</time>
      </trkpt>
      <trkpt lat="47.41074" lon="6.51155">
        <ele>296</ele>
        <time>2016-09-03T09:03:06Z</time>
      </trkpt>
      <trkpt lat="47.4108" lon="6.51158">
        <ele>297</ele>
        <time>2016-09-03T09:03:07Z</time>
      </trkpt>
      <trkpt lat="47.41093" lon="6.5116">
        <ele>298</ele>
        <time>2016-09-03T09:03:09Z</time>
      </trkpt>
      <trkpt lat="47.41113" lon="6.51164">
        <ele>301</ele>
        <time>2016-09-03T09:03:12Z</time>
      </trkpt>
      <trkpt lat="47.41125" lon="6.51167">
        <ele>302</ele>
        <time>2016-09-03T09:03:14Z</time>
      </trkpt>
      <trkpt lat="47.41132" lon="6.51168">
        <ele>303</ele>
        <time>2016-09-03T09:03:15Z</time>
      </trkpt>
      <trkpt lat="47.41146" lon="6.51172">
        <ele>303</ele>
        <time>2016-09-03T09:03:17Z</time>
      </trkpt>
      <trkpt lat="47.41158" lon="6.51174">
        <ele>304</ele>
        <time>2016-09-03T09:03:19Z</time>
      </trkpt>
      <trkpt lat="47.41169" lon="6.51178">
        <ele>304</ele>
        <time>2016-09-03T09:03:21Z</time>
      </trkpt>
      <trkpt lat="47.41182" lon="6.51183">
        <ele>303</ele>
        <time>2016-09-03T09:03:23Z</time>
      </trkpt>
      <trkpt lat="47.41194" lon="6.51186">
        <ele>300</ele>
        <time>2016-09-03T09:03:25Z</time>
      </trkpt>
      <trkpt lat="47.41212" lon="6.51192">
        <ele>297</ele>
        <time>2016-09-03T09:03:28Z</time>
      </trkpt>
      <trkpt lat="47.41218" lon="6.5119">
        <ele>296</ele>
        <time>2016-09-03T09:03:29Z</time>
      </trkpt>
      <trkpt lat="47.41228" lon="6.51192">
        <ele>296</ele>
        <time>2016-09-03T09:03:31Z</time>
      </trkpt>
      <trkpt lat="47.41246" lon="6.51198">
        <ele>300</ele>
        <time>2016-09-03T09:03:34Z</time>
      </trkpt>
      <trkpt lat="47.41259" lon="6.51201">
        <ele>304</ele>
        <time>2016-09-03T09:03:36Z</time>
      </trkpt>
      <trkpt lat="47.41266" lon="6.51203">
        <ele>306</ele>
        <time>2016-09-03T09:03:37Z</time>
      </trkpt>
      <trkpt lat="47.41279" lon="6.51207">
        <ele>310</ele>
        <time>2016-09-03T09:03:39Z</time>
      </trkpt>
      <trkpt lat="47.41297" lon="6.51212">
        <ele>312</ele>
        <time>2016-09-03T09:03:42Z</time>
      </trkpt>
      <trkpt lat="47.41309" lon="6.51217">
        <ele>312</ele>
        <time>2016-09-03T09:03:44Z</time>
      </trkpt>
      <trkpt lat="47.41314" lon="6.51218">
        <ele>312</ele>
        <time>2016-09-03T09:03:45Z</time>
      </trkpt>
      <trkpt lat="47.41325" lon="6.51221">
        <ele>312</ele>
        <time>2016-09-03T09:03:47Z</time>
      </trkpt>
      <trkpt lat="47.41337" lon="6.51226">
        <ele>312</ele>
        <time>2016-09-03T09:03:49Z</time>
      </trkpt>
      <trkpt lat="47.41354" lon="6.51235">
        <ele>312</ele>
        <time>2016-09-03T09:03:52Z</time>
      </trkpt>
      <trkpt lat="47.4136" lon="6.51238">
        <ele>312</ele>
        <time>2016-09-03T09:03:53Z</time>
      </trkpt>
      <trkpt lat="47.41371" lon="6.51245">
        <ele>312</ele>
        <time>2016-09-03T09:03:55Z</time>
      </trkpt>
      <trkpt lat="47.41385" lon="6.51253">
        <ele>311</ele>
        <time>2016-09-03T09:03:57Z</time>
      </trkpt>
      <trkpt lat="47.41394" lon="6.51255">
        <ele>311</ele>
        <time>2016-09-03T09:03:59Z</time>
      </trkpt>
      <trkpt lat="47.41405" lon="6.51263">
        <ele>310</ele>
        <time>2016-09-03T09:04:01Z</time>
      </trkpt>
      <trkpt lat="47.41417" lon="6.51272">
        <ele>310</ele>
        <time>2016-09-03T09:04:03Z</time>
      </trkpt>
      <trkpt lat="47.41433" lon="6.51283">
        <ele>310</ele>
        <time>2016-09-03T09:04:06Z</time>
      </trkpt>
      <trkpt lat="47.41438" lon="6.51287">
        <ele>309</ele>
        <time>2016-09-03T09:04:07Z</time>
      </trkpt>
      <trkpt lat="47.41449" lon="6.51297">
        <ele>307</ele>
        <time>2016-09-03T09:04:09Z</time>
      </trkpt>
      <trkpt lat="47.41461" lon="6.51307">
        <ele>307</ele>
        <time>2016-09-03T09:04:11Z</time>
      </trkpt>
      <trkpt lat="47.41473" lon="6.51319">
        <ele>306</ele>
        <time>2016-09-03T09:04:13Z</time>
      </trkpt>
      <trkpt lat="47.41484" lon="6.51331">
        <ele>305</ele>
        <time>2016-09-03T09:04:15Z</time>
      </trkpt>
      <trkpt lat="47.41495" lon="6.51346">
        <ele>303</ele>
        <time>2016-09-03T09:04:17Z</time>
      </trkpt>
      <trkpt lat="47.41504" lon="6.51359">
        <ele>303</ele>
        <time>2016-09-03T09:04:19Z</time>
      </trkpt>
      <trkpt lat="47.41512" lon="6.51372">
        <ele>301</ele>
        <time>2016-09-03T09:04:21Z</time>
      </trkpt>
      <trkpt lat="47.41525" lon="6.51394">
        <ele>300</ele>
        <time>2016-09-03T09:04:24Z</time>
      </trkpt>
      <trkpt lat="47.41529" lon="6.514">
        <ele>299</ele>
        <time>2016-09-03T09:04:25Z</time>
      </trkpt>
      <trkpt lat="47.41536" lon="6.51416">
        <ele>297</ele>
        <time>2016-09-03T09:04:27Z</time>
      </trkpt>
      <trkpt lat="47.41543" lon="6.51431">
        <ele>296</ele>
        <time>2016-09-03T09:04:29Z</time>
      </trkpt>
      <trkpt lat="47.41557" lon="6.51456">
        <ele>294</ele>
        <time>2016-09-03T09:04:32Z</time>
      </trkpt>
      <trkpt lat="47.41561" lon="6.51464">
        <ele>294</ele>
        <time>2016-09-03T09:04:33Z</time>
      </trkpt>
      <trkpt lat="47.41576" lon="6.51486">
        <ele>295</ele>
        <time>2016-09-03T09:04:36Z</time>
      </trkpt>
      <trkpt lat="47.41581" lon="6.51495">
        <ele>295</ele>
        <time>2016-09-03T09:04:37Z</time>
      </trkpt>
      <trkpt lat="47.4159" lon="6.51511">
        <ele>295</ele>
        <time>2016-09-03T09:04:39Z</time>
      </trkpt>
      <trkpt lat="47.416" lon="6.51524">
        <ele>295</ele>
        <time>2016-09-03T09:04:41Z</time>
      </trkpt>
      <trkpt lat="47.41611" lon="6.5154">
        <ele>296</ele>
        <time>2016-09-03T09:04:43Z</time>
      </trkpt>
      <trkpt lat="47.4162" lon="6.51564">
        <ele>295</ele>
        <time>2016-09-03T09:04:46Z</time>
      </trkpt>
      <trkpt lat="47.41622" lon="6.51574">
        <ele>294</ele>
        <time>2016-09-03T09:04:47Z</time>
      </trkpt>
      <trkpt lat="47.41631" lon="6.51592">
        <ele>294</ele>
        <time>2016-09-03T09:04:49Z</time>
      </trkpt>
      <trkpt lat="47.41638" lon="6.51611">
        <ele>293</ele>
        <time>2016-09-03T09:04:51Z</time>
      </trkpt>
      <trkpt lat="47.41643" lon="6.51628">
        <ele>291</ele>
        <time>2016-09-03T09:04:53Z</time>
      </trkpt>
      <trkpt lat="47.4165" lon="6.51657">
        <ele>289</ele>
        <time>2016-09-03T09:04:56Z</time>
      </trkpt>
      <trkpt lat="47.41652" lon="6.51666">
        <ele>289</ele>
        <time>2016-09-03T09:04:57Z</time>
      </trkpt>
      <trkpt lat="47.41656" lon="6.51686">
        <ele>288</ele>
        <time>2016-09-03T09:04:59Z</time>
      </trkpt>
      <trkpt lat="47.4166" lon="6.51706">
        <ele>287</ele>
        <time>2016-09-03T09:05:01Z</time>
      </trkpt>
      <trkpt lat="47.41663" lon="6.51724">
        <ele>286</ele>
        <time>2016-09-03T09:05:03Z</time>
      </trkpt>
      <trkpt lat="47.41664" lon="6.51743">
        <ele>285</ele>
        <time>2016-09-03T09:05:05Z</time>
      </trkpt>
      <trkpt lat="47.41665" lon="6.5176">
        <ele>283</ele>
        <time>2016-09-03T09:05:07Z</time>
      </trkpt>
      <trkpt lat="47.41665" lon="6.51789">
        <ele>282</ele>
        <time>2016-09-03T09:05:10Z</time>
      </trkpt>
      <trkpt lat="47.41664" lon="6.518">
        <ele>281</ele>
        <time>2016-09-03T09:05:11Z</time>
      </trkpt>
      <trkpt lat="47.41663" lon="6.51819">
        <ele>280</ele>
        <time>2016-09-03T09:05:13Z</time>
      </trkpt>
      <trkpt lat="47.41663" lon="6.51841">
        <ele>280</ele>
        <time>2016-09-03T09:05:15Z</time>
      </trkpt>
      <trkpt lat="47.41658" lon="6.51872">
        <ele>279</ele>
        <time>2016-09-03T09:05:18Z</time>
      </trkpt>
      <trkpt lat="47.41655" lon="6.51885">
        <ele>278</ele>
        <time>2016-09-03T09:05:19Z</time>
      </trkpt>
      <trkpt lat="47.41652" lon="6.51912">
        <ele>278</ele>
        <time>2016-09-03T09:05:22Z</time>
      </trkpt>
      <trkpt lat="47.41651" lon="6.51923">
        <ele>278</ele>
        <time>2016-09-03T09:05:23Z</time>
      </trkpt>
      <trkpt lat="47.41648" lon="6.51951">
        <ele>278</ele>
        <time>2016-09-03T09:05:26Z</time>
      </trkpt>
      <trkpt lat="47.41646" lon="6.51961">
        <ele>278</ele>
        <time>2016-09-03T09:05:27Z</time>
      </trkpt>
      <trkpt lat="47.41643" lon="6.51977">
        <ele>278</ele>
        <time>2016-09-03T09:05:29Z</time>
      </trkpt>
      <trkpt lat="47.4164" lon="6.51993">
        <ele>279</ele>
        <time>2016-09-03T09:05:31Z</time>
      </trkpt>
      <trkpt lat="47.41637" lon="6.52011">
        <ele>279</ele>
        <time>2016-09-03T09:05:34Z</time>
      </trkpt>
      <trkpt lat="47.41636" lon="6.52017">
        <ele>279</ele>
        <time>2016-09-03T09:05:35Z</time>
      </trkpt>
      <trkpt lat="47.41634" lon="6.52028">
        <ele>279</ele>
        <time>2016-09-03T09:05:37Z</time>
      </trkpt>
      <trkpt lat="47.41635" lon="6.52034">
        <ele>279</ele>
        <time>2016-09-03T09:05:39Z</time>
      </trkpt>
      <trkpt lat="47.41633" lon="6.52043">
        <ele>279</ele>
        <time>2016-09-03T09:05:41Z</time>
      </trkpt>
      <trkpt lat="47.41633" lon="6.52056">
        <ele>279</ele>
        <time>2016-09-03T09:05:43Z</time>
      </trkpt>
      <trkpt lat="47.41632" lon="6.52068">
        <ele>279</ele>
        <time>2016-09-03T09:05:45Z</time>
      </trkpt>
      <trkpt lat="47.41631" lon="6.52085">
        <ele>280</ele>
        <time>2016-09-03T09:05:47Z</time>
      </trkpt>
      <trkpt lat="47.41629" lon="6.52097">
        <ele>280</ele>
        <time>2016-09-03T09:05:49Z</time>
      </trkpt>
      <trkpt lat="47.41629" lon="6.5211">
        <ele>280</ele>
        <time>2016-09-03T09:05:51Z</time>
      </trkpt>
      <trkpt lat="47.41631" lon="6.52123">
        <ele>280</ele>
        <time>2016-09-03T09:05:53Z</time>
      </trkpt>
      <trkpt lat="47.41634" lon="6.52137">
        <ele>281</ele>
        <time>2016-09-03T09:05:55Z</time>
      </trkpt>
      <trkpt lat="47.41635" lon="6.52155">
        <ele>281</ele>
        <time>2016-09-03T09:05:57Z</time>
      </trkpt>
      <trkpt lat="47.41634" lon="6.52174">
        <ele>281</ele>
        <time>2016-09-03T09:05:59Z</time>
      </trkpt>
      <trkpt lat="47.41634" lon="6.52192">
        <ele>282</ele>
        <time>2016-09-03T09:06:01Z</time>
      </trkpt>
      <trkpt lat="47.41634" lon="6.52209">
        <ele>282</ele>
        <time>2016-09-03T09:06:03Z</time>
      </trkpt>
      <trkpt lat="47.41634" lon="6.52228">
        <ele>282</ele>
        <time>2016-09-03T09:06:05Z</time>
      </trkpt>
      <trkpt lat="47.41632" lon="6.52258">
        <ele>282</ele>
        <time>2016-09-03T09:06:08Z</time>
      </trkpt>
      <trkpt lat="47.41632" lon="6.52268">
        <ele>282</ele>
        <time>2016-09-03T09:06:09Z</time>
      </trkpt>
      <trkpt lat="47.41632" lon="6.52297">
        <ele>282</ele>
        <time>2016-09-03T09:06:12Z</time>
      </trkpt>
      <trkpt lat="47.41632" lon="6.52308">
        <ele>282</ele>
        <time>2016-09-03T09:06:13Z</time>
      </trkpt>
      <trkpt lat="47.41629" lon="6.52342">
        <ele>282</ele>
        <time>2016-09-03T09:06:16Z</time>
      </trkpt>
      <trkpt lat="47.41629" lon="6.52352">
        <ele>282</ele>
        <time>2016-09-03T09:06:17Z</time>
      </trkpt>
      <trkpt lat="47.41629" lon="6.52372">
        <ele>282</ele>
        <time>2016-09-03T09:06:19Z</time>
      </trkpt>
      <trkpt lat="47.41629" lon="6.52402">
        <ele>283</ele>
        <time>2016-09-03T09:06:22Z</time>
      </trkpt>
      <trkpt lat="47.41629" lon="6.52412">
        <ele>283</ele>
        <time>2016-09-03T09:06:23Z</time>
      </trkpt>
      <trkpt lat="47.41628" lon="6.52428">
        <ele>283</ele>
        <time>2016-09-03T09:06:25Z</time>
      </trkpt>
      <trkpt lat="47.41629" lon="6.52455">
        <ele>283</ele>
        <time>2016-09-03T09:06:28Z</time>
      </trkpt>
      <trkpt lat="47.41629" lon="6.52464">
        <ele>283</ele>
        <time>2016-09-03T09:06:29Z</time>
      </trkpt>
      <trkpt lat="47.41628" lon="6.52493">
        <ele>283</ele>
        <time>2016-09-03T09:06:32Z</time>
      </trkpt>
      <trkpt lat="47.41628" lon="6.525">
        <ele>283</ele>
        <time>2016-09-03T09:06:33Z</time>
      </trkpt>
      <trkpt lat="47.41628" lon="6.52519">
        <ele>283</ele>
        <time>2016-09-03T09:06:35Z</time>
      </trkpt>
      <trkpt lat="47.41627" lon="6.52537">
        <ele>283</ele>
        <time>2016-09-03T09:06:37Z</time>
      </trkpt>
      <trkpt lat="47.41627" lon="6.52568">
        <ele>283</ele>
        <time>2016-09-03T09:06:40Z</time>
      </trkpt>
      <trkpt lat="47.41627" lon="6.52575">
        <ele>283</ele>
        <time>2016-09-03T09:06:41Z</time>
      </trkpt>
      <trkpt lat="47.41627" lon="6.52594">
        <ele>283</ele>
        <time>2016-09-03T09:06:43Z</time>
      </trkpt>
      <trkpt lat="47.41627" lon="6.52612">
        <ele>283</ele>
        <time>2016-09-03T09:06:45Z</time>
      </trkpt>
      <trkpt lat="47.41625" lon="6.52631">
        <ele>283</ele>
        <time>2016-09-03T09:06:47Z</time>
      </trkpt>
      <trkpt lat="47.41624" lon="6.5265">
        <ele>283</ele>
        <time>2016-09-03T09:06:49Z</time>
      </trkpt>
      <trkpt lat="47.41624" lon="6.52672">
        <ele>283</ele>
        <time>2016-09-03T09:06:51Z</time>
      </trkpt>
      <trkpt lat="47.41624" lon="6.52689">
        <ele>283</ele>
        <time>2016-09-03T09:06:53Z</time>
      </trkpt>
      <trkpt lat="47.41624" lon="6.52707">
        <ele>283</ele>
        <time>2016-09-03T09:06:55Z</time>
      </trkpt>
      <trkpt lat="47.41624" lon="6.52728">
        <ele>283</ele>
        <time>2016-09-03T09:06:57Z</time>
      </trkpt>
      <trkpt lat="47.41624" lon="6.52748">
        <ele>283</ele>
        <time>2016-09-03T09:06:59Z</time>
      </trkpt>
      <trkpt lat="47.41624" lon="6.52782">
        <ele>283</ele>
        <time>2016-09-03T09:07:02Z</time>
      </trkpt>
      <trkpt lat="47.41624" lon="6.52792">
        <ele>283</ele>
        <time>2016-09-03T09:07:03Z</time>
      </trkpt>
      <trkpt lat="47.41623" lon="6.52812">
        <ele>283</ele>
        <time>2016-09-03T09:07:05Z</time>
      </trkpt>
      <trkpt lat="47.41623" lon="6.52831">
        <ele>283</ele>
        <time>2016-09-03T09:07:07Z</time>
      </trkpt>
      <trkpt lat="47.41621" lon="6.52864">
        <ele>283</ele>
        <time>2016-09-03T09:07:10Z</time>
      </trkpt>
      <trkpt lat="47.4162" lon="6.52874">
        <ele>283</ele>
        <time>2016-09-03T09:07:11Z</time>
      </trkpt>
      <trkpt lat="47.41619" lon="6.52895">
        <ele>283</ele>
        <time>2016-09-03T09:07:13Z</time>
      </trkpt>
      <trkpt lat="47.41619" lon="6.52914">
        <ele>283</ele>
        <time>2016-09-03T09:07:15Z</time>
      </trkpt>
      <trkpt lat="47.41619" lon="6.52935">
        <ele>283</ele>
        <time>2016-09-03T09:07:17Z</time>
      </trkpt>
      <trkpt lat="47.41618" lon="6.52957">
        <ele>283</ele>
        <time>2016-09-03T09:07:19Z</time>
      </trkpt>
      <trkpt lat="47.41618" lon="6.52977">
        <ele>283</ele>
        <time>2016-09-03T09:07:21Z</time>
      </trkpt>
      <trkpt lat="47.41618" lon="6.53002">
        <ele>283</ele>
        <time>2016-09-03T09:07:23Z</time>
      </trkpt>
      <trkpt lat="47.41617" lon="6.53023">
        <ele>283</ele>
        <time>2016-09-03T09:07:25Z</time>
      </trkpt>
      <trkpt lat="47.41617" lon="6.53042">
        <ele>283</ele>
        <time>2016-09-03T09:07:27Z</time>
      </trkpt>
      <trkpt lat="47.41617" lon="6.53073">
        <ele>283</ele>
        <time>2016-09-03T09:07:30Z</time>
      </trkpt>
      <trkpt lat="47.41617" lon="6.53083">
        <ele>283</ele>
        <time>2016-09-03T09:07:31Z</time>
      </trkpt>
      <trkpt lat="47.41616" lon="6.53103">
        <ele>283</ele>
        <time>2016-09-03T09:07:33Z</time>
      </trkpt>
      <trkpt lat="47.41614" lon="6.53118">
        <ele>283</ele>
        <time>2016-09-03T09:07:35Z</time>
      </trkpt>
      <trkpt lat="47.41614" lon="6.53138">
        <ele>283</ele>
        <time>2016-09-03T09:07:37Z</time>
      </trkpt>
      <trkpt lat="47.41613" lon="6.53168">
        <ele>283</ele>
        <time>2016-09-03T09:07:40Z</time>
      </trkpt>
      <trkpt lat="47.41614" lon="6.5319">
        <ele>283</ele>
        <time>2016-09-03T09:07:42Z</time>
      </trkpt>
      <trkpt lat="47.41613" lon="6.532">
        <ele>283</ele>
        <time>2016-09-03T09:07:43Z</time>
      </trkpt>
      <trkpt lat="47.41613" lon="6.53219">
        <ele>283</ele>
        <time>2016-09-03T09:07:45Z</time>
      </trkpt>
      <trkpt lat="47.41614" lon="6.5324">
        <ele>283</ele>
        <time>2016-09-03T09:07:47Z</time>
      </trkpt>
      <trkpt lat="47.41615" lon="6.53263">
        <ele>283</ele>
        <time>2016-09-03T09:07:49Z</time>
      </trkpt>
      <trkpt lat="47.41613" lon="6.53284">
        <ele>283</ele>
        <time>2016-09-03T09:07:51Z</time>
      </trkpt>
      <trkpt lat="47.41613" lon="6.53306">
        <ele>283</ele>
        <time>2016-09-03T09:07:53Z</time>
      </trkpt>
      <trkpt lat="47.41612" lon="6.53327">
        <ele>283</ele>
        <time>2016-09-03T09:07:55Z</time>
      </trkpt>
      <trkpt lat="47.4161" lon="6.53346">
        <ele>283</ele>
        <time>2016-09-03T09:07:57Z</time>
      </trkpt>
      <trkpt lat="47.4161" lon="6.53367">
        <ele>283</ele>
        <time>2016-09-03T09:07:59Z</time>
      </trkpt>
      <trkpt lat="47.4161" lon="6.53387">
        <ele>283</ele>
        <time>2016-09-03T09:08:01Z</time>
      </trkpt>
      <trkpt lat="47.41609" lon="6.53405">
        <ele>283</ele>
        <time>2016-09-03T09:08:03Z</time>
      </trkpt>
      <trkpt lat="47.41609" lon="6.53435">
        <ele>283</ele>
        <time>2016-09-03T09:08:06Z</time>
      </trkpt>
      <trkpt lat="47.41609" lon="6.53455">
        <ele>283</ele>
        <time>2016-09-03T09:08:08Z</time>
      </trkpt>
      <trkpt lat="47.41609" lon="6.53464">
        <ele>283</ele>
        <time>2016-09-03T09:08:09Z</time>
      </trkpt>
      <trkpt lat="47.41611" lon="6.53484">
        <ele>283</ele>
        <time>2016-09-03T09:08:11Z</time>
      </trkpt>
      <trkpt lat="47.4161" lon="6.53505">
        <ele>283</ele>
        <time>2016-09-03T09:08:13Z</time>
      </trkpt>
      <trkpt lat="47.41609" lon="6.53525">
        <ele>283</ele>
        <time>2016-09-03T09:08:15Z</time>
      </trkpt>
      <trkpt lat="47.41608" lon="6.53557">
        <ele>282</ele>
        <time>2016-09-03T09:08:18Z</time>
      </trkpt>
      <trkpt lat="47.41608" lon="6.53565">
        <ele>282</ele>
        <time>2016-09-03T09:08:19Z</time>
      </trkpt>
      <trkpt lat="47.41607" lon="6.53586">
        <ele>282</ele>
        <time>2016-09-03T09:08:21Z</time>
      </trkpt>
      <trkpt lat="47.41607" lon="6.53605">
        <ele>282</ele>
        <time>2016-09-03T09:08:23Z</time>
      </trkpt>
      <trkpt lat="47.41606" lon="6.53636">
        <ele>282</ele>
        <time>2016-09-03T09:08:26Z</time>
      </trkpt>
      <trkpt lat="47.41606" lon="6.53656">
        <ele>282</ele>
        <time>2016-09-03T09:08:28Z</time>
      </trkpt>
      <trkpt lat="47.41605" lon="6.53675">
        <ele>282</ele>
        <time>2016-09-03T09:08:30Z</time>
      </trkpt>
      <trkpt lat="47.41604" lon="6.53695">
        <ele>282</ele>
        <time>2016-09-03T09:08:32Z</time>
      </trkpt>
      <trkpt lat="47.41604" lon="6.53714">
        <ele>282</ele>
        <time>2016-09-03T09:08:34Z</time>
      </trkpt>
      <trkpt lat="47.41604" lon="6.53735">
        <ele>282</ele>
        <time>2016-09-03T09:08:36Z</time>
      </trkpt>
      <trkpt lat="47.41603" lon="6.53755">
        <ele>282</ele>
        <time>2016-09-03T09:08:38Z</time>
      </trkpt>
      <trkpt lat="47.41603" lon="6.53764">
        <ele>282</ele>
        <time>2016-09-03T09:08:39Z</time>
      </trkpt>
      <trkpt lat="47.41602" lon="6.53796">
        <ele>282</ele>
        <time>2016-09-03T09:08:42Z</time>
      </trkpt>
      <trkpt lat="47.41602" lon="6.53806">
        <ele>282</ele>
        <time>2016-09-03T09:08:43Z</time>
      </trkpt>
      <trkpt lat="47.41601" lon="6.53823">
        <ele>282</ele>
        <time>2016-09-03T09:08:45Z</time>
      </trkpt>
      <trkpt lat="47.41601" lon="6.53841">
        <ele>282</ele>
        <time>2016-09-03T09:08:47Z</time>
      </trkpt>
      <trkpt lat="47.41601" lon="6.53864">
        <ele>282</ele>
        <time>2016-09-03T09:08:49Z</time>
      </trkpt>
      <trkpt lat="47.416" lon="6.53884">
        <ele>282</ele>
        <time>2016-09-03T09:08:51Z</time>
      </trkpt>
      <trkpt lat="47.416" lon="6.53904">
        <ele>282</ele>
        <time>2016-09-03T09:08:53Z</time>
      </trkpt>
      <trkpt lat="47.416" lon="6.53923">
        <ele>282</ele>
        <time>2016-09-03T09:08:55Z</time>
      </trkpt>
      <trkpt lat="47.41599" lon="6.53944">
        <ele>282</ele>
        <time>2016-09-03T09:08:57Z</time>
      </trkpt>
      <trkpt lat="47.41599" lon="6.53964">
        <ele>282</ele>
        <time>2016-09-03T09:08:59Z</time>
      </trkpt>
      <trkpt lat="47.41598" lon="6.53984">
        <ele>282</ele>
        <time>2016-09-03T09:09:01Z</time>
      </trkpt>
      <trkpt lat="47.41598" lon="6.54003">
        <ele>282</ele>
        <time>2016-09-03T09:09:03Z</time>
      </trkpt>
      <trkpt lat="47.41597" lon="6.54022">
        <ele>282</ele>
        <time>2016-09-03T09:09:05Z</time>
      </trkpt>
      <trkpt lat="47.41597" lon="6.54038">
        <ele>282</ele>
        <time>2016-09-03T09:09:07Z</time>
      </trkpt>
      <trkpt lat="47.41596" lon="6.54068">
        <ele>282</ele>
        <time>2016-09-03T09:09:10Z</time>
      </trkpt>
      <trkpt lat="47.41596" lon="6.54078">
        <ele>282</ele>
        <time>2016-09-03T09:09:11Z</time>
      </trkpt>
      <trkpt lat="47.41596" lon="6.54096">
        <ele>282</ele>
        <time>2016-09-03T09:09:13Z</time>
      </trkpt>
      <trkpt lat="47.41595" lon="6.54114">
        <ele>283</ele>
        <time>2016-09-03T09:09:15Z</time>
      </trkpt>
      <trkpt lat="47.41594" lon="6.54129">
        <ele>283</ele>
        <time>2016-09-03T09:09:17Z</time>
      </trkpt>
      <trkpt lat="47.41594" lon="6.54143">
        <ele>283</ele>
        <time>2016-09-03T09:09:19Z</time>
      </trkpt>
      <trkpt lat="47.41593" lon="6.54155">
        <ele>283</ele>
        <time>2016-09-03T09:09:21Z</time>
      </trkpt>
      <trkpt lat="47.41592" lon="6.54169">
        <ele>283</ele>
        <time>2016-09-03T09:09:23Z</time>
      </trkpt>
      <trkpt lat="47.4159" lon="6.54193">
        <ele>283</ele>
        <time>2016-09-03T09:09:26Z</time>
      </trkpt>
      <trkpt lat="47.4159" lon="6.54201">
        <ele>284</ele>
        <time>2016-09-03T09:09:27Z</time>
      </trkpt>
      <trkpt lat="47.41591" lon="6.54217">
        <ele>284</ele>
        <time>2016-09-03T09:09:29Z</time>
      </trkpt>
      <trkpt lat="47.41592" lon="6.54254">
        <ele>284</ele>
        <time>2016-09-03T09:09:32Z</time>
      </trkpt>
      <trkpt lat="47.41592" lon="6.54265">
        <ele>284</ele>
        <time>2016-09-03T09:09:33Z</time>
      </trkpt>
      <trkpt lat="47.41592" lon="6.5429">
        <ele>284</ele>
        <time>2016-09-03T09:09:36Z</time>
      </trkpt>
      <trkpt lat="47.41592" lon="6.54299">
        <ele>285</ele>
        <time>2016-09-03T09:09:37Z</time>
      </trkpt>
      <trkpt lat="47.41592" lon="6.54319">
        <ele>284</ele>
        <time>2016-09-03T09:09:39Z</time>
      </trkpt>
      <trkpt lat="47.41591" lon="6.54339">
        <ele>284</ele>
        <time>2016-09-03T09:09:41Z</time>
      </trkpt>
      <trkpt lat="47.41591" lon="6.54356">
        <ele>284</ele>
        <time>2016-09-03T09:09:43Z</time>
      </trkpt>
      <trkpt lat="47.4159" lon="6.54373">
        <ele>284</ele>
        <time>2016-09-03T09:09:45Z</time>
      </trkpt>
      <trkpt lat="47.4159" lon="6.54399">
        <ele>284</ele>
        <time>2016-09-03T09:09:48Z</time>
      </trkpt>
      <trkpt lat="47.4159" lon="6.54423">
        <ele>284</ele>
        <time>2016-09-03T09:09:50Z</time>
      </trkpt>
      <trkpt lat="47.41591" lon="6.54442">
        <ele>284</ele>
        <time>2016-09-03T09:09:52Z</time>
      </trkpt>
      <trkpt lat="47.41591" lon="6.54451">
        <ele>284</ele>
        <time>2016-09-03T09:09:53Z</time>
      </trkpt>
      <trkpt lat="47.41591" lon="6.5447">
        <ele>284</ele>
        <time>2016-09-03T09:09:55Z</time>
      </trkpt>
      <trkpt lat="47.41589" lon="6.54488">
        <ele>284</ele>
        <time>2016-09-03T09:09:57Z</time>
      </trkpt>
      <trkpt lat="47.41587" lon="6.54517">
        <ele>284</ele>
        <time>2016-09-03T09:09:59Z</time>
      </trkpt>
      <trkpt lat="47.41586" lon="6.54538">
        <ele>284</ele>
        <time>2016-09-03T09:10:01Z</time>
      </trkpt>
      <trkpt lat="47.41586" lon="6.54558">
        <ele>284</ele>
        <time>2016-09-03T09:10:03Z</time>
      </trkpt>
      <trkpt lat="47.41589" lon="6.54582">
        <ele>284</ele>
        <time>2016-09-03T09:10:05Z</time>
      </trkpt>
      <trkpt lat="47.41587" lon="6.54601">
        <ele>284</ele>
        <time>2016-09-03T09:10:07Z</time>
      </trkpt>
      <trkpt lat="47.41586" lon="6.54632">
        <ele>284</ele>
        <time>2016-09-03T09:10:10Z</time>
      </trkpt>
      <trkpt lat="47.41586" lon="6.54642">
        <ele>284</ele>
        <time>2016-09-03T09:10:11Z</time>
      </trkpt>
      <trkpt lat="47.41585" lon="6.54673">
        <ele>284</ele>
        <time>2016-09-03T09:10:14Z</time>
      </trkpt>
      <trkpt lat="47.41584" lon="6.54683">
        <ele>284</ele>
        <time>2016-09-03T09:10:15Z</time>
      </trkpt>
      <trkpt lat="47.41584" lon="6.54702">
        <ele>284</ele>
        <time>2016-09-03T09:10:17Z</time>
      </trkpt>
      <trkpt lat="47.41584" lon="6.54722">
        <ele>284</ele>
        <time>2016-09-03T09:10:19Z</time>
      </trkpt>
      <trkpt lat="47.41583" lon="6.54756">
        <ele>284</ele>
        <time>2016-09-03T09:10:22Z</time>
      </trkpt>
      <trkpt lat="47.41582" lon="6.54764">
        <ele>284</ele>
        <time>2016-09-03T09:10:23Z</time>
      </trkpt>
      <trkpt lat="47.41581" lon="6.54793">
        <ele>284</ele>
        <time>2016-09-03T09:10:26Z</time>
      </trkpt>
      <trkpt lat="47.41581" lon="6.54802">
        <ele>284</ele>
        <time>2016-09-03T09:10:27Z</time>
      </trkpt>
      <trkpt lat="47.41582" lon="6.54823">
        <ele>284</ele>
        <time>2016-09-03T09:10:29Z</time>
      </trkpt>
      <trkpt lat="47.41581" lon="6.5484">
        <ele>284</ele>
        <time>2016-09-03T09:10:31Z</time>
      </trkpt>
      <trkpt lat="47.41581" lon="6.54859">
        <ele>284</ele>
        <time>2016-09-03T09:10:33Z</time>
      </trkpt>
      <trkpt lat="47.41581" lon="6.54874">
        <ele>285</ele>
        <time>2016-09-03T09:10:35Z</time>
      </trkpt>
      <trkpt lat="47.41582" lon="6.54895">
        <ele>285</ele>
        <time>2016-09-03T09:10:37Z</time>
      </trkpt>
      <trkpt lat="47.41582" lon="6.54915">
        <ele>285</ele>
        <time>2016-09-03T09:10:39Z</time>
      </trkpt>
      <trkpt lat="47.41585" lon="6.54948">
        <ele>285</ele>
        <time>2016-09-03T09:10:42Z</time>
      </trkpt>
      <trkpt lat="47.41586" lon="6.54957">
        <ele>285</ele>
        <time>2016-09-03T09:10:43Z</time>
      </trkpt>
      <trkpt lat="47.41588" lon="6.54977">
        <ele>285</ele>
        <time>2016-09-03T09:10:45Z</time>
      </trkpt>
      <trkpt lat="47.41593" lon="6.55011">
        <ele>285</ele>
        <time>2016-09-03T09:10:48Z</time>
      </trkpt>
      <trkpt lat="47.41595" lon="6.5502">
        <ele>285</ele>
        <time>2016-09-03T09:10:49Z</time>
      </trkpt>
      <trkpt lat="47.41599" lon="6.55041">
        <ele>285</ele>
        <time>2016-09-03T09:10:51Z</time>
      </trkpt>
      <trkpt lat="47.41602" lon="6.55072">
        <ele>285</ele>
        <time>2016-09-03T09:10:54Z</time>
      </trkpt>
      <trkpt lat="47.41603" lon="6.55082">
        <ele>285</ele>
        <time>2016-09-03T09:10:55Z</time>
      </trkpt>
      <trkpt lat="47.41606" lon="6.55101">
        <ele>285</ele>
        <time>2016-09-03T09:10:57Z</time>
      </trkpt>
      <trkpt lat="47.41612" lon="6.5512">
        <ele>285</ele>
        <time>2016-09-03T09:10:59Z</time>
      </trkpt>
      <trkpt lat="47.41619" lon="6.55149">
        <ele>285</ele>
        <time>2016-09-03T09:11:02Z</time>
      </trkpt>
      <trkpt lat="47.41622" lon="6.55158">
        <ele>285</ele>
        <time>2016-09-03T09:11:03Z</time>
      </trkpt>
      <trkpt lat="47.41629" lon="6.55177">
        <ele>285</ele>
        <time>2016-09-03T09:11:05Z</time>
      </trkpt>
      <trkpt lat="47.41636" lon="6.55197">
        <ele>285</ele>
        <time>2016-09-03T09:11:07Z</time>
      </trkpt>
      <trkpt lat="47.41644" lon="6.55216">
        <ele>285</ele>
        <time>2016-09-03T09:11:09Z</time>
      </trkpt>
      <trkpt lat="47.4165" lon="6.55234">
        <ele>285</ele>
        <time>2016-09-03T09:11:11Z</time>
      </trkpt>
      <trkpt lat="47.41658" lon="6.55252">
        <ele>285</ele>
        <time>2016-09-03T09:11:13Z</time>
      </trkpt>
      <trkpt lat="47.41669" lon="6.55268">
        <ele>285</ele>
        <time>2016-09-03T09:11:15Z</time>
      </trkpt>
      <trkpt lat="47.41676" lon="6.55287">
        <ele>285</ele>
        <time>2016-09-03T09:11:17Z</time>
      </trkpt>
      <trkpt lat="47.41686" lon="6.55312">
        <ele>285</ele>
        <time>2016-09-03T09:11:20Z</time>
      </trkpt>
      <trkpt lat="47.41691" lon="6.55321">
        <ele>285</ele>
        <time>2016-09-03T09:11:21Z</time>
      </trkpt>
      <trkpt lat="47.417" lon="6.55336">
        <ele>285</ele>
        <time>2016-09-03T09:11:23Z</time>
      </trkpt>
      <trkpt lat="47.41709" lon="6.55352">
        <ele>285</ele>
        <time>2016-09-03T09:11:25Z</time>
      </trkpt>
      <trkpt lat="47.41719" lon="6.55366">
        <ele>285</ele>
        <time>2016-09-03T09:11:27Z</time>
      </trkpt>
      <trkpt lat="47.41728" lon="6.55381">
        <ele>285</ele>
        <time>2016-09-03T09:11:29Z</time>
      </trkpt>
      <trkpt lat="47.41739" lon="6.55397">
        <ele>285</ele>
        <time>2016-09-03T09:11:31Z</time>
      </trkpt>
      <trkpt lat="47.41751" lon="6.55409">
        <ele>284</ele>
        <time>2016-09-03T09:11:33Z</time>
      </trkpt>
      <trkpt lat="47.4176" lon="6.55424">
        <ele>285</ele>
        <time>2016-09-03T09:11:35Z</time>
      </trkpt>
      <trkpt lat="47.4177" lon="6.55436">
        <ele>285</ele>
        <time>2016-09-03T09:11:37Z</time>
      </trkpt>
      <trkpt lat="47.41781" lon="6.55448">
        <ele>285</ele>
        <time>2016-09-03T09:11:39Z</time>
      </trkpt>
      <trkpt lat="47.41792" lon="6.55458">
        <ele>286</ele>
        <time>2016-09-03T09:11:41Z</time>
      </trkpt>
      <trkpt lat="47.41802" lon="6.5547">
        <ele>286</ele>
        <time>2016-09-03T09:11:43Z</time>
      </trkpt>
      <trkpt lat="47.4182" lon="6.55482">
        <ele>288</ele>
        <time>2016-09-03T09:11:46Z</time>
      </trkpt>
      <trkpt lat="47.41827" lon="6.55485">
        <ele>288</ele>
        <time>2016-09-03T09:11:47Z</time>
      </trkpt>
      <trkpt lat="47.41842" lon="6.55492">
        <ele>290</ele>
        <time>2016-09-03T09:11:49Z</time>
      </trkpt>
      <trkpt lat="47.41856" lon="6.55496">
        <ele>291</ele>
        <time>2016-09-03T09:11:51Z</time>
      </trkpt>
      <trkpt lat="47.41869" lon="6.55502">
        <ele>293</ele>
        <time>2016-09-03T09:11:53Z</time>
      </trkpt>
      <trkpt lat="47.41884" lon="6.55506">
        <ele>294</ele>
        <time>2016-09-03T09:11:55Z</time>
      </trkpt>
      <trkpt lat="47.419" lon="6.55511">
        <ele>295</ele>
        <time>2016-09-03T09:11:57Z</time>
      </trkpt>
      <trkpt lat="47.4192" lon="6.55514">
        <ele>296</ele>
        <time>2016-09-03T09:12:00Z</time>
      </trkpt>
      <trkpt lat="47.41935" lon="6.55515">
        <ele>296</ele>
        <time>2016-09-03T09:12:02Z</time>
      </trkpt>
      <trkpt lat="47.41943" lon="6.55515">
        <ele>297</ele>
        <time>2016-09-03T09:12:03Z</time>
      </trkpt>
      <trkpt lat="47.41959" lon="6.55515">
        <ele>297</ele>
        <time>2016-09-03T09:12:05Z</time>
      </trkpt>
      <trkpt lat="47.41981" lon="6.55515">
        <ele>296</ele>
        <time>2016-09-03T09:12:08Z</time>
      </trkpt>
      <trkpt lat="47.41988" lon="6.55514">
        <ele>296</ele>
        <time>2016-09-03T09:12:09Z</time>
      </trkpt>
      <trkpt lat="47.42003" lon="6.55513">
        <ele>294</ele>
        <time>2016-09-03T09:12:11Z</time>
      </trkpt>
      <trkpt lat="47.42018" lon="6.55511">
        <ele>293</ele>
        <time>2016-09-03T09:12:13Z</time>
      </trkpt>
      <trkpt lat="47.4204" lon="6.55512">
        <ele>292</ele>
        <time>2016-09-03T09:12:16Z</time>
      </trkpt>
      <trkpt lat="47.42046" lon="6.55512">
        <ele>291</ele>
        <time>2016-09-03T09:12:17Z</time>
      </trkpt>
      <trkpt lat="47.42067" lon="6.55511">
        <ele>291</ele>
        <time>2016-09-03T09:12:20Z</time>
      </trkpt>
      <trkpt lat="47.42074" lon="6.5551">
        <ele>292</ele>
        <time>2016-09-03T09:12:21Z</time>
      </trkpt>
      <trkpt lat="47.42088" lon="6.55507">
        <ele>293</ele>
        <time>2016-09-03T09:12:23Z</time>
      </trkpt>
      <trkpt lat="47.4211" lon="6.55501">
        <ele>296</ele>
        <time>2016-09-03T09:12:26Z</time>
      </trkpt>
      <trkpt lat="47.42116" lon="6.55501">
        <ele>296</ele>
        <time>2016-09-03T09:12:27Z</time>
      </trkpt>
      <trkpt lat="47.42136" lon="6.555">
        <ele>298</ele>
        <time>2016-09-03T09:12:30Z</time>
      </trkpt>
      <trkpt lat="47.42142" lon="6.55501">
        <ele>297</ele>
        <time>2016-09-03T09:12:31Z</time>
      </trkpt>
      <trkpt lat="47.42155" lon="6.55504">
        <ele>296</ele>
        <time>2016-09-03T09:12:33Z</time>
      </trkpt>
      <trkpt lat="47.42168" lon="6.55508">
        <ele>296</ele>
        <time>2016-09-03T09:12:35Z</time>
      </trkpt>
      <trkpt lat="47.4218" lon="6.55508">
        <ele>295</ele>
        <time>2016-09-03T09:12:37Z</time>
      </trkpt>
      <trkpt lat="47.42199" lon="6.55493">
        <ele>300</ele>
        <time>2016-09-03T09:12:40Z</time>
      </trkpt>
      <trkpt lat="47.42214" lon="6.55486">
        <ele>302</ele>
        <time>2016-09-03T09:12:42Z</time>
      </trkpt>
      <trkpt lat="47.4222" lon="6.55484">
        <ele>303</ele>
        <time>2016-09-03T09:12:43Z</time>
      </trkpt>
      <trkpt lat="47.42235" lon="6.55479">
        <ele>304</ele>
        <time>2016-09-03T09:12:45Z</time>
      </trkpt>
      <trkpt lat="47.42249" lon="6.55475">
        <ele>305</ele>
        <time>2016-09-03T09:12:47Z</time>
      </trkpt>
      <trkpt lat="47.42262" lon="6.55471">
        <ele>305</ele>
        <time>2016-09-03T09:12:49Z</time>
      </trkpt>
      <trkpt lat="47.42276" lon="6.55466">
        <ele>304</ele>
        <time>2016-09-03T09:12:51Z</time>
      </trkpt>
      <trkpt lat="47.42295" lon="6.55457">
        <ele>304</ele>
        <time>2016-09-03T09:12:54Z</time>
      </trkpt>
      <trkpt lat="47.42308" lon="6.55449">
        <ele>304</ele>
        <time>2016-09-03T09:12:56Z</time>
      </trkpt>
      <trkpt lat="47.42315" lon="6.55445">
        <ele>304</ele>
        <time>2016-09-03T09:12:57Z</time>
      </trkpt>
      <trkpt lat="47.42333" lon="6.55433">
        <ele>303</ele>
        <time>2016-09-03T09:13:00Z</time>
      </trkpt>
      <trkpt lat="47.42344" lon="6.55422">
        <ele>303</ele>
        <time>2016-09-03T09:13:02Z</time>
      </trkpt>
      <trkpt lat="47.4235" lon="6.55416">
        <ele>302</ele>
        <time>2016-09-03T09:13:03Z</time>
      </trkpt>
      <trkpt lat="47.42362" lon="6.55404">
        <ele>301</ele>
        <time>2016-09-03T09:13:05Z</time>
      </trkpt>
      <trkpt lat="47.42373" lon="6.55391">
        <ele>300</ele>
        <time>2016-09-03T09:13:07Z</time>
      </trkpt>
      <trkpt lat="47.42384" lon="6.55377">
        <ele>298</ele>
        <time>2016-09-03T09:13:09Z</time>
      </trkpt>
      <trkpt lat="47.42395" lon="6.55363">
        <ele>297</ele>
        <time>2016-09-03T09:13:11Z</time>
      </trkpt>
      <trkpt lat="47.42404" lon="6.55348">
        <ele>296</ele>
        <time>2016-09-03T09:13:13Z</time>
      </trkpt>
      <trkpt lat="47.42417" lon="6.55322">
        <ele>294</ele>
        <time>2016-09-03T09:13:16Z</time>
      </trkpt>
      <trkpt lat="47.42426" lon="6.55305">
        <ele>293</ele>
        <time>2016-09-03T09:13:18Z</time>
      </trkpt>
      <trkpt lat="47.42434" lon="6.55287">
        <ele>292</ele>
        <time>2016-09-03T09:13:20Z</time>
      </trkpt>
      <trkpt lat="47.4244" lon="6.5527">
        <ele>291</ele>
        <time>2016-09-03T09:13:22Z</time>
      </trkpt>
      <trkpt lat="47.42442" lon="6.55262">
        <ele>291</ele>
        <time>2016-09-03T09:13:23Z</time>
      </trkpt>
      <trkpt lat="47.42447" lon="6.55244">
        <ele>291</ele>
        <time>2016-09-03T09:13:25Z</time>
      </trkpt>
      <trkpt lat="47.4245" lon="6.55222">
        <ele>291</ele>
        <time>2016-09-03T09:13:27Z</time>
      </trkpt>
      <trkpt lat="47.42454" lon="6.552">
        <ele>290</ele>
        <time>2016-09-03T09:13:29Z</time>
      </trkpt>
      <trkpt lat="47.42459" lon="6.55184">
        <ele>289</ele>
        <time>2016-09-03T09:13:31Z</time>
      </trkpt>
      <trkpt lat="47.42465" lon="6.55153">
        <ele>289</ele>
        <time>2016-09-03T09:13:34Z</time>
      </trkpt>
      <trkpt lat="47.42466" lon="6.55142">
        <ele>290</ele>
        <time>2016-09-03T09:13:35Z</time>
      </trkpt>
      <trkpt lat="47.42473" lon="6.55111">
        <ele>290</ele>
        <time>2016-09-03T09:13:38Z</time>
      </trkpt>
      <trkpt lat="47.42475" lon="6.55104">
        <ele>290</ele>
        <time>2016-09-03T09:13:39Z</time>
      </trkpt>
      <trkpt lat="47.4248" lon="6.55084">
        <ele>289</ele>
        <time>2016-09-03T09:13:41Z</time>
      </trkpt>
      <trkpt lat="47.42486" lon="6.5507">
        <ele>289</ele>
        <time>2016-09-03T09:13:43Z</time>
      </trkpt>
      <trkpt lat="47.42495" lon="6.55049">
        <ele>289</ele>
        <time>2016-09-03T09:13:46Z</time>
      </trkpt>
      <trkpt lat="47.42501" lon="6.55038">
        <ele>289</ele>
        <time>2016-09-03T09:13:48Z</time>
      </trkpt>
      <trkpt lat="47.4251" lon="6.5502">
        <ele>290</ele>
        <time>2016-09-03T09:13:50Z</time>
      </trkpt>
      <trkpt lat="47.42515" lon="6.55012">
        <ele>290</ele>
        <time>2016-09-03T09:13:51Z</time>
      </trkpt>
      <trkpt lat="47.42531" lon="6.54986">
        <ele>291</ele>
        <time>2016-09-03T09:13:54Z</time>
      </trkpt>
      <trkpt lat="47.42536" lon="6.54981">
        <ele>291</ele>
        <time>2016-09-03T09:13:55Z</time>
      </trkpt>
      <trkpt lat="47.4255" lon="6.54969">
        <ele>291</ele>
        <time>2016-09-03T09:13:57Z</time>
      </trkpt>
      <trkpt lat="47.42563" lon="6.54961">
        <ele>290</ele>
        <time>2016-09-03T09:13:59Z</time>
      </trkpt>
      <trkpt lat="47.42575" lon="6.54951">
        <ele>290</ele>
        <time>2016-09-03T09:14:01Z</time>
      </trkpt>
      <trkpt lat="47.42594" lon="6.54942">
        <ele>288</ele>
        <time>2016-09-03T09:14:04Z</time>
      </trkpt>
      <trkpt lat="47.42602" lon="6.54938">
        <ele>287</ele>
        <time>2016-09-03T09:14:05Z</time>
      </trkpt>
      <trkpt lat="47.42618" lon="6.54922">
        <ele>286</ele>
        <time>2016-09-03T09:14:08Z</time>
      </trkpt>
      <trkpt lat="47.42624" lon="6.54915">
        <ele>285</ele>
        <time>2016-09-03T09:14:09Z</time>
      </trkpt>
      <trkpt lat="47.42634" lon="6.54897">
        <ele>285</ele>
        <time>2016-09-03T09:14:11Z</time>
      </trkpt>
      <trkpt lat="47.42641" lon="6.54877">
        <ele>286</ele>
        <time>2016-09-03T09:14:13Z</time>
      </trkpt>
      <trkpt lat="47.42646" lon="6.54853">
        <ele>286</ele>
        <time>2016-09-03T09:14:15Z</time>
      </trkpt>
      <trkpt lat="47.42651" lon="6.54835">
        <ele>287</ele>
        <time>2016-09-03T09:14:17Z</time>
      </trkpt>
      <trkpt lat="47.42657" lon="6.54814">
        <ele>288</ele>
        <time>2016-09-03T09:14:19Z</time>
      </trkpt>
      <trkpt lat="47.42662" lon="6.54798">
        <ele>288</ele>
        <time>2016-09-03T09:14:21Z</time>
      </trkpt>
      <trkpt lat="47.42667" lon="6.5478">
        <ele>288</ele>
        <time>2016-09-03T09:14:23Z</time>
      </trkpt>
      <trkpt lat="47.42672" lon="6.54763">
        <ele>289</ele>
        <time>2016-09-03T09:14:25Z</time>
      </trkpt>
      <trkpt lat="47.42679" lon="6.54732">
        <ele>290</ele>
        <time>2016-09-03T09:14:28Z</time>
      </trkpt>
      <trkpt lat="47.42683" lon="6.54707">
        <ele>291</ele>
        <time>2016-09-03T09:14:30Z</time>
      </trkpt>
      <trkpt lat="47.42687" lon="6.54686">
        <ele>291</ele>
        <time>2016-09-03T09:14:32Z</time>
      </trkpt>
      <trkpt lat="47.42689" lon="6.54675">
        <ele>292</ele>
        <time>2016-09-03T09:14:33Z</time>
      </trkpt>
      <trkpt lat="47.42696" lon="6.54647">
        <ele>292</ele>
        <time>2016-09-03T09:14:36Z</time>
      </trkpt>
      <trkpt lat="47.42698" lon="6.54636">
        <ele>293</ele>
        <time>2016-09-03T09:14:37Z</time>
      </trkpt>
      <trkpt lat="47.42704" lon="6.54622">
        <ele>292</ele>
        <time>2016-09-03T09:14:39Z</time>
      </trkpt>
      <trkpt lat="47.4271" lon="6.54601">
        <ele>292</ele>
        <time>2016-09-03T09:14:41Z</time>
      </trkpt>
      <trkpt lat="47.42716" lon="6.54574">
        <ele>292</ele>
        <time>2016-09-03T09:14:44Z</time>
      </trkpt>
      <trkpt lat="47.42719" lon="6.5456">
        <ele>293</ele>
        <time>2016-09-03T09:14:45Z</time>
      </trkpt>
      <trkpt lat="47.42726" lon="6.54531">
        <ele>294</ele>
        <time>2016-09-03T09:14:48Z</time>
      </trkpt>
      <trkpt lat="47.42728" lon="6.54522">
        <ele>294</ele>
        <time>2016-09-03T09:14:49Z</time>
      </trkpt>
      <trkpt lat="47.42734" lon="6.54503">
        <ele>293</ele>
        <time>2016-09-03T09:14:51Z</time>
      </trkpt>
      <trkpt lat="47.42739" lon="6.54481">
        <ele>293</ele>
        <time>2016-09-03T09:14:53Z</time>
      </trkpt>
      <trkpt lat="47.42744" lon="6.54461">
        <ele>294</ele>
        <time>2016-09-03T09:14:55Z</time>
      </trkpt>
      <trkpt lat="47.42748" lon="6.54441">
        <ele>295</ele>
        <time>2016-09-03T09:14:57Z</time>
      </trkpt>
      <trkpt lat="47.42755" lon="6.54426">
        <ele>294</ele>
        <time>2016-09-03T09:14:59Z</time>
      </trkpt>
      <trkpt lat="47.42761" lon="6.54407">
        <ele>293</ele>
        <time>2016-09-03T09:15:01Z</time>
      </trkpt>
      <trkpt lat="47.42767" lon="6.54392">
        <ele>292</ele>
        <time>2016-09-03T09:15:03Z</time>
      </trkpt>
      <trkpt lat="47.42772" lon="6.54371">
        <ele>293</ele>
        <time>2016-09-03T09:15:05Z</time>
      </trkpt>
      <trkpt lat="47.42777" lon="6.5435">
        <ele>293</ele>
        <time>2016-09-03T09:15:07Z</time>
      </trkpt>
      <trkpt lat="47.42784" lon="6.54321">
        <ele>292</ele>
        <time>2016-09-03T09:15:10Z</time>
      </trkpt>
      <trkpt lat="47.42789" lon="6.54302">
        <ele>292</ele>
        <time>2016-09-03T09:15:12Z</time>
      </trkpt>
      <trkpt lat="47.4279" lon="6.54291">
        <ele>293</ele>
        <time>2016-09-03T09:15:13Z</time>
      </trkpt>
      <trkpt lat="47.42795" lon="6.54268">
        <ele>294</ele>
        <time>2016-09-03T09:15:15Z</time>
      </trkpt>
      <trkpt lat="47.428" lon="6.54248">
        <ele>294</ele>
        <time>2016-09-03T09:15:17Z</time>
      </trkpt>
      <trkpt lat="47.42806" lon="6.5423">
        <ele>293</ele>
        <time>2016-09-03T09:15:19Z</time>
      </trkpt>
      <trkpt lat="47.42812" lon="6.5421">
        <ele>293</ele>
        <time>2016-09-03T09:15:21Z</time>
      </trkpt>
      <trkpt lat="47.42819" lon="6.54176">
        <ele>295</ele>
        <time>2016-09-03T09:15:24Z</time>
      </trkpt>
      <trkpt lat="47.42822" lon="6.5417">
        <ele>294</ele>
        <time>2016-09-03T09:15:25Z</time>
      </trkpt>
      <trkpt lat="47.42829" lon="6.54155">
        <ele>292</ele>
        <time>2016-09-03T09:15:27Z</time>
      </trkpt>
      <trkpt lat="47.42834" lon="6.54133">
        <ele>292</ele>
        <time>2016-09-03T09:15:29Z</time>
      </trkpt>
      <trkpt lat="47.4284" lon="6.54114">
        <ele>293</ele>
        <time>2016-09-03T09:15:31Z</time>
      </trkpt>
      <trkpt lat="47.42849" lon="6.54087">
        <ele>293</ele>
        <time>2016-09-03T09:15:34Z</time>
      </trkpt>
      <trkpt lat="47.42857" lon="6.54073">
        <ele>291</ele>
        <time>2016-09-03T09:15:36Z</time>
      </trkpt>
      <trkpt lat="47.42863" lon="6.54054">
        <ele>292</ele>
        <time>2016-09-03T09:15:38Z</time>
      </trkpt>
      <trkpt lat="47.42867" lon="6.54043">
        <ele>293</ele>
        <time>2016-09-03T09:15:39Z</time>
      </trkpt>
      <trkpt lat="47.42874" lon="6.54028">
        <ele>292</ele>
        <time>2016-09-03T09:15:41Z</time>
      </trkpt>
      <trkpt lat="47.42887" lon="6.5401">
        <ele>291</ele>
        <time>2016-09-03T09:15:44Z</time>
      </trkpt>
      <trkpt lat="47.42894" lon="6.53985">
        <ele>292</ele>
        <time>2016-09-03T09:15:46Z</time>
      </trkpt>
      <trkpt lat="47.42898" lon="6.53978">
        <ele>292</ele>
        <time>2016-09-03T09:15:47Z</time>
      </trkpt>
      <trkpt lat="47.4291" lon="6.5395">
        <ele>293</ele>
        <time>2016-09-03T09:15:50Z</time>
      </trkpt>
      <trkpt lat="47.42913" lon="6.53938">
        <ele>294</ele>
        <time>2016-09-03T09:15:51Z</time>
      </trkpt>
      <trkpt lat="47.42922" lon="6.53918">
        <ele>294</ele>
        <time>2016-09-03T09:15:53Z</time>
      </trkpt>
      <trkpt lat="47.42933" lon="6.53888">
        <ele>295</ele>
        <time>2016-09-03T09:15:56Z</time>
      </trkpt>
      <trkpt lat="47.42938" lon="6.5388">
        <ele>295</ele>
        <time>2016-09-03T09:15:57Z</time>
      </trkpt>
      <trkpt lat="47.4295" lon="6.53852">
        <ele>295</ele>
        <time>2016-09-03T09:16:00Z</time>
      </trkpt>
      <trkpt lat="47.42953" lon="6.53844">
        <ele>295</ele>
        <time>2016-09-03T09:16:01Z</time>
      </trkpt>
      <trkpt lat="47.42961" lon="6.53823">
        <ele>296</ele>
        <time>2016-09-03T09:16:03Z</time>
      </trkpt>
      <trkpt lat="47.42974" lon="6.53798">
        <ele>296</ele>
        <time>2016-09-03T09:16:06Z</time>
      </trkpt>
      <trkpt lat="47.42979" lon="6.5379">
        <ele>296</ele>
        <time>2016-09-03T09:16:07Z</time>
      </trkpt>
      <trkpt lat="47.42989" lon="6.53781">
        <ele>294</ele>
        <time>2016-09-03T09:16:09Z</time>
      </trkpt>
      <trkpt lat="47.42998" lon="6.53765">
        <ele>294</ele>
        <time>2016-09-03T09:16:11Z</time>
      </trkpt>
      <trkpt lat="47.43008" lon="6.53749">
        <ele>293</ele>
        <time>2016-09-03T09:16:13Z</time>
      </trkpt>
      <trkpt lat="47.43017" lon="6.5373">
        <ele>294</ele>
        <time>2016-09-03T09:16:15Z</time>
      </trkpt>
      <trkpt lat="47.43026" lon="6.53712">
        <ele>294</ele>
        <time>2016-09-03T09:16:17Z</time>
      </trkpt>
      <trkpt lat="47.43036" lon="6.537">
        <ele>293</ele>
        <time>2016-09-03T09:16:19Z</time>
      </trkpt>
      <trkpt lat="47.4305" lon="6.5368">
        <ele>293</ele>
        <time>2016-09-03T09:16:22Z</time>
      </trkpt>
      <trkpt lat="47.43054" lon="6.53669">
        <ele>294</ele>
        <time>2016-09-03T09:16:23Z</time>
      </trkpt>
      <trkpt lat="47.43062" lon="6.53647">
        <ele>295</ele>
        <time>2016-09-03T09:16:25Z</time>
      </trkpt>
      <trkpt lat="47.43071" lon="6.53631">
        <ele>296</ele>
        <time>2016-09-03T09:16:27Z</time>
      </trkpt>
      <trkpt lat="47.4308" lon="6.53614">
        <ele>297</ele>
        <time>2016-09-03T09:16:29Z</time>
      </trkpt>
      <trkpt lat="47.43095" lon="6.53598">
        <ele>295</ele>
        <time>2016-09-03T09:16:32Z</time>
      </trkpt>
      <trkpt lat="47.43099" lon="6.53594">
        <ele>294</ele>
        <time>2016-09-03T09:16:33Z</time>
      </trkpt>
      <trkpt lat="47.43109" lon="6.53579">
        <ele>294</ele>
        <time>2016-09-03T09:16:35Z</time>
      </trkpt>
      <trkpt lat="47.43122" lon="6.53548">
        <ele>297</ele>
        <time>2016-09-03T09:16:38Z</time>
      </trkpt>
      <trkpt lat="47.43125" lon="6.53528">
        <ele>301</ele>
        <time>2016-09-03T09:16:39Z</time>
      </trkpt>
      <trkpt lat="47.43134" lon="6.53512">
        <ele>302</ele>
        <time>2016-09-03T09:16:41Z</time>
      </trkpt>
      <trkpt lat="47.43148" lon="6.53494">
        <ele>302</ele>
        <time>2016-09-03T09:16:44Z</time>
      </trkpt>
      <trkpt lat="47.43156" lon="6.53477">
        <ele>303</ele>
        <time>2016-09-03T09:16:46Z</time>
      </trkpt>
      <trkpt lat="47.43164" lon="6.53458">
        <ele>304</ele>
        <time>2016-09-03T09:16:48Z</time>
      </trkpt>
      <trkpt lat="47.43169" lon="6.53451">
        <ele>304</ele>
        <time>2016-09-03T09:16:49Z</time>
      </trkpt>
      <trkpt lat="47.43176" lon="6.53428">
        <ele>306</ele>
        <time>2016-09-03T09:16:51Z</time>
      </trkpt>
      <trkpt lat="47.43186" lon="6.53412">
        <ele>305</ele>
        <time>2016-09-03T09:16:53Z</time>
      </trkpt>
      <trkpt lat="47.43201" lon="6.53393">
        <ele>304</ele>
        <time>2016-09-03T09:16:56Z</time>
      </trkpt>
      <trkpt lat="47.43205" lon="6.53387">
        <ele>304</ele>
        <time>2016-09-03T09:16:57Z</time>
      </trkpt>
      <trkpt lat="47.43214" lon="6.5337">
        <ele>305</ele>
        <time>2016-09-03T09:16:59Z</time>
      </trkpt>
      <trkpt lat="47.43231" lon="6.5335">
        <ele>304</ele>
        <time>2016-09-03T09:17:02Z</time>
      </trkpt>
      <trkpt lat="47.43235" lon="6.53342">
        <ele>305</ele>
        <time>2016-09-03T09:17:03Z</time>
      </trkpt>
      <trkpt lat="47.43246" lon="6.53328">
        <ele>306</ele>
        <time>2016-09-03T09:17:05Z</time>
      </trkpt>
      <trkpt lat="47.43262" lon="6.53309">
        <ele>307</ele>
        <time>2016-09-03T09:17:08Z</time>
      </trkpt>
      <trkpt lat="47.43275" lon="6.533">
        <ele>307</ele>
        <time>2016-09-03T09:17:10Z</time>
      </trkpt>
      <trkpt lat="47.43281" lon="6.53294">
        <ele>308</ele>
        <time>2016-09-03T09:17:11Z</time>
      </trkpt>
      <trkpt lat="47.43294" lon="6.53283">
        <ele>308</ele>
        <time>2016-09-03T09:17:13Z</time>
      </trkpt>
      <trkpt lat="47.43315" lon="6.53272">
        <ele>307</ele>
        <time>2016-09-03T09:17:16Z</time>
      </trkpt>
      <trkpt lat="47.43322" lon="6.53267">
        <ele>307</ele>
        <time>2016-09-03T09:17:17Z</time>
      </trkpt>
      <trkpt lat="47.43335" lon="6.53258">
        <ele>308</ele>
        <time>2016-09-03T09:17:19Z</time>
      </trkpt>
      <trkpt lat="47.43348" lon="6.53249">
        <ele>308</ele>
        <time>2016-09-03T09:17:21Z</time>
      </trkpt>
      <trkpt lat="47.43361" lon="6.53242">
        <ele>308</ele>
        <time>2016-09-03T09:17:23Z</time>
      </trkpt>
      <trkpt lat="47.43375" lon="6.53235">
        <ele>308</ele>
        <time>2016-09-03T09:17:25Z</time>
      </trkpt>
      <trkpt lat="47.43387" lon="6.53227">
        <ele>308</ele>
        <time>2016-09-03T09:17:27Z</time>
      </trkpt>
      <trkpt lat="47.434" lon="6.5322">
        <ele>308</ele>
        <time>2016-09-03T09:17:29Z</time>
      </trkpt>
      <trkpt lat="47.43413" lon="6.53212">
        <ele>308</ele>
        <time>2016-09-03T09:17:31Z</time>
      </trkpt>
      <trkpt lat="47.43426" lon="6.53206">
        <ele>308</ele>
        <time>2016-09-03T09:17:33Z</time>
      </trkpt>
      <trkpt lat="47.43438" lon="6.532">
        <ele>307</ele>
        <time>2016-09-03T09:17:35Z</time>
      </trkpt>
      <trkpt lat="47.43456" lon="6.53188">
        <ele>307</ele>
        <time>2016-09-03T09:17:38Z</time>
      </trkpt>
      <trkpt lat="47.43462" lon="6.53184">
        <ele>307</ele>
        <time>2016-09-03T09:17:39Z</time>
      </trkpt>
      <trkpt lat="47.43474" lon="6.53178">
        <ele>307</ele>
        <time>2016-09-03T09:17:41Z</time>
      </trkpt>
      <trkpt lat="47.43494" lon="6.53171">
        <ele>308</ele>
        <time>2016-09-03T09:17:44Z</time>
      </trkpt>
      <trkpt lat="47.435" lon="6.53169">
        <ele>308</ele>
        <time>2016-09-03T09:17:45Z</time>
      </trkpt>
      <trkpt lat="47.43514" lon="6.53164">
        <ele>308</ele>
        <time>2016-09-03T09:17:47Z</time>
      </trkpt>
      <trkpt lat="47.43527" lon="6.53159">
        <ele>310</ele>
        <time>2016-09-03T09:17:49Z</time>
      </trkpt>
      <trkpt lat="47.43539" lon="6.53152">
        <ele>312</ele>
        <time>2016-09-03T09:17:51Z</time>
      </trkpt>
      <trkpt lat="47.4355" lon="6.53137">
        <ele>316</ele>
        <time>2016-09-03T09:17:53Z</time>
      </trkpt>
      <trkpt lat="47.43561" lon="6.53132">
        <ele>318</ele>
        <time>2016-09-03T09:17:55Z</time>
      </trkpt>
      <trkpt lat="47.43571" lon="6.5313">
        <ele>319</ele>
        <time>2016-09-03T09:17:57Z</time>
      </trkpt>
      <trkpt lat="47.4359" lon="6.53135">
        <ele>316</ele>
        <time>2016-09-03T09:18:00Z</time>
      </trkpt>
      <trkpt lat="47.43598" lon="6.53138">
        <ele>315</ele>
        <time>2016-09-03T09:18:01Z</time>
      </trkpt>
      <trkpt lat="47.43614" lon="6.5314">
        <ele>313</ele>
        <time>2016-09-03T09:18:03Z</time>
      </trkpt>
      <trkpt lat="47.43629" lon="6.53138">
        <ele>314</ele>
        <time>2016-09-03T09:18:05Z</time>
      </trkpt>
      <trkpt lat="47.43644" lon="6.53134">
        <ele>315</ele>
        <time>2016-09-03T09:18:07Z</time>
      </trkpt>
      <trkpt lat="47.43658" lon="6.53131">
        <ele>316</ele>
        <time>2016-09-03T09:18:09Z</time>
      </trkpt>
      <trkpt lat="47.43677" lon="6.5313">
        <ele>316</ele>
        <time>2016-09-03T09:18:12Z</time>
      </trkpt>
      <trkpt lat="47.43691" lon="6.53128">
        <ele>317</ele>
        <time>2016-09-03T09:18:14Z</time>
      </trkpt>
      <trkpt lat="47.43698" lon="6.53126">
        <ele>319</ele>
        <time>2016-09-03T09:18:15Z</time>
      </trkpt>
      <trkpt lat="47.43714" lon="6.53125">
        <ele>320</ele>
        <time>2016-09-03T09:18:17Z</time>
      </trkpt>
      <trkpt lat="47.43728" lon="6.53122">
        <ele>322</ele>
        <time>2016-09-03T09:18:19Z</time>
      </trkpt>
      <trkpt lat="47.43741" lon="6.53122">
        <ele>323</ele>
        <time>2016-09-03T09:18:21Z</time>
      </trkpt>
      <trkpt lat="47.43755" lon="6.5312">
        <ele>325</ele>
        <time>2016-09-03T09:18:23Z</time>
      </trkpt>
      <trkpt lat="47.4377" lon="6.53119">
        <ele>327</ele>
        <time>2016-09-03T09:18:25Z</time>
      </trkpt>
      <trkpt lat="47.43783" lon="6.53123">
        <ele>325</ele>
        <time>2016-09-03T09:18:27Z</time>
      </trkpt>
      <trkpt lat="47.43796" lon="6.53123">
        <ele>328</ele>
        <time>2016-09-03T09:18:29Z</time>
      </trkpt>
      <trkpt lat="47.43811" lon="6.53127">
        <ele>327</ele>
        <time>2016-09-03T09:18:31Z</time>
      </trkpt>
      <trkpt lat="47.43833" lon="6.5313">
        <ele>328</ele>
        <time>2016-09-03T09:18:34Z</time>
      </trkpt>
      <trkpt lat="47.43839" lon="6.53132">
        <ele>328</ele>
        <time>2016-09-03T09:18:35Z</time>
      </trkpt>
      <trkpt lat="47.43854" lon="6.53136">
        <ele>328</ele>
        <time>2016-09-03T09:18:37Z</time>
      </trkpt>
      <trkpt lat="47.43867" lon="6.53137">
        <ele>330</ele>
        <time>2016-09-03T09:18:39Z</time>
      </trkpt>
      <trkpt lat="47.43882" lon="6.5314">
        <ele>331</ele>
        <time>2016-09-03T09:18:41Z</time>
      </trkpt>
      <trkpt lat="47.43898" lon="6.53141">
        <ele>334</ele>
        <time>2016-09-03T09:18:43Z</time>
      </trkpt>
      <trkpt lat="47.43919" lon="6.53142">
        <ele>338</ele>
        <time>2016-09-03T09:18:46Z</time>
      </trkpt>
      <trkpt lat="47.43934" lon="6.53148">
        <ele>337</ele>
        <time>2016-09-03T09:18:48Z</time>
      </trkpt>
      <trkpt lat="47.4394" lon="6.53149">
        <ele>337</ele>
        <time>2016-09-03T09:18:49Z</time>
      </trkpt>
      <trkpt lat="47.43955" lon="6.53156">
        <ele>337</ele>
        <time>2016-09-03T09:18:51Z</time>
      </trkpt>
      <trkpt lat="47.43969" lon="6.5316">
        <ele>339</ele>
        <time>2016-09-03T09:18:53Z</time>
      </trkpt>
      <trkpt lat="47.43982" lon="6.53165">
        <ele>341</ele>
        <time>2016-09-03T09:18:55Z</time>
      </trkpt>
      <trkpt lat="47.43996" lon="6.53172">
        <ele>342</ele>
        <time>2016-09-03T09:18:57Z</time>
      </trkpt>
      <trkpt lat="47.44009" lon="6.53178">
        <ele>342</ele>
        <time>2016-09-03T09:18:59Z</time>
      </trkpt>
      <trkpt lat="47.44023" lon="6.53187">
        <ele>340</ele>
        <time>2016-09-03T09:19:01Z</time>
      </trkpt>
      <trkpt lat="47.44036" lon="6.53193">
        <ele>341</ele>
        <time>2016-09-03T09:19:03Z</time>
      </trkpt>
      <trkpt lat="47.44049" lon="6.53199">
        <ele>342</ele>
        <time>2016-09-03T09:19:05Z</time>
      </trkpt>
      <trkpt lat="47.44062" lon="6.5321">
        <ele>340</ele>
        <time>2016-09-03T09:19:07Z</time>
      </trkpt>
      <trkpt lat="47.44075" lon="6.53219">
        <ele>338</ele>
        <time>2016-09-03T09:19:09Z</time>
      </trkpt>
      <trkpt lat="47.44087" lon="6.53229">
        <ele>336</ele>
        <time>2016-09-03T09:19:11Z</time>
      </trkpt>
      <trkpt lat="47.441" lon="6.53238">
        <ele>335</ele>
        <time>2016-09-03T09:19:13Z</time>
      </trkpt>
      <trkpt lat="47.44111" lon="6.5325">
        <ele>331</ele>
        <time>2016-09-03T09:19:15Z</time>
      </trkpt>
      <trkpt lat="47.44123" lon="6.5326">
        <ele>327</ele>
        <time>2016-09-03T09:19:17Z</time>
      </trkpt>
      <trkpt lat="47.44138" lon="6.5327">
        <ele>325</ele>
        <time>2016-09-03T09:19:19Z</time>
      </trkpt>
      <trkpt lat="47.4415" lon="6.53283">
        <ele>320</ele>
        <time>2016-09-03T09:19:21Z</time>
      </trkpt>
      <trkpt lat="47.44165" lon="6.53309">
        <ele>308</ele>
        <time>2016-09-03T09:19:24Z</time>
      </trkpt>
      <trkpt lat="47.44168" lon="6.53319">
        <ele>304</ele>
        <time>2016-09-03T09:19:25Z</time>
      </trkpt>
      <trkpt lat="47.44176" lon="6.5335">
        <ele>295</ele>
        <time>2016-09-03T09:19:28Z</time>
      </trkpt>
      <trkpt lat="47.44177" lon="6.5336">
        <ele>293</ele>
        <time>2016-09-03T09:19:29Z</time>
      </trkpt>
      <trkpt lat="47.44176" lon="6.53394">
        <ele>287</ele>
        <time>2016-09-03T09:19:32Z</time>
      </trkpt>
      <trkpt lat="47.44174" lon="6.53416">
        <ele>285</ele>
        <time>2016-09-03T09:19:34Z</time>
      </trkpt>
      <trkpt lat="47.44174" lon="6.53426">
        <ele>285</ele>
        <time>2016-09-03T09:19:35Z</time>
      </trkpt>
      <trkpt lat="47.44173" lon="6.53446">
        <ele>284</ele>
        <time>2016-09-03T09:19:37Z</time>
      </trkpt>
      <trkpt lat="47.44171" lon="6.53466">
        <ele>284</ele>
        <time>2016-09-03T09:19:39Z</time>
      </trkpt>
      <trkpt lat="47.44167" lon="6.53486">
        <ele>284</ele>
        <time>2016-09-03T09:19:41Z</time>
      </trkpt>
      <trkpt lat="47.44162" lon="6.53507">
        <ele>284</ele>
        <time>2016-09-03T09:19:43Z</time>
      </trkpt>
      <trkpt lat="47.4416" lon="6.53527">
        <ele>284</ele>
        <time>2016-09-03T09:19:45Z</time>
      </trkpt>
      <trkpt lat="47.44158" lon="6.53549">
        <ele>284</ele>
        <time>2016-09-03T09:19:47Z</time>
      </trkpt>
      <trkpt lat="47.44155" lon="6.53579">
        <ele>284</ele>
        <time>2016-09-03T09:19:50Z</time>
      </trkpt>
      <trkpt lat="47.44154" lon="6.53595">
        <ele>284</ele>
        <time>2016-09-03T09:19:51Z</time>
      </trkpt>
      <trkpt lat="47.4415" lon="6.53617">
        <ele>284</ele>
        <time>2016-09-03T09:19:53Z</time>
      </trkpt>
      <trkpt lat="47.44147" lon="6.53646">
        <ele>284</ele>
        <time>2016-09-03T09:19:56Z</time>
      </trkpt>
      <trkpt lat="47.44146" lon="6.53658">
        <ele>284</ele>
        <time>2016-09-03T09:19:57Z</time>
      </trkpt>
      <trkpt lat="47.44143" lon="6.53688">
        <ele>284</ele>
        <time>2016-09-03T09:20:00Z</time>
      </trkpt>
      <trkpt lat="47.44141" lon="6.53696">
        <ele>284</ele>
        <time>2016-09-03T09:20:01Z</time>
      </trkpt>
      <trkpt lat="47.44139" lon="6.53714">
        <ele>284</ele>
        <time>2016-09-03T09:20:03Z</time>
      </trkpt>
      <trkpt lat="47.44138" lon="6.53734">
        <ele>284</ele>
        <time>2016-09-03T09:20:05Z</time>
      </trkpt>
      <trkpt lat="47.44136" lon="6.53755">
        <ele>284</ele>
        <time>2016-09-03T09:20:07Z</time>
      </trkpt>
      <trkpt lat="47.44135" lon="6.53776">
        <ele>285</ele>
        <time>2016-09-03T09:20:09Z</time>
      </trkpt>
      <trkpt lat="47.44132" lon="6.53797">
        <ele>286</ele>
        <time>2016-09-03T09:20:11Z</time>
      </trkpt>
      <trkpt lat="47.4413" lon="6.53815">
        <ele>286</ele>
        <time>2016-09-03T09:20:13Z</time>
      </trkpt>
      <trkpt lat="47.44128" lon="6.53833">
        <ele>287</ele>
        <time>2016-09-03T09:20:15Z</time>
      </trkpt>
      <trkpt lat="47.44125" lon="6.53854">
        <ele>288</ele>
        <time>2016-09-03T09:20:17Z</time>
      </trkpt>
      <trkpt lat="47.44122" lon="6.53876">
        <ele>288</ele>
        <time>2016-09-03T09:20:19Z</time>
      </trkpt>
      <trkpt lat="47.44118" lon="6.53898">
        <ele>288</ele>
        <time>2016-09-03T09:20:21Z</time>
      </trkpt>
      <trkpt lat="47.4412" lon="6.53918">
        <ele>288</ele>
        <time>2016-09-03T09:20:23Z</time>
      </trkpt>
      <trkpt lat="47.44119" lon="6.53934">
        <ele>288</ele>
        <time>2016-09-03T09:20:25Z</time>
      </trkpt>
      <trkpt lat="47.44116" lon="6.53968">
        <ele>288</ele>
        <time>2016-09-03T09:20:28Z</time>
      </trkpt>
      <trkpt lat="47.44114" lon="6.53978">
        <ele>288</ele>
        <time>2016-09-03T09:20:29Z</time>
      </trkpt>
      <trkpt lat="47.44114" lon="6.54008">
        <ele>288</ele>
        <time>2016-09-03T09:20:32Z</time>
      </trkpt>
      <trkpt lat="47.44114" lon="6.54017">
        <ele>287</ele>
        <time>2016-09-03T09:20:33Z</time>
      </trkpt>
      <trkpt lat="47.44112" lon="6.54046">
        <ele>287</ele>
        <time>2016-09-03T09:20:36Z</time>
      </trkpt>
      <trkpt lat="47.44111" lon="6.54065">
        <ele>287</ele>
        <time>2016-09-03T09:20:38Z</time>
      </trkpt>
      <trkpt lat="47.4411" lon="6.54076">
        <ele>287</ele>
        <time>2016-09-03T09:20:39Z</time>
      </trkpt>
      <trkpt lat="47.44109" lon="6.54092">
        <ele>286</ele>
        <time>2016-09-03T09:20:41Z</time>
      </trkpt>
      <trkpt lat="47.44107" lon="6.54124">
        <ele>286</ele>
        <time>2016-09-03T09:20:44Z</time>
      </trkpt>
      <trkpt lat="47.44105" lon="6.54137">
        <ele>286</ele>
        <time>2016-09-03T09:20:45Z</time>
      </trkpt>
      <trkpt lat="47.44102" lon="6.5416">
        <ele>285</ele>
        <time>2016-09-03T09:20:47Z</time>
      </trkpt>
      <trkpt lat="47.44099" lon="6.54192">
        <ele>285</ele>
        <time>2016-09-03T09:20:50Z</time>
      </trkpt>
      <trkpt lat="47.441" lon="6.54204">
        <ele>284</ele>
        <time>2016-09-03T09:20:51Z</time>
      </trkpt>
      <trkpt lat="47.44099" lon="6.54229">
        <ele>284</ele>
        <time>2016-09-03T09:20:53Z</time>
      </trkpt>
      <trkpt lat="47.44099" lon="6.5425">
        <ele>284</ele>
        <time>2016-09-03T09:20:55Z</time>
      </trkpt>
      <trkpt lat="47.441" lon="6.54272">
        <ele>284</ele>
        <time>2016-09-03T09:20:57Z</time>
      </trkpt>
      <trkpt lat="47.44099" lon="6.54295">
        <ele>284</ele>
        <time>2016-09-03T09:20:59Z</time>
      </trkpt>
      <trkpt lat="47.44097" lon="6.54315">
        <ele>284</ele>
        <time>2016-09-03T09:21:01Z</time>
      </trkpt>
      <trkpt lat="47.44095" lon="6.54349">
        <ele>284</ele>
        <time>2016-09-03T09:21:04Z</time>
      </trkpt>
      <trkpt lat="47.44094" lon="6.54358">
        <ele>284</ele>
        <time>2016-09-03T09:21:05Z</time>
      </trkpt>
      <trkpt lat="47.44092" lon="6.5439">
        <ele>284</ele>
        <time>2016-09-03T09:21:08Z</time>
      </trkpt>
      <trkpt lat="47.44093" lon="6.544">
        <ele>284</ele>
        <time>2016-09-03T09:21:09Z</time>
      </trkpt>
      <trkpt lat="47.44092" lon="6.54423">
        <ele>284</ele>
        <time>2016-09-03T09:21:11Z</time>
      </trkpt>
      <trkpt lat="47.44094" lon="6.54443">
        <ele>284</ele>
        <time>2016-09-03T09:21:13Z</time>
      </trkpt>
      <trkpt lat="47.44098" lon="6.54473">
        <ele>284</ele>
        <time>2016-09-03T09:21:16Z</time>
      </trkpt>
      <trkpt lat="47.441" lon="6.54496">
        <ele>284</ele>
        <time>2016-09-03T09:21:18Z</time>
      </trkpt>
      <trkpt lat="47.44102" lon="6.54517">
        <ele>284</ele>
        <time>2016-09-03T09:21:20Z</time>
      </trkpt>
      <trkpt lat="47.44102" lon="6.54528">
        <ele>284</ele>
        <time>2016-09-03T09:21:21Z</time>
      </trkpt>
      <trkpt lat="47.44105" lon="6.5455">
        <ele>284</ele>
        <time>2016-09-03T09:21:23Z</time>
      </trkpt>
      <trkpt lat="47.44109" lon="6.5457">
        <ele>284</ele>
        <time>2016-09-03T09:21:25Z</time>
      </trkpt>
      <trkpt lat="47.44112" lon="6.54591">
        <ele>284</ele>
        <time>2016-09-03T09:21:27Z</time>
      </trkpt>
      <trkpt lat="47.44116" lon="6.54623">
        <ele>284</ele>
        <time>2016-09-03T09:21:30Z</time>
      </trkpt>
      <trkpt lat="47.44116" lon="6.54634">
        <ele>284</ele>
        <time>2016-09-03T09:21:31Z</time>
      </trkpt>
      <trkpt lat="47.44123" lon="6.54664">
        <ele>284</ele>
        <time>2016-09-03T09:21:34Z</time>
      </trkpt>
      <trkpt lat="47.44126" lon="6.54682">
        <ele>284</ele>
        <time>2016-09-03T09:21:36Z</time>
      </trkpt>
      <trkpt lat="47.44128" lon="6.54691">
        <ele>284</ele>
        <time>2016-09-03T09:21:37Z</time>
      </trkpt>
      <trkpt lat="47.44132" lon="6.54711">
        <ele>284</ele>
        <time>2016-09-03T09:21:39Z</time>
      </trkpt>
      <trkpt lat="47.44137" lon="6.5473">
        <ele>284</ele>
        <time>2016-09-03T09:21:41Z</time>
      </trkpt>
      <trkpt lat="47.44143" lon="6.54761">
        <ele>285</ele>
        <time>2016-09-03T09:21:44Z</time>
      </trkpt>
      <trkpt lat="47.44148" lon="6.5478">
        <ele>286</ele>
        <time>2016-09-03T09:21:46Z</time>
      </trkpt>
      <trkpt lat="47.4415" lon="6.54791">
        <ele>286</ele>
        <time>2016-09-03T09:21:47Z</time>
      </trkpt>
      <trkpt lat="47.44154" lon="6.54812">
        <ele>287</ele>
        <time>2016-09-03T09:21:49Z</time>
      </trkpt>
      <trkpt lat="47.44158" lon="6.54842">
        <ele>288</ele>
        <time>2016-09-03T09:21:52Z</time>
      </trkpt>
      <trkpt lat="47.44162" lon="6.54863">
        <ele>288</ele>
        <time>2016-09-03T09:21:54Z</time>
      </trkpt>
      <trkpt lat="47.44164" lon="6.54872">
        <ele>289</ele>
        <time>2016-09-03T09:21:55Z</time>
      </trkpt>
      <trkpt lat="47.44168" lon="6.54902">
        <ele>289</ele>
        <time>2016-09-03T09:21:58Z</time>
      </trkpt>
      <trkpt lat="47.4417" lon="6.54911">
        <ele>289</ele>
        <time>2016-09-03T09:21:59Z</time>
      </trkpt>
      <trkpt lat="47.44174" lon="6.5493">
        <ele>290</ele>
        <time>2016-09-03T09:22:01Z</time>
      </trkpt>
      <trkpt lat="47.44178" lon="6.54949">
        <ele>290</ele>
        <time>2016-09-03T09:22:03Z</time>
      </trkpt>
      <trkpt lat="47.44181" lon="6.54969">
        <ele>290</ele>
        <time>2016-09-03T09:22:05Z</time>
      </trkpt>
      <trkpt lat="47.44185" lon="6.5499">
        <ele>290</ele>
        <time>2016-09-03T09:22:07Z</time>
      </trkpt>
      <trkpt lat="47.44189" lon="6.5501">
        <ele>290</ele>
        <time>2016-09-03T09:22:09Z</time>
      </trkpt>
      <trkpt lat="47.44192" lon="6.5503">
        <ele>290</ele>
        <time>2016-09-03T09:22:11Z</time>
      </trkpt>
      <trkpt lat="47.44194" lon="6.5505">
        <ele>290</ele>
        <time>2016-09-03T09:22:13Z</time>
      </trkpt>
      <trkpt lat="47.44198" lon="6.55068">
        <ele>290</ele>
        <time>2016-09-03T09:22:15Z</time>
      </trkpt>
      <trkpt lat="47.44202" lon="6.55087">
        <ele>290</ele>
        <time>2016-09-03T09:22:17Z</time>
      </trkpt>
      <trkpt lat="47.44202" lon="6.55106">
        <ele>290</ele>
        <time>2016-09-03T09:22:19Z</time>
      </trkpt>
      <trkpt lat="47.44203" lon="6.55126">
        <ele>290</ele>
        <time>2016-09-03T09:22:21Z</time>
      </trkpt>
      <trkpt lat="47.44204" lon="6.55148">
        <ele>290</ele>
        <time>2016-09-03T09:22:23Z</time>
      </trkpt>
      <trkpt lat="47.44205" lon="6.55168">
        <ele>290</ele>
        <time>2016-09-03T09:22:25Z</time>
      </trkpt>
      <trkpt lat="47.44205" lon="6.55188">
        <ele>290</ele>
        <time>2016-09-03T09:22:27Z</time>
      </trkpt>
      <trkpt lat="47.44206" lon="6.55211">
        <ele>290</ele>
        <time>2016-09-03T09:22:29Z</time>
      </trkpt>
      <trkpt lat="47.44206" lon="6.55233">
        <ele>290</ele>
        <time>2016-09-03T09:22:31Z</time>
      </trkpt>
      <trkpt lat="47.44205" lon="6.55263">
        <ele>290</ele>
        <time>2016-09-03T09:22:34Z</time>
      </trkpt>
      <trkpt lat="47.44204" lon="6.55273">
        <ele>290</ele>
        <time>2016-09-03T09:22:35Z</time>
      </trkpt>
      <trkpt lat="47.44203" lon="6.553">
        <ele>290</ele>
        <time>2016-09-03T09:22:38Z</time>
      </trkpt>
      <trkpt lat="47.44202" lon="6.55321">
        <ele>290</ele>
        <time>2016-09-03T09:22:40Z</time>
      </trkpt>
      <trkpt lat="47.44201" lon="6.55331">
        <ele>290</ele>
        <time>2016-09-03T09:22:41Z</time>
      </trkpt>
      <trkpt lat="47.442" lon="6.5535">
        <ele>290</ele>
        <time>2016-09-03T09:22:43Z</time>
      </trkpt>
      <trkpt lat="47.44198" lon="6.5537">
        <ele>290</ele>
        <time>2016-09-03T09:22:45Z</time>
      </trkpt>
      <trkpt lat="47.44197" lon="6.55389">
        <ele>290</ele>
        <time>2016-09-03T09:22:47Z</time>
      </trkpt>
      <trkpt lat="47.44193" lon="6.5541">
        <ele>290</ele>
        <time>2016-09-03T09:22:49Z</time>
      </trkpt>
      <trkpt lat="47.44191" lon="6.55439">
        <ele>290</ele>
        <time>2016-09-03T09:22:52Z</time>
      </trkpt>
      <trkpt lat="47.4419" lon="6.55448">
        <ele>290</ele>
        <time>2016-09-03T09:22:53Z</time>
      </trkpt>
      <trkpt lat="47.44189" lon="6.55467">
        <ele>290</ele>
        <time>2016-09-03T09:22:55Z</time>
      </trkpt>
      <trkpt lat="47.44191" lon="6.55486">
        <ele>290</ele>
        <time>2016-09-03T09:22:57Z</time>
      </trkpt>
      <trkpt lat="47.44197" lon="6.55511">
        <ele>290</ele>
        <time>2016-09-03T09:23:00Z</time>
      </trkpt>
      <trkpt lat="47.44198" lon="6.55519">
        <ele>290</ele>
        <time>2016-09-03T09:23:01Z</time>
      </trkpt>
      <trkpt lat="47.44203" lon="6.55537">
        <ele>289</ele>
        <time>2016-09-03T09:23:03Z</time>
      </trkpt>
      <trkpt lat="47.44207" lon="6.55555">
        <ele>289</ele>
        <time>2016-09-03T09:23:05Z</time>
      </trkpt>
      <trkpt lat="47.4421" lon="6.55576">
        <ele>289</ele>
        <time>2016-09-03T09:23:07Z</time>
      </trkpt>
      <trkpt lat="47.44212" lon="6.55606">
        <ele>288</ele>
        <time>2016-09-03T09:23:10Z</time>
      </trkpt>
      <trkpt lat="47.44212" lon="6.55628">
        <ele>288</ele>
        <time>2016-09-03T09:23:12Z</time>
      </trkpt>
      <trkpt lat="47.44213" lon="6.55646">
        <ele>288</ele>
        <time>2016-09-03T09:23:14Z</time>
      </trkpt>
      <trkpt lat="47.44213" lon="6.55657">
        <ele>288</ele>
        <time>2016-09-03T09:23:15Z</time>
      </trkpt>
      <trkpt lat="47.44214" lon="6.55679">
        <ele>288</ele>
        <time>2016-09-03T09:23:17Z</time>
      </trkpt>
      <trkpt lat="47.44217" lon="6.557">
        <ele>288</ele>
        <time>2016-09-03T09:23:19Z</time>
      </trkpt>
      <trkpt lat="47.44218" lon="6.55719">
        <ele>287</ele>
        <time>2016-09-03T09:23:21Z</time>
      </trkpt>
      <trkpt lat="47.44219" lon="6.55738">
        <ele>287</ele>
        <time>2016-09-03T09:23:23Z</time>
      </trkpt>
      <trkpt lat="47.4422" lon="6.55757">
        <ele>287</ele>
        <time>2016-09-03T09:23:25Z</time>
      </trkpt>
      <trkpt lat="47.44222" lon="6.55776">
        <ele>286</ele>
        <time>2016-09-03T09:23:27Z</time>
      </trkpt>
      <trkpt lat="47.44225" lon="6.55794">
        <ele>286</ele>
        <time>2016-09-03T09:23:29Z</time>
      </trkpt>
      <trkpt lat="47.44232" lon="6.55812">
        <ele>286</ele>
        <time>2016-09-03T09:23:31Z</time>
      </trkpt>
      <trkpt lat="47.44238" lon="6.5583">
        <ele>286</ele>
        <time>2016-09-03T09:23:33Z</time>
      </trkpt>
      <trkpt lat="47.44245" lon="6.55843">
        <ele>286</ele>
        <time>2016-09-03T09:23:35Z</time>
      </trkpt>
      <trkpt lat="47.44253" lon="6.55859">
        <ele>286</ele>
        <time>2016-09-03T09:23:37Z</time>
      </trkpt>
      <trkpt lat="47.44259" lon="6.55872">
        <ele>286</ele>
        <time>2016-09-03T09:23:39Z</time>
      </trkpt>
      <trkpt lat="47.44269" lon="6.5589">
        <ele>286</ele>
        <time>2016-09-03T09:23:42Z</time>
      </trkpt>
      <trkpt lat="47.44277" lon="6.55901">
        <ele>286</ele>
        <time>2016-09-03T09:23:44Z</time>
      </trkpt>
      <trkpt lat="47.4428" lon="6.55907">
        <ele>286</ele>
        <time>2016-09-03T09:23:45Z</time>
      </trkpt>
      <trkpt lat="47.44286" lon="6.55917">
        <ele>287</ele>
        <time>2016-09-03T09:23:47Z</time>
      </trkpt>
      <trkpt lat="47.44291" lon="6.5593">
        <ele>287</ele>
        <time>2016-09-03T09:23:49Z</time>
      </trkpt>
      <trkpt lat="47.44295" lon="6.5594">
        <ele>288</ele>
        <time>2016-09-03T09:23:51Z</time>
      </trkpt>
      <trkpt lat="47.44302" lon="6.55951">
        <ele>288</ele>
        <time>2016-09-03T09:23:53Z</time>
      </trkpt>
      <trkpt lat="47.44306" lon="6.55962">
        <ele>288</ele>
        <time>2016-09-03T09:23:55Z</time>
      </trkpt>
      <trkpt lat="47.44308" lon="6.55971">
        <ele>289</ele>
        <time>2016-09-03T09:23:57Z</time>
      </trkpt>
      <trkpt lat="47.44315" lon="6.55986">
        <ele>290</ele>
        <time>2016-09-03T09:24:00Z</time>
      </trkpt>
      <trkpt lat="47.44321" lon="6.55998">
        <ele>290</ele>
        <time>2016-09-03T09:24:02Z</time>
      </trkpt>
      <trkpt lat="47.44328" lon="6.5601">
        <ele>291</ele>
        <time>2016-09-03T09:24:04Z</time>
      </trkpt>
      <trkpt lat="47.44333" lon="6.56018">
        <ele>291</ele>
        <time>2016-09-03T09:24:06Z</time>
      </trkpt>
      <trkpt lat="47.44337" lon="6.56028">
        <ele>292</ele>
        <time>2016-09-03T09:24:08Z</time>
      </trkpt>
      <trkpt lat="47.44342" lon="6.56035">
        <ele>292</ele>
        <time>2016-09-03T09:24:10Z</time>
      </trkpt>
      <trkpt lat="47.44343" lon="6.56041">
        <ele>292</ele>
        <time>2016-09-03T09:24:11Z</time>
      </trkpt>
      <trkpt lat="47.44345" lon="6.56054">
        <ele>292</ele>
        <time>2016-09-03T09:24:13Z</time>
      </trkpt>
      <trkpt lat="47.44349" lon="6.56067">
        <ele>292</ele>
        <time>2016-09-03T09:24:15Z</time>
      </trkpt>
      <trkpt lat="47.44353" lon="6.56091">
        <ele>292</ele>
        <time>2016-09-03T09:24:18Z</time>
      </trkpt>
      <trkpt lat="47.44354" lon="6.56097">
        <ele>292</ele>
        <time>2016-09-03T09:24:19Z</time>
      </trkpt>
      <trkpt lat="47.44359" lon="6.56114">
        <ele>293</ele>
        <time>2016-09-03T09:24:21Z</time>
      </trkpt>
      <trkpt lat="47.44362" lon="6.5613">
        <ele>293</ele>
        <time>2016-09-03T09:24:23Z</time>
      </trkpt>
      <trkpt lat="47.44362" lon="6.56146">
        <ele>293</ele>
        <time>2016-09-03T09:24:25Z</time>
      </trkpt>
      <trkpt lat="47.44363" lon="6.56163">
        <ele>293</ele>
        <time>2016-09-03T09:24:27Z</time>
      </trkpt>
      <trkpt lat="47.44363" lon="6.56189">
        <ele>292</ele>
        <time>2016-09-03T09:24:30Z</time>
      </trkpt>
      <trkpt lat="47.44362" lon="6.56199">
        <ele>292</ele>
        <time>2016-09-03T09:24:31Z</time>
      </trkpt>
      <trkpt lat="47.4436" lon="6.56218">
        <ele>292</ele>
        <time>2016-09-03T09:24:33Z</time>
      </trkpt>
      <trkpt lat="47.44357" lon="6.56236">
        <ele>292</ele>
        <time>2016-09-03T09:24:35Z</time>
      </trkpt>
      <trkpt lat="47.44351" lon="6.56261">
        <ele>291</ele>
        <time>2016-09-03T09:24:38Z</time>
      </trkpt>
      <trkpt lat="47.44348" lon="6.56268">
        <ele>291</ele>
        <time>2016-09-03T09:24:39Z</time>
      </trkpt>
      <trkpt lat="47.44335" lon="6.56286">
        <ele>290</ele>
        <time>2016-09-03T09:24:42Z</time>
      </trkpt>
      <trkpt lat="47.44329" lon="6.56288">
        <ele>290</ele>
        <time>2016-09-03T09:24:43Z</time>
      </trkpt>
      <trkpt lat="47.44319" lon="6.56294">
        <ele>290</ele>
        <time>2016-09-03T09:24:45Z</time>
      </trkpt>
      <trkpt lat="47.44303" lon="6.56302">
        <ele>290</ele>
        <time>2016-09-03T09:24:48Z</time>
      </trkpt>
      <trkpt lat="47.44297" lon="6.56305">
        <ele>290</ele>
        <time>2016-09-03T09:24:49Z</time>
      </trkpt>
      <trkpt lat="47.44285" lon="6.5631">
        <ele>290</ele>
        <time>2016-09-03T09:24:51Z</time>
      </trkpt>
      <trkpt lat="47.44272" lon="6.56308">
        <ele>290</ele>
        <time>2016-09-03T09:24:53Z</time>
      </trkpt>
      <trkpt lat="47.44259" lon="6.56306">
        <ele>290</ele>
        <time>2016-09-03T09:24:55Z</time>
      </trkpt>
      <trkpt lat="47.44245" lon="6.56303">
        <ele>290</ele>
        <time>2016-09-03T09:24:57Z</time>
      </trkpt>
      <trkpt lat="47.44232" lon="6.56305">
        <ele>290</ele>
        <time>2016-09-03T09:24:59Z</time>
      </trkpt>
      <trkpt lat="47.44222" lon="6.56314">
        <ele>290</ele>
        <time>2016-09-03T09:25:01Z</time>
      </trkpt>
      <trkpt lat="47.44219" lon="6.56342">
        <ele>290</ele>
        <time>2016-09-03T09:25:04Z</time>
      </trkpt>
      <trkpt lat="47.4422" lon="6.5635">
        <ele>290</ele>
        <time>2016-09-03T09:25:05Z</time>
      </trkpt>
      <trkpt lat="47.4422" lon="6.56376">
        <ele>290</ele>
        <time>2016-09-03T09:25:08Z</time>
      </trkpt>
      <trkpt lat="47.44219" lon="6.56386">
        <ele>290</ele>
        <time>2016-09-03T09:25:09Z</time>
      </trkpt>
      <trkpt lat="47.44219" lon="6.56413">
        <ele>290</ele>
        <time>2016-09-03T09:25:12Z</time>
      </trkpt>
      <trkpt lat="47.44221" lon="6.56422">
        <ele>290</ele>
        <time>2016-09-03T09:25:13Z</time>
      </trkpt>
      <trkpt lat="47.44223" lon="6.5645">
        <ele>290</ele>
        <time>2016-09-03T09:25:16Z</time>
      </trkpt>
      <trkpt lat="47.44223" lon="6.56462">
        <ele>290</ele>
        <time>2016-09-03T09:25:17Z</time>
      </trkpt>
      <trkpt lat="47.44223" lon="6.56491">
        <ele>290</ele>
        <time>2016-09-03T09:25:20Z</time>
      </trkpt>
      <trkpt lat="47.44224" lon="6.56502">
        <ele>291</ele>
        <time>2016-09-03T09:25:21Z</time>
      </trkpt>
      <trkpt lat="47.44224" lon="6.56519">
        <ele>291</ele>
        <time>2016-09-03T09:25:23Z</time>
      </trkpt>
      <trkpt lat="47.44226" lon="6.56538">
        <ele>291</ele>
        <time>2016-09-03T09:25:25Z</time>
      </trkpt>
      <trkpt lat="47.44226" lon="6.56565">
        <ele>291</ele>
        <time>2016-09-03T09:25:28Z</time>
      </trkpt>
      <trkpt lat="47.44226" lon="6.56575">
        <ele>291</ele>
        <time>2016-09-03T09:25:29Z</time>
      </trkpt>
      <trkpt lat="47.44224" lon="6.56594">
        <ele>291</ele>
        <time>2016-09-03T09:25:31Z</time>
      </trkpt>
      <trkpt lat="47.44222" lon="6.56614">
        <ele>291</ele>
        <time>2016-09-03T09:25:33Z</time>
      </trkpt>
      <trkpt lat="47.44221" lon="6.56634">
        <ele>291</ele>
        <time>2016-09-03T09:25:35Z</time>
      </trkpt>
      <trkpt lat="47.44221" lon="6.56654">
        <ele>291</ele>
        <time>2016-09-03T09:25:37Z</time>
      </trkpt>
      <trkpt lat="47.44221" lon="6.56674">
        <ele>291</ele>
        <time>2016-09-03T09:25:39Z</time>
      </trkpt>
      <trkpt lat="47.44219" lon="6.56694">
        <ele>291</ele>
        <time>2016-09-03T09:25:41Z</time>
      </trkpt>
      <trkpt lat="47.44215" lon="6.56721">
        <ele>290</ele>
        <time>2016-09-03T09:25:44Z</time>
      </trkpt>
      <trkpt lat="47.44215" lon="6.56733">
        <ele>290</ele>
        <time>2016-09-03T09:25:45Z</time>
      </trkpt>
      <trkpt lat="47.44214" lon="6.56754">
        <ele>290</ele>
        <time>2016-09-03T09:25:47Z</time>
      </trkpt>
      <trkpt lat="47.44215" lon="6.56782">
        <ele>291</ele>
        <time>2016-09-03T09:25:50Z</time>
      </trkpt>
      <trkpt lat="47.44215" lon="6.56793">
        <ele>291</ele>
        <time>2016-09-03T09:25:51Z</time>
      </trkpt>
      <trkpt lat="47.44217" lon="6.56813">
        <ele>291</ele>
        <time>2016-09-03T09:25:53Z</time>
      </trkpt>
      <trkpt lat="47.4422" lon="6.56834">
        <ele>291</ele>
        <time>2016-09-03T09:25:55Z</time>
      </trkpt>
      <trkpt lat="47.44226" lon="6.5686">
        <ele>291</ele>
        <time>2016-09-03T09:25:58Z</time>
      </trkpt>
      <trkpt lat="47.4423" lon="6.56872">
        <ele>291</ele>
        <time>2016-09-03T09:25:59Z</time>
      </trkpt>
      <trkpt lat="47.44236" lon="6.56891">
        <ele>291</ele>
        <time>2016-09-03T09:26:01Z</time>
      </trkpt>
      <trkpt lat="47.44242" lon="6.56909">
        <ele>291</ele>
        <time>2016-09-03T09:26:03Z</time>
      </trkpt>
      <trkpt lat="47.44251" lon="6.56927">
        <ele>291</ele>
        <time>2016-09-03T09:26:05Z</time>
      </trkpt>
      <trkpt lat="47.44257" lon="6.56943">
        <ele>291</ele>
        <time>2016-09-03T09:26:07Z</time>
      </trkpt>
      <trkpt lat="47.44267" lon="6.56965">
        <ele>290</ele>
        <time>2016-09-03T09:26:10Z</time>
      </trkpt>
      <trkpt lat="47.44275" lon="6.56982">
        <ele>290</ele>
        <time>2016-09-03T09:26:12Z</time>
      </trkpt>
      <trkpt lat="47.44279" lon="6.56992">
        <ele>290</ele>
        <time>2016-09-03T09:26:13Z</time>
      </trkpt>
      <trkpt lat="47.44288" lon="6.57008">
        <ele>290</ele>
        <time>2016-09-03T09:26:15Z</time>
      </trkpt>
      <trkpt lat="47.44297" lon="6.57026">
        <ele>290</ele>
        <time>2016-09-03T09:26:17Z</time>
      </trkpt>
      <trkpt lat="47.44306" lon="6.57043">
        <ele>289</ele>
        <time>2016-09-03T09:26:19Z</time>
      </trkpt>
      <trkpt lat="47.44313" lon="6.5706">
        <ele>289</ele>
        <time>2016-09-03T09:26:21Z</time>
      </trkpt>
      <trkpt lat="47.44327" lon="6.57082">
        <ele>289</ele>
        <time>2016-09-03T09:26:24Z</time>
      </trkpt>
      <trkpt lat="47.44331" lon="6.57089">
        <ele>289</ele>
        <time>2016-09-03T09:26:25Z</time>
      </trkpt>
      <trkpt lat="47.44341" lon="6.57103">
        <ele>289</ele>
        <time>2016-09-03T09:26:27Z</time>
      </trkpt>
      <trkpt lat="47.44357" lon="6.57125">
        <ele>290</ele>
        <time>2016-09-03T09:26:30Z</time>
      </trkpt>
      <trkpt lat="47.44368" lon="6.5714">
        <ele>291</ele>
        <time>2016-09-03T09:26:32Z</time>
      </trkpt>
      <trkpt lat="47.44379" lon="6.57152">
        <ele>292</ele>
        <time>2016-09-03T09:26:34Z</time>
      </trkpt>
      <trkpt lat="47.44389" lon="6.57164">
        <ele>293</ele>
        <time>2016-09-03T09:26:36Z</time>
      </trkpt>
      <trkpt lat="47.44395" lon="6.5717">
        <ele>294</ele>
        <time>2016-09-03T09:26:37Z</time>
      </trkpt>
      <trkpt lat="47.44408" lon="6.5718">
        <ele>296</ele>
        <time>2016-09-03T09:26:39Z</time>
      </trkpt>
      <trkpt lat="47.44421" lon="6.57191">
        <ele>298</ele>
        <time>2016-09-03T09:26:41Z</time>
      </trkpt>
      <trkpt lat="47.44435" lon="6.57201">
        <ele>301</ele>
        <time>2016-09-03T09:26:43Z</time>
      </trkpt>
      <trkpt lat="47.44447" lon="6.57212">
        <ele>302</ele>
        <time>2016-09-03T09:26:45Z</time>
      </trkpt>
      <trkpt lat="47.44459" lon="6.57225">
        <ele>303</ele>
        <time>2016-09-03T09:26:47Z</time>
      </trkpt>
      <trkpt lat="47.44469" lon="6.57238">
        <ele>302</ele>
        <time>2016-09-03T09:26:49Z</time>
      </trkpt>
      <trkpt lat="47.4448" lon="6.57253">
        <ele>302</ele>
        <time>2016-09-03T09:26:51Z</time>
      </trkpt>
      <trkpt lat="47.44487" lon="6.5727">
        <ele>299</ele>
        <time>2016-09-03T09:26:53Z</time>
      </trkpt>
      <trkpt lat="47.44494" lon="6.57288">
        <ele>297</ele>
        <time>2016-09-03T09:26:55Z</time>
      </trkpt>
      <trkpt lat="47.44503" lon="6.57303">
        <ele>297</ele>
        <time>2016-09-03T09:26:57Z</time>
      </trkpt>
      <trkpt lat="47.44512" lon="6.57319">
        <ele>296</ele>
        <time>2016-09-03T09:26:59Z</time>
      </trkpt>
      <trkpt lat="47.4452" lon="6.57335">
        <ele>296</ele>
        <time>2016-09-03T09:27:01Z</time>
      </trkpt>
      <trkpt lat="47.44527" lon="6.57352">
        <ele>296</ele>
        <time>2016-09-03T09:27:03Z</time>
      </trkpt>
      <trkpt lat="47.44539" lon="6.57378">
        <ele>296</ele>
        <time>2016-09-03T09:27:06Z</time>
      </trkpt>
      <trkpt lat="47.44542" lon="6.57388">
        <ele>297</ele>
        <time>2016-09-03T09:27:07Z</time>
      </trkpt>
      <trkpt lat="47.44558" lon="6.57415">
        <ele>298</ele>
        <time>2016-09-03T09:27:10Z</time>
      </trkpt>
      <trkpt lat="47.44565" lon="6.57435">
        <ele>299</ele>
        <time>2016-09-03T09:27:12Z</time>
      </trkpt>
      <trkpt lat="47.44569" lon="6.57442">
        <ele>299</ele>
        <time>2016-09-03T09:27:13Z</time>
      </trkpt>
      <trkpt lat="47.44578" lon="6.57458">
        <ele>300</ele>
        <time>2016-09-03T09:27:15Z</time>
      </trkpt>
      <trkpt lat="47.44591" lon="6.57481">
        <ele>301</ele>
        <time>2016-09-03T09:27:18Z</time>
      </trkpt>
      <trkpt lat="47.44598" lon="6.575">
        <ele>301</ele>
        <time>2016-09-03T09:27:20Z</time>
      </trkpt>
      <trkpt lat="47.44603" lon="6.57507">
        <ele>301</ele>
        <time>2016-09-03T09:27:21Z</time>
      </trkpt>
      <trkpt lat="47.44618" lon="6.5753">
        <ele>302</ele>
        <time>2016-09-03T09:27:24Z</time>
      </trkpt>
      <trkpt lat="47.4463" lon="6.57542">
        <ele>304</ele>
        <time>2016-09-03T09:27:26Z</time>
      </trkpt>
      <trkpt lat="47.44637" lon="6.57547">
        <ele>305</ele>
        <time>2016-09-03T09:27:27Z</time>
      </trkpt>
      <trkpt lat="47.44649" lon="6.57558">
        <ele>308</ele>
        <time>2016-09-03T09:27:29Z</time>
      </trkpt>
      <trkpt lat="47.4466" lon="6.57568">
        <ele>309</ele>
        <time>2016-09-03T09:27:31Z</time>
      </trkpt>
      <trkpt lat="47.44671" lon="6.5758">
        <ele>311</ele>
        <time>2016-09-03T09:27:33Z</time>
      </trkpt>
      <trkpt lat="47.44685" lon="6.5759">
        <ele>313</ele>
        <time>2016-09-03T09:27:35Z</time>
      </trkpt>
      <trkpt lat="47.44695" lon="6.57599">
        <ele>315</ele>
        <time>2016-09-03T09:27:37Z</time>
      </trkpt>
      <trkpt lat="47.44707" lon="6.57609">
        <ele>316</ele>
        <time>2016-09-03T09:27:39Z</time>
      </trkpt>
      <trkpt lat="47.44721" lon="6.57613">
        <ele>319</ele>
        <time>2016-09-03T09:27:41Z</time>
      </trkpt>
      <trkpt lat="47.44734" lon="6.57617">
        <ele>323</ele>
        <time>2016-09-03T09:27:43Z</time>
      </trkpt>
      <trkpt lat="47.44748" lon="6.57619">
        <ele>325</ele>
        <time>2016-09-03T09:27:45Z</time>
      </trkpt>
      <trkpt lat="47.44767" lon="6.57625">
        <ele>326</ele>
        <time>2016-09-03T09:27:48Z</time>
      </trkpt>
      <trkpt lat="47.44773" lon="6.57626">
        <ele>327</ele>
        <time>2016-09-03T09:27:49Z</time>
      </trkpt>
      <trkpt lat="47.44787" lon="6.57627">
        <ele>327</ele>
        <time>2016-09-03T09:27:51Z</time>
      </trkpt>
      <trkpt lat="47.44802" lon="6.57628">
        <ele>327</ele>
        <time>2016-09-03T09:27:53Z</time>
      </trkpt>
      <trkpt lat="47.44815" lon="6.57629">
        <ele>327</ele>
        <time>2016-09-03T09:27:55Z</time>
      </trkpt>
      <trkpt lat="47.44826" lon="6.57631">
        <ele>327</ele>
        <time>2016-09-03T09:27:57Z</time>
      </trkpt>
      <trkpt lat="47.44839" lon="6.57632">
        <ele>327</ele>
        <time>2016-09-03T09:27:59Z</time>
      </trkpt>
      <trkpt lat="47.44852" lon="6.57635">
        <ele>326</ele>
        <time>2016-09-03T09:28:01Z</time>
      </trkpt>
      <trkpt lat="47.44872" lon="6.57638">
        <ele>326</ele>
        <time>2016-09-03T09:28:04Z</time>
      </trkpt>
      <trkpt lat="47.4488" lon="6.57641">
        <ele>326</ele>
        <time>2016-09-03T09:28:05Z</time>
      </trkpt>
      <trkpt lat="47.44894" lon="6.57646">
        <ele>325</ele>
        <time>2016-09-03T09:28:07Z</time>
      </trkpt>
      <trkpt lat="47.44915" lon="6.57654">
        <ele>326</ele>
        <time>2016-09-03T09:28:10Z</time>
      </trkpt>
      <trkpt lat="47.44928" lon="6.57662">
        <ele>325</ele>
        <time>2016-09-03T09:28:12Z</time>
      </trkpt>
      <trkpt lat="47.44935" lon="6.57665">
        <ele>325</ele>
        <time>2016-09-03T09:28:13Z</time>
      </trkpt>
      <trkpt lat="47.44948" lon="6.57672">
        <ele>325</ele>
        <time>2016-09-03T09:28:15Z</time>
      </trkpt>
      <trkpt lat="47.44962" lon="6.57678">
        <ele>323</ele>
        <time>2016-09-03T09:28:17Z</time>
      </trkpt>
      <trkpt lat="47.44977" lon="6.57683">
        <ele>323</ele>
        <time>2016-09-03T09:28:19Z</time>
      </trkpt>
      <trkpt lat="47.45" lon="6.5769">
        <ele>324</ele>
        <time>2016-09-03T09:28:22Z</time>
      </trkpt>
      <trkpt lat="47.45015" lon="6.57698">
        <ele>326</ele>
        <time>2016-09-03T09:28:24Z</time>
      </trkpt>
      <trkpt lat="47.45021" lon="6.57701">
        <ele>326</ele>
        <time>2016-09-03T09:28:25Z</time>
      </trkpt>
      <trkpt lat="47.45036" lon="6.57708">
        <ele>326</ele>
        <time>2016-09-03T09:28:27Z</time>
      </trkpt>
      <trkpt lat="47.45049" lon="6.57717">
        <ele>324</ele>
        <time>2016-09-03T09:28:29Z</time>
      </trkpt>
      <trkpt lat="47.45062" lon="6.57725">
        <ele>324</ele>
        <time>2016-09-03T09:28:31Z</time>
      </trkpt>
      <trkpt lat="47.45075" lon="6.57737">
        <ele>324</ele>
        <time>2016-09-03T09:28:33Z</time>
      </trkpt>
      <trkpt lat="47.45088" lon="6.57747">
        <ele>322</ele>
        <time>2016-09-03T09:28:35Z</time>
      </trkpt>
      <trkpt lat="47.45102" lon="6.57758">
        <ele>321</ele>
        <time>2016-09-03T09:28:37Z</time>
      </trkpt>
      <trkpt lat="47.45113" lon="6.57766">
        <ele>321</ele>
        <time>2016-09-03T09:28:39Z</time>
      </trkpt>
      <trkpt lat="47.45126" lon="6.57778">
        <ele>321</ele>
        <time>2016-09-03T09:28:41Z</time>
      </trkpt>
      <trkpt lat="47.4514" lon="6.57789">
        <ele>319</ele>
        <time>2016-09-03T09:28:44Z</time>
      </trkpt>
      <trkpt lat="47.45143" lon="6.57791">
        <ele>319</ele>
        <time>2016-09-03T09:28:45Z</time>
      </trkpt>
      <trkpt lat="47.45145" lon="6.57793">
        <ele>318</ele>
        <time>2016-09-03T09:28:47Z</time>
      </trkpt>
      <trkpt lat="47.45147" lon="6.57795">
        <ele>318</ele>
        <time>2016-09-03T09:28:49Z</time>
      </trkpt>
      <trkpt lat="47.45148" lon="6.57795">
        <ele>319</ele>
        <time>2016-09-03T09:28:51Z</time>
      </trkpt>
      <trkpt lat="47.45146" lon="6.57799">
        <ele>317</ele>
        <time>2016-09-03T09:28:53Z</time>
      </trkpt>
      <trkpt lat="47.45143" lon="6.57812">
        <ele>311</ele>
        <time>2016-09-03T09:28:56Z</time>
      </trkpt>
      <trkpt lat="47.45135" lon="6.57825">
        <ele>304</ele>
        <time>2016-09-03T09:28:58Z</time>
      </trkpt>
      <trkpt lat="47.45126" lon="6.5784">
        <ele>297</ele>
        <time>2016-09-03T09:29:00Z</time>
      </trkpt>
      <trkpt lat="47.45122" lon="6.57849">
        <ele>295</ele>
        <time>2016-09-03T09:29:01Z</time>
      </trkpt>
      <trkpt lat="47.45111" lon="6.57878">
        <ele>290</ele>
        <time>2016-09-03T09:29:04Z</time>
      </trkpt>
      <trkpt lat="47.45107" lon="6.57886">
        <ele>290</ele>
        <time>2016-09-03T09:29:05Z</time>
      </trkpt>
      <trkpt lat="47.45097" lon="6.57902">
        <ele>290</ele>
        <time>2016-09-03T09:29:07Z</time>
      </trkpt>
      <trkpt lat="47.45087" lon="6.57921">
        <ele>290</ele>
        <time>2016-09-03T09:29:09Z</time>
      </trkpt>
      <trkpt lat="47.45078" lon="6.57937">
        <ele>290</ele>
        <time>2016-09-03T09:29:11Z</time>
      </trkpt>
      <trkpt lat="47.45069" lon="6.57954">
        <ele>290</ele>
        <time>2016-09-03T09:29:13Z</time>
      </trkpt>
      <trkpt lat="47.45059" lon="6.5797">
        <ele>290</ele>
        <time>2016-09-03T09:29:15Z</time>
      </trkpt>
      <trkpt lat="47.45051" lon="6.57985">
        <ele>290</ele>
        <time>2016-09-03T09:29:17Z</time>
      </trkpt>
      <trkpt lat="47.45043" lon="6.58">
        <ele>290</ele>
        <time>2016-09-03T09:29:19Z</time>
      </trkpt>
      <trkpt lat="47.45033" lon="6.58017">
        <ele>290</ele>
        <time>2016-09-03T09:29:21Z</time>
      </trkpt>
      <trkpt lat="47.45021" lon="6.5803">
        <ele>290</ele>
        <time>2016-09-03T09:29:23Z</time>
      </trkpt>
      <trkpt lat="47.45007" lon="6.58044">
        <ele>290</ele>
        <time>2016-09-03T09:29:25Z</time>
      </trkpt>
      <trkpt lat="47.44996" lon="6.5806">
        <ele>290</ele>
        <time>2016-09-03T09:29:27Z</time>
      </trkpt>
      <trkpt lat="47.44985" lon="6.58077">
        <ele>290</ele>
        <time>2016-09-03T09:29:29Z</time>
      </trkpt>
      <trkpt lat="47.44974" lon="6.58093">
        <ele>290</ele>
        <time>2016-09-03T09:29:31Z</time>
      </trkpt>
      <trkpt lat="47.44964" lon="6.58109">
        <ele>291</ele>
        <time>2016-09-03T09:29:33Z</time>
      </trkpt>
      <trkpt lat="47.44953" lon="6.58124">
        <ele>291</ele>
        <time>2016-09-03T09:29:35Z</time>
      </trkpt>
      <trkpt lat="47.44943" lon="6.5814">
        <ele>291</ele>
        <time>2016-09-03T09:29:37Z</time>
      </trkpt>
      <trkpt lat="47.44931" lon="6.58146">
        <ele>291</ele>
        <time>2016-09-03T09:29:39Z</time>
      </trkpt>
      <trkpt lat="47.44918" lon="6.58149">
        <ele>291</ele>
        <time>2016-09-03T09:29:41Z</time>
      </trkpt>
      <trkpt lat="47.44908" lon="6.58161">
        <ele>291</ele>
        <time>2016-09-03T09:29:43Z</time>
      </trkpt>
      <trkpt lat="47.44908" lon="6.58178">
        <ele>291</ele>
        <time>2016-09-03T09:29:45Z</time>
      </trkpt>
      <trkpt lat="47.44907" lon="6.58196">
        <ele>291</ele>
        <time>2016-09-03T09:29:47Z</time>
      </trkpt>
      <trkpt lat="47.44902" lon="6.5821">
        <ele>291</ele>
        <time>2016-09-03T09:29:50Z</time>
      </trkpt>
      <trkpt lat="47.44901" lon="6.58213">
        <ele>291</ele>
        <time>2016-09-03T09:29:51Z</time>
      </trkpt>
      <trkpt lat="47.44902" lon="6.58222">
        <ele>291</ele>
        <time>2016-09-03T09:29:53Z</time>
      </trkpt>
      <trkpt lat="47.44906" lon="6.58233">
        <ele>291</ele>
        <time>2016-09-03T09:29:55Z</time>
      </trkpt>
      <trkpt lat="47.44916" lon="6.58248">
        <ele>291</ele>
        <time>2016-09-03T09:29:58Z</time>
      </trkpt>
      <trkpt lat="47.4492" lon="6.58252">
        <ele>291</ele>
        <time>2016-09-03T09:29:59Z</time>
      </trkpt>
      <trkpt lat="47.44927" lon="6.58263">
        <ele>291</ele>
        <time>2016-09-03T09:30:01Z</time>
      </trkpt>
      <trkpt lat="47.44934" lon="6.58274">
        <ele>291</ele>
        <time>2016-09-03T09:30:03Z</time>
      </trkpt>
      <trkpt lat="47.44941" lon="6.58288">
        <ele>291</ele>
        <time>2016-09-03T09:30:05Z</time>
      </trkpt>
      <trkpt lat="47.44957" lon="6.58306">
        <ele>291</ele>
        <time>2016-09-03T09:30:08Z</time>
      </trkpt>
      <trkpt lat="47.44961" lon="6.58314">
        <ele>291</ele>
        <time>2016-09-03T09:30:09Z</time>
      </trkpt>
      <trkpt lat="47.4497" lon="6.58327">
        <ele>291</ele>
        <time>2016-09-03T09:30:11Z</time>
      </trkpt>
      <trkpt lat="47.44978" lon="6.58343">
        <ele>292</ele>
        <time>2016-09-03T09:30:13Z</time>
      </trkpt>
      <trkpt lat="47.44986" lon="6.58357">
        <ele>292</ele>
        <time>2016-09-03T09:30:15Z</time>
      </trkpt>
      <trkpt lat="47.44993" lon="6.58369">
        <ele>292</ele>
        <time>2016-09-03T09:30:17Z</time>
      </trkpt>
      <trkpt lat="47.45005" lon="6.58388">
        <ele>292</ele>
        <time>2016-09-03T09:30:20Z</time>
      </trkpt>
      <trkpt lat="47.45015" lon="6.584">
        <ele>292</ele>
        <time>2016-09-03T09:30:22Z</time>
      </trkpt>
      <trkpt lat="47.45018" lon="6.58408">
        <ele>292</ele>
        <time>2016-09-03T09:30:23Z</time>
      </trkpt>
      <trkpt lat="47.45027" lon="6.58423">
        <ele>292</ele>
        <time>2016-09-03T09:30:25Z</time>
      </trkpt>
      <trkpt lat="47.45035" lon="6.58439">
        <ele>292</ele>
        <time>2016-09-03T09:30:27Z</time>
      </trkpt>
      <trkpt lat="47.45044" lon="6.58453">
        <ele>292</ele>
        <time>2016-09-03T09:30:29Z</time>
      </trkpt>
      <trkpt lat="47.45057" lon="6.58476">
        <ele>292</ele>
        <time>2016-09-03T09:30:32Z</time>
      </trkpt>
      <trkpt lat="47.45061" lon="6.58484">
        <ele>293</ele>
        <time>2016-09-03T09:30:33Z</time>
      </trkpt>
      <trkpt lat="47.45069" lon="6.585">
        <ele>293</ele>
        <time>2016-09-03T09:30:35Z</time>
      </trkpt>
      <trkpt lat="47.45076" lon="6.58516">
        <ele>293</ele>
        <time>2016-09-03T09:30:37Z</time>
      </trkpt>
      <trkpt lat="47.45085" lon="6.58532">
        <ele>293</ele>
        <time>2016-09-03T09:30:39Z</time>
      </trkpt>
      <trkpt lat="47.45092" lon="6.58548">
        <ele>293</ele>
        <time>2016-09-03T09:30:41Z</time>
      </trkpt>
      <trkpt lat="47.45101" lon="6.58563">
        <ele>293</ele>
        <time>2016-09-03T09:30:43Z</time>
      </trkpt>
      <trkpt lat="47.45107" lon="6.58582">
        <ele>293</ele>
        <time>2016-09-03T09:30:45Z</time>
      </trkpt>
      <trkpt lat="47.45112" lon="6.58598">
        <ele>293</ele>
        <time>2016-09-03T09:30:47Z</time>
      </trkpt>
      <trkpt lat="47.45121" lon="6.58625">
        <ele>294</ele>
        <time>2016-09-03T09:30:50Z</time>
      </trkpt>
      <trkpt lat="47.45125" lon="6.58635">
        <ele>294</ele>
        <time>2016-09-03T09:30:51Z</time>
      </trkpt>
      <trkpt lat="47.4513" lon="6.58653">
        <ele>294</ele>
        <time>2016-09-03T09:30:53Z</time>
      </trkpt>
      <trkpt lat="47.45139" lon="6.58682">
        <ele>294</ele>
        <time>2016-09-03T09:30:56Z</time>
      </trkpt>
      <trkpt lat="47.45142" lon="6.58691">
        <ele>293</ele>
        <time>2016-09-03T09:30:57Z</time>
      </trkpt>
      <trkpt lat="47.45149" lon="6.58716">
        <ele>294</ele>
        <time>2016-09-03T09:31:00Z</time>
      </trkpt>
      <trkpt lat="47.45153" lon="6.58726">
        <ele>294</ele>
        <time>2016-09-03T09:31:01Z</time>
      </trkpt>
      <trkpt lat="47.45158" lon="6.58745">
        <ele>294</ele>
        <time>2016-09-03T09:31:03Z</time>
      </trkpt>
      <trkpt lat="47.45165" lon="6.58764">
        <ele>293</ele>
        <time>2016-09-03T09:31:05Z</time>
      </trkpt>
      <trkpt lat="47.45168" lon="6.58783">
        <ele>293</ele>
        <time>2016-09-03T09:31:07Z</time>
      </trkpt>
      <trkpt lat="47.45173" lon="6.588">
        <ele>293</ele>
        <time>2016-09-03T09:31:09Z</time>
      </trkpt>
      <trkpt lat="47.4518" lon="6.58818">
        <ele>293</ele>
        <time>2016-09-03T09:31:11Z</time>
      </trkpt>
      <trkpt lat="47.45187" lon="6.58838">
        <ele>293</ele>
        <time>2016-09-03T09:31:13Z</time>
      </trkpt>
      <trkpt lat="47.4519" lon="6.58856">
        <ele>293</ele>
        <time>2016-09-03T09:31:15Z</time>
      </trkpt>
      <trkpt lat="47.45198" lon="6.58882">
        <ele>293</ele>
        <time>2016-09-03T09:31:18Z</time>
      </trkpt>
      <trkpt lat="47.45206" lon="6.58899">
        <ele>293</ele>
        <time>2016-09-03T09:31:20Z</time>
      </trkpt>
      <trkpt lat="47.45211" lon="6.58915">
        <ele>293</ele>
        <time>2016-09-03T09:31:22Z</time>
      </trkpt>
      <trkpt lat="47.45215" lon="6.58923">
        <ele>293</ele>
        <time>2016-09-03T09:31:23Z</time>
      </trkpt>
      <trkpt lat="47.45222" lon="6.58941">
        <ele>293</ele>
        <time>2016-09-03T09:31:25Z</time>
      </trkpt>
      <trkpt lat="47.45222" lon="6.5897">
        <ele>293</ele>
        <time>2016-09-03T09:31:28Z</time>
      </trkpt>
      <trkpt lat="47.45221" lon="6.58978">
        <ele>293</ele>
        <time>2016-09-03T09:31:29Z</time>
      </trkpt>
      <trkpt lat="47.45217" lon="6.58996">
        <ele>293</ele>
        <time>2016-09-03T09:31:31Z</time>
      </trkpt>
      <trkpt lat="47.45212" lon="6.59015">
        <ele>294</ele>
        <time>2016-09-03T09:31:33Z</time>
      </trkpt>
      <trkpt lat="47.45214" lon="6.59047">
        <ele>294</ele>
        <time>2016-09-03T09:31:36Z</time>
      </trkpt>
      <trkpt lat="47.45216" lon="6.59069">
        <ele>294</ele>
        <time>2016-09-03T09:31:38Z</time>
      </trkpt>
      <trkpt lat="47.45215" lon="6.59091">
        <ele>294</ele>
        <time>2016-09-03T09:31:40Z</time>
      </trkpt>
      <trkpt lat="47.45213" lon="6.59114">
        <ele>294</ele>
        <time>2016-09-03T09:31:42Z</time>
      </trkpt>
      <trkpt lat="47.45212" lon="6.59135">
        <ele>294</ele>
        <time>2016-09-03T09:31:44Z</time>
      </trkpt>
      <trkpt lat="47.45211" lon="6.59145">
        <ele>294</ele>
        <time>2016-09-03T09:31:45Z</time>
      </trkpt>
      <trkpt lat="47.45207" lon="6.59174">
        <ele>294</ele>
        <time>2016-09-03T09:31:48Z</time>
      </trkpt>
      <trkpt lat="47.45206" lon="6.59185">
        <ele>294</ele>
        <time>2016-09-03T09:31:49Z</time>
      </trkpt>
      <trkpt lat="47.45202" lon="6.59203">
        <ele>294</ele>
        <time>2016-09-03T09:31:51Z</time>
      </trkpt>
      <trkpt lat="47.452" lon="6.59222">
        <ele>294</ele>
        <time>2016-09-03T09:31:53Z</time>
      </trkpt>
      <trkpt lat="47.45196" lon="6.59241">
        <ele>294</ele>
        <time>2016-09-03T09:31:55Z</time>
      </trkpt>
      <trkpt lat="47.45191" lon="6.5926">
        <ele>295</ele>
        <time>2016-09-03T09:31:57Z</time>
      </trkpt>
      <trkpt lat="47.45186" lon="6.5928">
        <ele>295</ele>
        <time>2016-09-03T09:31:59Z</time>
      </trkpt>
      <trkpt lat="47.45179" lon="6.593">
        <ele>295</ele>
        <time>2016-09-03T09:32:01Z</time>
      </trkpt>
      <trkpt lat="47.45173" lon="6.59318">
        <ele>294</ele>
        <time>2016-09-03T09:32:03Z</time>
      </trkpt>
      <trkpt lat="47.45167" lon="6.59337">
        <ele>295</ele>
        <time>2016-09-03T09:32:05Z</time>
      </trkpt>
      <trkpt lat="47.45161" lon="6.59356">
        <ele>295</ele>
        <time>2016-09-03T09:32:07Z</time>
      </trkpt>
      <trkpt lat="47.45152" lon="6.59373">
        <ele>295</ele>
        <time>2016-09-03T09:32:09Z</time>
      </trkpt>
      <trkpt lat="47.45144" lon="6.59389">
        <ele>295</ele>
        <time>2016-09-03T09:32:11Z</time>
      </trkpt>
      <trkpt lat="47.45131" lon="6.59412">
        <ele>295</ele>
        <time>2016-09-03T09:32:14Z</time>
      </trkpt>
      <trkpt lat="47.45121" lon="6.59424">
        <ele>296</ele>
        <time>2016-09-03T09:32:16Z</time>
      </trkpt>
      <trkpt lat="47.45109" lon="6.59433">
        <ele>298</ele>
        <time>2016-09-03T09:32:18Z</time>
      </trkpt>
      <trkpt lat="47.45103" lon="6.59438">
        <ele>299</ele>
        <time>2016-09-03T09:32:19Z</time>
      </trkpt>
      <trkpt lat="47.45095" lon="6.59461">
        <ele>299</ele>
        <time>2016-09-03T09:32:22Z</time>
      </trkpt>
      <trkpt lat="47.45091" lon="6.59467">
        <ele>299</ele>
        <time>2016-09-03T09:32:23Z</time>
      </trkpt>
      <trkpt lat="47.45083" lon="6.59479">
        <ele>299</ele>
        <time>2016-09-03T09:32:25Z</time>
      </trkpt>
      <trkpt lat="47.45071" lon="6.59491">
        <ele>301</ele>
        <time>2016-09-03T09:32:27Z</time>
      </trkpt>
      <trkpt lat="47.4506" lon="6.59502">
        <ele>301</ele>
        <time>2016-09-03T09:32:29Z</time>
      </trkpt>
      <trkpt lat="47.45048" lon="6.59513">
        <ele>301</ele>
        <time>2016-09-03T09:32:31Z</time>
      </trkpt>
      <trkpt lat="47.45036" lon="6.59525">
        <ele>301</ele>
        <time>2016-09-03T09:32:33Z</time>
      </trkpt>
      <trkpt lat="47.45017" lon="6.59538">
        <ele>302</ele>
        <time>2016-09-03T09:32:36Z</time>
      </trkpt>
      <trkpt lat="47.45011" lon="6.59544">
        <ele>301</ele>
        <time>2016-09-03T09:32:37Z</time>
      </trkpt>
      <trkpt lat="47.44999" lon="6.59554">
        <ele>301</ele>
        <time>2016-09-03T09:32:39Z</time>
      </trkpt>
      <trkpt lat="47.44987" lon="6.59564">
        <ele>301</ele>
        <time>2016-09-03T09:32:41Z</time>
      </trkpt>
      <trkpt lat="47.44969" lon="6.59573">
        <ele>302</ele>
        <time>2016-09-03T09:32:44Z</time>
      </trkpt>
      <trkpt lat="47.44958" lon="6.59585">
        <ele>301</ele>
        <time>2016-09-03T09:32:46Z</time>
      </trkpt>
      <trkpt lat="47.44953" lon="6.59589">
        <ele>301</ele>
        <time>2016-09-03T09:32:47Z</time>
      </trkpt>
      <trkpt lat="47.4494" lon="6.59598">
        <ele>302</ele>
        <time>2016-09-03T09:32:49Z</time>
      </trkpt>
      <trkpt lat="47.44928" lon="6.59607">
        <ele>302</ele>
        <time>2016-09-03T09:32:51Z</time>
      </trkpt>
      <trkpt lat="47.44914" lon="6.59608">
        <ele>303</ele>
        <time>2016-09-03T09:32:53Z</time>
      </trkpt>
      <trkpt lat="47.44902" lon="6.59619">
        <ele>303</ele>
        <time>2016-09-03T09:32:55Z</time>
      </trkpt>
      <trkpt lat="47.4489" lon="6.59628">
        <ele>304</ele>
        <time>2016-09-03T09:32:57Z</time>
      </trkpt>
      <trkpt lat="47.44877" lon="6.59636">
        <ele>304</ele>
        <time>2016-09-03T09:32:59Z</time>
      </trkpt>
      <trkpt lat="47.44858" lon="6.59646">
        <ele>305</ele>
        <time>2016-09-03T09:33:02Z</time>
      </trkpt>
      <trkpt lat="47.44852" lon="6.5965">
        <ele>306</ele>
        <time>2016-09-03T09:33:03Z</time>
      </trkpt>
      <trkpt lat="47.44839" lon="6.59661">
        <ele>305</ele>
        <time>2016-09-03T09:33:05Z</time>
      </trkpt>
      <trkpt lat="47.44826" lon="6.59668">
        <ele>305</ele>
        <time>2016-09-03T09:33:07Z</time>
      </trkpt>
      <trkpt lat="47.44813" lon="6.59676">
        <ele>306</ele>
        <time>2016-09-03T09:33:09Z</time>
      </trkpt>
      <trkpt lat="47.44799" lon="6.59682">
        <ele>306</ele>
        <time>2016-09-03T09:33:11Z</time>
      </trkpt>
      <trkpt lat="47.44786" lon="6.59687">
        <ele>307</ele>
        <time>2016-09-03T09:33:13Z</time>
      </trkpt>
      <trkpt lat="47.44773" lon="6.59691">
        <ele>308</ele>
        <time>2016-09-03T09:33:15Z</time>
      </trkpt>
      <trkpt lat="47.4476" lon="6.59698">
        <ele>309</ele>
        <time>2016-09-03T09:33:17Z</time>
      </trkpt>
      <trkpt lat="47.44747" lon="6.59702">
        <ele>309</ele>
        <time>2016-09-03T09:33:19Z</time>
      </trkpt>
      <trkpt lat="47.44734" lon="6.59708">
        <ele>309</ele>
        <time>2016-09-03T09:33:21Z</time>
      </trkpt>
      <trkpt lat="47.4472" lon="6.59713">
        <ele>309</ele>
        <time>2016-09-03T09:33:23Z</time>
      </trkpt>
      <trkpt lat="47.44706" lon="6.59715">
        <ele>310</ele>
        <time>2016-09-03T09:33:25Z</time>
      </trkpt>
      <trkpt lat="47.44694" lon="6.59718">
        <ele>310</ele>
        <time>2016-09-03T09:33:27Z</time>
      </trkpt>
      <trkpt lat="47.4468" lon="6.5972">
        <ele>310</ele>
        <time>2016-09-03T09:33:29Z</time>
      </trkpt>
      <trkpt lat="47.44665" lon="6.5972">
        <ele>310</ele>
        <time>2016-09-03T09:33:31Z</time>
      </trkpt>
      <trkpt lat="47.44651" lon="6.5972">
        <ele>311</ele>
        <time>2016-09-03T09:33:33Z</time>
      </trkpt>
      <trkpt lat="47.44637" lon="6.59722">
        <ele>311</ele>
        <time>2016-09-03T09:33:35Z</time>
      </trkpt>
      <trkpt lat="47.44622" lon="6.5972">
        <ele>312</ele>
        <time>2016-09-03T09:33:37Z</time>
      </trkpt>
      <trkpt lat="47.4461" lon="6.59719">
        <ele>313</ele>
        <time>2016-09-03T09:33:39Z</time>
      </trkpt>
      <trkpt lat="47.44594" lon="6.59717">
        <ele>314</ele>
        <time>2016-09-03T09:33:41Z</time>
      </trkpt>
      <trkpt lat="47.44581" lon="6.59715">
        <ele>316</ele>
        <time>2016-09-03T09:33:43Z</time>
      </trkpt>
      <trkpt lat="47.44562" lon="6.59712">
        <ele>318</ele>
        <time>2016-09-03T09:33:46Z</time>
      </trkpt>
      <trkpt lat="47.44549" lon="6.59709">
        <ele>320</ele>
        <time>2016-09-03T09:33:48Z</time>
      </trkpt>
      <trkpt lat="47.44541" lon="6.5971">
        <ele>320</ele>
        <time>2016-09-03T09:33:49Z</time>
      </trkpt>
      <trkpt lat="47.44525" lon="6.59709">
        <ele>320</ele>
        <time>2016-09-03T09:33:51Z</time>
      </trkpt>
      <trkpt lat="47.44502" lon="6.59708">
        <ele>319</ele>
        <time>2016-09-03T09:33:54Z</time>
      </trkpt>
      <trkpt lat="47.44496" lon="6.59708">
        <ele>319</ele>
        <time>2016-09-03T09:33:55Z</time>
      </trkpt>
      <trkpt lat="47.44482" lon="6.59708">
        <ele>318</ele>
        <time>2016-09-03T09:33:57Z</time>
      </trkpt>
      <trkpt lat="47.44461" lon="6.59709">
        <ele>318</ele>
        <time>2016-09-03T09:34:00Z</time>
      </trkpt>
      <trkpt lat="47.44455" lon="6.5971">
        <ele>318</ele>
        <time>2016-09-03T09:34:01Z</time>
      </trkpt>
      <trkpt lat="47.44439" lon="6.59711">
        <ele>317</ele>
        <time>2016-09-03T09:34:03Z</time>
      </trkpt>
      <trkpt lat="47.44424" lon="6.59711">
        <ele>318</ele>
        <time>2016-09-03T09:34:05Z</time>
      </trkpt>
      <trkpt lat="47.44412" lon="6.59711">
        <ele>319</ele>
        <time>2016-09-03T09:34:07Z</time>
      </trkpt>
      <trkpt lat="47.444" lon="6.59714">
        <ele>319</ele>
        <time>2016-09-03T09:34:09Z</time>
      </trkpt>
      <trkpt lat="47.44379" lon="6.59718">
        <ele>319</ele>
        <time>2016-09-03T09:34:12Z</time>
      </trkpt>
      <trkpt lat="47.44371" lon="6.5972">
        <ele>318</ele>
        <time>2016-09-03T09:34:13Z</time>
      </trkpt>
      <trkpt lat="47.44358" lon="6.59718">
        <ele>320</ele>
        <time>2016-09-03T09:34:15Z</time>
      </trkpt>
      <trkpt lat="47.44344" lon="6.59718">
        <ele>321</ele>
        <time>2016-09-03T09:34:17Z</time>
      </trkpt>
      <trkpt lat="47.44328" lon="6.59721">
        <ele>321</ele>
        <time>2016-09-03T09:34:19Z</time>
      </trkpt>
      <trkpt lat="47.44316" lon="6.59726">
        <ele>322</ele>
        <time>2016-09-03T09:34:21Z</time>
      </trkpt>
      <trkpt lat="47.44303" lon="6.59728">
        <ele>322</ele>
        <time>2016-09-03T09:34:23Z</time>
      </trkpt>
      <trkpt lat="47.44284" lon="6.59733">
        <ele>321</ele>
        <time>2016-09-03T09:34:26Z</time>
      </trkpt>
      <trkpt lat="47.44278" lon="6.59734">
        <ele>321</ele>
        <time>2016-09-03T09:34:27Z</time>
      </trkpt>
      <trkpt lat="47.44263" lon="6.59736">
        <ele>321</ele>
        <time>2016-09-03T09:34:29Z</time>
      </trkpt>
      <trkpt lat="47.4425" lon="6.59739">
        <ele>321</ele>
        <time>2016-09-03T09:34:31Z</time>
      </trkpt>
      <trkpt lat="47.44236" lon="6.5974">
        <ele>321</ele>
        <time>2016-09-03T09:34:33Z</time>
      </trkpt>
      <trkpt lat="47.4422" lon="6.59742">
        <ele>320</ele>
        <time>2016-09-03T09:34:35Z</time>
      </trkpt>
      <trkpt lat="47.44206" lon="6.59745">
        <ele>319</ele>
        <time>2016-09-03T09:34:37Z</time>
      </trkpt>
      <trkpt lat="47.44192" lon="6.59749">
        <ele>318</ele>
        <time>2016-09-03T09:34:39Z</time>
      </trkpt>
      <trkpt lat="47.44178" lon="6.5975">
        <ele>317</ele>
        <time>2016-09-03T09:34:41Z</time>
      </trkpt>
      <trkpt lat="47.44153" lon="6.59751">
        <ele>317</ele>
        <time>2016-09-03T09:34:44Z</time>
      </trkpt>
      <trkpt lat="47.44146" lon="6.59752">
        <ele>317</ele>
        <time>2016-09-03T09:34:45Z</time>
      </trkpt>
      <trkpt lat="47.44127" lon="6.59758">
        <ele>315</ele>
        <time>2016-09-03T09:34:48Z</time>
      </trkpt>
      <trkpt lat="47.44121" lon="6.59758">
        <ele>314</ele>
        <time>2016-09-03T09:34:49Z</time>
      </trkpt>
      <trkpt lat="47.44106" lon="6.59762">
        <ele>312</ele>
        <time>2016-09-03T09:34:51Z</time>
      </trkpt>
      <trkpt lat="47.44093" lon="6.59766">
        <ele>310</ele>
        <time>2016-09-03T09:34:53Z</time>
      </trkpt>
      <trkpt lat="47.44072" lon="6.59773">
        <ele>308</ele>
        <time>2016-09-03T09:34:56Z</time>
      </trkpt>
      <trkpt lat="47.44066" lon="6.59774">
        <ele>307</ele>
        <time>2016-09-03T09:34:57Z</time>
      </trkpt>
      <trkpt lat="47.44045" lon="6.59777">
        <ele>306</ele>
        <time>2016-09-03T09:35:00Z</time>
      </trkpt>
      <trkpt lat="47.44031" lon="6.59779">
        <ele>305</ele>
        <time>2016-09-03T09:35:02Z</time>
      </trkpt>
      <trkpt lat="47.44024" lon="6.59781">
        <ele>304</ele>
        <time>2016-09-03T09:35:03Z</time>
      </trkpt>
      <trkpt lat="47.44009" lon="6.59783">
        <ele>304</ele>
        <time>2016-09-03T09:35:05Z</time>
      </trkpt>
      <trkpt lat="47.43995" lon="6.59785">
        <ele>303</ele>
        <time>2016-09-03T09:35:07Z</time>
      </trkpt>
      <trkpt lat="47.43981" lon="6.59786">
        <ele>303</ele>
        <time>2016-09-03T09:35:09Z</time>
      </trkpt>
      <trkpt lat="47.43967" lon="6.59788">
        <ele>303</ele>
        <time>2016-09-03T09:35:11Z</time>
      </trkpt>
      <trkpt lat="47.43952" lon="6.59792">
        <ele>302</ele>
        <time>2016-09-03T09:35:13Z</time>
      </trkpt>
      <trkpt lat="47.43931" lon="6.59794">
        <ele>302</ele>
        <time>2016-09-03T09:35:16Z</time>
      </trkpt>
      <trkpt lat="47.43923" lon="6.59796">
        <ele>302</ele>
        <time>2016-09-03T09:35:17Z</time>
      </trkpt>
      <trkpt lat="47.43901" lon="6.59801">
        <ele>302</ele>
        <time>2016-09-03T09:35:20Z</time>
      </trkpt>
      <trkpt lat="47.43887" lon="6.59801">
        <ele>302</ele>
        <time>2016-09-03T09:35:22Z</time>
      </trkpt>
      <trkpt lat="47.43873" lon="6.59804">
        <ele>302</ele>
        <time>2016-09-03T09:35:24Z</time>
      </trkpt>
      <trkpt lat="47.43865" lon="6.59802">
        <ele>303</ele>
        <time>2016-09-03T09:35:25Z</time>
      </trkpt>
      <trkpt lat="47.43845" lon="6.59805">
        <ele>303</ele>
        <time>2016-09-03T09:35:28Z</time>
      </trkpt>
      <trkpt lat="47.43839" lon="6.59806">
        <ele>304</ele>
        <time>2016-09-03T09:35:29Z</time>
      </trkpt>
      <trkpt lat="47.43825" lon="6.59813">
        <ele>304</ele>
        <time>2016-09-03T09:35:31Z</time>
      </trkpt>
      <trkpt lat="47.43804" lon="6.59818">
        <ele>305</ele>
        <time>2016-09-03T09:35:34Z</time>
      </trkpt>
      <trkpt lat="47.43798" lon="6.59822">
        <ele>304</ele>
        <time>2016-09-03T09:35:35Z</time>
      </trkpt>
      <trkpt lat="47.43782" lon="6.59827">
        <ele>306</ele>
        <time>2016-09-03T09:35:37Z</time>
      </trkpt>
      <trkpt lat="47.43767" lon="6.59831">
        <ele>307</ele>
        <time>2016-09-03T09:35:39Z</time>
      </trkpt>
      <trkpt lat="47.43753" lon="6.59835">
        <ele>308</ele>
        <time>2016-09-03T09:35:41Z</time>
      </trkpt>
      <trkpt lat="47.43741" lon="6.59841">
        <ele>308</ele>
        <time>2016-09-03T09:35:43Z</time>
      </trkpt>
      <trkpt lat="47.43728" lon="6.59844">
        <ele>309</ele>
        <time>2016-09-03T09:35:45Z</time>
      </trkpt>
      <trkpt lat="47.43713" lon="6.59846">
        <ele>310</ele>
        <time>2016-09-03T09:35:47Z</time>
      </trkpt>
      <trkpt lat="47.43699" lon="6.5985">
        <ele>312</ele>
        <time>2016-09-03T09:35:49Z</time>
      </trkpt>
      <trkpt lat="47.43678" lon="6.59864">
        <ele>312</ele>
        <time>2016-09-03T09:35:52Z</time>
      </trkpt>
      <trkpt lat="47.43671" lon="6.59867">
        <ele>312</ele>
        <time>2016-09-03T09:35:53Z</time>
      </trkpt>
      <trkpt lat="47.43656" lon="6.59874">
        <ele>313</ele>
        <time>2016-09-03T09:35:55Z</time>
      </trkpt>
      <trkpt lat="47.43643" lon="6.59879">
        <ele>314</ele>
        <time>2016-09-03T09:35:57Z</time>
      </trkpt>
      <trkpt lat="47.4363" lon="6.59889">
        <ele>313</ele>
        <time>2016-09-03T09:35:59Z</time>
      </trkpt>
      <trkpt lat="47.43615" lon="6.59895">
        <ele>314</ele>
        <time>2016-09-03T09:36:01Z</time>
      </trkpt>
      <trkpt lat="47.43601" lon="6.59904">
        <ele>314</ele>
        <time>2016-09-03T09:36:03Z</time>
      </trkpt>
      <trkpt lat="47.43589" lon="6.59912">
        <ele>314</ele>
        <time>2016-09-03T09:36:05Z</time>
      </trkpt>
      <trkpt lat="47.43576" lon="6.59918">
        <ele>315</ele>
        <time>2016-09-03T09:36:07Z</time>
      </trkpt>
      <trkpt lat="47.43563" lon="6.59926">
        <ele>315</ele>
        <time>2016-09-03T09:36:09Z</time>
      </trkpt>
      <trkpt lat="47.43552" lon="6.59932">
        <ele>316</ele>
        <time>2016-09-03T09:36:11Z</time>
      </trkpt>
      <trkpt lat="47.43535" lon="6.59942">
        <ele>315</ele>
        <time>2016-09-03T09:36:14Z</time>
      </trkpt>
      <trkpt lat="47.43528" lon="6.59945">
        <ele>315</ele>
        <time>2016-09-03T09:36:15Z</time>
      </trkpt>
      <trkpt lat="47.43516" lon="6.59953">
        <ele>315</ele>
        <time>2016-09-03T09:36:17Z</time>
      </trkpt>
      <trkpt lat="47.43501" lon="6.59961">
        <ele>316</ele>
        <time>2016-09-03T09:36:19Z</time>
      </trkpt>
      <trkpt lat="47.43482" lon="6.59972">
        <ele>316</ele>
        <time>2016-09-03T09:36:22Z</time>
      </trkpt>
      <trkpt lat="47.43475" lon="6.59976">
        <ele>315</ele>
        <time>2016-09-03T09:36:23Z</time>
      </trkpt>
      <trkpt lat="47.43462" lon="6.59983">
        <ele>315</ele>
        <time>2016-09-03T09:36:25Z</time>
      </trkpt>
      <trkpt lat="47.43439" lon="6.59993">
        <ele>317</ele>
        <time>2016-09-03T09:36:28Z</time>
      </trkpt>
      <trkpt lat="47.43432" lon="6.59997">
        <ele>318</ele>
        <time>2016-09-03T09:36:29Z</time>
      </trkpt>
      <trkpt lat="47.43411" lon="6.60009">
        <ele>318</ele>
        <time>2016-09-03T09:36:32Z</time>
      </trkpt>
      <trkpt lat="47.43405" lon="6.60015">
        <ele>317</ele>
        <time>2016-09-03T09:36:33Z</time>
      </trkpt>
      <trkpt lat="47.43391" lon="6.60024">
        <ele>317</ele>
        <time>2016-09-03T09:36:35Z</time>
      </trkpt>
      <trkpt lat="47.43378" lon="6.60037">
        <ele>317</ele>
        <time>2016-09-03T09:36:37Z</time>
      </trkpt>
      <trkpt lat="47.43367" lon="6.6005">
        <ele>315</ele>
        <time>2016-09-03T09:36:39Z</time>
      </trkpt>
      <trkpt lat="47.43354" lon="6.60061">
        <ele>314</ele>
        <time>2016-09-03T09:36:41Z</time>
      </trkpt>
      <trkpt lat="47.43334" lon="6.60078">
        <ele>314</ele>
        <time>2016-09-03T09:36:44Z</time>
      </trkpt>
      <trkpt lat="47.43322" lon="6.60095">
        <ele>310</ele>
        <time>2016-09-03T09:36:46Z</time>
      </trkpt>
      <trkpt lat="47.43317" lon="6.60101">
        <ele>310</ele>
        <time>2016-09-03T09:36:47Z</time>
      </trkpt>
      <trkpt lat="47.43308" lon="6.60131">
        <ele>303</ele>
        <time>2016-09-03T09:36:50Z</time>
      </trkpt>
      <trkpt lat="47.43302" lon="6.60147">
        <ele>300</ele>
        <time>2016-09-03T09:36:52Z</time>
      </trkpt>
      <trkpt lat="47.43294" lon="6.60165">
        <ele>299</ele>
        <time>2016-09-03T09:36:54Z</time>
      </trkpt>
      <trkpt lat="47.4329" lon="6.60175">
        <ele>297</ele>
        <time>2016-09-03T09:36:55Z</time>
      </trkpt>
      <trkpt lat="47.4328" lon="6.60192">
        <ele>297</ele>
        <time>2016-09-03T09:36:57Z</time>
      </trkpt>
      <trkpt lat="47.43273" lon="6.60211">
        <ele>295</ele>
        <time>2016-09-03T09:36:59Z</time>
      </trkpt>
      <trkpt lat="47.43262" lon="6.60238">
        <ele>295</ele>
        <time>2016-09-03T09:37:02Z</time>
      </trkpt>
      <trkpt lat="47.43258" lon="6.60247">
        <ele>295</ele>
        <time>2016-09-03T09:37:03Z</time>
      </trkpt>
      <trkpt lat="47.4325" lon="6.60266">
        <ele>294</ele>
        <time>2016-09-03T09:37:05Z</time>
      </trkpt>
      <trkpt lat="47.43243" lon="6.60285">
        <ele>294</ele>
        <time>2016-09-03T09:37:07Z</time>
      </trkpt>
      <trkpt lat="47.43233" lon="6.60305">
        <ele>294</ele>
        <time>2016-09-03T09:37:09Z</time>
      </trkpt>
      <trkpt lat="47.43225" lon="6.60322">
        <ele>294</ele>
        <time>2016-09-03T09:37:11Z</time>
      </trkpt>
      <trkpt lat="47.43215" lon="6.60341">
        <ele>294</ele>
        <time>2016-09-03T09:37:13Z</time>
      </trkpt>
      <trkpt lat="47.43207" lon="6.6036">
        <ele>294</ele>
        <time>2016-09-03T09:37:15Z</time>
      </trkpt>
      <trkpt lat="47.43199" lon="6.60377">
        <ele>294</ele>
        <time>2016-09-03T09:37:17Z</time>
      </trkpt>
      <trkpt lat="47.43191" lon="6.60394">
        <ele>294</ele>
        <time>2016-09-03T09:37:19Z</time>
      </trkpt>
      <trkpt lat="47.4318" lon="6.60423">
        <ele>294</ele>
        <time>2016-09-03T09:37:22Z</time>
      </trkpt>
      <trkpt lat="47.43176" lon="6.60432">
        <ele>294</ele>
        <time>2016-09-03T09:37:23Z</time>
      </trkpt>
      <trkpt lat="47.43169" lon="6.60449">
        <ele>294</ele>
        <time>2016-09-03T09:37:25Z</time>
      </trkpt>
      <trkpt lat="47.43161" lon="6.60468">
        <ele>294</ele>
        <time>2016-09-03T09:37:27Z</time>
      </trkpt>
      <trkpt lat="47.43154" lon="6.60484">
        <ele>294</ele>
        <time>2016-09-03T09:37:29Z</time>
      </trkpt>
      <trkpt lat="47.43145" lon="6.60502">
        <ele>294</ele>
        <time>2016-09-03T09:37:31Z</time>
      </trkpt>
      <trkpt lat="47.43136" lon="6.6052">
        <ele>295</ele>
        <time>2016-09-03T09:37:33Z</time>
      </trkpt>
      <trkpt lat="47.43124" lon="6.60548">
        <ele>295</ele>
        <time>2016-09-03T09:37:36Z</time>
      </trkpt>
      <trkpt lat="47.4312" lon="6.60557">
        <ele>295</ele>
        <time>2016-09-03T09:37:37Z</time>
      </trkpt>
      <trkpt lat="47.43112" lon="6.60575">
        <ele>295</ele>
        <time>2016-09-03T09:37:39Z</time>
      </trkpt>
      <trkpt lat="47.43105" lon="6.60594">
        <ele>295</ele>
        <time>2016-09-03T09:37:41Z</time>
      </trkpt>
      <trkpt lat="47.43097" lon="6.60612">
        <ele>295</ele>
        <time>2016-09-03T09:37:43Z</time>
      </trkpt>
      <trkpt lat="47.43085" lon="6.60637">
        <ele>295</ele>
        <time>2016-09-03T09:37:46Z</time>
      </trkpt>
      <trkpt lat="47.43076" lon="6.60655">
        <ele>295</ele>
        <time>2016-09-03T09:37:48Z</time>
      </trkpt>
      <trkpt lat="47.43073" lon="6.60664">
        <ele>295</ele>
        <time>2016-09-03T09:37:49Z</time>
      </trkpt>
      <trkpt lat="47.4306" lon="6.6069">
        <ele>295</ele>
        <time>2016-09-03T09:37:52Z</time>
      </trkpt>
      <trkpt lat="47.43056" lon="6.60699">
        <ele>295</ele>
        <time>2016-09-03T09:37:53Z</time>
      </trkpt>
      <trkpt lat="47.43048" lon="6.60713">
        <ele>295</ele>
        <time>2016-09-03T09:37:55Z</time>
      </trkpt>
      <trkpt lat="47.43041" lon="6.60731">
        <ele>295</ele>
        <time>2016-09-03T09:37:57Z</time>
      </trkpt>
      <trkpt lat="47.43029" lon="6.6076">
        <ele>295</ele>
        <time>2016-09-03T09:38:00Z</time>
      </trkpt>
      <trkpt lat="47.43025" lon="6.6077">
        <ele>295</ele>
        <time>2016-09-03T09:38:01Z</time>
      </trkpt>
      <trkpt lat="47.43019" lon="6.60788">
        <ele>295</ele>
        <time>2016-09-03T09:38:03Z</time>
      </trkpt>
      <trkpt lat="47.43012" lon="6.60805">
        <ele>295</ele>
        <time>2016-09-03T09:38:05Z</time>
      </trkpt>
      <trkpt lat="47.43005" lon="6.60822">
        <ele>295</ele>
        <time>2016-09-03T09:38:07Z</time>
      </trkpt>
      <trkpt lat="47.42995" lon="6.60842">
        <ele>295</ele>
        <time>2016-09-03T09:38:09Z</time>
      </trkpt>
      <trkpt lat="47.42985" lon="6.60865">
        <ele>295</ele>
        <time>2016-09-03T09:38:12Z</time>
      </trkpt>
      <trkpt lat="47.42977" lon="6.60882">
        <ele>295</ele>
        <time>2016-09-03T09:38:14Z</time>
      </trkpt>
      <trkpt lat="47.42969" lon="6.60903">
        <ele>295</ele>
        <time>2016-09-03T09:38:16Z</time>
      </trkpt>
      <trkpt lat="47.42966" lon="6.60911">
        <ele>295</ele>
        <time>2016-09-03T09:38:17Z</time>
      </trkpt>
      <trkpt lat="47.42952" lon="6.60937">
        <ele>295</ele>
        <time>2016-09-03T09:38:20Z</time>
      </trkpt>
      <trkpt lat="47.42945" lon="6.60956">
        <ele>296</ele>
        <time>2016-09-03T09:38:22Z</time>
      </trkpt>
      <trkpt lat="47.4294" lon="6.60966">
        <ele>296</ele>
        <time>2016-09-03T09:38:23Z</time>
      </trkpt>
      <trkpt lat="47.42932" lon="6.60983">
        <ele>295</ele>
        <time>2016-09-03T09:38:25Z</time>
      </trkpt>
      <trkpt lat="47.42925" lon="6.61002">
        <ele>295</ele>
        <time>2016-09-03T09:38:27Z</time>
      </trkpt>
      <trkpt lat="47.42917" lon="6.6102">
        <ele>295</ele>
        <time>2016-09-03T09:38:29Z</time>
      </trkpt>
      <trkpt lat="47.4291" lon="6.61039">
        <ele>295</ele>
        <time>2016-09-03T09:38:31Z</time>
      </trkpt>
      <trkpt lat="47.42899" lon="6.61068">
        <ele>295</ele>
        <time>2016-09-03T09:38:34Z</time>
      </trkpt>
      <trkpt lat="47.42895" lon="6.61077">
        <ele>295</ele>
        <time>2016-09-03T09:38:35Z</time>
      </trkpt>
      <trkpt lat="47.42888" lon="6.61094">
        <ele>295</ele>
        <time>2016-09-03T09:38:37Z</time>
      </trkpt>
      <trkpt lat="47.42881" lon="6.61112">
        <ele>295</ele>
        <time>2016-09-03T09:38:39Z</time>
      </trkpt>
      <trkpt lat="47.42872" lon="6.6113">
        <ele>295</ele>
        <time>2016-09-03T09:38:41Z</time>
      </trkpt>
      <trkpt lat="47.42867" lon="6.61145">
        <ele>295</ele>
        <time>2016-09-03T09:38:43Z</time>
      </trkpt>
      <trkpt lat="47.4286" lon="6.61159">
        <ele>295</ele>
        <time>2016-09-03T09:38:45Z</time>
      </trkpt>
      <trkpt lat="47.42853" lon="6.61183">
        <ele>295</ele>
        <time>2016-09-03T09:38:48Z</time>
      </trkpt>
      <trkpt lat="47.42849" lon="6.6119">
        <ele>295</ele>
        <time>2016-09-03T09:38:49Z</time>
      </trkpt>
      <trkpt lat="47.42843" lon="6.61203">
        <ele>295</ele>
        <time>2016-09-03T09:38:51Z</time>
      </trkpt>
      <trkpt lat="47.42838" lon="6.61219">
        <ele>295</ele>
        <time>2016-09-03T09:38:53Z</time>
      </trkpt>
      <trkpt lat="47.42832" lon="6.61236">
        <ele>295</ele>
        <time>2016-09-03T09:38:55Z</time>
      </trkpt>
      <trkpt lat="47.42825" lon="6.61253">
        <ele>295</ele>
        <time>2016-09-03T09:38:57Z</time>
      </trkpt>
      <trkpt lat="47.42821" lon="6.61271">
        <ele>295</ele>
        <time>2016-09-03T09:38:59Z</time>
      </trkpt>
      <trkpt lat="47.42819" lon="6.61288">
        <ele>295</ele>
        <time>2016-09-03T09:39:01Z</time>
      </trkpt>
      <trkpt lat="47.42812" lon="6.61301">
        <ele>295</ele>
        <time>2016-09-03T09:39:04Z</time>
      </trkpt>
      <trkpt lat="47.42808" lon="6.61301">
        <ele>295</ele>
        <time>2016-09-03T09:39:05Z</time>
      </trkpt>
      <trkpt lat="47.42804" lon="6.613">
        <ele>295</ele>
        <time>2016-09-03T09:39:07Z</time>
      </trkpt>
      <trkpt lat="47.428" lon="6.61298">
        <ele>295</ele>
        <time>2016-09-03T09:39:09Z</time>
      </trkpt>
      <trkpt lat="47.42795" lon="6.61295">
        <ele>295</ele>
        <time>2016-09-03T09:39:11Z</time>
      </trkpt>
      <trkpt lat="47.42787" lon="6.61298">
        <ele>295</ele>
        <time>2016-09-03T09:39:13Z</time>
      </trkpt>
      <trkpt lat="47.42781" lon="6.61311">
        <ele>295</ele>
        <time>2016-09-03T09:39:15Z</time>
      </trkpt>
      <trkpt lat="47.42776" lon="6.6133">
        <ele>296</ele>
        <time>2016-09-03T09:39:17Z</time>
      </trkpt>
      <trkpt lat="47.4277" lon="6.61349">
        <ele>296</ele>
        <time>2016-09-03T09:39:19Z</time>
      </trkpt>
      <trkpt lat="47.42761" lon="6.61368">
        <ele>296</ele>
        <time>2016-09-03T09:39:21Z</time>
      </trkpt>
      <trkpt lat="47.42754" lon="6.61389">
        <ele>296</ele>
        <time>2016-09-03T09:39:23Z</time>
      </trkpt>
      <trkpt lat="47.42746" lon="6.61407">
        <ele>297</ele>
        <time>2016-09-03T09:39:25Z</time>
      </trkpt>
      <trkpt lat="47.42741" lon="6.61427">
        <ele>297</ele>
        <time>2016-09-03T09:39:27Z</time>
      </trkpt>
      <trkpt lat="47.42735" lon="6.61446">
        <ele>297</ele>
        <time>2016-09-03T09:39:29Z</time>
      </trkpt>
      <trkpt lat="47.42726" lon="6.61477">
        <ele>297</ele>
        <time>2016-09-03T09:39:32Z</time>
      </trkpt>
      <trkpt lat="47.42723" lon="6.61486">
        <ele>297</ele>
        <time>2016-09-03T09:39:33Z</time>
      </trkpt>
      <trkpt lat="47.42717" lon="6.61507">
        <ele>297</ele>
        <time>2016-09-03T09:39:35Z</time>
      </trkpt>
      <trkpt lat="47.42708" lon="6.61541">
        <ele>298</ele>
        <time>2016-09-03T09:39:38Z</time>
      </trkpt>
      <trkpt lat="47.42706" lon="6.6155">
        <ele>298</ele>
        <time>2016-09-03T09:39:39Z</time>
      </trkpt>
      <trkpt lat="47.427" lon="6.61569">
        <ele>298</ele>
        <time>2016-09-03T09:39:41Z</time>
      </trkpt>
      <trkpt lat="47.42694" lon="6.61589">
        <ele>298</ele>
        <time>2016-09-03T09:39:43Z</time>
      </trkpt>
      <trkpt lat="47.42686" lon="6.61619">
        <ele>298</ele>
        <time>2016-09-03T09:39:46Z</time>
      </trkpt>
      <trkpt lat="47.42684" lon="6.61629">
        <ele>298</ele>
        <time>2016-09-03T09:39:47Z</time>
      </trkpt>
      <trkpt lat="47.42678" lon="6.61649">
        <ele>298</ele>
        <time>2016-09-03T09:39:49Z</time>
      </trkpt>
      <trkpt lat="47.42674" lon="6.6167">
        <ele>298</ele>
        <time>2016-09-03T09:39:51Z</time>
      </trkpt>
      <trkpt lat="47.42668" lon="6.61691">
        <ele>298</ele>
        <time>2016-09-03T09:39:53Z</time>
      </trkpt>
      <trkpt lat="47.42664" lon="6.61711">
        <ele>297</ele>
        <time>2016-09-03T09:39:55Z</time>
      </trkpt>
      <trkpt lat="47.42657" lon="6.61743">
        <ele>297</ele>
        <time>2016-09-03T09:39:58Z</time>
      </trkpt>
      <trkpt lat="47.42654" lon="6.61752">
        <ele>297</ele>
        <time>2016-09-03T09:39:59Z</time>
      </trkpt>
      <trkpt lat="47.42647" lon="6.61787">
        <ele>297</ele>
        <time>2016-09-03T09:40:02Z</time>
      </trkpt>
      <trkpt lat="47.42645" lon="6.61796">
        <ele>297</ele>
        <time>2016-09-03T09:40:03Z</time>
      </trkpt>
      <trkpt lat="47.42641" lon="6.61818">
        <ele>297</ele>
        <time>2016-09-03T09:40:05Z</time>
      </trkpt>
      <trkpt lat="47.42638" lon="6.61841">
        <ele>296</ele>
        <time>2016-09-03T09:40:07Z</time>
      </trkpt>
      <trkpt lat="47.42636" lon="6.61862">
        <ele>296</ele>
        <time>2016-09-03T09:40:09Z</time>
      </trkpt>
      <trkpt lat="47.42634" lon="6.61884">
        <ele>295</ele>
        <time>2016-09-03T09:40:11Z</time>
      </trkpt>
      <trkpt lat="47.42631" lon="6.61904">
        <ele>294</ele>
        <time>2016-09-03T09:40:13Z</time>
      </trkpt>
      <trkpt lat="47.42629" lon="6.61926">
        <ele>294</ele>
        <time>2016-09-03T09:40:15Z</time>
      </trkpt>
      <trkpt lat="47.42626" lon="6.61948">
        <ele>294</ele>
        <time>2016-09-03T09:40:17Z</time>
      </trkpt>
      <trkpt lat="47.42623" lon="6.61968">
        <ele>295</ele>
        <time>2016-09-03T09:40:19Z</time>
      </trkpt>
      <trkpt lat="47.4262" lon="6.62">
        <ele>295</ele>
        <time>2016-09-03T09:40:22Z</time>
      </trkpt>
      <trkpt lat="47.42618" lon="6.62011">
        <ele>295</ele>
        <time>2016-09-03T09:40:23Z</time>
      </trkpt>
      <trkpt lat="47.42617" lon="6.62033">
        <ele>295</ele>
        <time>2016-09-03T09:40:25Z</time>
      </trkpt>
      <trkpt lat="47.42616" lon="6.62057">
        <ele>294</ele>
        <time>2016-09-03T09:40:27Z</time>
      </trkpt>
      <trkpt lat="47.42616" lon="6.62088">
        <ele>294</ele>
        <time>2016-09-03T09:40:30Z</time>
      </trkpt>
      <trkpt lat="47.42616" lon="6.621">
        <ele>294</ele>
        <time>2016-09-03T09:40:31Z</time>
      </trkpt>
      <trkpt lat="47.42616" lon="6.62122">
        <ele>293</ele>
        <time>2016-09-03T09:40:33Z</time>
      </trkpt>
      <trkpt lat="47.42617" lon="6.62141">
        <ele>293</ele>
        <time>2016-09-03T09:40:35Z</time>
      </trkpt>
      <trkpt lat="47.42619" lon="6.62172">
        <ele>293</ele>
        <time>2016-09-03T09:40:38Z</time>
      </trkpt>
      <trkpt lat="47.4262" lon="6.62183">
        <ele>294</ele>
        <time>2016-09-03T09:40:39Z</time>
      </trkpt>
      <trkpt lat="47.42624" lon="6.62218">
        <ele>294</ele>
        <time>2016-09-03T09:40:42Z</time>
      </trkpt>
      <trkpt lat="47.42624" lon="6.62237">
        <ele>295</ele>
        <time>2016-09-03T09:40:44Z</time>
      </trkpt>
      <trkpt lat="47.42626" lon="6.62249">
        <ele>295</ele>
        <time>2016-09-03T09:40:45Z</time>
      </trkpt>
      <trkpt lat="47.42629" lon="6.62281">
        <ele>296</ele>
        <time>2016-09-03T09:40:48Z</time>
      </trkpt>
      <trkpt lat="47.4263" lon="6.62292">
        <ele>296</ele>
        <time>2016-09-03T09:40:49Z</time>
      </trkpt>
      <trkpt lat="47.42633" lon="6.62315">
        <ele>296</ele>
        <time>2016-09-03T09:40:51Z</time>
      </trkpt>
      <trkpt lat="47.42634" lon="6.62337">
        <ele>296</ele>
        <time>2016-09-03T09:40:53Z</time>
      </trkpt>
      <trkpt lat="47.42637" lon="6.62359">
        <ele>296</ele>
        <time>2016-09-03T09:40:55Z</time>
      </trkpt>
      <trkpt lat="47.42639" lon="6.62381">
        <ele>296</ele>
        <time>2016-09-03T09:40:57Z</time>
      </trkpt>
      <trkpt lat="47.42642" lon="6.62401">
        <ele>296</ele>
        <time>2016-09-03T09:40:59Z</time>
      </trkpt>
      <trkpt lat="47.42645" lon="6.62422">
        <ele>296</ele>
        <time>2016-09-03T09:41:01Z</time>
      </trkpt>
      <trkpt lat="47.42648" lon="6.62444">
        <ele>296</ele>
        <time>2016-09-03T09:41:03Z</time>
      </trkpt>
      <trkpt lat="47.42654" lon="6.62466">
        <ele>295</ele>
        <time>2016-09-03T09:41:05Z</time>
      </trkpt>
      <trkpt lat="47.42657" lon="6.62486">
        <ele>295</ele>
        <time>2016-09-03T09:41:07Z</time>
      </trkpt>
      <trkpt lat="47.4266" lon="6.62508">
        <ele>294</ele>
        <time>2016-09-03T09:41:09Z</time>
      </trkpt>
      <trkpt lat="47.42667" lon="6.62539">
        <ele>294</ele>
        <time>2016-09-03T09:41:12Z</time>
      </trkpt>
      <trkpt lat="47.42669" lon="6.6255">
        <ele>294</ele>
        <time>2016-09-03T09:41:13Z</time>
      </trkpt>
      <trkpt lat="47.42672" lon="6.62572">
        <ele>293</ele>
        <time>2016-09-03T09:41:15Z</time>
      </trkpt>
      <trkpt lat="47.42677" lon="6.62592">
        <ele>293</ele>
        <time>2016-09-03T09:41:17Z</time>
      </trkpt>
      <trkpt lat="47.42682" lon="6.62612">
        <ele>293</ele>
        <time>2016-09-03T09:41:19Z</time>
      </trkpt>
      <trkpt lat="47.42686" lon="6.62634">
        <ele>293</ele>
        <time>2016-09-03T09:41:21Z</time>
      </trkpt>
      <trkpt lat="47.42692" lon="6.62654">
        <ele>293</ele>
        <time>2016-09-03T09:41:23Z</time>
      </trkpt>
      <trkpt lat="47.427" lon="6.62684">
        <ele>294</ele>
        <time>2016-09-03T09:41:26Z</time>
      </trkpt>
      <trkpt lat="47.42704" lon="6.62693">
        <ele>294</ele>
        <time>2016-09-03T09:41:27Z</time>
      </trkpt>
      <trkpt lat="47.4271" lon="6.62714">
        <ele>295</ele>
        <time>2016-09-03T09:41:29Z</time>
      </trkpt>
      <trkpt lat="47.42717" lon="6.62732">
        <ele>296</ele>
        <time>2016-09-03T09:41:31Z</time>
      </trkpt>
      <trkpt lat="47.42729" lon="6.62764">
        <ele>296</ele>
        <time>2016-09-03T09:41:34Z</time>
      </trkpt>
      <trkpt lat="47.42733" lon="6.62773">
        <ele>297</ele>
        <time>2016-09-03T09:41:35Z</time>
      </trkpt>
      <trkpt lat="47.4274" lon="6.62793">
        <ele>297</ele>
        <time>2016-09-03T09:41:37Z</time>
      </trkpt>
      <trkpt lat="47.42753" lon="6.62823">
        <ele>297</ele>
        <time>2016-09-03T09:41:40Z</time>
      </trkpt>
      <trkpt lat="47.4276" lon="6.62841">
        <ele>297</ele>
        <time>2016-09-03T09:41:42Z</time>
      </trkpt>
      <trkpt lat="47.42764" lon="6.62849">
        <ele>297</ele>
        <time>2016-09-03T09:41:43Z</time>
      </trkpt>
      <trkpt lat="47.42771" lon="6.62865">
        <ele>297</ele>
        <time>2016-09-03T09:41:45Z</time>
      </trkpt>
      <trkpt lat="47.42781" lon="6.62883">
        <ele>297</ele>
        <time>2016-09-03T09:41:47Z</time>
      </trkpt>
      <trkpt lat="47.42791" lon="6.62899">
        <ele>297</ele>
        <time>2016-09-03T09:41:49Z</time>
      </trkpt>
      <trkpt lat="47.428" lon="6.62915">
        <ele>297</ele>
        <time>2016-09-03T09:41:51Z</time>
      </trkpt>
      <trkpt lat="47.42809" lon="6.62931">
        <ele>297</ele>
        <time>2016-09-03T09:41:53Z</time>
      </trkpt>
      <trkpt lat="47.42818" lon="6.62945">
        <ele>297</ele>
        <time>2016-09-03T09:41:55Z</time>
      </trkpt>
      <trkpt lat="47.42836" lon="6.62966">
        <ele>297</ele>
        <time>2016-09-03T09:41:58Z</time>
      </trkpt>
      <trkpt lat="47.42841" lon="6.62972">
        <ele>297</ele>
        <time>2016-09-03T09:41:59Z</time>
      </trkpt>
      <trkpt lat="47.42852" lon="6.62986">
        <ele>297</ele>
        <time>2016-09-03T09:42:01Z</time>
      </trkpt>
      <trkpt lat="47.42864" lon="6.63">
        <ele>297</ele>
        <time>2016-09-03T09:42:03Z</time>
      </trkpt>
      <trkpt lat="47.42883" lon="6.63018">
        <ele>297</ele>
        <time>2016-09-03T09:42:06Z</time>
      </trkpt>
      <trkpt lat="47.42889" lon="6.63024">
        <ele>297</ele>
        <time>2016-09-03T09:42:07Z</time>
      </trkpt>
      <trkpt lat="47.42902" lon="6.63036">
        <ele>297</ele>
        <time>2016-09-03T09:42:09Z</time>
      </trkpt>
      <trkpt lat="47.42916" lon="6.63049">
        <ele>297</ele>
        <time>2016-09-03T09:42:11Z</time>
      </trkpt>
      <trkpt lat="47.42929" lon="6.63058">
        <ele>296</ele>
        <time>2016-09-03T09:42:13Z</time>
      </trkpt>
      <trkpt lat="47.42944" lon="6.63067">
        <ele>296</ele>
        <time>2016-09-03T09:42:15Z</time>
      </trkpt>
      <trkpt lat="47.42958" lon="6.63078">
        <ele>296</ele>
        <time>2016-09-03T09:42:17Z</time>
      </trkpt>
      <trkpt lat="47.42971" lon="6.63087">
        <ele>297</ele>
        <time>2016-09-03T09:42:19Z</time>
      </trkpt>
      <trkpt lat="47.42985" lon="6.63099">
        <ele>296</ele>
        <time>2016-09-03T09:42:21Z</time>
      </trkpt>
      <trkpt lat="47.43" lon="6.63111">
        <ele>296</ele>
        <time>2016-09-03T09:42:23Z</time>
      </trkpt>
      <trkpt lat="47.43011" lon="6.63122">
        <ele>297</ele>
        <time>2016-09-03T09:42:25Z</time>
      </trkpt>
      <trkpt lat="47.43031" lon="6.63133">
        <ele>297</ele>
        <time>2016-09-03T09:42:28Z</time>
      </trkpt>
      <trkpt lat="47.43039" lon="6.63136">
        <ele>297</ele>
        <time>2016-09-03T09:42:29Z</time>
      </trkpt>
      <trkpt lat="47.43055" lon="6.63141">
        <ele>297</ele>
        <time>2016-09-03T09:42:31Z</time>
      </trkpt>
      <trkpt lat="47.43071" lon="6.63147">
        <ele>297</ele>
        <time>2016-09-03T09:42:33Z</time>
      </trkpt>
      <trkpt lat="47.43086" lon="6.63152">
        <ele>296</ele>
        <time>2016-09-03T09:42:35Z</time>
      </trkpt>
      <trkpt lat="47.43101" lon="6.63155">
        <ele>296</ele>
        <time>2016-09-03T09:42:37Z</time>
      </trkpt>
      <trkpt lat="47.43116" lon="6.63161">
        <ele>296</ele>
        <time>2016-09-03T09:42:39Z</time>
      </trkpt>
      <trkpt lat="47.43139" lon="6.63167">
        <ele>296</ele>
        <time>2016-09-03T09:42:42Z</time>
      </trkpt>
      <trkpt lat="47.43147" lon="6.63168">
        <ele>296</ele>
        <time>2016-09-03T09:42:43Z</time>
      </trkpt>
      <trkpt lat="47.43161" lon="6.63171">
        <ele>296</ele>
        <time>2016-09-03T09:42:45Z</time>
      </trkpt>
      <trkpt lat="47.43177" lon="6.63172">
        <ele>296</ele>
        <time>2016-09-03T09:42:47Z</time>
      </trkpt>
      <trkpt lat="47.43192" lon="6.63174">
        <ele>296</ele>
        <time>2016-09-03T09:42:49Z</time>
      </trkpt>
      <trkpt lat="47.43208" lon="6.63176">
        <ele>296</ele>
        <time>2016-09-03T09:42:51Z</time>
      </trkpt>
      <trkpt lat="47.43222" lon="6.63175">
        <ele>296</ele>
        <time>2016-09-03T09:42:53Z</time>
      </trkpt>
      <trkpt lat="47.43237" lon="6.63175">
        <ele>295</ele>
        <time>2016-09-03T09:42:55Z</time>
      </trkpt>
      <trkpt lat="47.43252" lon="6.63173">
        <ele>295</ele>
        <time>2016-09-03T09:42:57Z</time>
      </trkpt>
      <trkpt lat="47.43267" lon="6.63172">
        <ele>295</ele>
        <time>2016-09-03T09:42:59Z</time>
      </trkpt>
      <trkpt lat="47.43281" lon="6.6317">
        <ele>295</ele>
        <time>2016-09-03T09:43:01Z</time>
      </trkpt>
      <trkpt lat="47.43297" lon="6.63168">
        <ele>295</ele>
        <time>2016-09-03T09:43:03Z</time>
      </trkpt>
      <trkpt lat="47.43313" lon="6.63165">
        <ele>295</ele>
        <time>2016-09-03T09:43:05Z</time>
      </trkpt>
      <trkpt lat="47.43328" lon="6.6316">
        <ele>295</ele>
        <time>2016-09-03T09:43:07Z</time>
      </trkpt>
      <trkpt lat="47.43351" lon="6.63154">
        <ele>295</ele>
        <time>2016-09-03T09:43:10Z</time>
      </trkpt>
      <trkpt lat="47.43357" lon="6.63154">
        <ele>295</ele>
        <time>2016-09-03T09:43:11Z</time>
      </trkpt>
      <trkpt lat="47.43371" lon="6.6315">
        <ele>295</ele>
        <time>2016-09-03T09:43:13Z</time>
      </trkpt>
      <trkpt lat="47.43385" lon="6.63143">
        <ele>295</ele>
        <time>2016-09-03T09:43:15Z</time>
      </trkpt>
      <trkpt lat="47.43399" lon="6.63137">
        <ele>295</ele>
        <time>2016-09-03T09:43:17Z</time>
      </trkpt>
      <trkpt lat="47.43415" lon="6.6313">
        <ele>295</ele>
        <time>2016-09-03T09:43:19Z</time>
      </trkpt>
      <trkpt lat="47.43431" lon="6.63123">
        <ele>295</ele>
        <time>2016-09-03T09:43:21Z</time>
      </trkpt>
      <trkpt lat="47.43445" lon="6.63116">
        <ele>295</ele>
        <time>2016-09-03T09:43:23Z</time>
      </trkpt>
      <trkpt lat="47.43464" lon="6.63106">
        <ele>295</ele>
        <time>2016-09-03T09:43:26Z</time>
      </trkpt>
      <trkpt lat="47.43471" lon="6.63102">
        <ele>295</ele>
        <time>2016-09-03T09:43:27Z</time>
      </trkpt>
      <trkpt lat="47.43483" lon="6.63096">
        <ele>295</ele>
        <time>2016-09-03T09:43:29Z</time>
      </trkpt>
      <trkpt lat="47.43498" lon="6.63087">
        <ele>295</ele>
        <time>2016-09-03T09:43:31Z</time>
      </trkpt>
      <trkpt lat="47.43512" lon="6.63079">
        <ele>295</ele>
        <time>2016-09-03T09:43:33Z</time>
      </trkpt>
      <trkpt lat="47.43525" lon="6.63071">
        <ele>295</ele>
        <time>2016-09-03T09:43:35Z</time>
      </trkpt>
      <trkpt lat="47.43546" lon="6.6306">
        <ele>295</ele>
        <time>2016-09-03T09:43:38Z</time>
      </trkpt>
      <trkpt lat="47.43553" lon="6.63057">
        <ele>295</ele>
        <time>2016-09-03T09:43:39Z</time>
      </trkpt>
      <trkpt lat="47.43566" lon="6.6305">
        <ele>295</ele>
        <time>2016-09-03T09:43:41Z</time>
      </trkpt>
      <trkpt lat="47.4358" lon="6.63041">
        <ele>295</ele>
        <time>2016-09-03T09:43:43Z</time>
      </trkpt>
      <trkpt lat="47.43594" lon="6.63031">
        <ele>295</ele>
        <time>2016-09-03T09:43:45Z</time>
      </trkpt>
      <trkpt lat="47.43615" lon="6.63018">
        <ele>295</ele>
        <time>2016-09-03T09:43:48Z</time>
      </trkpt>
      <trkpt lat="47.43621" lon="6.63013">
        <ele>295</ele>
        <time>2016-09-03T09:43:49Z</time>
      </trkpt>
      <trkpt lat="47.43634" lon="6.63005">
        <ele>295</ele>
        <time>2016-09-03T09:43:51Z</time>
      </trkpt>
      <trkpt lat="47.43649" lon="6.62996">
        <ele>295</ele>
        <time>2016-09-03T09:43:53Z</time>
      </trkpt>
      <trkpt lat="47.43662" lon="6.62988">
        <ele>295</ele>
        <time>2016-09-03T09:43:55Z</time>
      </trkpt>
      <trkpt lat="47.43674" lon="6.62981">
        <ele>295</ele>
        <time>2016-09-03T09:43:57Z</time>
      </trkpt>
      <trkpt lat="47.43688" lon="6.62971">
        <ele>295</ele>
        <time>2016-09-03T09:43:59Z</time>
      </trkpt>
      <trkpt lat="47.43702" lon="6.6296">
        <ele>295</ele>
        <time>2016-09-03T09:44:01Z</time>
      </trkpt>
      <trkpt lat="47.43722" lon="6.62948">
        <ele>295</ele>
        <time>2016-09-03T09:44:04Z</time>
      </trkpt>
      <trkpt lat="47.4373" lon="6.6294">
        <ele>295</ele>
        <time>2016-09-03T09:44:05Z</time>
      </trkpt>
      <trkpt lat="47.43743" lon="6.6293">
        <ele>295</ele>
        <time>2016-09-03T09:44:07Z</time>
      </trkpt>
      <trkpt lat="47.43757" lon="6.6292">
        <ele>295</ele>
        <time>2016-09-03T09:44:09Z</time>
      </trkpt>
      <trkpt lat="47.43771" lon="6.62911">
        <ele>295</ele>
        <time>2016-09-03T09:44:11Z</time>
      </trkpt>
      <trkpt lat="47.43785" lon="6.62903">
        <ele>295</ele>
        <time>2016-09-03T09:44:13Z</time>
      </trkpt>
      <trkpt lat="47.43799" lon="6.62896">
        <ele>295</ele>
        <time>2016-09-03T09:44:15Z</time>
      </trkpt>
      <trkpt lat="47.4381" lon="6.6289">
        <ele>295</ele>
        <time>2016-09-03T09:44:17Z</time>
      </trkpt>
      <trkpt lat="47.43822" lon="6.62878">
        <ele>295</ele>
        <time>2016-09-03T09:44:19Z</time>
      </trkpt>
      <trkpt lat="47.43835" lon="6.62864">
        <ele>295</ele>
        <time>2016-09-03T09:44:21Z</time>
      </trkpt>
      <trkpt lat="47.43849" lon="6.62854">
        <ele>295</ele>
        <time>2016-09-03T09:44:23Z</time>
      </trkpt>
      <trkpt lat="47.43864" lon="6.62847">
        <ele>295</ele>
        <time>2016-09-03T09:44:25Z</time>
      </trkpt>
      <trkpt lat="47.43878" lon="6.62839">
        <ele>295</ele>
        <time>2016-09-03T09:44:27Z</time>
      </trkpt>
      <trkpt lat="47.43892" lon="6.62831">
        <ele>295</ele>
        <time>2016-09-03T09:44:29Z</time>
      </trkpt>
      <trkpt lat="47.43906" lon="6.62825">
        <ele>295</ele>
        <time>2016-09-03T09:44:31Z</time>
      </trkpt>
      <trkpt lat="47.4392" lon="6.62819">
        <ele>295</ele>
        <time>2016-09-03T09:44:33Z</time>
      </trkpt>
      <trkpt lat="47.43935" lon="6.62816">
        <ele>294</ele>
        <time>2016-09-03T09:44:35Z</time>
      </trkpt>
      <trkpt lat="47.43958" lon="6.6282">
        <ele>294</ele>
        <time>2016-09-03T09:44:38Z</time>
      </trkpt>
      <trkpt lat="47.43965" lon="6.62823">
        <ele>294</ele>
        <time>2016-09-03T09:44:39Z</time>
      </trkpt>
      <trkpt lat="47.43981" lon="6.62827">
        <ele>293</ele>
        <time>2016-09-03T09:44:41Z</time>
      </trkpt>
      <trkpt lat="47.44004" lon="6.62833">
        <ele>293</ele>
        <time>2016-09-03T09:44:44Z</time>
      </trkpt>
      <trkpt lat="47.4402" lon="6.62838">
        <ele>292</ele>
        <time>2016-09-03T09:44:46Z</time>
      </trkpt>
      <trkpt lat="47.44027" lon="6.62841">
        <ele>292</ele>
        <time>2016-09-03T09:44:47Z</time>
      </trkpt>
      <trkpt lat="47.44049" lon="6.62848">
        <ele>292</ele>
        <time>2016-09-03T09:44:50Z</time>
      </trkpt>
      <trkpt lat="47.44057" lon="6.6285">
        <ele>292</ele>
        <time>2016-09-03T09:44:51Z</time>
      </trkpt>
      <trkpt lat="47.44071" lon="6.62858">
        <ele>292</ele>
        <time>2016-09-03T09:44:53Z</time>
      </trkpt>
      <trkpt lat="47.44084" lon="6.62868">
        <ele>292</ele>
        <time>2016-09-03T09:44:55Z</time>
      </trkpt>
      <trkpt lat="47.44098" lon="6.62876">
        <ele>292</ele>
        <time>2016-09-03T09:44:57Z</time>
      </trkpt>
      <trkpt lat="47.44113" lon="6.6288">
        <ele>292</ele>
        <time>2016-09-03T09:44:59Z</time>
      </trkpt>
      <trkpt lat="47.44127" lon="6.62887">
        <ele>292</ele>
        <time>2016-09-03T09:45:01Z</time>
      </trkpt>
      <trkpt lat="47.44142" lon="6.62892">
        <ele>293</ele>
        <time>2016-09-03T09:45:03Z</time>
      </trkpt>
      <trkpt lat="47.44156" lon="6.62895">
        <ele>293</ele>
        <time>2016-09-03T09:45:05Z</time>
      </trkpt>
      <trkpt lat="47.44171" lon="6.62897">
        <ele>293</ele>
        <time>2016-09-03T09:45:07Z</time>
      </trkpt>
      <trkpt lat="47.44187" lon="6.62895">
        <ele>293</ele>
        <time>2016-09-03T09:45:09Z</time>
      </trkpt>
      <trkpt lat="47.44201" lon="6.62897">
        <ele>293</ele>
        <time>2016-09-03T09:45:11Z</time>
      </trkpt>
      <trkpt lat="47.44215" lon="6.62901">
        <ele>293</ele>
        <time>2016-09-03T09:45:13Z</time>
      </trkpt>
      <trkpt lat="47.4423" lon="6.62906">
        <ele>293</ele>
        <time>2016-09-03T09:45:15Z</time>
      </trkpt>
      <trkpt lat="47.44245" lon="6.62912">
        <ele>293</ele>
        <time>2016-09-03T09:45:17Z</time>
      </trkpt>
      <trkpt lat="47.44259" lon="6.62918">
        <ele>293</ele>
        <time>2016-09-03T09:45:19Z</time>
      </trkpt>
      <trkpt lat="47.44273" lon="6.6292">
        <ele>293</ele>
        <time>2016-09-03T09:45:21Z</time>
      </trkpt>
      <trkpt lat="47.44287" lon="6.62926">
        <ele>294</ele>
        <time>2016-09-03T09:45:23Z</time>
      </trkpt>
      <trkpt lat="47.44301" lon="6.6293">
        <ele>294</ele>
        <time>2016-09-03T09:45:25Z</time>
      </trkpt>
      <trkpt lat="47.44315" lon="6.62936">
        <ele>294</ele>
        <time>2016-09-03T09:45:27Z</time>
      </trkpt>
      <trkpt lat="47.44335" lon="6.62945">
        <ele>294</ele>
        <time>2016-09-03T09:45:30Z</time>
      </trkpt>
      <trkpt lat="47.44348" lon="6.62953">
        <ele>294</ele>
        <time>2016-09-03T09:45:32Z</time>
      </trkpt>
      <trkpt lat="47.44356" lon="6.62957">
        <ele>294</ele>
        <time>2016-09-03T09:45:33Z</time>
      </trkpt>
      <trkpt lat="47.44371" lon="6.62966">
        <ele>295</ele>
        <time>2016-09-03T09:45:35Z</time>
      </trkpt>
      <trkpt lat="47.44385" lon="6.62972">
        <ele>295</ele>
        <time>2016-09-03T09:45:37Z</time>
      </trkpt>
      <trkpt lat="47.44399" lon="6.62979">
        <ele>295</ele>
        <time>2016-09-03T09:45:39Z</time>
      </trkpt>
      <trkpt lat="47.44413" lon="6.62987">
        <ele>295</ele>
        <time>2016-09-03T09:45:41Z</time>
      </trkpt>
      <trkpt lat="47.44435" lon="6.63">
        <ele>296</ele>
        <time>2016-09-03T09:45:44Z</time>
      </trkpt>
      <trkpt lat="47.4445" lon="6.63008">
        <ele>296</ele>
        <time>2016-09-03T09:45:46Z</time>
      </trkpt>
      <trkpt lat="47.44457" lon="6.63012">
        <ele>295</ele>
        <time>2016-09-03T09:45:47Z</time>
      </trkpt>
      <trkpt lat="47.44479" lon="6.63021">
        <ele>295</ele>
        <time>2016-09-03T09:45:50Z</time>
      </trkpt>
      <trkpt lat="47.44485" lon="6.63025">
        <ele>296</ele>
        <time>2016-09-03T09:45:51Z</time>
      </trkpt>
      <trkpt lat="47.44499" lon="6.63032">
        <ele>296</ele>
        <time>2016-09-03T09:45:53Z</time>
      </trkpt>
      <trkpt lat="47.44513" lon="6.63039">
        <ele>296</ele>
        <time>2016-09-03T09:45:55Z</time>
      </trkpt>
      <trkpt lat="47.44526" lon="6.63046">
        <ele>296</ele>
        <time>2016-09-03T09:45:57Z</time>
      </trkpt>
      <trkpt lat="47.44541" lon="6.63052">
        <ele>296</ele>
        <time>2016-09-03T09:45:59Z</time>
      </trkpt>
      <trkpt lat="47.44554" lon="6.63059">
        <ele>295</ele>
        <time>2016-09-03T09:46:01Z</time>
      </trkpt>
      <trkpt lat="47.44574" lon="6.63059">
        <ele>295</ele>
        <time>2016-09-03T09:46:04Z</time>
      </trkpt>
      <trkpt lat="47.4458" lon="6.63059">
        <ele>296</ele>
        <time>2016-09-03T09:46:05Z</time>
      </trkpt>
      <trkpt lat="47.44595" lon="6.63075">
        <ele>297</ele>
        <time>2016-09-03T09:46:08Z</time>
      </trkpt>
      <trkpt lat="47.44602" lon="6.63081">
        <ele>297</ele>
        <time>2016-09-03T09:46:09Z</time>
      </trkpt>
      <trkpt lat="47.44613" lon="6.63092">
        <ele>298</ele>
        <time>2016-09-03T09:46:11Z</time>
      </trkpt>
      <trkpt lat="47.44623" lon="6.63109">
        <ele>298</ele>
        <time>2016-09-03T09:46:13Z</time>
      </trkpt>
      <trkpt lat="47.44632" lon="6.63125">
        <ele>299</ele>
        <time>2016-09-03T09:46:15Z</time>
      </trkpt>
      <trkpt lat="47.4464" lon="6.63143">
        <ele>299</ele>
        <time>2016-09-03T09:46:17Z</time>
      </trkpt>
      <trkpt lat="47.44644" lon="6.63164">
        <ele>299</ele>
        <time>2016-09-03T09:46:19Z</time>
      </trkpt>
      <trkpt lat="47.44648" lon="6.63187">
        <ele>300</ele>
        <time>2016-09-03T09:46:21Z</time>
      </trkpt>
      <trkpt lat="47.4465" lon="6.63209">
        <ele>300</ele>
        <time>2016-09-03T09:46:23Z</time>
      </trkpt>
      <trkpt lat="47.44651" lon="6.6323">
        <ele>300</ele>
        <time>2016-09-03T09:46:25Z</time>
      </trkpt>
      <trkpt lat="47.44652" lon="6.63251">
        <ele>299</ele>
        <time>2016-09-03T09:46:27Z</time>
      </trkpt>
      <trkpt lat="47.44654" lon="6.63273">
        <ele>299</ele>
        <time>2016-09-03T09:46:29Z</time>
      </trkpt>
      <trkpt lat="47.44655" lon="6.63295">
        <ele>299</ele>
        <time>2016-09-03T09:46:31Z</time>
      </trkpt>
      <trkpt lat="47.44656" lon="6.63317">
        <ele>299</ele>
        <time>2016-09-03T09:46:33Z</time>
      </trkpt>
      <trkpt lat="47.44659" lon="6.63339">
        <ele>299</ele>
        <time>2016-09-03T09:46:35Z</time>
      </trkpt>
      <trkpt lat="47.44661" lon="6.6336">
        <ele>299</ele>
        <time>2016-09-03T09:46:37Z</time>
      </trkpt>
      <trkpt lat="47.44662" lon="6.63381">
        <ele>299</ele>
        <time>2016-09-03T09:46:39Z</time>
      </trkpt>
      <trkpt lat="47.44664" lon="6.63401">
        <ele>299</ele>
        <time>2016-09-03T09:46:41Z</time>
      </trkpt>
      <trkpt lat="47.44666" lon="6.63423">
        <ele>299</ele>
        <time>2016-09-03T09:46:43Z</time>
      </trkpt>
      <trkpt lat="47.44668" lon="6.63456">
        <ele>299</ele>
        <time>2016-09-03T09:46:46Z</time>
      </trkpt>
      <trkpt lat="47.44669" lon="6.63468">
        <ele>299</ele>
        <time>2016-09-03T09:46:47Z</time>
      </trkpt>
      <trkpt lat="47.44671" lon="6.6349">
        <ele>299</ele>
        <time>2016-09-03T09:46:49Z</time>
      </trkpt>
      <trkpt lat="47.44673" lon="6.63512">
        <ele>299</ele>
        <time>2016-09-03T09:46:51Z</time>
      </trkpt>
      <trkpt lat="47.44676" lon="6.63543">
        <ele>299</ele>
        <time>2016-09-03T09:46:54Z</time>
      </trkpt>
      <trkpt lat="47.44678" lon="6.63554">
        <ele>299</ele>
        <time>2016-09-03T09:46:55Z</time>
      </trkpt>
      <trkpt lat="47.44679" lon="6.63575">
        <ele>299</ele>
        <time>2016-09-03T09:46:57Z</time>
      </trkpt>
      <trkpt lat="47.44681" lon="6.63599">
        <ele>299</ele>
        <time>2016-09-03T09:46:59Z</time>
      </trkpt>
      <trkpt lat="47.44682" lon="6.63621">
        <ele>299</ele>
        <time>2016-09-03T09:47:01Z</time>
      </trkpt>
      <trkpt lat="47.44683" lon="6.63642">
        <ele>299</ele>
        <time>2016-09-03T09:47:03Z</time>
      </trkpt>
      <trkpt lat="47.44684" lon="6.63664">
        <ele>299</ele>
        <time>2016-09-03T09:47:05Z</time>
      </trkpt>
      <trkpt lat="47.44685" lon="6.63687">
        <ele>299</ele>
        <time>2016-09-03T09:47:07Z</time>
      </trkpt>
      <trkpt lat="47.44686" lon="6.63707">
        <ele>299</ele>
        <time>2016-09-03T09:47:09Z</time>
      </trkpt>
      <trkpt lat="47.44688" lon="6.63729">
        <ele>299</ele>
        <time>2016-09-03T09:47:11Z</time>
      </trkpt>
      <trkpt lat="47.4469" lon="6.6375">
        <ele>299</ele>
        <time>2016-09-03T09:47:13Z</time>
      </trkpt>
      <trkpt lat="47.44694" lon="6.63772">
        <ele>299</ele>
        <time>2016-09-03T09:47:15Z</time>
      </trkpt>
      <trkpt lat="47.44697" lon="6.63805">
        <ele>300</ele>
        <time>2016-09-03T09:47:18Z</time>
      </trkpt>
      <trkpt lat="47.44698" lon="6.63816">
        <ele>300</ele>
        <time>2016-09-03T09:47:19Z</time>
      </trkpt>
      <trkpt lat="47.447" lon="6.63838">
        <ele>300</ele>
        <time>2016-09-03T09:47:21Z</time>
      </trkpt>
      <trkpt lat="47.44701" lon="6.63857">
        <ele>300</ele>
        <time>2016-09-03T09:47:23Z</time>
      </trkpt>
      <trkpt lat="47.44702" lon="6.63878">
        <ele>300</ele>
        <time>2016-09-03T09:47:25Z</time>
      </trkpt>
      <trkpt lat="47.44704" lon="6.63911">
        <ele>299</ele>
        <time>2016-09-03T09:47:28Z</time>
      </trkpt>
      <trkpt lat="47.44705" lon="6.63921">
        <ele>299</ele>
        <time>2016-09-03T09:47:29Z</time>
      </trkpt>
      <trkpt lat="47.44708" lon="6.63942">
        <ele>299</ele>
        <time>2016-09-03T09:47:31Z</time>
      </trkpt>
      <trkpt lat="47.44711" lon="6.63975">
        <ele>299</ele>
        <time>2016-09-03T09:47:34Z</time>
      </trkpt>
      <trkpt lat="47.44712" lon="6.63985">
        <ele>299</ele>
        <time>2016-09-03T09:47:35Z</time>
      </trkpt>
      <trkpt lat="47.44713" lon="6.6402">
        <ele>299</ele>
        <time>2016-09-03T09:47:38Z</time>
      </trkpt>
      <trkpt lat="47.44714" lon="6.64031">
        <ele>299</ele>
        <time>2016-09-03T09:47:39Z</time>
      </trkpt>
      <trkpt lat="47.44716" lon="6.64052">
        <ele>300</ele>
        <time>2016-09-03T09:47:41Z</time>
      </trkpt>
      <trkpt lat="47.44718" lon="6.64073">
        <ele>300</ele>
        <time>2016-09-03T09:47:43Z</time>
      </trkpt>
      <trkpt lat="47.4472" lon="6.64096">
        <ele>300</ele>
        <time>2016-09-03T09:47:45Z</time>
      </trkpt>
      <trkpt lat="47.4472" lon="6.64116">
        <ele>299</ele>
        <time>2016-09-03T09:47:47Z</time>
      </trkpt>
      <trkpt lat="47.44722" lon="6.64138">
        <ele>299</ele>
        <time>2016-09-03T09:47:49Z</time>
      </trkpt>
      <trkpt lat="47.44724" lon="6.64158">
        <ele>299</ele>
        <time>2016-09-03T09:47:51Z</time>
      </trkpt>
      <trkpt lat="47.44724" lon="6.64179">
        <ele>299</ele>
        <time>2016-09-03T09:47:53Z</time>
      </trkpt>
      <trkpt lat="47.44725" lon="6.64199">
        <ele>299</ele>
        <time>2016-09-03T09:47:55Z</time>
      </trkpt>
      <trkpt lat="47.44726" lon="6.6422">
        <ele>299</ele>
        <time>2016-09-03T09:47:57Z</time>
      </trkpt>
      <trkpt lat="47.44728" lon="6.64241">
        <ele>299</ele>
        <time>2016-09-03T09:47:59Z</time>
      </trkpt>
      <trkpt lat="47.4473" lon="6.64272">
        <ele>299</ele>
        <time>2016-09-03T09:48:02Z</time>
      </trkpt>
      <trkpt lat="47.44731" lon="6.64284">
        <ele>299</ele>
        <time>2016-09-03T09:48:03Z</time>
      </trkpt>
      <trkpt lat="47.44732" lon="6.64307">
        <ele>299</ele>
        <time>2016-09-03T09:48:05Z</time>
      </trkpt>
      <trkpt lat="47.44735" lon="6.6434">
        <ele>299</ele>
        <time>2016-09-03T09:48:08Z</time>
      </trkpt>
      <trkpt lat="47.44736" lon="6.6435">
        <ele>299</ele>
        <time>2016-09-03T09:48:09Z</time>
      </trkpt>
      <trkpt lat="47.44736" lon="6.64371">
        <ele>299</ele>
        <time>2016-09-03T09:48:11Z</time>
      </trkpt>
      <trkpt lat="47.44737" lon="6.64391">
        <ele>299</ele>
        <time>2016-09-03T09:48:13Z</time>
      </trkpt>
      <trkpt lat="47.44738" lon="6.64412">
        <ele>299</ele>
        <time>2016-09-03T09:48:15Z</time>
      </trkpt>
      <trkpt lat="47.44743" lon="6.64446">
        <ele>300</ele>
        <time>2016-09-03T09:48:18Z</time>
      </trkpt>
      <trkpt lat="47.44747" lon="6.6447">
        <ele>300</ele>
        <time>2016-09-03T09:48:20Z</time>
      </trkpt>
      <trkpt lat="47.44749" lon="6.64491">
        <ele>299</ele>
        <time>2016-09-03T09:48:22Z</time>
      </trkpt>
      <trkpt lat="47.44749" lon="6.64502">
        <ele>299</ele>
        <time>2016-09-03T09:48:23Z</time>
      </trkpt>
      <trkpt lat="47.44751" lon="6.64533">
        <ele>299</ele>
        <time>2016-09-03T09:48:26Z</time>
      </trkpt>
      <trkpt lat="47.44752" lon="6.64544">
        <ele>299</ele>
        <time>2016-09-03T09:48:27Z</time>
      </trkpt>
      <trkpt lat="47.44754" lon="6.64566">
        <ele>299</ele>
        <time>2016-09-03T09:48:29Z</time>
      </trkpt>
      <trkpt lat="47.44756" lon="6.64587">
        <ele>299</ele>
        <time>2016-09-03T09:48:31Z</time>
      </trkpt>
      <trkpt lat="47.44758" lon="6.64609">
        <ele>299</ele>
        <time>2016-09-03T09:48:33Z</time>
      </trkpt>
      <trkpt lat="47.4476" lon="6.6463">
        <ele>299</ele>
        <time>2016-09-03T09:48:35Z</time>
      </trkpt>
      <trkpt lat="47.44763" lon="6.64654">
        <ele>299</ele>
        <time>2016-09-03T09:48:37Z</time>
      </trkpt>
      <trkpt lat="47.44765" lon="6.64675">
        <ele>300</ele>
        <time>2016-09-03T09:48:39Z</time>
      </trkpt>
      <trkpt lat="47.44766" lon="6.64696">
        <ele>299</ele>
        <time>2016-09-03T09:48:41Z</time>
      </trkpt>
      <trkpt lat="47.44768" lon="6.6472">
        <ele>299</ele>
        <time>2016-09-03T09:48:43Z</time>
      </trkpt>
      <trkpt lat="47.4477" lon="6.64742">
        <ele>299</ele>
        <time>2016-09-03T09:48:45Z</time>
      </trkpt>
      <trkpt lat="47.44774" lon="6.64773">
        <ele>299</ele>
        <time>2016-09-03T09:48:48Z</time>
      </trkpt>
      <trkpt lat="47.44775" lon="6.64793">
        <ele>299</ele>
        <time>2016-09-03T09:48:50Z</time>
      </trkpt>
      <trkpt lat="47.44776" lon="6.64803">
        <ele>299</ele>
        <time>2016-09-03T09:48:51Z</time>
      </trkpt>
      <trkpt lat="47.44776" lon="6.64823">
        <ele>299</ele>
        <time>2016-09-03T09:48:53Z</time>
      </trkpt>
      <trkpt lat="47.44778" lon="6.64854">
        <ele>299</ele>
        <time>2016-09-03T09:48:56Z</time>
      </trkpt>
      <trkpt lat="47.4478" lon="6.64864">
        <ele>299</ele>
        <time>2016-09-03T09:48:57Z</time>
      </trkpt>
      <trkpt lat="47.44782" lon="6.64895">
        <ele>299</ele>
        <time>2016-09-03T09:49:00Z</time>
      </trkpt>
      <trkpt lat="47.44784" lon="6.64914">
        <ele>299</ele>
        <time>2016-09-03T09:49:02Z</time>
      </trkpt>
      <trkpt lat="47.44784" lon="6.64923">
        <ele>299</ele>
        <time>2016-09-03T09:49:03Z</time>
      </trkpt>
      <trkpt lat="47.44786" lon="6.64938">
        <ele>299</ele>
        <time>2016-09-03T09:49:05Z</time>
      </trkpt>
      <trkpt lat="47.44788" lon="6.64953">
        <ele>299</ele>
        <time>2016-09-03T09:49:07Z</time>
      </trkpt>
      <trkpt lat="47.44792" lon="6.64969">
        <ele>299</ele>
        <time>2016-09-03T09:49:09Z</time>
      </trkpt>
      <trkpt lat="47.44795" lon="6.64995">
        <ele>299</ele>
        <time>2016-09-03T09:49:12Z</time>
      </trkpt>
      <trkpt lat="47.44795" lon="6.65002">
        <ele>299</ele>
        <time>2016-09-03T09:49:13Z</time>
      </trkpt>
      <trkpt lat="47.44792" lon="6.65017">
        <ele>300</ele>
        <time>2016-09-03T09:49:15Z</time>
      </trkpt>
      <trkpt lat="47.44792" lon="6.65033">
        <ele>300</ele>
        <time>2016-09-03T09:49:17Z</time>
      </trkpt>
      <trkpt lat="47.44795" lon="6.65053">
        <ele>300</ele>
        <time>2016-09-03T09:49:19Z</time>
      </trkpt>
      <trkpt lat="47.44797" lon="6.65071">
        <ele>300</ele>
        <time>2016-09-03T09:49:21Z</time>
      </trkpt>
      <trkpt lat="47.44797" lon="6.65088">
        <ele>300</ele>
        <time>2016-09-03T09:49:23Z</time>
      </trkpt>
      <trkpt lat="47.44798" lon="6.65107">
        <ele>300</ele>
        <time>2016-09-03T09:49:25Z</time>
      </trkpt>
      <trkpt lat="47.44799" lon="6.65127">
        <ele>300</ele>
        <time>2016-09-03T09:49:27Z</time>
      </trkpt>
      <trkpt lat="47.44801" lon="6.65147">
        <ele>300</ele>
        <time>2016-09-03T09:49:29Z</time>
      </trkpt>
      <trkpt lat="47.44801" lon="6.65165">
        <ele>300</ele>
        <time>2016-09-03T09:49:31Z</time>
      </trkpt>
      <trkpt lat="47.44803" lon="6.65185">
        <ele>300</ele>
        <time>2016-09-03T09:49:33Z</time>
      </trkpt>
      <trkpt lat="47.44806" lon="6.65215">
        <ele>300</ele>
        <time>2016-09-03T09:49:36Z</time>
      </trkpt>
      <trkpt lat="47.44807" lon="6.65224">
        <ele>300</ele>
        <time>2016-09-03T09:49:37Z</time>
      </trkpt>
      <trkpt lat="47.44808" lon="6.65243">
        <ele>300</ele>
        <time>2016-09-03T09:49:39Z</time>
      </trkpt>
      <trkpt lat="47.44809" lon="6.65263">
        <ele>300</ele>
        <time>2016-09-03T09:49:41Z</time>
      </trkpt>
      <trkpt lat="47.44812" lon="6.65294">
        <ele>300</ele>
        <time>2016-09-03T09:49:44Z</time>
      </trkpt>
      <trkpt lat="47.44813" lon="6.65313">
        <ele>300</ele>
        <time>2016-09-03T09:49:46Z</time>
      </trkpt>
      <trkpt lat="47.44813" lon="6.65323">
        <ele>300</ele>
        <time>2016-09-03T09:49:47Z</time>
      </trkpt>
      <trkpt lat="47.44816" lon="6.65353">
        <ele>300</ele>
        <time>2016-09-03T09:49:50Z</time>
      </trkpt>
      <trkpt lat="47.44817" lon="6.65373">
        <ele>300</ele>
        <time>2016-09-03T09:49:52Z</time>
      </trkpt>
      <trkpt lat="47.44817" lon="6.65382">
        <ele>300</ele>
        <time>2016-09-03T09:49:53Z</time>
      </trkpt>
      <trkpt lat="47.4482" lon="6.65404">
        <ele>300</ele>
        <time>2016-09-03T09:49:55Z</time>
      </trkpt>
      <trkpt lat="47.44821" lon="6.65425">
        <ele>300</ele>
        <time>2016-09-03T09:49:57Z</time>
      </trkpt>
      <trkpt lat="47.44823" lon="6.65455">
        <ele>300</ele>
        <time>2016-09-03T09:50:00Z</time>
      </trkpt>
      <trkpt lat="47.44823" lon="6.65465">
        <ele>300</ele>
        <time>2016-09-03T09:50:01Z</time>
      </trkpt>
      <trkpt lat="47.44825" lon="6.65486">
        <ele>300</ele>
        <time>2016-09-03T09:50:03Z</time>
      </trkpt>
      <trkpt lat="47.44827" lon="6.65506">
        <ele>300</ele>
        <time>2016-09-03T09:50:05Z</time>
      </trkpt>
      <trkpt lat="47.44828" lon="6.65526">
        <ele>300</ele>
        <time>2016-09-03T09:50:07Z</time>
      </trkpt>
      <trkpt lat="47.44829" lon="6.65546">
        <ele>300</ele>
        <time>2016-09-03T09:50:09Z</time>
      </trkpt>
      <trkpt lat="47.44831" lon="6.65566">
        <ele>300</ele>
        <time>2016-09-03T09:50:11Z</time>
      </trkpt>
      <trkpt lat="47.44832" lon="6.65587">
        <ele>300</ele>
        <time>2016-09-03T09:50:13Z</time>
      </trkpt>
      <trkpt lat="47.44833" lon="6.65605">
        <ele>300</ele>
        <time>2016-09-03T09:50:15Z</time>
      </trkpt>
      <trkpt lat="47.44834" lon="6.65625">
        <ele>300</ele>
        <time>2016-09-03T09:50:17Z</time>
      </trkpt>
      <trkpt lat="47.44836" lon="6.65646">
        <ele>300</ele>
        <time>2016-09-03T09:50:19Z</time>
      </trkpt>
      <trkpt lat="47.44838" lon="6.65666">
        <ele>300</ele>
        <time>2016-09-03T09:50:21Z</time>
      </trkpt>
      <trkpt lat="47.44839" lon="6.65685">
        <ele>300</ele>
        <time>2016-09-03T09:50:23Z</time>
      </trkpt>
      <trkpt lat="47.4484" lon="6.65706">
        <ele>300</ele>
        <time>2016-09-03T09:50:25Z</time>
      </trkpt>
      <trkpt lat="47.44842" lon="6.65726">
        <ele>300</ele>
        <time>2016-09-03T09:50:27Z</time>
      </trkpt>
      <trkpt lat="47.44844" lon="6.65746">
        <ele>300</ele>
        <time>2016-09-03T09:50:29Z</time>
      </trkpt>
      <trkpt lat="47.44845" lon="6.65765">
        <ele>300</ele>
        <time>2016-09-03T09:50:31Z</time>
      </trkpt>
      <trkpt lat="47.44847" lon="6.65785">
        <ele>300</ele>
        <time>2016-09-03T09:50:33Z</time>
      </trkpt>
      <trkpt lat="47.44849" lon="6.65806">
        <ele>300</ele>
        <time>2016-09-03T09:50:35Z</time>
      </trkpt>
      <trkpt lat="47.4485" lon="6.65825">
        <ele>300</ele>
        <time>2016-09-03T09:50:37Z</time>
      </trkpt>
      <trkpt lat="47.44853" lon="6.65845">
        <ele>300</ele>
        <time>2016-09-03T09:50:39Z</time>
      </trkpt>
      <trkpt lat="47.44854" lon="6.65864">
        <ele>300</ele>
        <time>2016-09-03T09:50:41Z</time>
      </trkpt>
      <trkpt lat="47.44855" lon="6.65883">
        <ele>300</ele>
        <time>2016-09-03T09:50:43Z</time>
      </trkpt>
      <trkpt lat="47.44858" lon="6.65914">
        <ele>300</ele>
        <time>2016-09-03T09:50:46Z</time>
      </trkpt>
      <trkpt lat="47.44858" lon="6.65924">
        <ele>300</ele>
        <time>2016-09-03T09:50:47Z</time>
      </trkpt>
      <trkpt lat="47.44859" lon="6.65944">
        <ele>300</ele>
        <time>2016-09-03T09:50:49Z</time>
      </trkpt>
      <trkpt lat="47.4486" lon="6.65964">
        <ele>301</ele>
        <time>2016-09-03T09:50:51Z</time>
      </trkpt>
      <trkpt lat="47.44862" lon="6.65984">
        <ele>301</ele>
        <time>2016-09-03T09:50:53Z</time>
      </trkpt>
      <trkpt lat="47.44864" lon="6.66004">
        <ele>301</ele>
        <time>2016-09-03T09:50:55Z</time>
      </trkpt>
      <trkpt lat="47.44865" lon="6.66024">
        <ele>301</ele>
        <time>2016-09-03T09:50:57Z</time>
      </trkpt>
      <trkpt lat="47.44867" lon="6.66044">
        <ele>301</ele>
        <time>2016-09-03T09:50:59Z</time>
      </trkpt>
      <trkpt lat="47.44869" lon="6.66066">
        <ele>302</ele>
        <time>2016-09-03T09:51:01Z</time>
      </trkpt>
      <trkpt lat="47.4487" lon="6.66086">
        <ele>302</ele>
        <time>2016-09-03T09:51:03Z</time>
      </trkpt>
      <trkpt lat="47.44872" lon="6.66105">
        <ele>302</ele>
        <time>2016-09-03T09:51:05Z</time>
      </trkpt>
      <trkpt lat="47.44874" lon="6.66126">
        <ele>302</ele>
        <time>2016-09-03T09:51:07Z</time>
      </trkpt>
      <trkpt lat="47.44875" lon="6.66145">
        <ele>302</ele>
        <time>2016-09-03T09:51:09Z</time>
      </trkpt>
      <trkpt lat="47.44876" lon="6.66164">
        <ele>302</ele>
        <time>2016-09-03T09:51:11Z</time>
      </trkpt>
      <trkpt lat="47.44879" lon="6.66195">
        <ele>303</ele>
        <time>2016-09-03T09:51:14Z</time>
      </trkpt>
      <trkpt lat="47.44879" lon="6.66205">
        <ele>303</ele>
        <time>2016-09-03T09:51:15Z</time>
      </trkpt>
      <trkpt lat="47.4488" lon="6.66225">
        <ele>303</ele>
        <time>2016-09-03T09:51:17Z</time>
      </trkpt>
      <trkpt lat="47.44882" lon="6.66244">
        <ele>303</ele>
        <time>2016-09-03T09:51:19Z</time>
      </trkpt>
      <trkpt lat="47.44883" lon="6.66264">
        <ele>303</ele>
        <time>2016-09-03T09:51:21Z</time>
      </trkpt>
      <trkpt lat="47.44885" lon="6.66285">
        <ele>303</ele>
        <time>2016-09-03T09:51:23Z</time>
      </trkpt>
      <trkpt lat="47.44887" lon="6.66306">
        <ele>303</ele>
        <time>2016-09-03T09:51:25Z</time>
      </trkpt>
      <trkpt lat="47.44889" lon="6.66325">
        <ele>303</ele>
        <time>2016-09-03T09:51:27Z</time>
      </trkpt>
      <trkpt lat="47.4489" lon="6.66345">
        <ele>303</ele>
        <time>2016-09-03T09:51:29Z</time>
      </trkpt>
      <trkpt lat="47.44892" lon="6.66365">
        <ele>303</ele>
        <time>2016-09-03T09:51:31Z</time>
      </trkpt>
      <trkpt lat="47.44892" lon="6.66385">
        <ele>303</ele>
        <time>2016-09-03T09:51:33Z</time>
      </trkpt>
      <trkpt lat="47.44896" lon="6.66407">
        <ele>304</ele>
        <time>2016-09-03T09:51:35Z</time>
      </trkpt>
      <trkpt lat="47.44897" lon="6.66425">
        <ele>304</ele>
        <time>2016-09-03T09:51:37Z</time>
      </trkpt>
      <trkpt lat="47.44898" lon="6.66445">
        <ele>304</ele>
        <time>2016-09-03T09:51:39Z</time>
      </trkpt>
      <trkpt lat="47.44901" lon="6.66463">
        <ele>304</ele>
        <time>2016-09-03T09:51:41Z</time>
      </trkpt>
      <trkpt lat="47.44902" lon="6.6648">
        <ele>304</ele>
        <time>2016-09-03T09:51:43Z</time>
      </trkpt>
      <trkpt lat="47.44903" lon="6.66495">
        <ele>303</ele>
        <time>2016-09-03T09:51:45Z</time>
      </trkpt>
      <trkpt lat="47.44904" lon="6.66508">
        <ele>303</ele>
        <time>2016-09-03T09:51:47Z</time>
      </trkpt>
      <trkpt lat="47.44904" lon="6.66513">
        <ele>303</ele>
        <time>2016-09-03T09:51:49Z</time>
      </trkpt>
      <trkpt lat="47.44907" lon="6.66511">
        <ele>303</ele>
        <time>2016-09-03T09:51:52Z</time>
      </trkpt>
      <trkpt lat="47.44907" lon="6.66509">
        <ele>303</ele>
        <time>2016-09-03T09:51:53Z</time>
      </trkpt>
      <trkpt lat="47.44907" lon="6.66502">
        <ele>303</ele>
        <time>2016-09-03T09:51:55Z</time>
      </trkpt>
      <trkpt lat="47.44907" lon="6.6649">
        <ele>303</ele>
        <time>2016-09-03T09:51:57Z</time>
      </trkpt>
      <trkpt lat="47.44906" lon="6.66478">
        <ele>303</ele>
        <time>2016-09-03T09:51:59Z</time>
      </trkpt>
      <trkpt lat="47.44904" lon="6.66461">
        <ele>304</ele>
        <time>2016-09-03T09:52:01Z</time>
      </trkpt>
      <trkpt lat="47.44902" lon="6.66443">
        <ele>304</ele>
        <time>2016-09-03T09:52:03Z</time>
      </trkpt>
      <trkpt lat="47.449" lon="6.66425">
        <ele>304</ele>
        <time>2016-09-03T09:52:05Z</time>
      </trkpt>
      <trkpt lat="47.44899" lon="6.66405">
        <ele>304</ele>
        <time>2016-09-03T09:52:07Z</time>
      </trkpt>
      <trkpt lat="47.44898" lon="6.66383">
        <ele>303</ele>
        <time>2016-09-03T09:52:09Z</time>
      </trkpt>
      <trkpt lat="47.44897" lon="6.66363">
        <ele>303</ele>
        <time>2016-09-03T09:52:11Z</time>
      </trkpt>
      <trkpt lat="47.44895" lon="6.66343">
        <ele>303</ele>
        <time>2016-09-03T09:52:13Z</time>
      </trkpt>
      <trkpt lat="47.44892" lon="6.66322">
        <ele>303</ele>
        <time>2016-09-03T09:52:15Z</time>
      </trkpt>
      <trkpt lat="47.4489" lon="6.66298">
        <ele>303</ele>
        <time>2016-09-03T09:52:17Z</time>
      </trkpt>
      <trkpt lat="47.44889" lon="6.66276">
        <ele>303</ele>
        <time>2016-09-03T09:52:19Z</time>
      </trkpt>
      <trkpt lat="47.44886" lon="6.66254">
        <ele>303</ele>
        <time>2016-09-03T09:52:21Z</time>
      </trkpt>
      <trkpt lat="47.44882" lon="6.66224">
        <ele>303</ele>
        <time>2016-09-03T09:52:24Z</time>
      </trkpt>
      <trkpt lat="47.44882" lon="6.66212">
        <ele>303</ele>
        <time>2016-09-03T09:52:25Z</time>
      </trkpt>
      <trkpt lat="47.44879" lon="6.6618">
        <ele>303</ele>
        <time>2016-09-03T09:52:28Z</time>
      </trkpt>
      <trkpt lat="47.44878" lon="6.6617">
        <ele>303</ele>
        <time>2016-09-03T09:52:29Z</time>
      </trkpt>
      <trkpt lat="47.44877" lon="6.66149">
        <ele>302</ele>
        <time>2016-09-03T09:52:31Z</time>
      </trkpt>
      <trkpt lat="47.44875" lon="6.66125">
        <ele>302</ele>
        <time>2016-09-03T09:52:33Z</time>
      </trkpt>
      <trkpt lat="47.44874" lon="6.66102">
        <ele>302</ele>
        <time>2016-09-03T09:52:35Z</time>
      </trkpt>
      <trkpt lat="47.44873" lon="6.6608">
        <ele>302</ele>
        <time>2016-09-03T09:52:37Z</time>
      </trkpt>
      <trkpt lat="47.4487" lon="6.66059">
        <ele>302</ele>
        <time>2016-09-03T09:52:39Z</time>
      </trkpt>
      <trkpt lat="47.44869" lon="6.66037">
        <ele>301</ele>
        <time>2016-09-03T09:52:41Z</time>
      </trkpt>
      <trkpt lat="47.44868" lon="6.66014">
        <ele>301</ele>
        <time>2016-09-03T09:52:43Z</time>
      </trkpt>
      <trkpt lat="47.44865" lon="6.65995">
        <ele>301</ele>
        <time>2016-09-03T09:52:45Z</time>
      </trkpt>
      <trkpt lat="47.44865" lon="6.65974">
        <ele>301</ele>
        <time>2016-09-03T09:52:47Z</time>
      </trkpt>
      <trkpt lat="47.44863" lon="6.65952">
        <ele>300</ele>
        <time>2016-09-03T09:52:49Z</time>
      </trkpt>
      <trkpt lat="47.44862" lon="6.65932">
        <ele>300</ele>
        <time>2016-09-03T09:52:51Z</time>
      </trkpt>
      <trkpt lat="47.44861" lon="6.6591">
        <ele>300</ele>
        <time>2016-09-03T09:52:53Z</time>
      </trkpt>
      <trkpt lat="47.44859" lon="6.6589">
        <ele>300</ele>
        <time>2016-09-03T09:52:55Z</time>
      </trkpt>
      <trkpt lat="47.44859" lon="6.65868">
        <ele>300</ele>
        <time>2016-09-03T09:52:57Z</time>
      </trkpt>
      <trkpt lat="47.44859" lon="6.65848">
        <ele>300</ele>
        <time>2016-09-03T09:52:59Z</time>
      </trkpt>
      <trkpt lat="47.44856" lon="6.65827">
        <ele>300</ele>
        <time>2016-09-03T09:53:01Z</time>
      </trkpt>
      <trkpt lat="47.44852" lon="6.65806">
        <ele>300</ele>
        <time>2016-09-03T09:53:03Z</time>
      </trkpt>
      <trkpt lat="47.4485" lon="6.65784">
        <ele>300</ele>
        <time>2016-09-03T09:53:05Z</time>
      </trkpt>
      <trkpt lat="47.44849" lon="6.65763">
        <ele>300</ele>
        <time>2016-09-03T09:53:07Z</time>
      </trkpt>
      <trkpt lat="47.44847" lon="6.65741">
        <ele>300</ele>
        <time>2016-09-03T09:53:09Z</time>
      </trkpt>
      <trkpt lat="47.44845" lon="6.65719">
        <ele>300</ele>
        <time>2016-09-03T09:53:11Z</time>
      </trkpt>
      <trkpt lat="47.44843" lon="6.65699">
        <ele>300</ele>
        <time>2016-09-03T09:53:13Z</time>
      </trkpt>
      <trkpt lat="47.44841" lon="6.65666">
        <ele>300</ele>
        <time>2016-09-03T09:53:16Z</time>
      </trkpt>
      <trkpt lat="47.4484" lon="6.65655">
        <ele>300</ele>
        <time>2016-09-03T09:53:17Z</time>
      </trkpt>
      <trkpt lat="47.44838" lon="6.65635">
        <ele>300</ele>
        <time>2016-09-03T09:53:19Z</time>
      </trkpt>
      <trkpt lat="47.44836" lon="6.65603">
        <ele>300</ele>
        <time>2016-09-03T09:53:22Z</time>
      </trkpt>
      <trkpt lat="47.44835" lon="6.65593">
        <ele>300</ele>
        <time>2016-09-03T09:53:23Z</time>
      </trkpt>
      <trkpt lat="47.44836" lon="6.65569">
        <ele>300</ele>
        <time>2016-09-03T09:53:25Z</time>
      </trkpt>
      <trkpt lat="47.44835" lon="6.65549">
        <ele>300</ele>
        <time>2016-09-03T09:53:27Z</time>
      </trkpt>
      <trkpt lat="47.4483" lon="6.65531">
        <ele>300</ele>
        <time>2016-09-03T09:53:29Z</time>
      </trkpt>
      <trkpt lat="47.44829" lon="6.65508">
        <ele>300</ele>
        <time>2016-09-03T09:53:31Z</time>
      </trkpt>
      <trkpt lat="47.44828" lon="6.65487">
        <ele>300</ele>
        <time>2016-09-03T09:53:33Z</time>
      </trkpt>
      <trkpt lat="47.44827" lon="6.65468">
        <ele>300</ele>
        <time>2016-09-03T09:53:35Z</time>
      </trkpt>
      <trkpt lat="47.44827" lon="6.65447">
        <ele>300</ele>
        <time>2016-09-03T09:53:37Z</time>
      </trkpt>
      <trkpt lat="47.44825" lon="6.65425">
        <ele>300</ele>
        <time>2016-09-03T09:53:39Z</time>
      </trkpt>
      <trkpt lat="47.44823" lon="6.65404">
        <ele>300</ele>
        <time>2016-09-03T09:53:41Z</time>
      </trkpt>
      <trkpt lat="47.4482" lon="6.65372">
        <ele>300</ele>
        <time>2016-09-03T09:53:44Z</time>
      </trkpt>
      <trkpt lat="47.44819" lon="6.65362">
        <ele>300</ele>
        <time>2016-09-03T09:53:45Z</time>
      </trkpt>
      <trkpt lat="47.44817" lon="6.6534">
        <ele>300</ele>
        <time>2016-09-03T09:53:47Z</time>
      </trkpt>
      <trkpt lat="47.44815" lon="6.65321">
        <ele>300</ele>
        <time>2016-09-03T09:53:49Z</time>
      </trkpt>
      <trkpt lat="47.44813" lon="6.65301">
        <ele>300</ele>
        <time>2016-09-03T09:53:51Z</time>
      </trkpt>
      <trkpt lat="47.4481" lon="6.6528">
        <ele>300</ele>
        <time>2016-09-03T09:53:53Z</time>
      </trkpt>
      <trkpt lat="47.44809" lon="6.65259">
        <ele>300</ele>
        <time>2016-09-03T09:53:55Z</time>
      </trkpt>
      <trkpt lat="47.44808" lon="6.65239">
        <ele>300</ele>
        <time>2016-09-03T09:53:57Z</time>
      </trkpt>
      <trkpt lat="47.44806" lon="6.65218">
        <ele>300</ele>
        <time>2016-09-03T09:53:59Z</time>
      </trkpt>
      <trkpt lat="47.44804" lon="6.65198">
        <ele>300</ele>
        <time>2016-09-03T09:54:01Z</time>
      </trkpt>
      <trkpt lat="47.44802" lon="6.65178">
        <ele>300</ele>
        <time>2016-09-03T09:54:03Z</time>
      </trkpt>
      <trkpt lat="47.448" lon="6.65158">
        <ele>300</ele>
        <time>2016-09-03T09:54:05Z</time>
      </trkpt>
      <trkpt lat="47.448" lon="6.65137">
        <ele>300</ele>
        <time>2016-09-03T09:54:07Z</time>
      </trkpt>
      <trkpt lat="47.44799" lon="6.65115">
        <ele>300</ele>
        <time>2016-09-03T09:54:09Z</time>
      </trkpt>
      <trkpt lat="47.44794" lon="6.65086">
        <ele>300</ele>
        <time>2016-09-03T09:54:12Z</time>
      </trkpt>
      <trkpt lat="47.44793" lon="6.65077">
        <ele>300</ele>
        <time>2016-09-03T09:54:13Z</time>
      </trkpt>
      <trkpt lat="47.44794" lon="6.65055">
        <ele>300</ele>
        <time>2016-09-03T09:54:15Z</time>
      </trkpt>
      <trkpt lat="47.44794" lon="6.65035">
        <ele>300</ele>
        <time>2016-09-03T09:54:17Z</time>
      </trkpt>
      <trkpt lat="47.44793" lon="6.65016">
        <ele>300</ele>
        <time>2016-09-03T09:54:19Z</time>
      </trkpt>
      <trkpt lat="47.44794" lon="6.64997">
        <ele>299</ele>
        <time>2016-09-03T09:54:21Z</time>
      </trkpt>
      <trkpt lat="47.44792" lon="6.64976">
        <ele>299</ele>
        <time>2016-09-03T09:54:23Z</time>
      </trkpt>
      <trkpt lat="47.44788" lon="6.64951">
        <ele>299</ele>
        <time>2016-09-03T09:54:25Z</time>
      </trkpt>
      <trkpt lat="47.44785" lon="6.64929">
        <ele>299</ele>
        <time>2016-09-03T09:54:27Z</time>
      </trkpt>
      <trkpt lat="47.44781" lon="6.64906">
        <ele>299</ele>
        <time>2016-09-03T09:54:29Z</time>
      </trkpt>
      <trkpt lat="47.44779" lon="6.64881">
        <ele>299</ele>
        <time>2016-09-03T09:54:31Z</time>
      </trkpt>
      <trkpt lat="47.44777" lon="6.64859">
        <ele>299</ele>
        <time>2016-09-03T09:54:33Z</time>
      </trkpt>
      <trkpt lat="47.44776" lon="6.64838">
        <ele>299</ele>
        <time>2016-09-03T09:54:35Z</time>
      </trkpt>
      <trkpt lat="47.44774" lon="6.64816">
        <ele>299</ele>
        <time>2016-09-03T09:54:37Z</time>
      </trkpt>
      <trkpt lat="47.44773" lon="6.64796">
        <ele>299</ele>
        <time>2016-09-03T09:54:39Z</time>
      </trkpt>
      <trkpt lat="47.44771" lon="6.64774">
        <ele>299</ele>
        <time>2016-09-03T09:54:41Z</time>
      </trkpt>
      <trkpt lat="47.44769" lon="6.64754">
        <ele>299</ele>
        <time>2016-09-03T09:54:43Z</time>
      </trkpt>
      <trkpt lat="47.44768" lon="6.64732">
        <ele>299</ele>
        <time>2016-09-03T09:54:45Z</time>
      </trkpt>
      <trkpt lat="47.44767" lon="6.64711">
        <ele>299</ele>
        <time>2016-09-03T09:54:47Z</time>
      </trkpt>
      <trkpt lat="47.44765" lon="6.64687">
        <ele>300</ele>
        <time>2016-09-03T09:54:49Z</time>
      </trkpt>
      <trkpt lat="47.44764" lon="6.64666">
        <ele>300</ele>
        <time>2016-09-03T09:54:51Z</time>
      </trkpt>
      <trkpt lat="47.44765" lon="6.64641">
        <ele>299</ele>
        <time>2016-09-03T09:54:53Z</time>
      </trkpt>
      <trkpt lat="47.44762" lon="6.64609">
        <ele>299</ele>
        <time>2016-09-03T09:54:56Z</time>
      </trkpt>
      <trkpt lat="47.44761" lon="6.64599">
        <ele>299</ele>
        <time>2016-09-03T09:54:57Z</time>
      </trkpt>
      <trkpt lat="47.44758" lon="6.6458">
        <ele>299</ele>
        <time>2016-09-03T09:54:59Z</time>
      </trkpt>
      <trkpt lat="47.44756" lon="6.64558">
        <ele>299</ele>
        <time>2016-09-03T09:55:01Z</time>
      </trkpt>
      <trkpt lat="47.44756" lon="6.64529">
        <ele>299</ele>
        <time>2016-09-03T09:55:04Z</time>
      </trkpt>
      <trkpt lat="47.44753" lon="6.64519">
        <ele>299</ele>
        <time>2016-09-03T09:55:05Z</time>
      </trkpt>
      <trkpt lat="47.44751" lon="6.64484">
        <ele>299</ele>
        <time>2016-09-03T09:55:08Z</time>
      </trkpt>
      <trkpt lat="47.44751" lon="6.64463">
        <ele>299</ele>
        <time>2016-09-03T09:55:10Z</time>
      </trkpt>
      <trkpt lat="47.44749" lon="6.64453">
        <ele>299</ele>
        <time>2016-09-03T09:55:11Z</time>
      </trkpt>
      <trkpt lat="47.44747" lon="6.64434">
        <ele>299</ele>
        <time>2016-09-03T09:55:13Z</time>
      </trkpt>
      <trkpt lat="47.44744" lon="6.64403">
        <ele>299</ele>
        <time>2016-09-03T09:55:16Z</time>
      </trkpt>
      <trkpt lat="47.44743" lon="6.64392">
        <ele>299</ele>
        <time>2016-09-03T09:55:17Z</time>
      </trkpt>
      <trkpt lat="47.4474" lon="6.64362">
        <ele>299</ele>
        <time>2016-09-03T09:55:20Z</time>
      </trkpt>
      <trkpt lat="47.44739" lon="6.64352">
        <ele>299</ele>
        <time>2016-09-03T09:55:21Z</time>
      </trkpt>
      <trkpt lat="47.44739" lon="6.6433">
        <ele>299</ele>
        <time>2016-09-03T09:55:23Z</time>
      </trkpt>
      <trkpt lat="47.44737" lon="6.64311">
        <ele>299</ele>
        <time>2016-09-03T09:55:25Z</time>
      </trkpt>
      <trkpt lat="47.44736" lon="6.64276">
        <ele>299</ele>
        <time>2016-09-03T09:55:28Z</time>
      </trkpt>
      <trkpt lat="47.44736" lon="6.64266">
        <ele>299</ele>
        <time>2016-09-03T09:55:29Z</time>
      </trkpt>
      <trkpt lat="47.44733" lon="6.64247">
        <ele>299</ele>
        <time>2016-09-03T09:55:31Z</time>
      </trkpt>
      <trkpt lat="47.44731" lon="6.64228">
        <ele>299</ele>
        <time>2016-09-03T09:55:33Z</time>
      </trkpt>
      <trkpt lat="47.44729" lon="6.64208">
        <ele>299</ele>
        <time>2016-09-03T09:55:35Z</time>
      </trkpt>
      <trkpt lat="47.44729" lon="6.64187">
        <ele>299</ele>
        <time>2016-09-03T09:55:37Z</time>
      </trkpt>
      <trkpt lat="47.44728" lon="6.64166">
        <ele>299</ele>
        <time>2016-09-03T09:55:39Z</time>
      </trkpt>
      <trkpt lat="47.44725" lon="6.64136">
        <ele>299</ele>
        <time>2016-09-03T09:55:42Z</time>
      </trkpt>
      <trkpt lat="47.44724" lon="6.64114">
        <ele>299</ele>
        <time>2016-09-03T09:55:44Z</time>
      </trkpt>
      <trkpt lat="47.44723" lon="6.64102">
        <ele>299</ele>
        <time>2016-09-03T09:55:45Z</time>
      </trkpt>
      <trkpt lat="47.4472" lon="6.64082">
        <ele>300</ele>
        <time>2016-09-03T09:55:47Z</time>
      </trkpt>
      <trkpt lat="47.44716" lon="6.6406">
        <ele>300</ele>
        <time>2016-09-03T09:55:49Z</time>
      </trkpt>
      <trkpt lat="47.44715" lon="6.6404">
        <ele>299</ele>
        <time>2016-09-03T09:55:51Z</time>
      </trkpt>
      <trkpt lat="47.44714" lon="6.64017">
        <ele>299</ele>
        <time>2016-09-03T09:55:53Z</time>
      </trkpt>
      <trkpt lat="47.44712" lon="6.63996">
        <ele>299</ele>
        <time>2016-09-03T09:55:55Z</time>
      </trkpt>
      <trkpt lat="47.44709" lon="6.63966">
        <ele>299</ele>
        <time>2016-09-03T09:55:58Z</time>
      </trkpt>
      <trkpt lat="47.44707" lon="6.63955">
        <ele>299</ele>
        <time>2016-09-03T09:55:59Z</time>
      </trkpt>
      <trkpt lat="47.44707" lon="6.63933">
        <ele>299</ele>
        <time>2016-09-03T09:56:01Z</time>
      </trkpt>
      <trkpt lat="47.44705" lon="6.63913">
        <ele>299</ele>
        <time>2016-09-03T09:56:03Z</time>
      </trkpt>
      <trkpt lat="47.44703" lon="6.63893">
        <ele>300</ele>
        <time>2016-09-03T09:56:05Z</time>
      </trkpt>
      <trkpt lat="47.447" lon="6.63861">
        <ele>300</ele>
        <time>2016-09-03T09:56:08Z</time>
      </trkpt>
      <trkpt lat="47.447" lon="6.63852">
        <ele>300</ele>
        <time>2016-09-03T09:56:09Z</time>
      </trkpt>
      <trkpt lat="47.44698" lon="6.6383">
        <ele>300</ele>
        <time>2016-09-03T09:56:11Z</time>
      </trkpt>
      <trkpt lat="47.44697" lon="6.63808">
        <ele>300</ele>
        <time>2016-09-03T09:56:13Z</time>
      </trkpt>
      <trkpt lat="47.44696" lon="6.63789">
        <ele>299</ele>
        <time>2016-09-03T09:56:15Z</time>
      </trkpt>
      <trkpt lat="47.44692" lon="6.63768">
        <ele>299</ele>
        <time>2016-09-03T09:56:17Z</time>
      </trkpt>
      <trkpt lat="47.44692" lon="6.63746">
        <ele>299</ele>
        <time>2016-09-03T09:56:19Z</time>
      </trkpt>
      <trkpt lat="47.4469" lon="6.63714">
        <ele>299</ele>
        <time>2016-09-03T09:56:22Z</time>
      </trkpt>
      <trkpt lat="47.44689" lon="6.63703">
        <ele>299</ele>
        <time>2016-09-03T09:56:23Z</time>
      </trkpt>
      <trkpt lat="47.44689" lon="6.63682">
        <ele>299</ele>
        <time>2016-09-03T09:56:25Z</time>
      </trkpt>
      <trkpt lat="47.44688" lon="6.63661">
        <ele>299</ele>
        <time>2016-09-03T09:56:27Z</time>
      </trkpt>
      <trkpt lat="47.44687" lon="6.63642">
        <ele>299</ele>
        <time>2016-09-03T09:56:29Z</time>
      </trkpt>
      <trkpt lat="47.44686" lon="6.63621">
        <ele>299</ele>
        <time>2016-09-03T09:56:31Z</time>
      </trkpt>
      <trkpt lat="47.44684" lon="6.63598">
        <ele>299</ele>
        <time>2016-09-03T09:56:33Z</time>
      </trkpt>
      <trkpt lat="47.44679" lon="6.63566">
        <ele>299</ele>
        <time>2016-09-03T09:56:36Z</time>
      </trkpt>
      <trkpt lat="47.44678" lon="6.63553">
        <ele>299</ele>
        <time>2016-09-03T09:56:37Z</time>
      </trkpt>
      <trkpt lat="47.44675" lon="6.63534">
        <ele>299</ele>
        <time>2016-09-03T09:56:39Z</time>
      </trkpt>
      <trkpt lat="47.44672" lon="6.63504">
        <ele>299</ele>
        <time>2016-09-03T09:56:42Z</time>
      </trkpt>
      <trkpt lat="47.4467" lon="6.63493">
        <ele>299</ele>
        <time>2016-09-03T09:56:43Z</time>
      </trkpt>
      <trkpt lat="47.44669" lon="6.63474">
        <ele>299</ele>
        <time>2016-09-03T09:56:45Z</time>
      </trkpt>
      <trkpt lat="47.44666" lon="6.63451">
        <ele>299</ele>
        <time>2016-09-03T09:56:47Z</time>
      </trkpt>
      <trkpt lat="47.44664" lon="6.63433">
        <ele>299</ele>
        <time>2016-09-03T09:56:49Z</time>
      </trkpt>
      <trkpt lat="47.44662" lon="6.63404">
        <ele>299</ele>
        <time>2016-09-03T09:56:52Z</time>
      </trkpt>
      <trkpt lat="47.4466" lon="6.63393">
        <ele>299</ele>
        <time>2016-09-03T09:56:53Z</time>
      </trkpt>
      <trkpt lat="47.4466" lon="6.63373">
        <ele>299</ele>
        <time>2016-09-03T09:56:55Z</time>
      </trkpt>
      <trkpt lat="47.44658" lon="6.63352">
        <ele>299</ele>
        <time>2016-09-03T09:56:57Z</time>
      </trkpt>
      <trkpt lat="47.44654" lon="6.6333">
        <ele>299</ele>
        <time>2016-09-03T09:56:59Z</time>
      </trkpt>
      <trkpt lat="47.44653" lon="6.6331">
        <ele>299</ele>
        <time>2016-09-03T09:57:01Z</time>
      </trkpt>
      <trkpt lat="47.44653" lon="6.63281">
        <ele>299</ele>
        <time>2016-09-03T09:57:04Z</time>
      </trkpt>
      <trkpt lat="47.44652" lon="6.6326">
        <ele>299</ele>
        <time>2016-09-03T09:57:06Z</time>
      </trkpt>
      <trkpt lat="47.44653" lon="6.63248">
        <ele>299</ele>
        <time>2016-09-03T09:57:07Z</time>
      </trkpt>
      <trkpt lat="47.44651" lon="6.63215">
        <ele>300</ele>
        <time>2016-09-03T09:57:10Z</time>
      </trkpt>
      <trkpt lat="47.44648" lon="6.63206">
        <ele>300</ele>
        <time>2016-09-03T09:57:11Z</time>
      </trkpt>
      <trkpt lat="47.44646" lon="6.63184">
        <ele>300</ele>
        <time>2016-09-03T09:57:13Z</time>
      </trkpt>
      <trkpt lat="47.44644" lon="6.63161">
        <ele>299</ele>
        <time>2016-09-03T09:57:15Z</time>
      </trkpt>
      <trkpt lat="47.44639" lon="6.6314">
        <ele>299</ele>
        <time>2016-09-03T09:57:17Z</time>
      </trkpt>
      <trkpt lat="47.4463" lon="6.63125">
        <ele>299</ele>
        <time>2016-09-03T09:57:19Z</time>
      </trkpt>
      <trkpt lat="47.44621" lon="6.63109">
        <ele>298</ele>
        <time>2016-09-03T09:57:21Z</time>
      </trkpt>
      <trkpt lat="47.4461" lon="6.63088">
        <ele>297</ele>
        <time>2016-09-03T09:57:24Z</time>
      </trkpt>
      <trkpt lat="47.44604" lon="6.63082">
        <ele>297</ele>
        <time>2016-09-03T09:57:25Z</time>
      </trkpt>
      <trkpt lat="47.44588" lon="6.63065">
        <ele>296</ele>
        <time>2016-09-03T09:57:28Z</time>
      </trkpt>
      <trkpt lat="47.44582" lon="6.6306">
        <ele>296</ele>
        <time>2016-09-03T09:57:29Z</time>
      </trkpt>
      <trkpt lat="47.44559" lon="6.63057">
        <ele>295</ele>
        <time>2016-09-03T09:57:32Z</time>
      </trkpt>
      <trkpt lat="47.44551" lon="6.63057">
        <ele>295</ele>
        <time>2016-09-03T09:57:33Z</time>
      </trkpt>
      <trkpt lat="47.44531" lon="6.63046">
        <ele>296</ele>
        <time>2016-09-03T09:57:36Z</time>
      </trkpt>
      <trkpt lat="47.44526" lon="6.63043">
        <ele>296</ele>
        <time>2016-09-03T09:57:37Z</time>
      </trkpt>
      <trkpt lat="47.44515" lon="6.6304">
        <ele>296</ele>
        <time>2016-09-03T09:57:39Z</time>
      </trkpt>
      <trkpt lat="47.44502" lon="6.63034">
        <ele>296</ele>
        <time>2016-09-03T09:57:41Z</time>
      </trkpt>
      <trkpt lat="47.44488" lon="6.63029">
        <ele>296</ele>
        <time>2016-09-03T09:57:43Z</time>
      </trkpt>
      <trkpt lat="47.44474" lon="6.63022">
        <ele>296</ele>
        <time>2016-09-03T09:57:45Z</time>
      </trkpt>
      <trkpt lat="47.4446" lon="6.63015">
        <ele>296</ele>
        <time>2016-09-03T09:57:47Z</time>
      </trkpt>
      <trkpt lat="47.44447" lon="6.63007">
        <ele>296</ele>
        <time>2016-09-03T09:57:49Z</time>
      </trkpt>
      <trkpt lat="47.44425" lon="6.62996">
        <ele>296</ele>
        <time>2016-09-03T09:57:52Z</time>
      </trkpt>
      <trkpt lat="47.44419" lon="6.62993">
        <ele>296</ele>
        <time>2016-09-03T09:57:53Z</time>
      </trkpt>
      <trkpt lat="47.44405" lon="6.62986">
        <ele>296</ele>
        <time>2016-09-03T09:57:55Z</time>
      </trkpt>
      <trkpt lat="47.44391" lon="6.62979">
        <ele>295</ele>
        <time>2016-09-03T09:57:57Z</time>
      </trkpt>
      <trkpt lat="47.44379" lon="6.62972">
        <ele>295</ele>
        <time>2016-09-03T09:57:59Z</time>
      </trkpt>
      <trkpt lat="47.44359" lon="6.62962">
        <ele>295</ele>
        <time>2016-09-03T09:58:02Z</time>
      </trkpt>
      <trkpt lat="47.44351" lon="6.62958">
        <ele>295</ele>
        <time>2016-09-03T09:58:03Z</time>
      </trkpt>
      <trkpt lat="47.44337" lon="6.62951">
        <ele>294</ele>
        <time>2016-09-03T09:58:05Z</time>
      </trkpt>
      <trkpt lat="47.44323" lon="6.62946">
        <ele>294</ele>
        <time>2016-09-03T09:58:07Z</time>
      </trkpt>
      <trkpt lat="47.4431" lon="6.62939">
        <ele>294</ele>
        <time>2016-09-03T09:58:09Z</time>
      </trkpt>
      <trkpt lat="47.4429" lon="6.62928">
        <ele>294</ele>
        <time>2016-09-03T09:58:12Z</time>
      </trkpt>
      <trkpt lat="47.44283" lon="6.62925">
        <ele>294</ele>
        <time>2016-09-03T09:58:13Z</time>
      </trkpt>
      <trkpt lat="47.44268" lon="6.6292">
        <ele>293</ele>
        <time>2016-09-03T09:58:15Z</time>
      </trkpt>
      <trkpt lat="47.44255" lon="6.62914">
        <ele>293</ele>
        <time>2016-09-03T09:58:17Z</time>
      </trkpt>
      <trkpt lat="47.44242" lon="6.62909">
        <ele>293</ele>
        <time>2016-09-03T09:58:19Z</time>
      </trkpt>
      <trkpt lat="47.44228" lon="6.62903">
        <ele>293</ele>
        <time>2016-09-03T09:58:21Z</time>
      </trkpt>
      <trkpt lat="47.44207" lon="6.62898">
        <ele>293</ele>
        <time>2016-09-03T09:58:24Z</time>
      </trkpt>
      <trkpt lat="47.44194" lon="6.62892">
        <ele>293</ele>
        <time>2016-09-03T09:58:26Z</time>
      </trkpt>
      <trkpt lat="47.4418" lon="6.62892">
        <ele>293</ele>
        <time>2016-09-03T09:58:28Z</time>
      </trkpt>
      <trkpt lat="47.44166" lon="6.62897">
        <ele>293</ele>
        <time>2016-09-03T09:58:30Z</time>
      </trkpt>
      <trkpt lat="47.44159" lon="6.62896">
        <ele>293</ele>
        <time>2016-09-03T09:58:31Z</time>
      </trkpt>
      <trkpt lat="47.4414" lon="6.62891">
        <ele>293</ele>
        <time>2016-09-03T09:58:34Z</time>
      </trkpt>
      <trkpt lat="47.44133" lon="6.62888">
        <ele>293</ele>
        <time>2016-09-03T09:58:35Z</time>
      </trkpt>
      <trkpt lat="47.44113" lon="6.6288">
        <ele>292</ele>
        <time>2016-09-03T09:58:38Z</time>
      </trkpt>
      <trkpt lat="47.44106" lon="6.62877">
        <ele>292</ele>
        <time>2016-09-03T09:58:39Z</time>
      </trkpt>
      <trkpt lat="47.44093" lon="6.62872">
        <ele>292</ele>
        <time>2016-09-03T09:58:41Z</time>
      </trkpt>
      <trkpt lat="47.4408" lon="6.62865">
        <ele>292</ele>
        <time>2016-09-03T09:58:43Z</time>
      </trkpt>
      <trkpt lat="47.4407" lon="6.62854">
        <ele>292</ele>
        <time>2016-09-03T09:58:45Z</time>
      </trkpt>
      <trkpt lat="47.44056" lon="6.62848">
        <ele>292</ele>
        <time>2016-09-03T09:58:47Z</time>
      </trkpt>
      <trkpt lat="47.44042" lon="6.62843">
        <ele>292</ele>
        <time>2016-09-03T09:58:49Z</time>
      </trkpt>
      <trkpt lat="47.44028" lon="6.62839">
        <ele>292</ele>
        <time>2016-09-03T09:58:51Z</time>
      </trkpt>
      <trkpt lat="47.44015" lon="6.62834">
        <ele>293</ele>
        <time>2016-09-03T09:58:53Z</time>
      </trkpt>
      <trkpt lat="47.44003" lon="6.62832">
        <ele>293</ele>
        <time>2016-09-03T09:58:55Z</time>
      </trkpt>
      <trkpt lat="47.43989" lon="6.62827">
        <ele>293</ele>
        <time>2016-09-03T09:58:57Z</time>
      </trkpt>
      <trkpt lat="47.43976" lon="6.62823">
        <ele>293</ele>
        <time>2016-09-03T09:58:59Z</time>
      </trkpt>
      <trkpt lat="47.43955" lon="6.62818">
        <ele>294</ele>
        <time>2016-09-03T09:59:02Z</time>
      </trkpt>
      <trkpt lat="47.4395" lon="6.62816">
        <ele>294</ele>
        <time>2016-09-03T09:59:03Z</time>
      </trkpt>
      <trkpt lat="47.43935" lon="6.62815">
        <ele>294</ele>
        <time>2016-09-03T09:59:05Z</time>
      </trkpt>
      <trkpt lat="47.43923" lon="6.62821">
        <ele>295</ele>
        <time>2016-09-03T09:59:07Z</time>
      </trkpt>
      <trkpt lat="47.43909" lon="6.62826">
        <ele>295</ele>
        <time>2016-09-03T09:59:09Z</time>
      </trkpt>
      <trkpt lat="47.43896" lon="6.62831">
        <ele>295</ele>
        <time>2016-09-03T09:59:11Z</time>
      </trkpt>
      <trkpt lat="47.43883" lon="6.6284">
        <ele>295</ele>
        <time>2016-09-03T09:59:13Z</time>
      </trkpt>
      <trkpt lat="47.43869" lon="6.62846">
        <ele>295</ele>
        <time>2016-09-03T09:59:15Z</time>
      </trkpt>
      <trkpt lat="47.43855" lon="6.62851">
        <ele>295</ele>
        <time>2016-09-03T09:59:17Z</time>
      </trkpt>
      <trkpt lat="47.43847" lon="6.62856">
        <ele>295</ele>
        <time>2016-09-03T09:59:19Z</time>
      </trkpt>
      <trkpt lat="47.43832" lon="6.62868">
        <ele>295</ele>
        <time>2016-09-03T09:59:22Z</time>
      </trkpt>
      <trkpt lat="47.43822" lon="6.62876">
        <ele>295</ele>
        <time>2016-09-03T09:59:24Z</time>
      </trkpt>
      <trkpt lat="47.4382" lon="6.6288">
        <ele>295</ele>
        <time>2016-09-03T09:59:25Z</time>
      </trkpt>
      <trkpt lat="47.43814" lon="6.62886">
        <ele>295</ele>
        <time>2016-09-03T09:59:27Z</time>
      </trkpt>
      <trkpt lat="47.43805" lon="6.62893">
        <ele>295</ele>
        <time>2016-09-03T09:59:29Z</time>
      </trkpt>
      <trkpt lat="47.43791" lon="6.629">
        <ele>295</ele>
        <time>2016-09-03T09:59:31Z</time>
      </trkpt>
      <trkpt lat="47.43777" lon="6.62908">
        <ele>295</ele>
        <time>2016-09-03T09:59:33Z</time>
      </trkpt>
      <trkpt lat="47.43763" lon="6.62916">
        <ele>295</ele>
        <time>2016-09-03T09:59:35Z</time>
      </trkpt>
      <trkpt lat="47.4375" lon="6.62923">
        <ele>295</ele>
        <time>2016-09-03T09:59:37Z</time>
      </trkpt>
      <trkpt lat="47.4373" lon="6.62935">
        <ele>295</ele>
        <time>2016-09-03T09:59:40Z</time>
      </trkpt>
      <trkpt lat="47.43724" lon="6.6294">
        <ele>295</ele>
        <time>2016-09-03T09:59:41Z</time>
      </trkpt>
      <trkpt lat="47.43703" lon="6.62951">
        <ele>295</ele>
        <time>2016-09-03T09:59:44Z</time>
      </trkpt>
      <trkpt lat="47.43697" lon="6.62957">
        <ele>295</ele>
        <time>2016-09-03T09:59:45Z</time>
      </trkpt>
      <trkpt lat="47.43678" lon="6.62971">
        <ele>295</ele>
        <time>2016-09-03T09:59:48Z</time>
      </trkpt>
      <trkpt lat="47.43666" lon="6.62978">
        <ele>295</ele>
        <time>2016-09-03T09:59:50Z</time>
      </trkpt>
      <trkpt lat="47.43659" lon="6.62981">
        <ele>295</ele>
        <time>2016-09-03T09:59:51Z</time>
      </trkpt>
      <trkpt lat="47.43646" lon="6.62988">
        <ele>295</ele>
        <time>2016-09-03T09:59:53Z</time>
      </trkpt>
      <trkpt lat="47.43634" lon="6.62997">
        <ele>295</ele>
        <time>2016-09-03T09:59:55Z</time>
      </trkpt>
      <trkpt lat="47.43622" lon="6.63007">
        <ele>295</ele>
        <time>2016-09-03T09:59:57Z</time>
      </trkpt>
      <trkpt lat="47.43609" lon="6.63017">
        <ele>295</ele>
        <time>2016-09-03T09:59:59Z</time>
      </trkpt>
      <trkpt lat="47.43595" lon="6.63025">
        <ele>295</ele>
        <time>2016-09-03T10:00:01Z</time>
      </trkpt>
      <trkpt lat="47.4358" lon="6.63034">
        <ele>295</ele>
        <time>2016-09-03T10:00:03Z</time>
      </trkpt>
      <trkpt lat="47.43568" lon="6.63042">
        <ele>295</ele>
        <time>2016-09-03T10:00:05Z</time>
      </trkpt>
      <trkpt lat="47.43553" lon="6.63053">
        <ele>295</ele>
        <time>2016-09-03T10:00:07Z</time>
      </trkpt>
      <trkpt lat="47.43535" lon="6.63065">
        <ele>295</ele>
        <time>2016-09-03T10:00:10Z</time>
      </trkpt>
      <trkpt lat="47.43529" lon="6.63068">
        <ele>295</ele>
        <time>2016-09-03T10:00:11Z</time>
      </trkpt>
      <trkpt lat="47.43514" lon="6.63075">
        <ele>295</ele>
        <time>2016-09-03T10:00:13Z</time>
      </trkpt>
      <trkpt lat="47.43501" lon="6.63083">
        <ele>295</ele>
        <time>2016-09-03T10:00:15Z</time>
      </trkpt>
      <trkpt lat="47.43487" lon="6.63091">
        <ele>295</ele>
        <time>2016-09-03T10:00:17Z</time>
      </trkpt>
      <trkpt lat="47.43474" lon="6.63098">
        <ele>295</ele>
        <time>2016-09-03T10:00:19Z</time>
      </trkpt>
      <trkpt lat="47.43458" lon="6.63104">
        <ele>295</ele>
        <time>2016-09-03T10:00:21Z</time>
      </trkpt>
      <trkpt lat="47.43446" lon="6.63112">
        <ele>295</ele>
        <time>2016-09-03T10:00:23Z</time>
      </trkpt>
      <trkpt lat="47.43433" lon="6.6312">
        <ele>295</ele>
        <time>2016-09-03T10:00:25Z</time>
      </trkpt>
      <trkpt lat="47.43419" lon="6.63127">
        <ele>295</ele>
        <time>2016-09-03T10:00:27Z</time>
      </trkpt>
      <trkpt lat="47.43406" lon="6.63135">
        <ele>295</ele>
        <time>2016-09-03T10:00:29Z</time>
      </trkpt>
      <trkpt lat="47.43393" lon="6.6314">
        <ele>295</ele>
        <time>2016-09-03T10:00:31Z</time>
      </trkpt>
      <trkpt lat="47.43373" lon="6.63146">
        <ele>295</ele>
        <time>2016-09-03T10:00:34Z</time>
      </trkpt>
      <trkpt lat="47.43366" lon="6.63148">
        <ele>295</ele>
        <time>2016-09-03T10:00:35Z</time>
      </trkpt>
      <trkpt lat="47.43352" lon="6.63151">
        <ele>295</ele>
        <time>2016-09-03T10:00:37Z</time>
      </trkpt>
      <trkpt lat="47.43337" lon="6.63155">
        <ele>295</ele>
        <time>2016-09-03T10:00:39Z</time>
      </trkpt>
      <trkpt lat="47.43323" lon="6.63159">
        <ele>295</ele>
        <time>2016-09-03T10:00:41Z</time>
      </trkpt>
      <trkpt lat="47.43302" lon="6.63163">
        <ele>295</ele>
        <time>2016-09-03T10:00:44Z</time>
      </trkpt>
      <trkpt lat="47.43288" lon="6.63165">
        <ele>295</ele>
        <time>2016-09-03T10:00:46Z</time>
      </trkpt>
      <trkpt lat="47.43281" lon="6.63167">
        <ele>295</ele>
        <time>2016-09-03T10:00:47Z</time>
      </trkpt>
      <trkpt lat="47.43268" lon="6.63169">
        <ele>295</ele>
        <time>2016-09-03T10:00:49Z</time>
      </trkpt>
      <trkpt lat="47.43254" lon="6.63172">
        <ele>295</ele>
        <time>2016-09-03T10:00:51Z</time>
      </trkpt>
      <trkpt lat="47.43238" lon="6.63174">
        <ele>295</ele>
        <time>2016-09-03T10:00:53Z</time>
      </trkpt>
      <trkpt lat="47.43224" lon="6.63173">
        <ele>296</ele>
        <time>2016-09-03T10:00:55Z</time>
      </trkpt>
      <trkpt lat="47.43211" lon="6.63173">
        <ele>296</ele>
        <time>2016-09-03T10:00:57Z</time>
      </trkpt>
      <trkpt lat="47.43189" lon="6.63168">
        <ele>296</ele>
        <time>2016-09-03T10:01:00Z</time>
      </trkpt>
      <trkpt lat="47.43175" lon="6.63167">
        <ele>296</ele>
        <time>2016-09-03T10:01:02Z</time>
      </trkpt>
      <trkpt lat="47.43167" lon="6.63166">
        <ele>296</ele>
        <time>2016-09-03T10:01:03Z</time>
      </trkpt>
      <trkpt lat="47.43153" lon="6.63164">
        <ele>296</ele>
        <time>2016-09-03T10:01:05Z</time>
      </trkpt>
      <trkpt lat="47.4314" lon="6.63162">
        <ele>296</ele>
        <time>2016-09-03T10:01:07Z</time>
      </trkpt>
      <trkpt lat="47.43126" lon="6.63159">
        <ele>296</ele>
        <time>2016-09-03T10:01:09Z</time>
      </trkpt>
      <trkpt lat="47.43112" lon="6.63157">
        <ele>296</ele>
        <time>2016-09-03T10:01:11Z</time>
      </trkpt>
      <trkpt lat="47.43091" lon="6.63151">
        <ele>296</ele>
        <time>2016-09-03T10:01:14Z</time>
      </trkpt>
      <trkpt lat="47.43084" lon="6.63149">
        <ele>296</ele>
        <time>2016-09-03T10:01:15Z</time>
      </trkpt>
      <trkpt lat="47.43065" lon="6.63144">
        <ele>297</ele>
        <time>2016-09-03T10:01:18Z</time>
      </trkpt>
      <trkpt lat="47.43059" lon="6.63141">
        <ele>297</ele>
        <time>2016-09-03T10:01:19Z</time>
      </trkpt>
      <trkpt lat="47.43047" lon="6.63137">
        <ele>297</ele>
        <time>2016-09-03T10:01:21Z</time>
      </trkpt>
      <trkpt lat="47.43035" lon="6.63131">
        <ele>297</ele>
        <time>2016-09-03T10:01:23Z</time>
      </trkpt>
      <trkpt lat="47.43016" lon="6.6312">
        <ele>297</ele>
        <time>2016-09-03T10:01:26Z</time>
      </trkpt>
      <trkpt lat="47.43" lon="6.63111">
        <ele>296</ele>
        <time>2016-09-03T10:01:28Z</time>
      </trkpt>
      <trkpt lat="47.42994" lon="6.63106">
        <ele>296</ele>
        <time>2016-09-03T10:01:29Z</time>
      </trkpt>
      <trkpt lat="47.42984" lon="6.63096">
        <ele>296</ele>
        <time>2016-09-03T10:01:31Z</time>
      </trkpt>
      <trkpt lat="47.42971" lon="6.63087">
        <ele>297</ele>
        <time>2016-09-03T10:01:33Z</time>
      </trkpt>
      <trkpt lat="47.42956" lon="6.63077">
        <ele>296</ele>
        <time>2016-09-03T10:01:35Z</time>
      </trkpt>
      <trkpt lat="47.42943" lon="6.63068">
        <ele>296</ele>
        <time>2016-09-03T10:01:37Z</time>
      </trkpt>
      <trkpt lat="47.42932" lon="6.63059">
        <ele>296</ele>
        <time>2016-09-03T10:01:39Z</time>
      </trkpt>
      <trkpt lat="47.42919" lon="6.63049">
        <ele>297</ele>
        <time>2016-09-03T10:01:41Z</time>
      </trkpt>
      <trkpt lat="47.42906" lon="6.63039">
        <ele>297</ele>
        <time>2016-09-03T10:01:43Z</time>
      </trkpt>
      <trkpt lat="47.42894" lon="6.63027">
        <ele>297</ele>
        <time>2016-09-03T10:01:45Z</time>
      </trkpt>
      <trkpt lat="47.42882" lon="6.63016">
        <ele>297</ele>
        <time>2016-09-03T10:01:47Z</time>
      </trkpt>
      <trkpt lat="47.42871" lon="6.63003">
        <ele>297</ele>
        <time>2016-09-03T10:01:49Z</time>
      </trkpt>
      <trkpt lat="47.42857" lon="6.62991">
        <ele>297</ele>
        <time>2016-09-03T10:01:51Z</time>
      </trkpt>
      <trkpt lat="47.42846" lon="6.62979">
        <ele>297</ele>
        <time>2016-09-03T10:01:53Z</time>
      </trkpt>
      <trkpt lat="47.42834" lon="6.62966">
        <ele>297</ele>
        <time>2016-09-03T10:01:55Z</time>
      </trkpt>
      <trkpt lat="47.42825" lon="6.62955">
        <ele>297</ele>
        <time>2016-09-03T10:01:57Z</time>
      </trkpt>
      <trkpt lat="47.42814" lon="6.62941">
        <ele>297</ele>
        <time>2016-09-03T10:01:59Z</time>
      </trkpt>
      <trkpt lat="47.42805" lon="6.62927">
        <ele>297</ele>
        <time>2016-09-03T10:02:01Z</time>
      </trkpt>
      <trkpt lat="47.42795" lon="6.62912">
        <ele>297</ele>
        <time>2016-09-03T10:02:03Z</time>
      </trkpt>
      <trkpt lat="47.42786" lon="6.62898">
        <ele>297</ele>
        <time>2016-09-03T10:02:05Z</time>
      </trkpt>
      <trkpt lat="47.42777" lon="6.62882">
        <ele>297</ele>
        <time>2016-09-03T10:02:07Z</time>
      </trkpt>
      <trkpt lat="47.42769" lon="6.62867">
        <ele>297</ele>
        <time>2016-09-03T10:02:09Z</time>
      </trkpt>
      <trkpt lat="47.42759" lon="6.62848">
        <ele>297</ele>
        <time>2016-09-03T10:02:11Z</time>
      </trkpt>
      <trkpt lat="47.42751" lon="6.6283">
        <ele>297</ele>
        <time>2016-09-03T10:02:13Z</time>
      </trkpt>
      <trkpt lat="47.42744" lon="6.62812">
        <ele>297</ele>
        <time>2016-09-03T10:02:15Z</time>
      </trkpt>
      <trkpt lat="47.42737" lon="6.62795">
        <ele>297</ele>
        <time>2016-09-03T10:02:17Z</time>
      </trkpt>
      <trkpt lat="47.4273" lon="6.62777">
        <ele>297</ele>
        <time>2016-09-03T10:02:19Z</time>
      </trkpt>
      <trkpt lat="47.42718" lon="6.62747">
        <ele>296</ele>
        <time>2016-09-03T10:02:22Z</time>
      </trkpt>
      <trkpt lat="47.42716" lon="6.62737">
        <ele>296</ele>
        <time>2016-09-03T10:02:23Z</time>
      </trkpt>
      <trkpt lat="47.42707" lon="6.62709">
        <ele>295</ele>
        <time>2016-09-03T10:02:26Z</time>
      </trkpt>
      <trkpt lat="47.42704" lon="6.62701">
        <ele>295</ele>
        <time>2016-09-03T10:02:27Z</time>
      </trkpt>
      <trkpt lat="47.427" lon="6.62686">
        <ele>294</ele>
        <time>2016-09-03T10:02:29Z</time>
      </trkpt>
      <trkpt lat="47.42694" lon="6.62667">
        <ele>294</ele>
        <time>2016-09-03T10:02:31Z</time>
      </trkpt>
      <trkpt lat="47.4269" lon="6.62647">
        <ele>293</ele>
        <time>2016-09-03T10:02:33Z</time>
      </trkpt>
      <trkpt lat="47.42685" lon="6.62627">
        <ele>293</ele>
        <time>2016-09-03T10:02:35Z</time>
      </trkpt>
      <trkpt lat="47.4268" lon="6.62609">
        <ele>293</ele>
        <time>2016-09-03T10:02:37Z</time>
      </trkpt>
      <trkpt lat="47.42676" lon="6.62587">
        <ele>293</ele>
        <time>2016-09-03T10:02:39Z</time>
      </trkpt>
      <trkpt lat="47.42672" lon="6.62567">
        <ele>293</ele>
        <time>2016-09-03T10:02:41Z</time>
      </trkpt>
      <trkpt lat="47.42666" lon="6.62538">
        <ele>294</ele>
        <time>2016-09-03T10:02:44Z</time>
      </trkpt>
      <trkpt lat="47.42665" lon="6.62528">
        <ele>294</ele>
        <time>2016-09-03T10:02:45Z</time>
      </trkpt>
      <trkpt lat="47.42662" lon="6.62509">
        <ele>294</ele>
        <time>2016-09-03T10:02:47Z</time>
      </trkpt>
      <trkpt lat="47.42658" lon="6.62488">
        <ele>295</ele>
        <time>2016-09-03T10:02:49Z</time>
      </trkpt>
      <trkpt lat="47.42655" lon="6.62467">
        <ele>295</ele>
        <time>2016-09-03T10:02:51Z</time>
      </trkpt>
      <trkpt lat="47.4265" lon="6.62438">
        <ele>296</ele>
        <time>2016-09-03T10:02:54Z</time>
      </trkpt>
      <trkpt lat="47.42649" lon="6.62429">
        <ele>296</ele>
        <time>2016-09-03T10:02:55Z</time>
      </trkpt>
      <trkpt lat="47.42646" lon="6.62407">
        <ele>296</ele>
        <time>2016-09-03T10:02:57Z</time>
      </trkpt>
      <trkpt lat="47.42644" lon="6.62389">
        <ele>296</ele>
        <time>2016-09-03T10:02:59Z</time>
      </trkpt>
      <trkpt lat="47.42641" lon="6.62368">
        <ele>296</ele>
        <time>2016-09-03T10:03:01Z</time>
      </trkpt>
      <trkpt lat="47.42639" lon="6.62347">
        <ele>296</ele>
        <time>2016-09-03T10:03:03Z</time>
      </trkpt>
      <trkpt lat="47.42635" lon="6.62327">
        <ele>296</ele>
        <time>2016-09-03T10:03:05Z</time>
      </trkpt>
      <trkpt lat="47.42634" lon="6.62305">
        <ele>296</ele>
        <time>2016-09-03T10:03:07Z</time>
      </trkpt>
      <trkpt lat="47.42632" lon="6.62284">
        <ele>296</ele>
        <time>2016-09-03T10:03:09Z</time>
      </trkpt>
      <trkpt lat="47.4263" lon="6.62265">
        <ele>295</ele>
        <time>2016-09-03T10:03:11Z</time>
      </trkpt>
      <trkpt lat="47.42628" lon="6.62245">
        <ele>295</ele>
        <time>2016-09-03T10:03:13Z</time>
      </trkpt>
      <trkpt lat="47.42627" lon="6.62217">
        <ele>294</ele>
        <time>2016-09-03T10:03:16Z</time>
      </trkpt>
      <trkpt lat="47.42625" lon="6.62199">
        <ele>294</ele>
        <time>2016-09-03T10:03:18Z</time>
      </trkpt>
      <trkpt lat="47.42625" lon="6.62188">
        <ele>294</ele>
        <time>2016-09-03T10:03:19Z</time>
      </trkpt>
      <trkpt lat="47.42623" lon="6.6216">
        <ele>293</ele>
        <time>2016-09-03T10:03:22Z</time>
      </trkpt>
      <trkpt lat="47.42623" lon="6.62151">
        <ele>293</ele>
        <time>2016-09-03T10:03:23Z</time>
      </trkpt>
      <trkpt lat="47.42622" lon="6.6213">
        <ele>293</ele>
        <time>2016-09-03T10:03:25Z</time>
      </trkpt>
      <trkpt lat="47.42624" lon="6.62109">
        <ele>293</ele>
        <time>2016-09-03T10:03:27Z</time>
      </trkpt>
      <trkpt lat="47.42622" lon="6.62087">
        <ele>293</ele>
        <time>2016-09-03T10:03:29Z</time>
      </trkpt>
      <trkpt lat="47.42622" lon="6.62056">
        <ele>294</ele>
        <time>2016-09-03T10:03:32Z</time>
      </trkpt>
      <trkpt lat="47.42622" lon="6.62046">
        <ele>294</ele>
        <time>2016-09-03T10:03:33Z</time>
      </trkpt>
      <trkpt lat="47.42623" lon="6.62025">
        <ele>295</ele>
        <time>2016-09-03T10:03:35Z</time>
      </trkpt>
      <trkpt lat="47.42624" lon="6.62003">
        <ele>295</ele>
        <time>2016-09-03T10:03:37Z</time>
      </trkpt>
      <trkpt lat="47.42625" lon="6.61982">
        <ele>295</ele>
        <time>2016-09-03T10:03:39Z</time>
      </trkpt>
      <trkpt lat="47.42627" lon="6.6196">
        <ele>294</ele>
        <time>2016-09-03T10:03:41Z</time>
      </trkpt>
      <trkpt lat="47.42632" lon="6.6193">
        <ele>294</ele>
        <time>2016-09-03T10:03:44Z</time>
      </trkpt>
      <trkpt lat="47.42633" lon="6.61921">
        <ele>294</ele>
        <time>2016-09-03T10:03:45Z</time>
      </trkpt>
      <trkpt lat="47.42637" lon="6.61898">
        <ele>294</ele>
        <time>2016-09-03T10:03:47Z</time>
      </trkpt>
      <trkpt lat="47.42639" lon="6.61868">
        <ele>295</ele>
        <time>2016-09-03T10:03:50Z</time>
      </trkpt>
      <trkpt lat="47.42641" lon="6.61847">
        <ele>296</ele>
        <time>2016-09-03T10:03:52Z</time>
      </trkpt>
      <trkpt lat="47.42641" lon="6.61839">
        <ele>296</ele>
        <time>2016-09-03T10:03:53Z</time>
      </trkpt>
      <trkpt lat="47.42648" lon="6.61817">
        <ele>296</ele>
        <time>2016-09-03T10:03:55Z</time>
      </trkpt>
      <trkpt lat="47.42652" lon="6.61795">
        <ele>297</ele>
        <time>2016-09-03T10:03:57Z</time>
      </trkpt>
      <trkpt lat="47.42655" lon="6.61775">
        <ele>297</ele>
        <time>2016-09-03T10:03:59Z</time>
      </trkpt>
      <trkpt lat="47.42661" lon="6.61757">
        <ele>297</ele>
        <time>2016-09-03T10:04:01Z</time>
      </trkpt>
      <trkpt lat="47.42664" lon="6.61737">
        <ele>297</ele>
        <time>2016-09-03T10:04:03Z</time>
      </trkpt>
      <trkpt lat="47.42669" lon="6.61718">
        <ele>296</ele>
        <time>2016-09-03T10:04:05Z</time>
      </trkpt>
      <trkpt lat="47.42675" lon="6.61688">
        <ele>297</ele>
        <time>2016-09-03T10:04:08Z</time>
      </trkpt>
      <trkpt lat="47.42677" lon="6.61666">
        <ele>298</ele>
        <time>2016-09-03T10:04:10Z</time>
      </trkpt>
      <trkpt lat="47.4268" lon="6.61656">
        <ele>298</ele>
        <time>2016-09-03T10:04:11Z</time>
      </trkpt>
      <trkpt lat="47.42683" lon="6.61636">
        <ele>298</ele>
        <time>2016-09-03T10:04:13Z</time>
      </trkpt>
      <trkpt lat="47.42689" lon="6.61617">
        <ele>298</ele>
        <time>2016-09-03T10:04:15Z</time>
      </trkpt>
      <trkpt lat="47.42694" lon="6.61597">
        <ele>298</ele>
        <time>2016-09-03T10:04:17Z</time>
      </trkpt>
      <trkpt lat="47.42702" lon="6.6157">
        <ele>298</ele>
        <time>2016-09-03T10:04:20Z</time>
      </trkpt>
      <trkpt lat="47.42704" lon="6.61557">
        <ele>298</ele>
        <time>2016-09-03T10:04:21Z</time>
      </trkpt>
      <trkpt lat="47.42712" lon="6.61538">
        <ele>297</ele>
        <time>2016-09-03T10:04:23Z</time>
      </trkpt>
      <trkpt lat="47.42717" lon="6.6152">
        <ele>297</ele>
        <time>2016-09-03T10:04:25Z</time>
      </trkpt>
      <trkpt lat="47.42724" lon="6.61501">
        <ele>297</ele>
        <time>2016-09-03T10:04:27Z</time>
      </trkpt>
      <trkpt lat="47.4273" lon="6.61478">
        <ele>297</ele>
        <time>2016-09-03T10:04:29Z</time>
      </trkpt>
      <trkpt lat="47.42735" lon="6.61454">
        <ele>297</ele>
        <time>2016-09-03T10:04:31Z</time>
      </trkpt>
      <trkpt lat="47.42743" lon="6.61432">
        <ele>297</ele>
        <time>2016-09-03T10:04:34Z</time>
      </trkpt>
      <trkpt lat="47.42745" lon="6.61423">
        <ele>297</ele>
        <time>2016-09-03T10:04:35Z</time>
      </trkpt>
      <trkpt lat="47.42753" lon="6.61405">
        <ele>296</ele>
        <time>2016-09-03T10:04:37Z</time>
      </trkpt>
      <trkpt lat="47.42757" lon="6.61388">
        <ele>296</ele>
        <time>2016-09-03T10:04:39Z</time>
      </trkpt>
      <trkpt lat="47.42763" lon="6.61371">
        <ele>296</ele>
        <time>2016-09-03T10:04:41Z</time>
      </trkpt>
      <trkpt lat="47.4277" lon="6.61354">
        <ele>296</ele>
        <time>2016-09-03T10:04:43Z</time>
      </trkpt>
      <trkpt lat="47.42779" lon="6.61334">
        <ele>296</ele>
        <time>2016-09-03T10:04:46Z</time>
      </trkpt>
      <trkpt lat="47.42781" lon="6.61326">
        <ele>295</ele>
        <time>2016-09-03T10:04:47Z</time>
      </trkpt>
      <trkpt lat="47.42787" lon="6.61304">
        <ele>295</ele>
        <time>2016-09-03T10:04:50Z</time>
      </trkpt>
      <trkpt lat="47.4279" lon="6.61301">
        <ele>295</ele>
        <time>2016-09-03T10:04:51Z</time>
      </trkpt>
      <trkpt lat="47.42795" lon="6.61299">
        <ele>295</ele>
        <time>2016-09-03T10:04:53Z</time>
      </trkpt>
      <trkpt lat="47.42799" lon="6.61303">
        <ele>295</ele>
        <time>2016-09-03T10:04:55Z</time>
      </trkpt>
      <trkpt lat="47.42808" lon="6.61306">
        <ele>295</ele>
        <time>2016-09-03T10:04:57Z</time>
      </trkpt>
      <trkpt lat="47.42818" lon="6.61297">
        <ele>295</ele>
        <time>2016-09-03T10:04:59Z</time>
      </trkpt>
      <trkpt lat="47.42821" lon="6.61279">
        <ele>295</ele>
        <time>2016-09-03T10:05:01Z</time>
      </trkpt>
      <trkpt lat="47.42826" lon="6.61259">
        <ele>295</ele>
        <time>2016-09-03T10:05:03Z</time>
      </trkpt>
      <trkpt lat="47.42833" lon="6.6124">
        <ele>295</ele>
        <time>2016-09-03T10:05:05Z</time>
      </trkpt>
      <trkpt lat="47.4284" lon="6.61222">
        <ele>295</ele>
        <time>2016-09-03T10:05:07Z</time>
      </trkpt>
      <trkpt lat="47.4285" lon="6.61193">
        <ele>295</ele>
        <time>2016-09-03T10:05:10Z</time>
      </trkpt>
      <trkpt lat="47.42858" lon="6.61174">
        <ele>295</ele>
        <time>2016-09-03T10:05:12Z</time>
      </trkpt>
      <trkpt lat="47.42861" lon="6.61164">
        <ele>295</ele>
        <time>2016-09-03T10:05:13Z</time>
      </trkpt>
      <trkpt lat="47.42869" lon="6.61144">
        <ele>295</ele>
        <time>2016-09-03T10:05:15Z</time>
      </trkpt>
      <trkpt lat="47.42876" lon="6.61127">
        <ele>295</ele>
        <time>2016-09-03T10:05:17Z</time>
      </trkpt>
      <trkpt lat="47.42884" lon="6.6111">
        <ele>295</ele>
        <time>2016-09-03T10:05:19Z</time>
      </trkpt>
      <trkpt lat="47.42891" lon="6.61092">
        <ele>295</ele>
        <time>2016-09-03T10:05:21Z</time>
      </trkpt>
      <trkpt lat="47.42897" lon="6.61072">
        <ele>295</ele>
        <time>2016-09-03T10:05:23Z</time>
      </trkpt>
      <trkpt lat="47.42904" lon="6.61053">
        <ele>295</ele>
        <time>2016-09-03T10:05:25Z</time>
      </trkpt>
      <trkpt lat="47.42911" lon="6.61035">
        <ele>295</ele>
        <time>2016-09-03T10:05:27Z</time>
      </trkpt>
      <trkpt lat="47.42919" lon="6.61016">
        <ele>295</ele>
        <time>2016-09-03T10:05:29Z</time>
      </trkpt>
      <trkpt lat="47.42926" lon="6.60998">
        <ele>295</ele>
        <time>2016-09-03T10:05:31Z</time>
      </trkpt>
      <trkpt lat="47.42935" lon="6.60981">
        <ele>295</ele>
        <time>2016-09-03T10:05:33Z</time>
      </trkpt>
      <trkpt lat="47.42942" lon="6.60963">
        <ele>296</ele>
        <time>2016-09-03T10:05:35Z</time>
      </trkpt>
      <trkpt lat="47.4295" lon="6.60947">
        <ele>295</ele>
        <time>2016-09-03T10:05:37Z</time>
      </trkpt>
      <trkpt lat="47.42958" lon="6.6093">
        <ele>295</ele>
        <time>2016-09-03T10:05:39Z</time>
      </trkpt>
      <trkpt lat="47.42966" lon="6.60913">
        <ele>295</ele>
        <time>2016-09-03T10:05:41Z</time>
      </trkpt>
      <trkpt lat="47.42977" lon="6.60888">
        <ele>295</ele>
        <time>2016-09-03T10:05:44Z</time>
      </trkpt>
      <trkpt lat="47.4298" lon="6.60879">
        <ele>295</ele>
        <time>2016-09-03T10:05:45Z</time>
      </trkpt>
      <trkpt lat="47.42989" lon="6.60862">
        <ele>295</ele>
        <time>2016-09-03T10:05:47Z</time>
      </trkpt>
      <trkpt lat="47.42997" lon="6.60844">
        <ele>295</ele>
        <time>2016-09-03T10:05:49Z</time>
      </trkpt>
      <trkpt lat="47.43004" lon="6.60826">
        <ele>295</ele>
        <time>2016-09-03T10:05:51Z</time>
      </trkpt>
      <trkpt lat="47.43011" lon="6.6081">
        <ele>295</ele>
        <time>2016-09-03T10:05:53Z</time>
      </trkpt>
      <trkpt lat="47.43017" lon="6.60793">
        <ele>295</ele>
        <time>2016-09-03T10:05:55Z</time>
      </trkpt>
      <trkpt lat="47.43026" lon="6.60772">
        <ele>295</ele>
        <time>2016-09-03T10:05:57Z</time>
      </trkpt>
      <trkpt lat="47.43034" lon="6.60754">
        <ele>295</ele>
        <time>2016-09-03T10:05:59Z</time>
      </trkpt>
      <trkpt lat="47.43042" lon="6.60738">
        <ele>295</ele>
        <time>2016-09-03T10:06:01Z</time>
      </trkpt>
      <trkpt lat="47.43049" lon="6.60717">
        <ele>295</ele>
        <time>2016-09-03T10:06:03Z</time>
      </trkpt>
      <trkpt lat="47.43057" lon="6.60701">
        <ele>295</ele>
        <time>2016-09-03T10:06:05Z</time>
      </trkpt>
      <trkpt lat="47.43063" lon="6.60685">
        <ele>295</ele>
        <time>2016-09-03T10:06:07Z</time>
      </trkpt>
      <trkpt lat="47.43071" lon="6.60669">
        <ele>295</ele>
        <time>2016-09-03T10:06:09Z</time>
      </trkpt>
      <trkpt lat="47.43079" lon="6.60651">
        <ele>295</ele>
        <time>2016-09-03T10:06:11Z</time>
      </trkpt>
      <trkpt lat="47.43088" lon="6.60633">
        <ele>295</ele>
        <time>2016-09-03T10:06:13Z</time>
      </trkpt>
      <trkpt lat="47.43096" lon="6.60615">
        <ele>295</ele>
        <time>2016-09-03T10:06:15Z</time>
      </trkpt>
      <trkpt lat="47.43103" lon="6.60596">
        <ele>295</ele>
        <time>2016-09-03T10:06:17Z</time>
      </trkpt>
      <trkpt lat="47.43112" lon="6.60579">
        <ele>295</ele>
        <time>2016-09-03T10:06:19Z</time>
      </trkpt>
      <trkpt lat="47.43118" lon="6.60564">
        <ele>295</ele>
        <time>2016-09-03T10:06:21Z</time>
      </trkpt>
      <trkpt lat="47.43126" lon="6.60546">
        <ele>295</ele>
        <time>2016-09-03T10:06:23Z</time>
      </trkpt>
      <trkpt lat="47.43135" lon="6.60529">
        <ele>295</ele>
        <time>2016-09-03T10:06:25Z</time>
      </trkpt>
      <trkpt lat="47.43142" lon="6.60512">
        <ele>295</ele>
        <time>2016-09-03T10:06:27Z</time>
      </trkpt>
      <trkpt lat="47.4315" lon="6.60494">
        <ele>294</ele>
        <time>2016-09-03T10:06:29Z</time>
      </trkpt>
      <trkpt lat="47.43158" lon="6.60476">
        <ele>294</ele>
        <time>2016-09-03T10:06:31Z</time>
      </trkpt>
      <trkpt lat="47.43165" lon="6.6046">
        <ele>294</ele>
        <time>2016-09-03T10:06:33Z</time>
      </trkpt>
      <trkpt lat="47.43174" lon="6.60441">
        <ele>294</ele>
        <time>2016-09-03T10:06:35Z</time>
      </trkpt>
      <trkpt lat="47.43182" lon="6.60422">
        <ele>294</ele>
        <time>2016-09-03T10:06:37Z</time>
      </trkpt>
      <trkpt lat="47.43189" lon="6.60405">
        <ele>294</ele>
        <time>2016-09-03T10:06:39Z</time>
      </trkpt>
      <trkpt lat="47.43197" lon="6.60388">
        <ele>294</ele>
        <time>2016-09-03T10:06:41Z</time>
      </trkpt>
      <trkpt lat="47.43205" lon="6.60372">
        <ele>294</ele>
        <time>2016-09-03T10:06:43Z</time>
      </trkpt>
      <trkpt lat="47.43213" lon="6.60353">
        <ele>294</ele>
        <time>2016-09-03T10:06:45Z</time>
      </trkpt>
      <trkpt lat="47.4322" lon="6.60336">
        <ele>294</ele>
        <time>2016-09-03T10:06:47Z</time>
      </trkpt>
      <trkpt lat="47.43228" lon="6.60319">
        <ele>294</ele>
        <time>2016-09-03T10:06:49Z</time>
      </trkpt>
      <trkpt lat="47.43236" lon="6.60298">
        <ele>294</ele>
        <time>2016-09-03T10:06:51Z</time>
      </trkpt>
      <trkpt lat="47.43244" lon="6.6028">
        <ele>294</ele>
        <time>2016-09-03T10:06:53Z</time>
      </trkpt>
      <trkpt lat="47.43253" lon="6.60263">
        <ele>294</ele>
        <time>2016-09-03T10:06:55Z</time>
      </trkpt>
      <trkpt lat="47.4326" lon="6.60244">
        <ele>295</ele>
        <time>2016-09-03T10:06:57Z</time>
      </trkpt>
      <trkpt lat="47.43268" lon="6.60227">
        <ele>295</ele>
        <time>2016-09-03T10:06:59Z</time>
      </trkpt>
      <trkpt lat="47.4328" lon="6.60201">
        <ele>296</ele>
        <time>2016-09-03T10:07:02Z</time>
      </trkpt>
      <trkpt lat="47.43283" lon="6.60193">
        <ele>296</ele>
        <time>2016-09-03T10:07:03Z</time>
      </trkpt>
      <trkpt lat="47.43291" lon="6.60175">
        <ele>297</ele>
        <time>2016-09-03T10:07:05Z</time>
      </trkpt>
      <trkpt lat="47.43298" lon="6.60157">
        <ele>299</ele>
        <time>2016-09-03T10:07:07Z</time>
      </trkpt>
      <trkpt lat="47.43307" lon="6.60142">
        <ele>300</ele>
        <time>2016-09-03T10:07:09Z</time>
      </trkpt>
      <trkpt lat="47.43313" lon="6.60126">
        <ele>303</ele>
        <time>2016-09-03T10:07:11Z</time>
      </trkpt>
      <trkpt lat="47.43326" lon="6.601">
        <ele>307</ele>
        <time>2016-09-03T10:07:14Z</time>
      </trkpt>
      <trkpt lat="47.43329" lon="6.60092">
        <ele>309</ele>
        <time>2016-09-03T10:07:15Z</time>
      </trkpt>
      <trkpt lat="47.43343" lon="6.60069">
        <ele>315</ele>
        <time>2016-09-03T10:07:18Z</time>
      </trkpt>
      <trkpt lat="47.43349" lon="6.6006">
        <ele>316</ele>
        <time>2016-09-03T10:07:19Z</time>
      </trkpt>
      <trkpt lat="47.43358" lon="6.60048">
        <ele>318</ele>
        <time>2016-09-03T10:07:21Z</time>
      </trkpt>
      <trkpt lat="47.4337" lon="6.60038">
        <ele>319</ele>
        <time>2016-09-03T10:07:23Z</time>
      </trkpt>
      <trkpt lat="47.43381" lon="6.60026">
        <ele>319</ele>
        <time>2016-09-03T10:07:25Z</time>
      </trkpt>
      <trkpt lat="47.43394" lon="6.60016">
        <ele>319</ele>
        <time>2016-09-03T10:07:27Z</time>
      </trkpt>
      <trkpt lat="47.43405" lon="6.60006">
        <ele>321</ele>
        <time>2016-09-03T10:07:29Z</time>
      </trkpt>
      <trkpt lat="47.43419" lon="6.6">
        <ele>320</ele>
        <time>2016-09-03T10:07:31Z</time>
      </trkpt>
      <trkpt lat="47.43431" lon="6.59992">
        <ele>320</ele>
        <time>2016-09-03T10:07:33Z</time>
      </trkpt>
      <trkpt lat="47.43445" lon="6.59986">
        <ele>318</ele>
        <time>2016-09-03T10:07:35Z</time>
      </trkpt>
      <trkpt lat="47.43459" lon="6.59979">
        <ele>318</ele>
        <time>2016-09-03T10:07:37Z</time>
      </trkpt>
      <trkpt lat="47.43469" lon="6.59973">
        <ele>318</ele>
        <time>2016-09-03T10:07:39Z</time>
      </trkpt>
      <trkpt lat="47.43481" lon="6.59967">
        <ele>318</ele>
        <time>2016-09-03T10:07:41Z</time>
      </trkpt>
      <trkpt lat="47.43496" lon="6.59959">
        <ele>317</ele>
        <time>2016-09-03T10:07:43Z</time>
      </trkpt>
      <trkpt lat="47.4351" lon="6.59951">
        <ele>317</ele>
        <time>2016-09-03T10:07:45Z</time>
      </trkpt>
      <trkpt lat="47.43521" lon="6.59943">
        <ele>318</ele>
        <time>2016-09-03T10:07:47Z</time>
      </trkpt>
      <trkpt lat="47.43534" lon="6.59938">
        <ele>317</ele>
        <time>2016-09-03T10:07:49Z</time>
      </trkpt>
      <trkpt lat="47.43546" lon="6.59932">
        <ele>317</ele>
        <time>2016-09-03T10:07:51Z</time>
      </trkpt>
      <trkpt lat="47.43557" lon="6.59923">
        <ele>317</ele>
        <time>2016-09-03T10:07:53Z</time>
      </trkpt>
      <trkpt lat="47.43569" lon="6.59915">
        <ele>317</ele>
        <time>2016-09-03T10:07:55Z</time>
      </trkpt>
      <trkpt lat="47.43584" lon="6.59911">
        <ele>316</ele>
        <time>2016-09-03T10:07:57Z</time>
      </trkpt>
      <trkpt lat="47.43598" lon="6.59906">
        <ele>315</ele>
        <time>2016-09-03T10:07:59Z</time>
      </trkpt>
      <trkpt lat="47.43618" lon="6.59895">
        <ele>314</ele>
        <time>2016-09-03T10:08:02Z</time>
      </trkpt>
      <trkpt lat="47.43625" lon="6.59891">
        <ele>313</ele>
        <time>2016-09-03T10:08:03Z</time>
      </trkpt>
      <trkpt lat="47.43641" lon="6.59883">
        <ele>313</ele>
        <time>2016-09-03T10:08:05Z</time>
      </trkpt>
      <trkpt lat="47.43654" lon="6.59878">
        <ele>312</ele>
        <time>2016-09-03T10:08:07Z</time>
      </trkpt>
      <trkpt lat="47.4367" lon="6.59871">
        <ele>311</ele>
        <time>2016-09-03T10:08:10Z</time>
      </trkpt>
      <trkpt lat="47.43683" lon="6.59864">
        <ele>311</ele>
        <time>2016-09-03T10:08:12Z</time>
      </trkpt>
      <trkpt lat="47.43689" lon="6.59861">
        <ele>311</ele>
        <time>2016-09-03T10:08:13Z</time>
      </trkpt>
      <trkpt lat="47.43702" lon="6.59854">
        <ele>310</ele>
        <time>2016-09-03T10:08:15Z</time>
      </trkpt>
      <trkpt lat="47.43713" lon="6.5985">
        <ele>310</ele>
        <time>2016-09-03T10:08:17Z</time>
      </trkpt>
      <trkpt lat="47.43727" lon="6.59845">
        <ele>309</ele>
        <time>2016-09-03T10:08:19Z</time>
      </trkpt>
      <trkpt lat="47.43739" lon="6.5984">
        <ele>308</ele>
        <time>2016-09-03T10:08:21Z</time>
      </trkpt>
      <trkpt lat="47.43762" lon="6.59836">
        <ele>306</ele>
        <time>2016-09-03T10:08:24Z</time>
      </trkpt>
      <trkpt lat="47.43768" lon="6.59833">
        <ele>306</ele>
        <time>2016-09-03T10:08:25Z</time>
      </trkpt>
      <trkpt lat="47.43783" lon="6.59831">
        <ele>305</ele>
        <time>2016-09-03T10:08:27Z</time>
      </trkpt>
      <trkpt lat="47.43808" lon="6.59826">
        <ele>302</ele>
        <time>2016-09-03T10:08:30Z</time>
      </trkpt>
      <trkpt lat="47.43823" lon="6.59821">
        <ele>302</ele>
        <time>2016-09-03T10:08:32Z</time>
      </trkpt>
      <trkpt lat="47.43837" lon="6.59815">
        <ele>302</ele>
        <time>2016-09-03T10:08:34Z</time>
      </trkpt>
      <trkpt lat="47.43851" lon="6.59812">
        <ele>302</ele>
        <time>2016-09-03T10:08:36Z</time>
      </trkpt>
      <trkpt lat="47.43867" lon="6.59811">
        <ele>301</ele>
        <time>2016-09-03T10:08:38Z</time>
      </trkpt>
      <trkpt lat="47.43874" lon="6.59808">
        <ele>301</ele>
        <time>2016-09-03T10:08:39Z</time>
      </trkpt>
      <trkpt lat="47.43889" lon="6.59805">
        <ele>301</ele>
        <time>2016-09-03T10:08:41Z</time>
      </trkpt>
      <trkpt lat="47.43903" lon="6.59804">
        <ele>301</ele>
        <time>2016-09-03T10:08:43Z</time>
      </trkpt>
      <trkpt lat="47.43924" lon="6.59799">
        <ele>301</ele>
        <time>2016-09-03T10:08:46Z</time>
      </trkpt>
      <trkpt lat="47.4393" lon="6.59798">
        <ele>301</ele>
        <time>2016-09-03T10:08:47Z</time>
      </trkpt>
      <trkpt lat="47.43943" lon="6.59795">
        <ele>301</ele>
        <time>2016-09-03T10:08:49Z</time>
      </trkpt>
      <trkpt lat="47.43964" lon="6.59793">
        <ele>302</ele>
        <time>2016-09-03T10:08:52Z</time>
      </trkpt>
      <trkpt lat="47.43971" lon="6.59791">
        <ele>302</ele>
        <time>2016-09-03T10:08:53Z</time>
      </trkpt>
      <trkpt lat="47.43985" lon="6.5979">
        <ele>302</ele>
        <time>2016-09-03T10:08:55Z</time>
      </trkpt>
      <trkpt lat="47.43999" lon="6.59787">
        <ele>303</ele>
        <time>2016-09-03T10:08:57Z</time>
      </trkpt>
      <trkpt lat="47.44012" lon="6.59785">
        <ele>303</ele>
        <time>2016-09-03T10:08:59Z</time>
      </trkpt>
      <trkpt lat="47.44026" lon="6.59783">
        <ele>304</ele>
        <time>2016-09-03T10:09:01Z</time>
      </trkpt>
      <trkpt lat="47.44042" lon="6.59781">
        <ele>305</ele>
        <time>2016-09-03T10:09:03Z</time>
      </trkpt>
      <trkpt lat="47.44056" lon="6.59778">
        <ele>306</ele>
        <time>2016-09-03T10:09:05Z</time>
      </trkpt>
      <trkpt lat="47.4407" lon="6.59776">
        <ele>307</ele>
        <time>2016-09-03T10:09:07Z</time>
      </trkpt>
      <trkpt lat="47.44084" lon="6.59773">
        <ele>308</ele>
        <time>2016-09-03T10:09:09Z</time>
      </trkpt>
      <trkpt lat="47.44099" lon="6.5977">
        <ele>309</ele>
        <time>2016-09-03T10:09:11Z</time>
      </trkpt>
      <trkpt lat="47.44112" lon="6.59767">
        <ele>311</ele>
        <time>2016-09-03T10:09:13Z</time>
      </trkpt>
      <trkpt lat="47.44126" lon="6.59765">
        <ele>312</ele>
        <time>2016-09-03T10:09:15Z</time>
      </trkpt>
      <trkpt lat="47.44139" lon="6.59761">
        <ele>314</ele>
        <time>2016-09-03T10:09:17Z</time>
      </trkpt>
      <trkpt lat="47.44159" lon="6.5976">
        <ele>315</ele>
        <time>2016-09-03T10:09:20Z</time>
      </trkpt>
      <trkpt lat="47.44166" lon="6.59758">
        <ele>315</ele>
        <time>2016-09-03T10:09:21Z</time>
      </trkpt>
      <trkpt lat="47.44179" lon="6.59756">
        <ele>316</ele>
        <time>2016-09-03T10:09:23Z</time>
      </trkpt>
      <trkpt lat="47.44201" lon="6.59754">
        <ele>316</ele>
        <time>2016-09-03T10:09:26Z</time>
      </trkpt>
      <trkpt lat="47.44216" lon="6.5975">
        <ele>317</ele>
        <time>2016-09-03T10:09:28Z</time>
      </trkpt>
      <trkpt lat="47.44224" lon="6.59748">
        <ele>317</ele>
        <time>2016-09-03T10:09:29Z</time>
      </trkpt>
      <trkpt lat="47.44238" lon="6.59747">
        <ele>318</ele>
        <time>2016-09-03T10:09:31Z</time>
      </trkpt>
      <trkpt lat="47.44251" lon="6.59746">
        <ele>318</ele>
        <time>2016-09-03T10:09:33Z</time>
      </trkpt>
      <trkpt lat="47.44264" lon="6.59743">
        <ele>318</ele>
        <time>2016-09-03T10:09:35Z</time>
      </trkpt>
      <trkpt lat="47.44283" lon="6.59736">
        <ele>320</ele>
        <time>2016-09-03T10:09:38Z</time>
      </trkpt>
      <trkpt lat="47.44296" lon="6.59731">
        <ele>322</ele>
        <time>2016-09-03T10:09:40Z</time>
      </trkpt>
      <trkpt lat="47.44303" lon="6.5973">
        <ele>322</ele>
        <time>2016-09-03T10:09:41Z</time>
      </trkpt>
      <trkpt lat="47.44327" lon="6.59727">
        <ele>320</ele>
        <time>2016-09-03T10:09:44Z</time>
      </trkpt>
      <trkpt lat="47.44334" lon="6.59728">
        <ele>319</ele>
        <time>2016-09-03T10:09:45Z</time>
      </trkpt>
      <trkpt lat="47.44347" lon="6.59722">
        <ele>320</ele>
        <time>2016-09-03T10:09:47Z</time>
      </trkpt>
      <trkpt lat="47.4436" lon="6.5972">
        <ele>319</ele>
        <time>2016-09-03T10:09:49Z</time>
      </trkpt>
      <trkpt lat="47.44372" lon="6.59718">
        <ele>319</ele>
        <time>2016-09-03T10:09:51Z</time>
      </trkpt>
      <trkpt lat="47.44393" lon="6.59714">
        <ele>319</ele>
        <time>2016-09-03T10:09:54Z</time>
      </trkpt>
      <trkpt lat="47.444" lon="6.59712">
        <ele>319</ele>
        <time>2016-09-03T10:09:55Z</time>
      </trkpt>
      <trkpt lat="47.44421" lon="6.59712">
        <ele>318</ele>
        <time>2016-09-03T10:09:58Z</time>
      </trkpt>
      <trkpt lat="47.44435" lon="6.59712">
        <ele>317</ele>
        <time>2016-09-03T10:10:00Z</time>
      </trkpt>
      <trkpt lat="47.44443" lon="6.59713">
        <ele>317</ele>
        <time>2016-09-03T10:10:01Z</time>
      </trkpt>
      <trkpt lat="47.44458" lon="6.59713">
        <ele>317</ele>
        <time>2016-09-03T10:10:03Z</time>
      </trkpt>
      <trkpt lat="47.4448" lon="6.59713">
        <ele>317</ele>
        <time>2016-09-03T10:10:06Z</time>
      </trkpt>
      <trkpt lat="47.44486" lon="6.59713">
        <ele>317</ele>
        <time>2016-09-03T10:10:07Z</time>
      </trkpt>
      <trkpt lat="47.44501" lon="6.59712">
        <ele>318</ele>
        <time>2016-09-03T10:10:09Z</time>
      </trkpt>
      <trkpt lat="47.44513" lon="6.59712">
        <ele>318</ele>
        <time>2016-09-03T10:10:11Z</time>
      </trkpt>
      <trkpt lat="47.44525" lon="6.59711">
        <ele>319</ele>
        <time>2016-09-03T10:10:13Z</time>
      </trkpt>
      <trkpt lat="47.44539" lon="6.5971">
        <ele>320</ele>
        <time>2016-09-03T10:10:15Z</time>
      </trkpt>
      <trkpt lat="47.4456" lon="6.5971">
        <ele>319</ele>
        <time>2016-09-03T10:10:18Z</time>
      </trkpt>
      <trkpt lat="47.44574" lon="6.59712">
        <ele>317</ele>
        <time>2016-09-03T10:10:20Z</time>
      </trkpt>
      <trkpt lat="47.44581" lon="6.5971">
        <ele>317</ele>
        <time>2016-09-03T10:10:21Z</time>
      </trkpt>
      <trkpt lat="47.44606" lon="6.59715">
        <ele>314</ele>
        <time>2016-09-03T10:10:24Z</time>
      </trkpt>
      <trkpt lat="47.44612" lon="6.59715">
        <ele>314</ele>
        <time>2016-09-03T10:10:25Z</time>
      </trkpt>
      <trkpt lat="47.44626" lon="6.59716">
        <ele>313</ele>
        <time>2016-09-03T10:10:27Z</time>
      </trkpt>
      <trkpt lat="47.44648" lon="6.59719">
        <ele>311</ele>
        <time>2016-09-03T10:10:30Z</time>
      </trkpt>
      <trkpt lat="47.44662" lon="6.59719">
        <ele>310</ele>
        <time>2016-09-03T10:10:32Z</time>
      </trkpt>
      <trkpt lat="47.44668" lon="6.59718">
        <ele>310</ele>
        <time>2016-09-03T10:10:33Z</time>
      </trkpt>
      <trkpt lat="47.44681" lon="6.59714">
        <ele>311</ele>
        <time>2016-09-03T10:10:35Z</time>
      </trkpt>
      <trkpt lat="47.44694" lon="6.59713">
        <ele>311</ele>
        <time>2016-09-03T10:10:37Z</time>
      </trkpt>
      <trkpt lat="47.44707" lon="6.59709">
        <ele>311</ele>
        <time>2016-09-03T10:10:39Z</time>
      </trkpt>
      <trkpt lat="47.44721" lon="6.59705">
        <ele>311</ele>
        <time>2016-09-03T10:10:41Z</time>
      </trkpt>
      <trkpt lat="47.44734" lon="6.59702">
        <ele>311</ele>
        <time>2016-09-03T10:10:43Z</time>
      </trkpt>
      <trkpt lat="47.44756" lon="6.59698">
        <ele>309</ele>
        <time>2016-09-03T10:10:46Z</time>
      </trkpt>
      <trkpt lat="47.44763" lon="6.59695">
        <ele>309</ele>
        <time>2016-09-03T10:10:47Z</time>
      </trkpt>
      <trkpt lat="47.44777" lon="6.59692">
        <ele>308</ele>
        <time>2016-09-03T10:10:49Z</time>
      </trkpt>
      <trkpt lat="47.44791" lon="6.59687">
        <ele>306</ele>
        <time>2016-09-03T10:10:51Z</time>
      </trkpt>
      <trkpt lat="47.44806" lon="6.59683">
        <ele>305</ele>
        <time>2016-09-03T10:10:53Z</time>
      </trkpt>
      <trkpt lat="47.4482" lon="6.59674">
        <ele>305</ele>
        <time>2016-09-03T10:10:55Z</time>
      </trkpt>
      <trkpt lat="47.44835" lon="6.59668">
        <ele>304</ele>
        <time>2016-09-03T10:10:57Z</time>
      </trkpt>
      <trkpt lat="47.44849" lon="6.59663">
        <ele>304</ele>
        <time>2016-09-03T10:10:59Z</time>
      </trkpt>
      <trkpt lat="47.44862" lon="6.59654">
        <ele>303</ele>
        <time>2016-09-03T10:11:01Z</time>
      </trkpt>
      <trkpt lat="47.44875" lon="6.59648">
        <ele>302</ele>
        <time>2016-09-03T10:11:03Z</time>
      </trkpt>
      <trkpt lat="47.44887" lon="6.59639">
        <ele>302</ele>
        <time>2016-09-03T10:11:05Z</time>
      </trkpt>
      <trkpt lat="47.44901" lon="6.59628">
        <ele>302</ele>
        <time>2016-09-03T10:11:07Z</time>
      </trkpt>
      <trkpt lat="47.44911" lon="6.59617">
        <ele>302</ele>
        <time>2016-09-03T10:11:09Z</time>
      </trkpt>
      <trkpt lat="47.44927" lon="6.59605">
        <ele>302</ele>
        <time>2016-09-03T10:11:12Z</time>
      </trkpt>
      <trkpt lat="47.44934" lon="6.59602">
        <ele>302</ele>
        <time>2016-09-03T10:11:13Z</time>
      </trkpt>
      <trkpt lat="47.44948" lon="6.59593">
        <ele>301</ele>
        <time>2016-09-03T10:11:15Z</time>
      </trkpt>
      <trkpt lat="47.44967" lon="6.59575">
        <ele>302</ele>
        <time>2016-09-03T10:11:18Z</time>
      </trkpt>
      <trkpt lat="47.44975" lon="6.59572">
        <ele>301</ele>
        <time>2016-09-03T10:11:19Z</time>
      </trkpt>
      <trkpt lat="47.44992" lon="6.59561">
        <ele>301</ele>
        <time>2016-09-03T10:11:22Z</time>
      </trkpt>
      <trkpt lat="47.45005" lon="6.59551">
        <ele>301</ele>
        <time>2016-09-03T10:11:24Z</time>
      </trkpt>
      <trkpt lat="47.45011" lon="6.59545">
        <ele>301</ele>
        <time>2016-09-03T10:11:25Z</time>
      </trkpt>
      <trkpt lat="47.45023" lon="6.59537">
        <ele>301</ele>
        <time>2016-09-03T10:11:27Z</time>
      </trkpt>
      <trkpt lat="47.45032" lon="6.59527">
        <ele>301</ele>
        <time>2016-09-03T10:11:29Z</time>
      </trkpt>
      <trkpt lat="47.45046" lon="6.59518">
        <ele>301</ele>
        <time>2016-09-03T10:11:31Z</time>
      </trkpt>
      <trkpt lat="47.45057" lon="6.59506">
        <ele>301</ele>
        <time>2016-09-03T10:11:33Z</time>
      </trkpt>
      <trkpt lat="47.4507" lon="6.59494">
        <ele>300</ele>
        <time>2016-09-03T10:11:35Z</time>
      </trkpt>
      <trkpt lat="47.45085" lon="6.59476">
        <ele>299</ele>
        <time>2016-09-03T10:11:38Z</time>
      </trkpt>
      <trkpt lat="47.45091" lon="6.59468">
        <ele>299</ele>
        <time>2016-09-03T10:11:39Z</time>
      </trkpt>
      <trkpt lat="47.45099" lon="6.5945">
        <ele>299</ele>
        <time>2016-09-03T10:11:41Z</time>
      </trkpt>
      <trkpt lat="47.45113" lon="6.59429">
        <ele>297</ele>
        <time>2016-09-03T10:11:44Z</time>
      </trkpt>
      <trkpt lat="47.45129" lon="6.59418">
        <ele>295</ele>
        <time>2016-09-03T10:11:46Z</time>
      </trkpt>
      <trkpt lat="47.45134" lon="6.59411">
        <ele>295</ele>
        <time>2016-09-03T10:11:47Z</time>
      </trkpt>
      <trkpt lat="47.45146" lon="6.59397">
        <ele>294</ele>
        <time>2016-09-03T10:11:49Z</time>
      </trkpt>
      <trkpt lat="47.45153" lon="6.59379">
        <ele>294</ele>
        <time>2016-09-03T10:11:51Z</time>
      </trkpt>
      <trkpt lat="47.45162" lon="6.59363">
        <ele>294</ele>
        <time>2016-09-03T10:11:53Z</time>
      </trkpt>
      <trkpt lat="47.45168" lon="6.59344">
        <ele>294</ele>
        <time>2016-09-03T10:11:55Z</time>
      </trkpt>
      <trkpt lat="47.45174" lon="6.59327">
        <ele>294</ele>
        <time>2016-09-03T10:11:57Z</time>
      </trkpt>
      <trkpt lat="47.45181" lon="6.59309">
        <ele>294</ele>
        <time>2016-09-03T10:11:59Z</time>
      </trkpt>
      <trkpt lat="47.4519" lon="6.5928">
        <ele>295</ele>
        <time>2016-09-03T10:12:02Z</time>
      </trkpt>
      <trkpt lat="47.45192" lon="6.59271">
        <ele>294</ele>
        <time>2016-09-03T10:12:03Z</time>
      </trkpt>
      <trkpt lat="47.45199" lon="6.5924">
        <ele>294</ele>
        <time>2016-09-03T10:12:06Z</time>
      </trkpt>
      <trkpt lat="47.45201" lon="6.5923">
        <ele>294</ele>
        <time>2016-09-03T10:12:07Z</time>
      </trkpt>
      <trkpt lat="47.45205" lon="6.59209">
        <ele>294</ele>
        <time>2016-09-03T10:12:09Z</time>
      </trkpt>
      <trkpt lat="47.45208" lon="6.59189">
        <ele>294</ele>
        <time>2016-09-03T10:12:11Z</time>
      </trkpt>
      <trkpt lat="47.45211" lon="6.59159">
        <ele>294</ele>
        <time>2016-09-03T10:12:14Z</time>
      </trkpt>
      <trkpt lat="47.45214" lon="6.59148">
        <ele>294</ele>
        <time>2016-09-03T10:12:15Z</time>
      </trkpt>
      <trkpt lat="47.45216" lon="6.59128">
        <ele>294</ele>
        <time>2016-09-03T10:12:17Z</time>
      </trkpt>
      <trkpt lat="47.45219" lon="6.59106">
        <ele>294</ele>
        <time>2016-09-03T10:12:19Z</time>
      </trkpt>
      <trkpt lat="47.4522" lon="6.59087">
        <ele>294</ele>
        <time>2016-09-03T10:12:21Z</time>
      </trkpt>
      <trkpt lat="47.45221" lon="6.59052">
        <ele>294</ele>
        <time>2016-09-03T10:12:24Z</time>
      </trkpt>
      <trkpt lat="47.4522" lon="6.59042">
        <ele>294</ele>
        <time>2016-09-03T10:12:25Z</time>
      </trkpt>
      <trkpt lat="47.45221" lon="6.59022">
        <ele>293</ele>
        <time>2016-09-03T10:12:27Z</time>
      </trkpt>
      <trkpt lat="47.45224" lon="6.59001">
        <ele>293</ele>
        <time>2016-09-03T10:12:29Z</time>
      </trkpt>
      <trkpt lat="47.45226" lon="6.58984">
        <ele>293</ele>
        <time>2016-09-03T10:12:31Z</time>
      </trkpt>
      <trkpt lat="47.45229" lon="6.58965">
        <ele>293</ele>
        <time>2016-09-03T10:12:33Z</time>
      </trkpt>
      <trkpt lat="47.45232" lon="6.58952">
        <ele>293</ele>
        <time>2016-09-03T10:12:35Z</time>
      </trkpt>
      <trkpt lat="47.45233" lon="6.58939">
        <ele>293</ele>
        <time>2016-09-03T10:12:38Z</time>
      </trkpt>
      <trkpt lat="47.4523" lon="6.58931">
        <ele>293</ele>
        <time>2016-09-03T10:12:39Z</time>
      </trkpt>
      <trkpt lat="47.45222" lon="6.58916">
        <ele>293</ele>
        <time>2016-09-03T10:12:42Z</time>
      </trkpt>
      <trkpt lat="47.45219" lon="6.58911">
        <ele>293</ele>
        <time>2016-09-03T10:12:43Z</time>
      </trkpt>
      <trkpt lat="47.45211" lon="6.58891">
        <ele>293</ele>
        <time>2016-09-03T10:12:46Z</time>
      </trkpt>
      <trkpt lat="47.45208" lon="6.58883">
        <ele>293</ele>
        <time>2016-09-03T10:12:47Z</time>
      </trkpt>
      <trkpt lat="47.45203" lon="6.58868">
        <ele>293</ele>
        <time>2016-09-03T10:12:49Z</time>
      </trkpt>
      <trkpt lat="47.45198" lon="6.5885">
        <ele>293</ele>
        <time>2016-09-03T10:12:51Z</time>
      </trkpt>
      <trkpt lat="47.45194" lon="6.58834">
        <ele>293</ele>
        <time>2016-09-03T10:12:53Z</time>
      </trkpt>
      <trkpt lat="47.45189" lon="6.58816">
        <ele>293</ele>
        <time>2016-09-03T10:12:55Z</time>
      </trkpt>
      <trkpt lat="47.45184" lon="6.58798">
        <ele>293</ele>
        <time>2016-09-03T10:12:57Z</time>
      </trkpt>
      <trkpt lat="47.45179" lon="6.58781">
        <ele>293</ele>
        <time>2016-09-03T10:12:59Z</time>
      </trkpt>
      <trkpt lat="47.45174" lon="6.58764">
        <ele>293</ele>
        <time>2016-09-03T10:13:01Z</time>
      </trkpt>
      <trkpt lat="47.45168" lon="6.58747">
        <ele>293</ele>
        <time>2016-09-03T10:13:03Z</time>
      </trkpt>
      <trkpt lat="47.45163" lon="6.58728">
        <ele>293</ele>
        <time>2016-09-03T10:13:05Z</time>
      </trkpt>
      <trkpt lat="47.45159" lon="6.58711">
        <ele>293</ele>
        <time>2016-09-03T10:13:07Z</time>
      </trkpt>
      <trkpt lat="47.45153" lon="6.58694">
        <ele>293</ele>
        <time>2016-09-03T10:13:09Z</time>
      </trkpt>
      <trkpt lat="47.45147" lon="6.58676">
        <ele>293</ele>
        <time>2016-09-03T10:13:11Z</time>
      </trkpt>
      <trkpt lat="47.45141" lon="6.5866">
        <ele>294</ele>
        <time>2016-09-03T10:13:13Z</time>
      </trkpt>
      <trkpt lat="47.45135" lon="6.58643">
        <ele>294</ele>
        <time>2016-09-03T10:13:15Z</time>
      </trkpt>
      <trkpt lat="47.4513" lon="6.58626">
        <ele>294</ele>
        <time>2016-09-03T10:13:17Z</time>
      </trkpt>
      <trkpt lat="47.45123" lon="6.58608">
        <ele>293</ele>
        <time>2016-09-03T10:13:19Z</time>
      </trkpt>
      <trkpt lat="47.45116" lon="6.58592">
        <ele>293</ele>
        <time>2016-09-03T10:13:21Z</time>
      </trkpt>
      <trkpt lat="47.4511" lon="6.58578">
        <ele>293</ele>
        <time>2016-09-03T10:13:23Z</time>
      </trkpt>
      <trkpt lat="47.45104" lon="6.58559">
        <ele>293</ele>
        <time>2016-09-03T10:13:25Z</time>
      </trkpt>
      <trkpt lat="47.45098" lon="6.58542">
        <ele>293</ele>
        <time>2016-09-03T10:13:27Z</time>
      </trkpt>
      <trkpt lat="47.4509" lon="6.58525">
        <ele>293</ele>
        <time>2016-09-03T10:13:29Z</time>
      </trkpt>
      <trkpt lat="47.45083" lon="6.58508">
        <ele>293</ele>
        <time>2016-09-03T10:13:31Z</time>
      </trkpt>
      <trkpt lat="47.45075" lon="6.58494">
        <ele>293</ele>
        <time>2016-09-03T10:13:33Z</time>
      </trkpt>
      <trkpt lat="47.45063" lon="6.58471">
        <ele>292</ele>
        <time>2016-09-03T10:13:36Z</time>
      </trkpt>
      <trkpt lat="47.45058" lon="6.58462">
        <ele>292</ele>
        <time>2016-09-03T10:13:37Z</time>
      </trkpt>
      <trkpt lat="47.45049" lon="6.58447">
        <ele>292</ele>
        <time>2016-09-03T10:13:39Z</time>
      </trkpt>
      <trkpt lat="47.4504" lon="6.58432">
        <ele>292</ele>
        <time>2016-09-03T10:13:41Z</time>
      </trkpt>
      <trkpt lat="47.45032" lon="6.58419">
        <ele>292</ele>
        <time>2016-09-03T10:13:43Z</time>
      </trkpt>
      <trkpt lat="47.45024" lon="6.58406">
        <ele>292</ele>
        <time>2016-09-03T10:13:45Z</time>
      </trkpt>
      <trkpt lat="47.45014" lon="6.58388">
        <ele>292</ele>
        <time>2016-09-03T10:13:48Z</time>
      </trkpt>
      <trkpt lat="47.45011" lon="6.58383">
        <ele>292</ele>
        <time>2016-09-03T10:13:49Z</time>
      </trkpt>
      <trkpt lat="47.45004" lon="6.58372">
        <ele>292</ele>
        <time>2016-09-03T10:13:51Z</time>
      </trkpt>
      <trkpt lat="47.44996" lon="6.58357">
        <ele>292</ele>
        <time>2016-09-03T10:13:54Z</time>
      </trkpt>
      <trkpt lat="47.4499" lon="6.58346">
        <ele>292</ele>
        <time>2016-09-03T10:13:56Z</time>
      </trkpt>
      <trkpt lat="47.44987" lon="6.5834">
        <ele>292</ele>
        <time>2016-09-03T10:13:57Z</time>
      </trkpt>
      <trkpt lat="47.4498" lon="6.5833">
        <ele>292</ele>
        <time>2016-09-03T10:13:59Z</time>
      </trkpt>
      <trkpt lat="47.44973" lon="6.5832">
        <ele>291</ele>
        <time>2016-09-03T10:14:01Z</time>
      </trkpt>
      <trkpt lat="47.44963" lon="6.58306">
        <ele>291</ele>
        <time>2016-09-03T10:14:04Z</time>
      </trkpt>
      <trkpt lat="47.44955" lon="6.58298">
        <ele>291</ele>
        <time>2016-09-03T10:14:06Z</time>
      </trkpt>
      <trkpt lat="47.44952" lon="6.58294">
        <ele>291</ele>
        <time>2016-09-03T10:14:07Z</time>
      </trkpt>
      <trkpt lat="47.44945" lon="6.58285">
        <ele>291</ele>
        <time>2016-09-03T10:14:09Z</time>
      </trkpt>
      <trkpt lat="47.44939" lon="6.58276">
        <ele>291</ele>
        <time>2016-09-03T10:14:11Z</time>
      </trkpt>
      <trkpt lat="47.44933" lon="6.5827">
        <ele>291</ele>
        <time>2016-09-03T10:14:13Z</time>
      </trkpt>
      <trkpt lat="47.44928" lon="6.58263">
        <ele>291</ele>
        <time>2016-09-03T10:14:15Z</time>
      </trkpt>
      <trkpt lat="47.44924" lon="6.58257">
        <ele>291</ele>
        <time>2016-09-03T10:14:17Z</time>
      </trkpt>
      <trkpt lat="47.44922" lon="6.58249">
        <ele>291</ele>
        <time>2016-09-03T10:14:20Z</time>
      </trkpt>
      <trkpt lat="47.4492" lon="6.58248">
        <ele>291</ele>
        <time>2016-09-03T10:14:22Z</time>
      </trkpt>
      <trkpt lat="47.4492" lon="6.58249">
        <ele>291</ele>
        <time>2016-09-03T10:14:23Z</time>
      </trkpt>
      <trkpt lat="47.44919" lon="6.5825">
        <ele>291</ele>
        <time>2016-09-03T10:14:25Z</time>
      </trkpt>
      <trkpt lat="47.44918" lon="6.58251">
        <ele>291</ele>
        <time>2016-09-03T10:14:27Z</time>
      </trkpt>
      <trkpt lat="47.44916" lon="6.58252">
        <ele>291</ele>
        <time>2016-09-03T10:14:30Z</time>
      </trkpt>
      <trkpt lat="47.44916" lon="6.58251">
        <ele>291</ele>
        <time>2016-09-03T10:14:31Z</time>
      </trkpt>
      <trkpt lat="47.44917" lon="6.5825">
        <ele>291</ele>
        <time>2016-09-03T10:14:33Z</time>
      </trkpt>
      <trkpt lat="47.44916" lon="6.5825">
        <ele>291</ele>
        <time>2016-09-03T10:14:35Z</time>
      </trkpt>
      <trkpt lat="47.44916" lon="6.58251">
        <ele>291</ele>
        <time>2016-09-03T10:14:38Z</time>
      </trkpt>
      <trkpt lat="47.44916" lon="6.58251">
        <ele>291</ele>
        <time>2016-09-03T10:14:39Z</time>
      </trkpt>
      <trkpt lat="47.44915" lon="6.58251">
        <ele>291</ele>
        <time>2016-09-03T10:14:41Z</time>
      </trkpt>
      <trkpt lat="47.44916" lon="6.58251">
        <ele>291</ele>
        <time>2016-09-03T10:14:43Z</time>
      </trkpt>
      <trkpt lat="47.44915" lon="6.58251">
        <ele>291</ele>
        <time>2016-09-03T10:14:45Z</time>
      </trkpt>
      <trkpt lat="47.44915" lon="6.58251">
        <ele>291</ele>
        <time>2016-09-03T10:14:47Z</time>
      </trkpt>
      <trkpt lat="47.44916" lon="6.58252">
        <ele>291</ele>
        <time>2016-09-03T10:14:49Z</time>
      </trkpt>
    </trkseg>
  </trk>
</gpx>